<?xml version="1.0" encoding="UTF-8" standalone="no" ?>
<gpx xmlns="http://www.topografix.com/GPX/1/1" xmlns:xsi="http://www.w3.org/2001/XMLSchema-instance" xsi:schemaLocation="http://www.topografix.com/GPX/1/1 http://www.topografix.com/GPX/1/1/gpx.xsd" version="1.1" creator="VisuGPX - https://www.visugpx.com">
  <metadata>
    <name>Montferrier 2018 pinedes du lez</name>
    <desc><![CDATA[
]]></desc>
  </metadata>
  <wpt lat="43.66535" lon="3.8559">
    <ele>80.7</ele>
    <name><![CDATA[Montferrier  (départ)]]></name>
  </wpt>
  <wpt lat="43.66742" lon="3.85752">
    <ele>75.3</ele>
    <name><![CDATA[Montferrier  (fin)]]></name>
    <desc><![CDATA[Créé par Mes parcours sur Android

Nom : Montferrier 
Type d'activité : cyclisme
Description : -
Distance totale : 32,47 km (20,2 mi)
Durée totale : 2:50:53
Durée du déplacement : 2:46:00
Vitesse moyenne : 11,40 km/h (7,1 mi/h)
Vitesse moyenne de déplacement : 11,74 km/h (7,3 mi/h)
Vitesse max. : 34,34 km/h (21,3 mi/h)
Vitesse moyenne : 5:16 min/km (8:28 min/mi)
Allure moyenne : 5:07 min/km (8:14 min/mi)
Vitesse maximale : 1:45 min/km (2:49 min/mi)
Élévation max. : 184 m (604 pi)
Élévation min. : 92 m (303 pi)
Dénivelé : 605 m (1984 pi)
Pente max. : 17 %
Pente min. : -16 %
Date d'enregistrement : 16/9/2018 08:12]]></desc>
  </wpt>
  <trk>
    <name><![CDATA[Montferrier]]></name>
    <desc><![CDATA[<table cellspacing="0" cellpadding="2" border="1" style="border-collapse:collapse"><tr><td><b>type</b></td><td>cyclisme</td></tr></table>]]></desc>
    <extensions>
      <line xmlns="http://www.topografix.com/GPX/gpx_style/0/2">
        <color>0000FF</color>
        <width>4</width>
      </line>
    </extensions>
    <trkseg>
      <trkpt lat="43.66535" lon="3.8559">
        <ele>80.7</ele>
        <time>2018-09-16T06:12:47.299Z</time>
      </trkpt>
      <trkpt lat="43.66526" lon="3.8559">
        <ele>80.9</ele>
        <time>2018-09-16T06:13:59Z</time>
      </trkpt>
      <trkpt lat="43.66525" lon="3.8559">
        <ele>80.9</ele>
        <time>2018-09-16T06:14:00Z</time>
      </trkpt>
      <trkpt lat="43.66518" lon="3.85592">
        <ele>80.6</ele>
        <time>2018-09-16T06:14:06Z</time>
      </trkpt>
      <trkpt lat="43.66516" lon="3.85592">
        <ele>80.6</ele>
        <time>2018-09-16T06:14:07Z</time>
      </trkpt>
      <trkpt lat="43.66507" lon="3.85594">
        <ele>80.3</ele>
        <time>2018-09-16T06:14:10Z</time>
      </trkpt>
      <trkpt lat="43.66504" lon="3.85595">
        <ele>80.1</ele>
        <time>2018-09-16T06:14:11Z</time>
      </trkpt>
      <trkpt lat="43.66497" lon="3.85599">
        <ele>80</ele>
        <time>2018-09-16T06:14:14Z</time>
      </trkpt>
      <trkpt lat="43.66495" lon="3.85603">
        <ele>80</ele>
        <time>2018-09-16T06:14:15Z</time>
      </trkpt>
      <trkpt lat="43.66494" lon="3.85614">
        <ele>80.1</ele>
        <time>2018-09-16T06:14:16Z</time>
      </trkpt>
      <trkpt lat="43.66495" lon="3.85621">
        <ele>80.3</ele>
        <time>2018-09-16T06:14:17Z</time>
      </trkpt>
      <trkpt lat="43.66495" lon="3.85632">
        <ele>80.6</ele>
        <time>2018-09-16T06:14:19Z</time>
      </trkpt>
      <trkpt lat="43.66496" lon="3.85634">
        <ele>80.7</ele>
        <time>2018-09-16T06:14:20Z</time>
      </trkpt>
      <trkpt lat="43.66499" lon="3.85645">
        <ele>81</ele>
        <time>2018-09-16T06:14:23Z</time>
      </trkpt>
      <trkpt lat="43.66499" lon="3.85648">
        <ele>81</ele>
        <time>2018-09-16T06:14:24Z</time>
      </trkpt>
      <trkpt lat="43.665" lon="3.85658">
        <ele>81</ele>
        <time>2018-09-16T06:14:27Z</time>
      </trkpt>
      <trkpt lat="43.665" lon="3.85662">
        <ele>81</ele>
        <time>2018-09-16T06:14:28Z</time>
      </trkpt>
      <trkpt lat="43.66502" lon="3.8567">
        <ele>81.1</ele>
        <time>2018-09-16T06:14:30Z</time>
      </trkpt>
      <trkpt lat="43.66504" lon="3.85674">
        <ele>81.2</ele>
        <time>2018-09-16T06:14:31Z</time>
      </trkpt>
      <trkpt lat="43.66508" lon="3.85682">
        <ele>81.4</ele>
        <time>2018-09-16T06:14:33Z</time>
      </trkpt>
      <trkpt lat="43.66515" lon="3.85695">
        <ele>81.5</ele>
        <time>2018-09-16T06:14:34Z</time>
      </trkpt>
      <trkpt lat="43.66523" lon="3.85696">
        <ele>81.2</ele>
        <time>2018-09-16T06:14:36Z</time>
      </trkpt>
      <trkpt lat="43.66527" lon="3.85698">
        <ele>81.2</ele>
        <time>2018-09-16T06:14:37Z</time>
      </trkpt>
      <trkpt lat="43.66534" lon="3.85698">
        <ele>80.9</ele>
        <time>2018-09-16T06:14:39Z</time>
      </trkpt>
      <trkpt lat="43.66537" lon="3.85696">
        <ele>80.7</ele>
        <time>2018-09-16T06:14:40Z</time>
      </trkpt>
      <trkpt lat="43.6654" lon="3.85696">
        <ele>80.6</ele>
        <time>2018-09-16T06:14:41Z</time>
      </trkpt>
      <trkpt lat="43.66546" lon="3.85694">
        <ele>80.3</ele>
        <time>2018-09-16T06:14:42Z</time>
      </trkpt>
      <trkpt lat="43.66553" lon="3.85695">
        <ele>80.1</ele>
        <time>2018-09-16T06:14:43Z</time>
      </trkpt>
      <trkpt lat="43.66557" lon="3.85695">
        <ele>80</ele>
        <time>2018-09-16T06:14:44Z</time>
      </trkpt>
      <trkpt lat="43.66563" lon="3.85695">
        <ele>80</ele>
        <time>2018-09-16T06:14:45Z</time>
      </trkpt>
      <trkpt lat="43.66568" lon="3.85696">
        <ele>80</ele>
        <time>2018-09-16T06:14:46Z</time>
      </trkpt>
      <trkpt lat="43.66575" lon="3.85696">
        <ele>80</ele>
        <time>2018-09-16T06:14:47Z</time>
      </trkpt>
      <trkpt lat="43.66578" lon="3.85695">
        <ele>80</ele>
        <time>2018-09-16T06:14:48Z</time>
      </trkpt>
      <trkpt lat="43.66583" lon="3.85695">
        <ele>80</ele>
        <time>2018-09-16T06:14:49Z</time>
      </trkpt>
      <trkpt lat="43.66588" lon="3.85695">
        <ele>79.8</ele>
        <time>2018-09-16T06:14:50Z</time>
      </trkpt>
      <trkpt lat="43.66593" lon="3.85696">
        <ele>79.7</ele>
        <time>2018-09-16T06:14:51Z</time>
      </trkpt>
      <trkpt lat="43.66597" lon="3.85697">
        <ele>79.6</ele>
        <time>2018-09-16T06:14:52Z</time>
      </trkpt>
      <trkpt lat="43.66606" lon="3.85697">
        <ele>79.3</ele>
        <time>2018-09-16T06:14:54Z</time>
      </trkpt>
      <trkpt lat="43.66611" lon="3.85699">
        <ele>79.2</ele>
        <time>2018-09-16T06:14:55Z</time>
      </trkpt>
      <trkpt lat="43.66615" lon="3.85707">
        <ele>79.3</ele>
        <time>2018-09-16T06:14:57Z</time>
      </trkpt>
      <trkpt lat="43.66618" lon="3.85711">
        <ele>79.3</ele>
        <time>2018-09-16T06:14:58Z</time>
      </trkpt>
      <trkpt lat="43.66622" lon="3.85722">
        <ele>79.6</ele>
        <time>2018-09-16T06:15:01Z</time>
      </trkpt>
      <trkpt lat="43.66623" lon="3.85731">
        <ele>79.6</ele>
        <time>2018-09-16T06:15:02Z</time>
      </trkpt>
      <trkpt lat="43.66624" lon="3.85742">
        <ele>79.5</ele>
        <time>2018-09-16T06:15:05Z</time>
      </trkpt>
      <trkpt lat="43.66622" lon="3.85745">
        <ele>79.6</ele>
        <time>2018-09-16T06:15:06Z</time>
      </trkpt>
      <trkpt lat="43.66622" lon="3.8575">
        <ele>79.6</ele>
        <time>2018-09-16T06:15:07Z</time>
      </trkpt>
      <trkpt lat="43.66618" lon="3.85761">
        <ele>80.1</ele>
        <time>2018-09-16T06:15:07.924Z</time>
      </trkpt>
      <trkpt lat="43.66618" lon="3.85762">
        <ele>80.2</ele>
        <time>2018-09-16T06:15:08Z</time>
      </trkpt>
      <trkpt lat="43.66622" lon="3.85769">
        <ele>80.3</ele>
        <time>2018-09-16T06:15:10Z</time>
      </trkpt>
      <trkpt lat="43.66622" lon="3.85774">
        <ele>80.5</ele>
        <time>2018-09-16T06:15:11Z</time>
      </trkpt>
      <trkpt lat="43.66626" lon="3.85781">
        <ele>80.6</ele>
        <time>2018-09-16T06:15:14Z</time>
      </trkpt>
      <trkpt lat="43.66628" lon="3.85785">
        <ele>80.7</ele>
        <time>2018-09-16T06:15:15Z</time>
      </trkpt>
      <trkpt lat="43.66629" lon="3.85795">
        <ele>81</ele>
        <time>2018-09-16T06:15:18Z</time>
      </trkpt>
      <trkpt lat="43.66628" lon="3.858">
        <ele>81.2</ele>
        <time>2018-09-16T06:15:19Z</time>
      </trkpt>
      <trkpt lat="43.66628" lon="3.85811">
        <ele>81.6</ele>
        <time>2018-09-16T06:15:21Z</time>
      </trkpt>
      <trkpt lat="43.66629" lon="3.85816">
        <ele>81.7</ele>
        <time>2018-09-16T06:15:22Z</time>
      </trkpt>
      <trkpt lat="43.66628" lon="3.85825">
        <ele>82.1</ele>
        <time>2018-09-16T06:15:25Z</time>
      </trkpt>
      <trkpt lat="43.66628" lon="3.85828">
        <ele>82.2</ele>
        <time>2018-09-16T06:15:26Z</time>
      </trkpt>
      <trkpt lat="43.66625" lon="3.85839">
        <ele>82.9</ele>
        <time>2018-09-16T06:15:29Z</time>
      </trkpt>
      <trkpt lat="43.66623" lon="3.85843">
        <ele>83.3</ele>
        <time>2018-09-16T06:15:30Z</time>
      </trkpt>
      <trkpt lat="43.66621" lon="3.85851">
        <ele>83.9</ele>
        <time>2018-09-16T06:15:32Z</time>
      </trkpt>
      <trkpt lat="43.66619" lon="3.85855">
        <ele>84.3</ele>
        <time>2018-09-16T06:15:33Z</time>
      </trkpt>
      <trkpt lat="43.66617" lon="3.85866">
        <ele>85.2</ele>
        <time>2018-09-16T06:15:36Z</time>
      </trkpt>
      <trkpt lat="43.66616" lon="3.85869">
        <ele>85.4</ele>
        <time>2018-09-16T06:15:37Z</time>
      </trkpt>
      <trkpt lat="43.66615" lon="3.85881">
        <ele>86.4</ele>
        <time>2018-09-16T06:15:40Z</time>
      </trkpt>
      <trkpt lat="43.66615" lon="3.85884">
        <ele>86.6</ele>
        <time>2018-09-16T06:15:41Z</time>
      </trkpt>
      <trkpt lat="43.66612" lon="3.85895">
        <ele>87.4</ele>
        <time>2018-09-16T06:15:44Z</time>
      </trkpt>
      <trkpt lat="43.66604" lon="3.8591">
        <ele>88.1</ele>
        <time>2018-09-16T06:15:45Z</time>
      </trkpt>
      <trkpt lat="43.66605" lon="3.85922">
        <ele>88.7</ele>
        <time>2018-09-16T06:15:50Z</time>
      </trkpt>
      <trkpt lat="43.66606" lon="3.85924">
        <ele>88.8</ele>
        <time>2018-09-16T06:15:51Z</time>
      </trkpt>
      <trkpt lat="43.66607" lon="3.85933">
        <ele>89.2</ele>
        <time>2018-09-16T06:15:54Z</time>
      </trkpt>
      <trkpt lat="43.66607" lon="3.85937">
        <ele>89.3</ele>
        <time>2018-09-16T06:15:55Z</time>
      </trkpt>
      <trkpt lat="43.66608" lon="3.85948">
        <ele>89.8</ele>
        <time>2018-09-16T06:15:58Z</time>
      </trkpt>
      <trkpt lat="43.66608" lon="3.85952">
        <ele>89.9</ele>
        <time>2018-09-16T06:15:59Z</time>
      </trkpt>
      <trkpt lat="43.66609" lon="3.85964">
        <ele>90.4</ele>
        <time>2018-09-16T06:16:03Z</time>
      </trkpt>
      <trkpt lat="43.6661" lon="3.85967">
        <ele>90.7</ele>
        <time>2018-09-16T06:16:04Z</time>
      </trkpt>
      <trkpt lat="43.66608" lon="3.85975">
        <ele>90.6</ele>
        <time>2018-09-16T06:16:07Z</time>
      </trkpt>
      <trkpt lat="43.66597" lon="3.85982">
        <ele>89</ele>
        <time>2018-09-16T06:16:08Z</time>
      </trkpt>
      <trkpt lat="43.66591" lon="3.85988">
        <ele>87.8</ele>
        <time>2018-09-16T06:16:10Z</time>
      </trkpt>
      <trkpt lat="43.66588" lon="3.8599">
        <ele>87.2</ele>
        <time>2018-09-16T06:16:11Z</time>
      </trkpt>
      <trkpt lat="43.66587" lon="3.85995">
        <ele>86.9</ele>
        <time>2018-09-16T06:16:13Z</time>
      </trkpt>
      <trkpt lat="43.6659" lon="3.86011">
        <ele>87.5</ele>
        <time>2018-09-16T06:16:14Z</time>
      </trkpt>
      <trkpt lat="43.66596" lon="3.86021">
        <ele>89.1</ele>
        <time>2018-09-16T06:16:20Z</time>
      </trkpt>
      <trkpt lat="43.66596" lon="3.86024">
        <ele>89.1</ele>
        <time>2018-09-16T06:16:21Z</time>
      </trkpt>
      <trkpt lat="43.66597" lon="3.86036">
        <ele>89.3</ele>
        <time>2018-09-16T06:16:24Z</time>
      </trkpt>
      <trkpt lat="43.66595" lon="3.86053">
        <ele>88.4</ele>
        <time>2018-09-16T06:16:25Z</time>
      </trkpt>
      <trkpt lat="43.66593" lon="3.86061">
        <ele>87.6</ele>
        <time>2018-09-16T06:16:26Z</time>
      </trkpt>
      <trkpt lat="43.66594" lon="3.86066">
        <ele>87.7</ele>
        <time>2018-09-16T06:16:27Z</time>
      </trkpt>
      <trkpt lat="43.66593" lon="3.86075">
        <ele>87.1</ele>
        <time>2018-09-16T06:16:28Z</time>
      </trkpt>
      <trkpt lat="43.66594" lon="3.86084">
        <ele>87</ele>
        <time>2018-09-16T06:16:29Z</time>
      </trkpt>
      <trkpt lat="43.66594" lon="3.86091">
        <ele>86.5</ele>
        <time>2018-09-16T06:16:30Z</time>
      </trkpt>
      <trkpt lat="43.66596" lon="3.86099">
        <ele>86.5</ele>
        <time>2018-09-16T06:16:31Z</time>
      </trkpt>
      <trkpt lat="43.66598" lon="3.86106">
        <ele>86.6</ele>
        <time>2018-09-16T06:16:32Z</time>
      </trkpt>
      <trkpt lat="43.666" lon="3.86111">
        <ele>86.8</ele>
        <time>2018-09-16T06:16:33Z</time>
      </trkpt>
      <trkpt lat="43.66607" lon="3.86119">
        <ele>87.5</ele>
        <time>2018-09-16T06:16:37Z</time>
      </trkpt>
      <trkpt lat="43.66608" lon="3.86122">
        <ele>87.2</ele>
        <time>2018-09-16T06:16:38Z</time>
      </trkpt>
      <trkpt lat="43.66619" lon="3.86129">
        <ele>88.5</ele>
        <time>2018-09-16T06:16:39Z</time>
      </trkpt>
      <trkpt lat="43.66623" lon="3.86135">
        <ele>88.3</ele>
        <time>2018-09-16T06:16:42Z</time>
      </trkpt>
      <trkpt lat="43.6663" lon="3.86144">
        <ele>87.9</ele>
        <time>2018-09-16T06:16:43Z</time>
      </trkpt>
      <trkpt lat="43.66635" lon="3.86149">
        <ele>87.7</ele>
        <time>2018-09-16T06:16:45Z</time>
      </trkpt>
      <trkpt lat="43.66637" lon="3.86152">
        <ele>87.4</ele>
        <time>2018-09-16T06:16:46Z</time>
      </trkpt>
      <trkpt lat="43.66643" lon="3.86161">
        <ele>85.9</ele>
        <time>2018-09-16T06:16:50Z</time>
      </trkpt>
      <trkpt lat="43.66646" lon="3.86163">
        <ele>85.8</ele>
        <time>2018-09-16T06:16:51Z</time>
      </trkpt>
      <trkpt lat="43.66651" lon="3.86164">
        <ele>86.1</ele>
        <time>2018-09-16T06:16:53Z</time>
      </trkpt>
      <trkpt lat="43.66664" lon="3.86167">
        <ele>86.6</ele>
        <time>2018-09-16T06:16:54Z</time>
      </trkpt>
      <trkpt lat="43.6667" lon="3.86169">
        <ele>86.4</ele>
        <time>2018-09-16T06:16:55Z</time>
      </trkpt>
      <trkpt lat="43.66675" lon="3.86174">
        <ele>85</ele>
        <time>2018-09-16T06:16:56Z</time>
      </trkpt>
      <trkpt lat="43.66682" lon="3.86178">
        <ele>84</ele>
        <time>2018-09-16T06:16:57Z</time>
      </trkpt>
      <trkpt lat="43.66689" lon="3.86179">
        <ele>84.2</ele>
        <time>2018-09-16T06:16:58Z</time>
      </trkpt>
      <trkpt lat="43.66698" lon="3.86178">
        <ele>85</ele>
        <time>2018-09-16T06:17:00Z</time>
      </trkpt>
      <trkpt lat="43.66706" lon="3.86182">
        <ele>83.7</ele>
        <time>2018-09-16T06:17:01Z</time>
      </trkpt>
      <trkpt lat="43.66712" lon="3.86177">
        <ele>85.5</ele>
        <time>2018-09-16T06:17:05Z</time>
      </trkpt>
      <trkpt lat="43.66714" lon="3.86176">
        <ele>85.9</ele>
        <time>2018-09-16T06:17:06Z</time>
      </trkpt>
      <trkpt lat="43.6672" lon="3.8617">
        <ele>87.9</ele>
        <time>2018-09-16T06:17:09Z</time>
      </trkpt>
      <trkpt lat="43.66722" lon="3.86168">
        <ele>88.6</ele>
        <time>2018-09-16T06:17:10Z</time>
      </trkpt>
      <trkpt lat="43.66729" lon="3.86163">
        <ele>89.5</ele>
        <time>2018-09-16T06:17:15Z</time>
      </trkpt>
      <trkpt lat="43.6673" lon="3.86161">
        <ele>90</ele>
        <time>2018-09-16T06:17:16Z</time>
      </trkpt>
      <trkpt lat="43.66736" lon="3.86155">
        <ele>91.2</ele>
        <time>2018-09-16T06:17:21Z</time>
      </trkpt>
      <trkpt lat="43.66737" lon="3.86154">
        <ele>91.3</ele>
        <time>2018-09-16T06:17:22Z</time>
      </trkpt>
      <trkpt lat="43.66744" lon="3.8615">
        <ele>91.8</ele>
        <time>2018-09-16T06:17:26Z</time>
      </trkpt>
      <trkpt lat="43.66746" lon="3.86149">
        <ele>91.8</ele>
        <time>2018-09-16T06:17:27Z</time>
      </trkpt>
      <trkpt lat="43.66751" lon="3.86141">
        <ele>93.3</ele>
        <time>2018-09-16T06:17:31Z</time>
      </trkpt>
      <trkpt lat="43.66752" lon="3.86139">
        <ele>93.6</ele>
        <time>2018-09-16T06:17:32Z</time>
      </trkpt>
      <trkpt lat="43.66757" lon="3.86131">
        <ele>93.8</ele>
        <time>2018-09-16T06:17:36Z</time>
      </trkpt>
      <trkpt lat="43.66758" lon="3.86128">
        <ele>94</ele>
        <time>2018-09-16T06:17:37Z</time>
      </trkpt>
      <trkpt lat="43.66762" lon="3.86118">
        <ele>94.5</ele>
        <time>2018-09-16T06:17:41Z</time>
      </trkpt>
      <trkpt lat="43.66762" lon="3.86115">
        <ele>94.9</ele>
        <time>2018-09-16T06:17:42Z</time>
      </trkpt>
      <trkpt lat="43.66766" lon="3.86107">
        <ele>94.7</ele>
        <time>2018-09-16T06:17:45Z</time>
      </trkpt>
      <trkpt lat="43.66767" lon="3.86104">
        <ele>94.6</ele>
        <time>2018-09-16T06:17:46Z</time>
      </trkpt>
      <trkpt lat="43.66769" lon="3.86097">
        <ele>94.4</ele>
        <time>2018-09-16T06:17:49Z</time>
      </trkpt>
      <trkpt lat="43.66772" lon="3.86084">
        <ele>94.2</ele>
        <time>2018-09-16T06:17:50Z</time>
      </trkpt>
      <trkpt lat="43.66773" lon="3.86077">
        <ele>93.8</ele>
        <time>2018-09-16T06:17:51Z</time>
      </trkpt>
      <trkpt lat="43.66772" lon="3.86069">
        <ele>93.6</ele>
        <time>2018-09-16T06:17:52Z</time>
      </trkpt>
      <trkpt lat="43.66772" lon="3.86062">
        <ele>93.3</ele>
        <time>2018-09-16T06:17:53Z</time>
      </trkpt>
      <trkpt lat="43.66772" lon="3.86052">
        <ele>92.8</ele>
        <time>2018-09-16T06:17:54Z</time>
      </trkpt>
      <trkpt lat="43.66768" lon="3.86042">
        <ele>92.6</ele>
        <time>2018-09-16T06:17:55Z</time>
      </trkpt>
      <trkpt lat="43.66766" lon="3.8603">
        <ele>91.9</ele>
        <time>2018-09-16T06:17:56Z</time>
      </trkpt>
      <trkpt lat="43.66763" lon="3.86021">
        <ele>91.1</ele>
        <time>2018-09-16T06:17:57Z</time>
      </trkpt>
      <trkpt lat="43.6676" lon="3.86012">
        <ele>90.1</ele>
        <time>2018-09-16T06:17:58Z</time>
      </trkpt>
      <trkpt lat="43.66757" lon="3.86">
        <ele>88.5</ele>
        <time>2018-09-16T06:17:59Z</time>
      </trkpt>
      <trkpt lat="43.66753" lon="3.85988">
        <ele>87.4</ele>
        <time>2018-09-16T06:18:00Z</time>
      </trkpt>
      <trkpt lat="43.6675" lon="3.85982">
        <ele>87.1</ele>
        <time>2018-09-16T06:18:01Z</time>
      </trkpt>
      <trkpt lat="43.66747" lon="3.85972">
        <ele>86.5</ele>
        <time>2018-09-16T06:18:02Z</time>
      </trkpt>
      <trkpt lat="43.66744" lon="3.85964">
        <ele>86.4</ele>
        <time>2018-09-16T06:18:03Z</time>
      </trkpt>
      <trkpt lat="43.66743" lon="3.85961">
        <ele>86.2</ele>
        <time>2018-09-16T06:18:04Z</time>
      </trkpt>
      <trkpt lat="43.66752" lon="3.85956">
        <ele>84.6</ele>
        <time>2018-09-16T06:18:13Z</time>
      </trkpt>
      <trkpt lat="43.66752" lon="3.85957">
        <ele>84.6</ele>
        <time>2018-09-16T06:18:14Z</time>
      </trkpt>
      <trkpt lat="43.6676" lon="3.85957">
        <ele>83.6</ele>
        <time>2018-09-16T06:18:25Z</time>
      </trkpt>
      <trkpt lat="43.66762" lon="3.85959">
        <ele>83.5</ele>
        <time>2018-09-16T06:18:26Z</time>
      </trkpt>
      <trkpt lat="43.66768" lon="3.85965">
        <ele>83.4</ele>
        <time>2018-09-16T06:18:29Z</time>
      </trkpt>
      <trkpt lat="43.6677" lon="3.85967">
        <ele>83.3</ele>
        <time>2018-09-16T06:18:30Z</time>
      </trkpt>
      <trkpt lat="43.66777" lon="3.85973">
        <ele>83.2</ele>
        <time>2018-09-16T06:18:38Z</time>
      </trkpt>
      <trkpt lat="43.66778" lon="3.85973">
        <ele>83.1</ele>
        <time>2018-09-16T06:18:39Z</time>
      </trkpt>
      <trkpt lat="43.6678" lon="3.85975">
        <ele>83.1</ele>
        <time>2018-09-16T06:18:42Z</time>
      </trkpt>
      <trkpt lat="43.66781" lon="3.85975">
        <ele>82.9</ele>
        <time>2018-09-16T06:18:43Z</time>
      </trkpt>
      <trkpt lat="43.66782" lon="3.85975">
        <ele>82.8</ele>
        <time>2018-09-16T06:18:44Z</time>
      </trkpt>
      <trkpt lat="43.6679" lon="3.85978">
        <ele>82</ele>
        <time>2018-09-16T06:18:51Z</time>
      </trkpt>
      <trkpt lat="43.66792" lon="3.85979">
        <ele>81.8</ele>
        <time>2018-09-16T06:18:52Z</time>
      </trkpt>
      <trkpt lat="43.66798" lon="3.85986">
        <ele>81.7</ele>
        <time>2018-09-16T06:18:57Z</time>
      </trkpt>
      <trkpt lat="43.668" lon="3.85987">
        <ele>81.5</ele>
        <time>2018-09-16T06:18:58Z</time>
      </trkpt>
      <trkpt lat="43.66806" lon="3.85995">
        <ele>81.4</ele>
        <time>2018-09-16T06:19:06Z</time>
      </trkpt>
      <trkpt lat="43.66806" lon="3.85997">
        <ele>81.6</ele>
        <time>2018-09-16T06:19:07Z</time>
      </trkpt>
      <trkpt lat="43.66809" lon="3.86008">
        <ele>81.9</ele>
        <time>2018-09-16T06:19:15Z</time>
      </trkpt>
      <trkpt lat="43.66809" lon="3.86009">
        <ele>82</ele>
        <time>2018-09-16T06:19:16Z</time>
      </trkpt>
      <trkpt lat="43.6681" lon="3.86013">
        <ele>82.1</ele>
        <time>2018-09-16T06:19:24Z</time>
      </trkpt>
      <trkpt lat="43.6681" lon="3.86014">
        <ele>82.2</ele>
        <time>2018-09-16T06:19:27Z</time>
      </trkpt>
      <trkpt lat="43.66814" lon="3.86023">
        <ele>81.9</ele>
        <time>2018-09-16T06:19:47Z</time>
      </trkpt>
      <trkpt lat="43.66815" lon="3.86024">
        <ele>81.6</ele>
        <time>2018-09-16T06:19:48Z</time>
      </trkpt>
      <trkpt lat="43.66823" lon="3.86028">
        <ele>79.4</ele>
        <time>2018-09-16T06:19:53Z</time>
      </trkpt>
      <trkpt lat="43.66825" lon="3.86029">
        <ele>78.7</ele>
        <time>2018-09-16T06:19:54Z</time>
      </trkpt>
      <trkpt lat="43.66832" lon="3.86035">
        <ele>76.7</ele>
        <time>2018-09-16T06:20:00Z</time>
      </trkpt>
      <trkpt lat="43.66834" lon="3.86036">
        <ele>76.1</ele>
        <time>2018-09-16T06:20:01Z</time>
      </trkpt>
      <trkpt lat="43.66839" lon="3.86046">
        <ele>75.2</ele>
        <time>2018-09-16T06:20:06Z</time>
      </trkpt>
      <trkpt lat="43.6684" lon="3.86047">
        <ele>74.9</ele>
        <time>2018-09-16T06:20:07Z</time>
      </trkpt>
      <trkpt lat="43.66847" lon="3.86049">
        <ele>73.2</ele>
        <time>2018-09-16T06:20:10Z</time>
      </trkpt>
      <trkpt lat="43.6685" lon="3.86048">
        <ele>72.4</ele>
        <time>2018-09-16T06:20:11Z</time>
      </trkpt>
      <trkpt lat="43.66858" lon="3.86045">
        <ele>70.1</ele>
        <time>2018-09-16T06:20:14Z</time>
      </trkpt>
      <trkpt lat="43.66861" lon="3.86045">
        <ele>69.3</ele>
        <time>2018-09-16T06:20:15Z</time>
      </trkpt>
      <trkpt lat="43.66871" lon="3.86047">
        <ele>67.1</ele>
        <time>2018-09-16T06:20:16Z</time>
      </trkpt>
      <trkpt lat="43.66875" lon="3.86051">
        <ele>66.3</ele>
        <time>2018-09-16T06:20:17Z</time>
      </trkpt>
      <trkpt lat="43.6688" lon="3.86055">
        <ele>65.2</ele>
        <time>2018-09-16T06:20:18Z</time>
      </trkpt>
      <trkpt lat="43.66883" lon="3.86061">
        <ele>64.5</ele>
        <time>2018-09-16T06:20:19Z</time>
      </trkpt>
      <trkpt lat="43.66885" lon="3.86067">
        <ele>64</ele>
        <time>2018-09-16T06:20:20Z</time>
      </trkpt>
      <trkpt lat="43.66887" lon="3.86072">
        <ele>63.5</ele>
        <time>2018-09-16T06:20:21Z</time>
      </trkpt>
      <trkpt lat="43.6689" lon="3.86078">
        <ele>62.8</ele>
        <time>2018-09-16T06:20:22Z</time>
      </trkpt>
      <trkpt lat="43.66895" lon="3.86089">
        <ele>61.9</ele>
        <time>2018-09-16T06:20:24Z</time>
      </trkpt>
      <trkpt lat="43.66897" lon="3.86094">
        <ele>61.5</ele>
        <time>2018-09-16T06:20:25Z</time>
      </trkpt>
      <trkpt lat="43.66904" lon="3.86096">
        <ele>60.3</ele>
        <time>2018-09-16T06:20:27Z</time>
      </trkpt>
      <trkpt lat="43.66907" lon="3.86092">
        <ele>59.7</ele>
        <time>2018-09-16T06:20:28Z</time>
      </trkpt>
      <trkpt lat="43.66911" lon="3.86083">
        <ele>59</ele>
        <time>2018-09-16T06:20:30Z</time>
      </trkpt>
      <trkpt lat="43.66916" lon="3.86078">
        <ele>58.1</ele>
        <time>2018-09-16T06:20:31Z</time>
      </trkpt>
      <trkpt lat="43.66929" lon="3.86074">
        <ele>57.7</ele>
        <time>2018-09-16T06:20:32Z</time>
      </trkpt>
      <trkpt lat="43.66941" lon="3.86073">
        <ele>57.4</ele>
        <time>2018-09-16T06:20:33Z</time>
      </trkpt>
      <trkpt lat="43.66947" lon="3.86073">
        <ele>57.5</ele>
        <time>2018-09-16T06:20:34Z</time>
      </trkpt>
      <trkpt lat="43.66955" lon="3.86075">
        <ele>57.8</ele>
        <time>2018-09-16T06:20:35Z</time>
      </trkpt>
      <trkpt lat="43.66961" lon="3.86078">
        <ele>57.9</ele>
        <time>2018-09-16T06:20:36Z</time>
      </trkpt>
      <trkpt lat="43.66969" lon="3.8608">
        <ele>58.1</ele>
        <time>2018-09-16T06:20:37Z</time>
      </trkpt>
      <trkpt lat="43.66975" lon="3.86083">
        <ele>58.2</ele>
        <time>2018-09-16T06:20:38Z</time>
      </trkpt>
      <trkpt lat="43.6698" lon="3.86086">
        <ele>58.4</ele>
        <time>2018-09-16T06:20:39Z</time>
      </trkpt>
      <trkpt lat="43.66989" lon="3.86087">
        <ele>58.9</ele>
        <time>2018-09-16T06:20:41Z</time>
      </trkpt>
      <trkpt lat="43.66993" lon="3.86089">
        <ele>59</ele>
        <time>2018-09-16T06:20:42Z</time>
      </trkpt>
      <trkpt lat="43.67001" lon="3.8609">
        <ele>59.3</ele>
        <time>2018-09-16T06:20:46Z</time>
      </trkpt>
      <trkpt lat="43.67003" lon="3.8609">
        <ele>59.2</ele>
        <time>2018-09-16T06:20:47Z</time>
      </trkpt>
      <trkpt lat="43.67009" lon="3.86088">
        <ele>59.2</ele>
        <time>2018-09-16T06:20:49Z</time>
      </trkpt>
      <trkpt lat="43.67019" lon="3.86087">
        <ele>59</ele>
        <time>2018-09-16T06:20:50Z</time>
      </trkpt>
      <trkpt lat="43.67024" lon="3.86087">
        <ele>58.9</ele>
        <time>2018-09-16T06:20:51Z</time>
      </trkpt>
      <trkpt lat="43.67029" lon="3.86087">
        <ele>58.7</ele>
        <time>2018-09-16T06:20:52Z</time>
      </trkpt>
      <trkpt lat="43.67035" lon="3.86088">
        <ele>58.4</ele>
        <time>2018-09-16T06:20:54Z</time>
      </trkpt>
      <trkpt lat="43.67039" lon="3.8609">
        <ele>58.1</ele>
        <time>2018-09-16T06:20:55Z</time>
      </trkpt>
      <trkpt lat="43.67047" lon="3.86091">
        <ele>57.8</ele>
        <time>2018-09-16T06:20:58Z</time>
      </trkpt>
      <trkpt lat="43.67053" lon="3.86087">
        <ele>57.8</ele>
        <time>2018-09-16T06:20:59Z</time>
      </trkpt>
      <trkpt lat="43.67057" lon="3.86084">
        <ele>57.9</ele>
        <time>2018-09-16T06:21:00Z</time>
      </trkpt>
      <trkpt lat="43.6706" lon="3.8608">
        <ele>58.3</ele>
        <time>2018-09-16T06:21:01Z</time>
      </trkpt>
      <trkpt lat="43.67066" lon="3.86072">
        <ele>59.1</ele>
        <time>2018-09-16T06:21:03Z</time>
      </trkpt>
      <trkpt lat="43.67069" lon="3.86068">
        <ele>59.5</ele>
        <time>2018-09-16T06:21:04Z</time>
      </trkpt>
      <trkpt lat="43.67074" lon="3.86061">
        <ele>60</ele>
        <time>2018-09-16T06:21:07Z</time>
      </trkpt>
      <trkpt lat="43.67076" lon="3.86058">
        <ele>60.2</ele>
        <time>2018-09-16T06:21:08Z</time>
      </trkpt>
      <trkpt lat="43.67082" lon="3.86051">
        <ele>60.7</ele>
        <time>2018-09-16T06:21:11Z</time>
      </trkpt>
      <trkpt lat="43.67084" lon="3.8605">
        <ele>60.8</ele>
        <time>2018-09-16T06:21:12Z</time>
      </trkpt>
      <trkpt lat="43.67091" lon="3.86042">
        <ele>61.5</ele>
        <time>2018-09-16T06:21:15Z</time>
      </trkpt>
      <trkpt lat="43.67093" lon="3.86039">
        <ele>61.8</ele>
        <time>2018-09-16T06:21:16Z</time>
      </trkpt>
      <trkpt lat="43.67098" lon="3.86033">
        <ele>62.3</ele>
        <time>2018-09-16T06:21:18Z</time>
      </trkpt>
      <trkpt lat="43.671" lon="3.86029">
        <ele>62.7</ele>
        <time>2018-09-16T06:21:19Z</time>
      </trkpt>
      <trkpt lat="43.67102" lon="3.86021">
        <ele>63.4</ele>
        <time>2018-09-16T06:21:21Z</time>
      </trkpt>
      <trkpt lat="43.67104" lon="3.86017">
        <ele>63.7</ele>
        <time>2018-09-16T06:21:22Z</time>
      </trkpt>
      <trkpt lat="43.67107" lon="3.86009">
        <ele>64.3</ele>
        <time>2018-09-16T06:21:24Z</time>
      </trkpt>
      <trkpt lat="43.67108" lon="3.86005">
        <ele>64.7</ele>
        <time>2018-09-16T06:21:25Z</time>
      </trkpt>
      <trkpt lat="43.67111" lon="3.85997">
        <ele>65.3</ele>
        <time>2018-09-16T06:21:27Z</time>
      </trkpt>
      <trkpt lat="43.67112" lon="3.85992">
        <ele>65.8</ele>
        <time>2018-09-16T06:21:28Z</time>
      </trkpt>
      <trkpt lat="43.67116" lon="3.85985">
        <ele>66.3</ele>
        <time>2018-09-16T06:21:30Z</time>
      </trkpt>
      <trkpt lat="43.67117" lon="3.85981">
        <ele>66.6</ele>
        <time>2018-09-16T06:21:31Z</time>
      </trkpt>
      <trkpt lat="43.67123" lon="3.85973">
        <ele>67.1</ele>
        <time>2018-09-16T06:21:34Z</time>
      </trkpt>
      <trkpt lat="43.67125" lon="3.8597">
        <ele>67.2</ele>
        <time>2018-09-16T06:21:35Z</time>
      </trkpt>
      <trkpt lat="43.67131" lon="3.85961">
        <ele>67.4</ele>
        <time>2018-09-16T06:21:38Z</time>
      </trkpt>
      <trkpt lat="43.67133" lon="3.85958">
        <ele>67.4</ele>
        <time>2018-09-16T06:21:39Z</time>
      </trkpt>
      <trkpt lat="43.67137" lon="3.85955">
        <ele>67.4</ele>
        <time>2018-09-16T06:21:41Z</time>
      </trkpt>
      <trkpt lat="43.67147" lon="3.85952">
        <ele>66.9</ele>
        <time>2018-09-16T06:21:42Z</time>
      </trkpt>
      <trkpt lat="43.67152" lon="3.85952">
        <ele>66.5</ele>
        <time>2018-09-16T06:21:43Z</time>
      </trkpt>
      <trkpt lat="43.67157" lon="3.85951">
        <ele>66.2</ele>
        <time>2018-09-16T06:21:44Z</time>
      </trkpt>
      <trkpt lat="43.67162" lon="3.85951">
        <ele>65.9</ele>
        <time>2018-09-16T06:21:45Z</time>
      </trkpt>
      <trkpt lat="43.67167" lon="3.85949">
        <ele>65.6</ele>
        <time>2018-09-16T06:21:46Z</time>
      </trkpt>
      <trkpt lat="43.67173" lon="3.85946">
        <ele>65.4</ele>
        <time>2018-09-16T06:21:47Z</time>
      </trkpt>
      <trkpt lat="43.67178" lon="3.85944">
        <ele>65.2</ele>
        <time>2018-09-16T06:21:48Z</time>
      </trkpt>
      <trkpt lat="43.67184" lon="3.8594">
        <ele>65</ele>
        <time>2018-09-16T06:21:49Z</time>
      </trkpt>
      <trkpt lat="43.67191" lon="3.8594">
        <ele>64.5</ele>
        <time>2018-09-16T06:21:50Z</time>
      </trkpt>
      <trkpt lat="43.67195" lon="3.85936">
        <ele>64.6</ele>
        <time>2018-09-16T06:21:51Z</time>
      </trkpt>
      <trkpt lat="43.67201" lon="3.85933">
        <ele>64.4</ele>
        <time>2018-09-16T06:21:52Z</time>
      </trkpt>
      <trkpt lat="43.67208" lon="3.85929">
        <ele>64.1</ele>
        <time>2018-09-16T06:21:53Z</time>
      </trkpt>
      <trkpt lat="43.67213" lon="3.85927">
        <ele>63.9</ele>
        <time>2018-09-16T06:21:54Z</time>
      </trkpt>
      <trkpt lat="43.67217" lon="3.85922">
        <ele>64</ele>
        <time>2018-09-16T06:21:55Z</time>
      </trkpt>
      <trkpt lat="43.67223" lon="3.85919">
        <ele>63.8</ele>
        <time>2018-09-16T06:21:56Z</time>
      </trkpt>
      <trkpt lat="43.67227" lon="3.85915">
        <ele>63.7</ele>
        <time>2018-09-16T06:21:57Z</time>
      </trkpt>
      <trkpt lat="43.67232" lon="3.8591">
        <ele>63.5</ele>
        <time>2018-09-16T06:21:58Z</time>
      </trkpt>
      <trkpt lat="43.67237" lon="3.85904">
        <ele>63.4</ele>
        <time>2018-09-16T06:21:59Z</time>
      </trkpt>
      <trkpt lat="43.67241" lon="3.859">
        <ele>63.2</ele>
        <time>2018-09-16T06:22:00Z</time>
      </trkpt>
      <trkpt lat="43.67246" lon="3.85894">
        <ele>63.1</ele>
        <time>2018-09-16T06:22:01Z</time>
      </trkpt>
      <trkpt lat="43.6725" lon="3.85888">
        <ele>63</ele>
        <time>2018-09-16T06:22:02Z</time>
      </trkpt>
      <trkpt lat="43.67254" lon="3.85887">
        <ele>62.9</ele>
        <time>2018-09-16T06:22:03Z</time>
      </trkpt>
      <trkpt lat="43.67258" lon="3.85882">
        <ele>63</ele>
        <time>2018-09-16T06:22:04Z</time>
      </trkpt>
      <trkpt lat="43.67264" lon="3.85874">
        <ele>63</ele>
        <time>2018-09-16T06:22:06Z</time>
      </trkpt>
      <trkpt lat="43.67267" lon="3.85872">
        <ele>63</ele>
        <time>2018-09-16T06:22:07Z</time>
      </trkpt>
      <trkpt lat="43.67274" lon="3.85869">
        <ele>62.9</ele>
        <time>2018-09-16T06:22:09Z</time>
      </trkpt>
      <trkpt lat="43.67276" lon="3.8587">
        <ele>62.7</ele>
        <time>2018-09-16T06:22:10Z</time>
      </trkpt>
      <trkpt lat="43.67282" lon="3.8587">
        <ele>62.7</ele>
        <time>2018-09-16T06:22:11Z</time>
      </trkpt>
      <trkpt lat="43.67286" lon="3.85869">
        <ele>62.7</ele>
        <time>2018-09-16T06:22:12Z</time>
      </trkpt>
      <trkpt lat="43.6729" lon="3.85869">
        <ele>62.7</ele>
        <time>2018-09-16T06:22:13Z</time>
      </trkpt>
      <trkpt lat="43.67296" lon="3.85871">
        <ele>62.6</ele>
        <time>2018-09-16T06:22:14Z</time>
      </trkpt>
      <trkpt lat="43.67301" lon="3.85871">
        <ele>62.6</ele>
        <time>2018-09-16T06:22:15Z</time>
      </trkpt>
      <trkpt lat="43.67305" lon="3.85869">
        <ele>62.7</ele>
        <time>2018-09-16T06:22:16Z</time>
      </trkpt>
      <trkpt lat="43.67309" lon="3.85868">
        <ele>62.7</ele>
        <time>2018-09-16T06:22:17Z</time>
      </trkpt>
      <trkpt lat="43.67316" lon="3.85868">
        <ele>62.7</ele>
        <time>2018-09-16T06:22:18Z</time>
      </trkpt>
      <trkpt lat="43.6732" lon="3.85866">
        <ele>62.7</ele>
        <time>2018-09-16T06:22:19Z</time>
      </trkpt>
      <trkpt lat="43.67325" lon="3.85863">
        <ele>62.9</ele>
        <time>2018-09-16T06:22:20Z</time>
      </trkpt>
      <trkpt lat="43.67332" lon="3.85857">
        <ele>63.1</ele>
        <time>2018-09-16T06:22:22Z</time>
      </trkpt>
      <trkpt lat="43.67335" lon="3.85853">
        <ele>63.2</ele>
        <time>2018-09-16T06:22:23Z</time>
      </trkpt>
      <trkpt lat="43.67341" lon="3.85847">
        <ele>63.2</ele>
        <time>2018-09-16T06:22:25Z</time>
      </trkpt>
      <trkpt lat="43.67344" lon="3.85844">
        <ele>63.2</ele>
        <time>2018-09-16T06:22:26Z</time>
      </trkpt>
      <trkpt lat="43.67348" lon="3.8584">
        <ele>63.2</ele>
        <time>2018-09-16T06:22:27Z</time>
      </trkpt>
      <trkpt lat="43.67352" lon="3.85836">
        <ele>63.2</ele>
        <time>2018-09-16T06:22:28Z</time>
      </trkpt>
      <trkpt lat="43.67359" lon="3.85829">
        <ele>63.2</ele>
        <time>2018-09-16T06:22:30Z</time>
      </trkpt>
      <trkpt lat="43.67362" lon="3.85825">
        <ele>63.3</ele>
        <time>2018-09-16T06:22:31Z</time>
      </trkpt>
      <trkpt lat="43.67368" lon="3.85819">
        <ele>63.3</ele>
        <time>2018-09-16T06:22:33Z</time>
      </trkpt>
      <trkpt lat="43.67371" lon="3.85816">
        <ele>63.3</ele>
        <time>2018-09-16T06:22:34Z</time>
      </trkpt>
      <trkpt lat="43.67379" lon="3.85813">
        <ele>63.1</ele>
        <time>2018-09-16T06:22:39Z</time>
      </trkpt>
      <trkpt lat="43.67381" lon="3.85822">
        <ele>62.7</ele>
        <time>2018-09-16T06:22:40Z</time>
      </trkpt>
      <trkpt lat="43.67381" lon="3.85829">
        <ele>62.4</ele>
        <time>2018-09-16T06:22:41Z</time>
      </trkpt>
      <trkpt lat="43.67381" lon="3.85836">
        <ele>62.3</ele>
        <time>2018-09-16T06:22:42Z</time>
      </trkpt>
      <trkpt lat="43.67382" lon="3.85843">
        <ele>62.2</ele>
        <time>2018-09-16T06:22:43Z</time>
      </trkpt>
      <trkpt lat="43.67382" lon="3.85849">
        <ele>62.1</ele>
        <time>2018-09-16T06:22:44Z</time>
      </trkpt>
      <trkpt lat="43.67382" lon="3.85856">
        <ele>62</ele>
        <time>2018-09-16T06:22:45Z</time>
      </trkpt>
      <trkpt lat="43.67382" lon="3.85863">
        <ele>61.9</ele>
        <time>2018-09-16T06:22:46Z</time>
      </trkpt>
      <trkpt lat="43.67382" lon="3.85869">
        <ele>61.7</ele>
        <time>2018-09-16T06:22:47Z</time>
      </trkpt>
      <trkpt lat="43.67383" lon="3.85875">
        <ele>61.5</ele>
        <time>2018-09-16T06:22:48Z</time>
      </trkpt>
      <trkpt lat="43.67383" lon="3.85882">
        <ele>61.2</ele>
        <time>2018-09-16T06:22:49Z</time>
      </trkpt>
      <trkpt lat="43.67384" lon="3.85889">
        <ele>61</ele>
        <time>2018-09-16T06:22:50Z</time>
      </trkpt>
      <trkpt lat="43.67385" lon="3.85902">
        <ele>61</ele>
        <time>2018-09-16T06:22:52Z</time>
      </trkpt>
      <trkpt lat="43.67387" lon="3.85907">
        <ele>61</ele>
        <time>2018-09-16T06:22:53Z</time>
      </trkpt>
      <trkpt lat="43.67392" lon="3.85916">
        <ele>60.9</ele>
        <time>2018-09-16T06:22:55Z</time>
      </trkpt>
      <trkpt lat="43.67395" lon="3.85921">
        <ele>60.7</ele>
        <time>2018-09-16T06:22:56Z</time>
      </trkpt>
      <trkpt lat="43.67402" lon="3.85928">
        <ele>60.3</ele>
        <time>2018-09-16T06:22:58Z</time>
      </trkpt>
      <trkpt lat="43.67404" lon="3.85933">
        <ele>60.2</ele>
        <time>2018-09-16T06:22:59Z</time>
      </trkpt>
      <trkpt lat="43.67406" lon="3.85944">
        <ele>60</ele>
        <time>2018-09-16T06:23:01Z</time>
      </trkpt>
      <trkpt lat="43.67406" lon="3.8595">
        <ele>60.1</ele>
        <time>2018-09-16T06:23:02Z</time>
      </trkpt>
      <trkpt lat="43.67406" lon="3.85961">
        <ele>60.4</ele>
        <time>2018-09-16T06:23:04Z</time>
      </trkpt>
      <trkpt lat="43.67407" lon="3.85967">
        <ele>60.5</ele>
        <time>2018-09-16T06:23:05Z</time>
      </trkpt>
      <trkpt lat="43.67407" lon="3.85979">
        <ele>61.1</ele>
        <time>2018-09-16T06:23:07Z</time>
      </trkpt>
      <trkpt lat="43.67407" lon="3.85985">
        <ele>61.6</ele>
        <time>2018-09-16T06:23:08Z</time>
      </trkpt>
      <trkpt lat="43.67412" lon="3.85992">
        <ele>62.3</ele>
        <time>2018-09-16T06:23:10Z</time>
      </trkpt>
      <trkpt lat="43.67416" lon="3.85996">
        <ele>62.7</ele>
        <time>2018-09-16T06:23:11Z</time>
      </trkpt>
      <trkpt lat="43.6742" lon="3.85999">
        <ele>62.8</ele>
        <time>2018-09-16T06:23:12Z</time>
      </trkpt>
      <trkpt lat="43.67424" lon="3.86001">
        <ele>62.9</ele>
        <time>2018-09-16T06:23:13Z</time>
      </trkpt>
      <trkpt lat="43.67429" lon="3.86003">
        <ele>63</ele>
        <time>2018-09-16T06:23:14Z</time>
      </trkpt>
      <trkpt lat="43.67433" lon="3.86003">
        <ele>62.8</ele>
        <time>2018-09-16T06:23:15Z</time>
      </trkpt>
      <trkpt lat="43.67441" lon="3.86007">
        <ele>63.1</ele>
        <time>2018-09-16T06:23:17Z</time>
      </trkpt>
      <trkpt lat="43.67445" lon="3.86008">
        <ele>63.1</ele>
        <time>2018-09-16T06:23:18Z</time>
      </trkpt>
      <trkpt lat="43.67452" lon="3.8601">
        <ele>63.2</ele>
        <time>2018-09-16T06:23:20Z</time>
      </trkpt>
      <trkpt lat="43.67456" lon="3.86012">
        <ele>63.3</ele>
        <time>2018-09-16T06:23:21Z</time>
      </trkpt>
      <trkpt lat="43.67464" lon="3.86015">
        <ele>63.5</ele>
        <time>2018-09-16T06:23:25Z</time>
      </trkpt>
      <trkpt lat="43.67466" lon="3.86016">
        <ele>63.5</ele>
        <time>2018-09-16T06:23:26Z</time>
      </trkpt>
      <trkpt lat="43.67472" lon="3.86018">
        <ele>63.6</ele>
        <time>2018-09-16T06:23:29Z</time>
      </trkpt>
      <trkpt lat="43.67475" lon="3.86019">
        <ele>63.7</ele>
        <time>2018-09-16T06:23:30Z</time>
      </trkpt>
      <trkpt lat="43.67482" lon="3.86024">
        <ele>64.5</ele>
        <time>2018-09-16T06:23:35Z</time>
      </trkpt>
      <trkpt lat="43.67483" lon="3.86024">
        <ele>64.5</ele>
        <time>2018-09-16T06:23:36Z</time>
      </trkpt>
      <trkpt lat="43.67484" lon="3.86024">
        <ele>64.5</ele>
        <time>2018-09-16T06:23:37Z</time>
      </trkpt>
      <trkpt lat="43.67485" lon="3.86023">
        <ele>64.3</ele>
        <time>2018-09-16T06:23:51Z</time>
      </trkpt>
      <trkpt lat="43.67493" lon="3.86019">
        <ele>63.7</ele>
        <time>2018-09-16T06:24:01Z</time>
      </trkpt>
      <trkpt lat="43.67496" lon="3.86019">
        <ele>63.7</ele>
        <time>2018-09-16T06:24:02Z</time>
      </trkpt>
      <trkpt lat="43.67507" lon="3.86015">
        <ele>63.3</ele>
        <time>2018-09-16T06:24:03Z</time>
      </trkpt>
      <trkpt lat="43.67511" lon="3.86015">
        <ele>63.4</ele>
        <time>2018-09-16T06:24:04Z</time>
      </trkpt>
      <trkpt lat="43.67516" lon="3.86013">
        <ele>63.1</ele>
        <time>2018-09-16T06:24:05Z</time>
      </trkpt>
      <trkpt lat="43.67522" lon="3.86012">
        <ele>63.1</ele>
        <time>2018-09-16T06:24:06Z</time>
      </trkpt>
      <trkpt lat="43.67531" lon="3.86009">
        <ele>62.7</ele>
        <time>2018-09-16T06:24:07Z</time>
      </trkpt>
      <trkpt lat="43.67538" lon="3.86007">
        <ele>62.4</ele>
        <time>2018-09-16T06:24:08Z</time>
      </trkpt>
      <trkpt lat="43.67546" lon="3.86005">
        <ele>62.1</ele>
        <time>2018-09-16T06:24:09Z</time>
      </trkpt>
      <trkpt lat="43.67552" lon="3.86004">
        <ele>62</ele>
        <time>2018-09-16T06:24:10Z</time>
      </trkpt>
      <trkpt lat="43.67558" lon="3.86002">
        <ele>61.6</ele>
        <time>2018-09-16T06:24:11Z</time>
      </trkpt>
      <trkpt lat="43.67564" lon="3.86002">
        <ele>61.8</ele>
        <time>2018-09-16T06:24:12Z</time>
      </trkpt>
      <trkpt lat="43.67569" lon="3.86">
        <ele>61.5</ele>
        <time>2018-09-16T06:24:13Z</time>
      </trkpt>
      <trkpt lat="43.67575" lon="3.85999">
        <ele>61.6</ele>
        <time>2018-09-16T06:24:14Z</time>
      </trkpt>
      <trkpt lat="43.6758" lon="3.85999">
        <ele>61.8</ele>
        <time>2018-09-16T06:24:15Z</time>
      </trkpt>
      <trkpt lat="43.67585" lon="3.85997">
        <ele>61.8</ele>
        <time>2018-09-16T06:24:16Z</time>
      </trkpt>
      <trkpt lat="43.6759" lon="3.85993">
        <ele>61.6</ele>
        <time>2018-09-16T06:24:17Z</time>
      </trkpt>
      <trkpt lat="43.67596" lon="3.85993">
        <ele>61.9</ele>
        <time>2018-09-16T06:24:18Z</time>
      </trkpt>
      <trkpt lat="43.67602" lon="3.85991">
        <ele>61.9</ele>
        <time>2018-09-16T06:24:19Z</time>
      </trkpt>
      <trkpt lat="43.67607" lon="3.8599">
        <ele>62</ele>
        <time>2018-09-16T06:24:20Z</time>
      </trkpt>
      <trkpt lat="43.67612" lon="3.85988">
        <ele>61.8</ele>
        <time>2018-09-16T06:24:21Z</time>
      </trkpt>
      <trkpt lat="43.67617" lon="3.85989">
        <ele>62</ele>
        <time>2018-09-16T06:24:22Z</time>
      </trkpt>
      <trkpt lat="43.67623" lon="3.85988">
        <ele>61.8</ele>
        <time>2018-09-16T06:24:23Z</time>
      </trkpt>
      <trkpt lat="43.67628" lon="3.8599">
        <ele>62.2</ele>
        <time>2018-09-16T06:24:24Z</time>
      </trkpt>
      <trkpt lat="43.67633" lon="3.85991">
        <ele>62.4</ele>
        <time>2018-09-16T06:24:25Z</time>
      </trkpt>
      <trkpt lat="43.67639" lon="3.85989">
        <ele>62</ele>
        <time>2018-09-16T06:24:26Z</time>
      </trkpt>
      <trkpt lat="43.67644" lon="3.85987">
        <ele>61.5</ele>
        <time>2018-09-16T06:24:27Z</time>
      </trkpt>
      <trkpt lat="43.67647" lon="3.85986">
        <ele>61.2</ele>
        <time>2018-09-16T06:24:28Z</time>
      </trkpt>
      <trkpt lat="43.67653" lon="3.85984">
        <ele>60.6</ele>
        <time>2018-09-16T06:24:29Z</time>
      </trkpt>
      <trkpt lat="43.67657" lon="3.85984">
        <ele>60.5</ele>
        <time>2018-09-16T06:24:30Z</time>
      </trkpt>
      <trkpt lat="43.67662" lon="3.85982">
        <ele>59.9</ele>
        <time>2018-09-16T06:24:31Z</time>
      </trkpt>
      <trkpt lat="43.67667" lon="3.85982">
        <ele>59.8</ele>
        <time>2018-09-16T06:24:32Z</time>
      </trkpt>
      <trkpt lat="43.67672" lon="3.85982">
        <ele>59.8</ele>
        <time>2018-09-16T06:24:33Z</time>
      </trkpt>
      <trkpt lat="43.67677" lon="3.85981">
        <ele>59.7</ele>
        <time>2018-09-16T06:24:34Z</time>
      </trkpt>
      <trkpt lat="43.67683" lon="3.8598">
        <ele>59.6</ele>
        <time>2018-09-16T06:24:35Z</time>
      </trkpt>
      <trkpt lat="43.67689" lon="3.85984">
        <ele>60.5</ele>
        <time>2018-09-16T06:24:36Z</time>
      </trkpt>
      <trkpt lat="43.67694" lon="3.85981">
        <ele>59.9</ele>
        <time>2018-09-16T06:24:37Z</time>
      </trkpt>
      <trkpt lat="43.677" lon="3.85981">
        <ele>59.4</ele>
        <time>2018-09-16T06:24:38Z</time>
      </trkpt>
      <trkpt lat="43.67704" lon="3.8598">
        <ele>58.8</ele>
        <time>2018-09-16T06:24:39Z</time>
      </trkpt>
      <trkpt lat="43.67712" lon="3.85984">
        <ele>58.7</ele>
        <time>2018-09-16T06:24:41Z</time>
      </trkpt>
      <trkpt lat="43.67717" lon="3.85984">
        <ele>58.2</ele>
        <time>2018-09-16T06:24:42Z</time>
      </trkpt>
      <trkpt lat="43.67714" lon="3.85994">
        <ele>60.2</ele>
        <time>2018-09-16T06:24:53Z</time>
      </trkpt>
      <trkpt lat="43.67713" lon="3.85995">
        <ele>60.5</ele>
        <time>2018-09-16T06:24:54Z</time>
      </trkpt>
      <trkpt lat="43.67705" lon="3.85997">
        <ele>61.9</ele>
        <time>2018-09-16T06:24:58Z</time>
      </trkpt>
      <trkpt lat="43.67704" lon="3.85998">
        <ele>62.2</ele>
        <time>2018-09-16T06:24:59Z</time>
      </trkpt>
      <trkpt lat="43.67697" lon="3.86001">
        <ele>64</ele>
        <time>2018-09-16T06:25:03Z</time>
      </trkpt>
      <trkpt lat="43.67694" lon="3.86002">
        <ele>64.6</ele>
        <time>2018-09-16T06:25:04Z</time>
      </trkpt>
      <trkpt lat="43.67687" lon="3.86006">
        <ele>65.7</ele>
        <time>2018-09-16T06:25:10Z</time>
      </trkpt>
      <trkpt lat="43.67685" lon="3.86007">
        <ele>65.9</ele>
        <time>2018-09-16T06:25:11Z</time>
      </trkpt>
      <trkpt lat="43.67677" lon="3.86012">
        <ele>67.3</ele>
        <time>2018-09-16T06:25:17Z</time>
      </trkpt>
      <trkpt lat="43.67676" lon="3.86013">
        <ele>67.5</ele>
        <time>2018-09-16T06:25:18Z</time>
      </trkpt>
      <trkpt lat="43.67668" lon="3.86016">
        <ele>68.2</ele>
        <time>2018-09-16T06:25:25Z</time>
      </trkpt>
      <trkpt lat="43.67667" lon="3.86017">
        <ele>68.5</ele>
        <time>2018-09-16T06:25:26Z</time>
      </trkpt>
      <trkpt lat="43.67659" lon="3.8602">
        <ele>69.6</ele>
        <time>2018-09-16T06:25:32Z</time>
      </trkpt>
      <trkpt lat="43.67658" lon="3.86021">
        <ele>69.9</ele>
        <time>2018-09-16T06:25:33Z</time>
      </trkpt>
      <trkpt lat="43.67649" lon="3.86025">
        <ele>71.2</ele>
        <time>2018-09-16T06:25:39Z</time>
      </trkpt>
      <trkpt lat="43.67648" lon="3.86026">
        <ele>71.5</ele>
        <time>2018-09-16T06:25:40Z</time>
      </trkpt>
      <trkpt lat="43.67652" lon="3.86035">
        <ele>72.1</ele>
        <time>2018-09-16T06:25:55Z</time>
      </trkpt>
      <trkpt lat="43.67654" lon="3.86036">
        <ele>72.2</ele>
        <time>2018-09-16T06:25:56Z</time>
      </trkpt>
      <trkpt lat="43.6766" lon="3.86039">
        <ele>72.3</ele>
        <time>2018-09-16T06:25:59Z</time>
      </trkpt>
      <trkpt lat="43.67662" lon="3.8604">
        <ele>72.4</ele>
        <time>2018-09-16T06:26:00Z</time>
      </trkpt>
      <trkpt lat="43.67669" lon="3.86043">
        <ele>72.6</ele>
        <time>2018-09-16T06:26:03Z</time>
      </trkpt>
      <trkpt lat="43.67671" lon="3.86044">
        <ele>72.7</ele>
        <time>2018-09-16T06:26:04Z</time>
      </trkpt>
      <trkpt lat="43.6768" lon="3.86046">
        <ele>73.1</ele>
        <time>2018-09-16T06:26:08Z</time>
      </trkpt>
      <trkpt lat="43.67682" lon="3.86046">
        <ele>73.2</ele>
        <time>2018-09-16T06:26:09Z</time>
      </trkpt>
      <trkpt lat="43.67689" lon="3.86041">
        <ele>73.3</ele>
        <time>2018-09-16T06:26:14Z</time>
      </trkpt>
      <trkpt lat="43.67691" lon="3.8604">
        <ele>73.3</ele>
        <time>2018-09-16T06:26:15Z</time>
      </trkpt>
      <trkpt lat="43.67699" lon="3.86039">
        <ele>72.9</ele>
        <time>2018-09-16T06:26:21Z</time>
      </trkpt>
      <trkpt lat="43.677" lon="3.8604">
        <ele>72.8</ele>
        <time>2018-09-16T06:26:22Z</time>
      </trkpt>
      <trkpt lat="43.67708" lon="3.86043">
        <ele>72.1</ele>
        <time>2018-09-16T06:26:27Z</time>
      </trkpt>
      <trkpt lat="43.67709" lon="3.86045">
        <ele>72</ele>
        <time>2018-09-16T06:26:28Z</time>
      </trkpt>
      <trkpt lat="43.67714" lon="3.86054">
        <ele>71.8</ele>
        <time>2018-09-16T06:26:33Z</time>
      </trkpt>
      <trkpt lat="43.67715" lon="3.86057">
        <ele>71.6</ele>
        <time>2018-09-16T06:26:34Z</time>
      </trkpt>
      <trkpt lat="43.67718" lon="3.86068">
        <ele>70</ele>
        <time>2018-09-16T06:26:39Z</time>
      </trkpt>
      <trkpt lat="43.67716" lon="3.86071">
        <ele>69.8</ele>
        <time>2018-09-16T06:26:40Z</time>
      </trkpt>
      <trkpt lat="43.67709" lon="3.86077">
        <ele>69.4</ele>
        <time>2018-09-16T06:26:43Z</time>
      </trkpt>
      <trkpt lat="43.67706" lon="3.86079">
        <ele>69.2</ele>
        <time>2018-09-16T06:26:44Z</time>
      </trkpt>
      <trkpt lat="43.67695" lon="3.86085">
        <ele>68.6</ele>
        <time>2018-09-16T06:26:45Z</time>
      </trkpt>
      <trkpt lat="43.67687" lon="3.86089">
        <ele>67.8</ele>
        <time>2018-09-16T06:26:47Z</time>
      </trkpt>
      <trkpt lat="43.67683" lon="3.86091">
        <ele>67.3</ele>
        <time>2018-09-16T06:26:48Z</time>
      </trkpt>
      <trkpt lat="43.67678" lon="3.86093">
        <ele>66.9</ele>
        <time>2018-09-16T06:26:49Z</time>
      </trkpt>
      <trkpt lat="43.67673" lon="3.86096">
        <ele>66.3</ele>
        <time>2018-09-16T06:26:50Z</time>
      </trkpt>
      <trkpt lat="43.67666" lon="3.86099">
        <ele>65.6</ele>
        <time>2018-09-16T06:26:53Z</time>
      </trkpt>
      <trkpt lat="43.67664" lon="3.861">
        <ele>65.5</ele>
        <time>2018-09-16T06:26:54Z</time>
      </trkpt>
      <trkpt lat="43.67656" lon="3.861">
        <ele>65.6</ele>
        <time>2018-09-16T06:26:59Z</time>
      </trkpt>
      <trkpt lat="43.67654" lon="3.86099">
        <ele>65.9</ele>
        <time>2018-09-16T06:27:00Z</time>
      </trkpt>
      <trkpt lat="43.67647" lon="3.86093">
        <ele>67.2</ele>
        <time>2018-09-16T06:27:06Z</time>
      </trkpt>
      <trkpt lat="43.67646" lon="3.86091">
        <ele>67.5</ele>
        <time>2018-09-16T06:27:07Z</time>
      </trkpt>
      <trkpt lat="43.67637" lon="3.86094">
        <ele>67.1</ele>
        <time>2018-09-16T06:27:12Z</time>
      </trkpt>
      <trkpt lat="43.67635" lon="3.86096">
        <ele>66.8</ele>
        <time>2018-09-16T06:27:13Z</time>
      </trkpt>
      <trkpt lat="43.67632" lon="3.86097">
        <ele>66.7</ele>
        <time>2018-09-16T06:27:14Z</time>
      </trkpt>
      <trkpt lat="43.67621" lon="3.86104">
        <ele>65.8</ele>
        <time>2018-09-16T06:27:15Z</time>
      </trkpt>
      <trkpt lat="43.67615" lon="3.86108">
        <ele>65.3</ele>
        <time>2018-09-16T06:27:16Z</time>
      </trkpt>
      <trkpt lat="43.6761" lon="3.8611">
        <ele>65.1</ele>
        <time>2018-09-16T06:27:17Z</time>
      </trkpt>
      <trkpt lat="43.67602" lon="3.86115">
        <ele>63.9</ele>
        <time>2018-09-16T06:27:19Z</time>
      </trkpt>
      <trkpt lat="43.67599" lon="3.86114">
        <ele>64</ele>
        <time>2018-09-16T06:27:20Z</time>
      </trkpt>
      <trkpt lat="43.67593" lon="3.86114">
        <ele>63.8</ele>
        <time>2018-09-16T06:27:21Z</time>
      </trkpt>
      <trkpt lat="43.67589" lon="3.86114">
        <ele>63.7</ele>
        <time>2018-09-16T06:27:22Z</time>
      </trkpt>
      <trkpt lat="43.67581" lon="3.86117">
        <ele>63</ele>
        <time>2018-09-16T06:27:29Z</time>
      </trkpt>
      <trkpt lat="43.6758" lon="3.86117">
        <ele>63</ele>
        <time>2018-09-16T06:27:30Z</time>
      </trkpt>
      <trkpt lat="43.67573" lon="3.86121">
        <ele>62.5</ele>
        <time>2018-09-16T06:27:33Z</time>
      </trkpt>
      <trkpt lat="43.6757" lon="3.86123">
        <ele>62.1</ele>
        <time>2018-09-16T06:27:34Z</time>
      </trkpt>
      <trkpt lat="43.67564" lon="3.86126">
        <ele>61.6</ele>
        <time>2018-09-16T06:27:36Z</time>
      </trkpt>
      <trkpt lat="43.67561" lon="3.86127">
        <ele>61.5</ele>
        <time>2018-09-16T06:27:37Z</time>
      </trkpt>
      <trkpt lat="43.67554" lon="3.86129">
        <ele>61.2</ele>
        <time>2018-09-16T06:27:39Z</time>
      </trkpt>
      <trkpt lat="43.67551" lon="3.86131">
        <ele>60.9</ele>
        <time>2018-09-16T06:27:40Z</time>
      </trkpt>
      <trkpt lat="43.67547" lon="3.86132">
        <ele>60.8</ele>
        <time>2018-09-16T06:27:41Z</time>
      </trkpt>
      <trkpt lat="43.67535" lon="3.86136">
        <ele>60.4</ele>
        <time>2018-09-16T06:27:42Z</time>
      </trkpt>
      <trkpt lat="43.6753" lon="3.86138">
        <ele>60.1</ele>
        <time>2018-09-16T06:27:43Z</time>
      </trkpt>
      <trkpt lat="43.67526" lon="3.86138">
        <ele>60.3</ele>
        <time>2018-09-16T06:27:44Z</time>
      </trkpt>
      <trkpt lat="43.67522" lon="3.86135">
        <ele>61</ele>
        <time>2018-09-16T06:27:45Z</time>
      </trkpt>
      <trkpt lat="43.67517" lon="3.86131">
        <ele>62</ele>
        <time>2018-09-16T06:27:46Z</time>
      </trkpt>
      <trkpt lat="43.67511" lon="3.86128">
        <ele>62.7</ele>
        <time>2018-09-16T06:27:49Z</time>
      </trkpt>
      <trkpt lat="43.67503" lon="3.86125">
        <ele>63.4</ele>
        <time>2018-09-16T06:27:50Z</time>
      </trkpt>
      <trkpt lat="43.67495" lon="3.86123">
        <ele>63.9</ele>
        <time>2018-09-16T06:27:54Z</time>
      </trkpt>
      <trkpt lat="43.67493" lon="3.86124">
        <ele>63.7</ele>
        <time>2018-09-16T06:27:55Z</time>
      </trkpt>
      <trkpt lat="43.67485" lon="3.86125">
        <ele>63.5</ele>
        <time>2018-09-16T06:27:56Z</time>
      </trkpt>
      <trkpt lat="43.67483" lon="3.86126">
        <ele>63.3</ele>
        <time>2018-09-16T06:27:57Z</time>
      </trkpt>
      <trkpt lat="43.67477" lon="3.86127">
        <ele>63.1</ele>
        <time>2018-09-16T06:27:58Z</time>
      </trkpt>
      <trkpt lat="43.67473" lon="3.86129">
        <ele>62.8</ele>
        <time>2018-09-16T06:27:59Z</time>
      </trkpt>
      <trkpt lat="43.67464" lon="3.86129">
        <ele>63.3</ele>
        <time>2018-09-16T06:28:01Z</time>
      </trkpt>
      <trkpt lat="43.67463" lon="3.86129">
        <ele>63.3</ele>
        <time>2018-09-16T06:28:02Z</time>
      </trkpt>
      <trkpt lat="43.6746" lon="3.86129">
        <ele>63.5</ele>
        <time>2018-09-16T06:28:03Z</time>
      </trkpt>
      <trkpt lat="43.67453" lon="3.8613">
        <ele>63.8</ele>
        <time>2018-09-16T06:28:04Z</time>
      </trkpt>
      <trkpt lat="43.67448" lon="3.86133">
        <ele>63.6</ele>
        <time>2018-09-16T06:28:06Z</time>
      </trkpt>
      <trkpt lat="43.67442" lon="3.86136">
        <ele>63.6</ele>
        <time>2018-09-16T06:28:07Z</time>
      </trkpt>
      <trkpt lat="43.67434" lon="3.86139">
        <ele>63.7</ele>
        <time>2018-09-16T06:28:09Z</time>
      </trkpt>
      <trkpt lat="43.6743" lon="3.86139">
        <ele>64</ele>
        <time>2018-09-16T06:28:10Z</time>
      </trkpt>
      <trkpt lat="43.67422" lon="3.86142">
        <ele>64.2</ele>
        <time>2018-09-16T06:28:13Z</time>
      </trkpt>
      <trkpt lat="43.6742" lon="3.86142">
        <ele>64.3</ele>
        <time>2018-09-16T06:28:14Z</time>
      </trkpt>
      <trkpt lat="43.67414" lon="3.86144">
        <ele>64.4</ele>
        <time>2018-09-16T06:28:16Z</time>
      </trkpt>
      <trkpt lat="43.6741" lon="3.86144">
        <ele>64.5</ele>
        <time>2018-09-16T06:28:17Z</time>
      </trkpt>
      <trkpt lat="43.67405" lon="3.86135">
        <ele>65.8</ele>
        <time>2018-09-16T06:28:22Z</time>
      </trkpt>
      <trkpt lat="43.67404" lon="3.86133">
        <ele>66.1</ele>
        <time>2018-09-16T06:28:23Z</time>
      </trkpt>
      <trkpt lat="43.67403" lon="3.86123">
        <ele>67.2</ele>
        <time>2018-09-16T06:28:27Z</time>
      </trkpt>
      <trkpt lat="43.67403" lon="3.8612">
        <ele>67.5</ele>
        <time>2018-09-16T06:28:28Z</time>
      </trkpt>
      <trkpt lat="43.67404" lon="3.8611">
        <ele>68.5</ele>
        <time>2018-09-16T06:28:32Z</time>
      </trkpt>
      <trkpt lat="43.67405" lon="3.86107">
        <ele>68.7</ele>
        <time>2018-09-16T06:28:33Z</time>
      </trkpt>
      <trkpt lat="43.67408" lon="3.86097">
        <ele>69.2</ele>
        <time>2018-09-16T06:28:37Z</time>
      </trkpt>
      <trkpt lat="43.67408" lon="3.86094">
        <ele>69.4</ele>
        <time>2018-09-16T06:28:38Z</time>
      </trkpt>
      <trkpt lat="43.67406" lon="3.86085">
        <ele>69.9</ele>
        <time>2018-09-16T06:28:41Z</time>
      </trkpt>
      <trkpt lat="43.67405" lon="3.86081">
        <ele>69.9</ele>
        <time>2018-09-16T06:28:42Z</time>
      </trkpt>
      <trkpt lat="43.67402" lon="3.86069">
        <ele>69.2</ele>
        <time>2018-09-16T06:28:45Z</time>
      </trkpt>
      <trkpt lat="43.67401" lon="3.86065">
        <ele>69</ele>
        <time>2018-09-16T06:28:46Z</time>
      </trkpt>
      <trkpt lat="43.67398" lon="3.8605">
        <ele>67.8</ele>
        <time>2018-09-16T06:28:47Z</time>
      </trkpt>
      <trkpt lat="43.67397" lon="3.86039">
        <ele>66.7</ele>
        <time>2018-09-16T06:28:50Z</time>
      </trkpt>
      <trkpt lat="43.67397" lon="3.86036">
        <ele>66.4</ele>
        <time>2018-09-16T06:28:51Z</time>
      </trkpt>
      <trkpt lat="43.67391" lon="3.8603">
        <ele>65.4</ele>
        <time>2018-09-16T06:28:56Z</time>
      </trkpt>
      <trkpt lat="43.67387" lon="3.86031">
        <ele>65.2</ele>
        <time>2018-09-16T06:28:57Z</time>
      </trkpt>
      <trkpt lat="43.6738" lon="3.86035">
        <ele>65.1</ele>
        <time>2018-09-16T06:28:59Z</time>
      </trkpt>
      <trkpt lat="43.67367" lon="3.86041">
        <ele>64.9</ele>
        <time>2018-09-16T06:29:00Z</time>
      </trkpt>
      <trkpt lat="43.67362" lon="3.86047">
        <ele>65.1</ele>
        <time>2018-09-16T06:29:01Z</time>
      </trkpt>
      <trkpt lat="43.67356" lon="3.86051">
        <ele>65</ele>
        <time>2018-09-16T06:29:02Z</time>
      </trkpt>
      <trkpt lat="43.67348" lon="3.86056">
        <ele>64.6</ele>
        <time>2018-09-16T06:29:04Z</time>
      </trkpt>
      <trkpt lat="43.67342" lon="3.86059">
        <ele>64.3</ele>
        <time>2018-09-16T06:29:05Z</time>
      </trkpt>
      <trkpt lat="43.67337" lon="3.86062">
        <ele>64.1</ele>
        <time>2018-09-16T06:29:06Z</time>
      </trkpt>
      <trkpt lat="43.67334" lon="3.86065">
        <ele>64.1</ele>
        <time>2018-09-16T06:29:07Z</time>
      </trkpt>
      <trkpt lat="43.6733" lon="3.86069">
        <ele>64.2</ele>
        <time>2018-09-16T06:29:08Z</time>
      </trkpt>
      <trkpt lat="43.67326" lon="3.86071">
        <ele>64</ele>
        <time>2018-09-16T06:29:09Z</time>
      </trkpt>
      <trkpt lat="43.67319" lon="3.86077">
        <ele>63.9</ele>
        <time>2018-09-16T06:29:11Z</time>
      </trkpt>
      <trkpt lat="43.67316" lon="3.86078">
        <ele>63.7</ele>
        <time>2018-09-16T06:29:12Z</time>
      </trkpt>
      <trkpt lat="43.67311" lon="3.86085">
        <ele>63.7</ele>
        <time>2018-09-16T06:29:14Z</time>
      </trkpt>
      <trkpt lat="43.67308" lon="3.86089">
        <ele>63.7</ele>
        <time>2018-09-16T06:29:15Z</time>
      </trkpt>
      <trkpt lat="43.67303" lon="3.86098">
        <ele>63.8</ele>
        <time>2018-09-16T06:29:17Z</time>
      </trkpt>
      <trkpt lat="43.673" lon="3.86102">
        <ele>63.8</ele>
        <time>2018-09-16T06:29:18Z</time>
      </trkpt>
      <trkpt lat="43.67292" lon="3.86104">
        <ele>63.1</ele>
        <time>2018-09-16T06:29:20Z</time>
      </trkpt>
      <trkpt lat="43.67289" lon="3.86107">
        <ele>63</ele>
        <time>2018-09-16T06:29:21Z</time>
      </trkpt>
      <trkpt lat="43.67284" lon="3.86115">
        <ele>62.7</ele>
        <time>2018-09-16T06:29:23Z</time>
      </trkpt>
      <trkpt lat="43.67281" lon="3.86118">
        <ele>62.3</ele>
        <time>2018-09-16T06:29:24Z</time>
      </trkpt>
      <trkpt lat="43.67274" lon="3.86123">
        <ele>61.5</ele>
        <time>2018-09-16T06:29:26Z</time>
      </trkpt>
      <trkpt lat="43.6727" lon="3.86124">
        <ele>60.9</ele>
        <time>2018-09-16T06:29:27Z</time>
      </trkpt>
      <trkpt lat="43.67263" lon="3.86129">
        <ele>59.9</ele>
        <time>2018-09-16T06:29:29Z</time>
      </trkpt>
      <trkpt lat="43.67263" lon="3.86132">
        <ele>59.9</ele>
        <time>2018-09-16T06:29:30Z</time>
      </trkpt>
      <trkpt lat="43.67262" lon="3.86141">
        <ele>59.7</ele>
        <time>2018-09-16T06:29:31Z</time>
      </trkpt>
      <trkpt lat="43.67262" lon="3.86147">
        <ele>59.6</ele>
        <time>2018-09-16T06:29:32Z</time>
      </trkpt>
      <trkpt lat="43.67267" lon="3.86154">
        <ele>60.1</ele>
        <time>2018-09-16T06:29:36Z</time>
      </trkpt>
      <trkpt lat="43.67269" lon="3.86154">
        <ele>60.4</ele>
        <time>2018-09-16T06:29:37Z</time>
      </trkpt>
      <trkpt lat="43.67277" lon="3.86156">
        <ele>61.3</ele>
        <time>2018-09-16T06:29:42Z</time>
      </trkpt>
      <trkpt lat="43.67278" lon="3.86157">
        <ele>61.4</ele>
        <time>2018-09-16T06:29:43Z</time>
      </trkpt>
      <trkpt lat="43.67286" lon="3.86156">
        <ele>62.1</ele>
        <time>2018-09-16T06:29:47Z</time>
      </trkpt>
      <trkpt lat="43.67288" lon="3.86156">
        <ele>62.3</ele>
        <time>2018-09-16T06:29:48Z</time>
      </trkpt>
      <trkpt lat="43.67293" lon="3.86157">
        <ele>62.6</ele>
        <time>2018-09-16T06:29:50Z</time>
      </trkpt>
      <trkpt lat="43.67297" lon="3.86159">
        <ele>62.9</ele>
        <time>2018-09-16T06:29:51Z</time>
      </trkpt>
      <trkpt lat="43.67304" lon="3.86158">
        <ele>63.5</ele>
        <time>2018-09-16T06:29:54Z</time>
      </trkpt>
      <trkpt lat="43.67307" lon="3.86158">
        <ele>63.6</ele>
        <time>2018-09-16T06:29:55Z</time>
      </trkpt>
      <trkpt lat="43.67315" lon="3.86159">
        <ele>63.6</ele>
        <time>2018-09-16T06:29:58Z</time>
      </trkpt>
      <trkpt lat="43.67317" lon="3.86161">
        <ele>63.5</ele>
        <time>2018-09-16T06:29:59Z</time>
      </trkpt>
      <trkpt lat="43.67324" lon="3.86166">
        <ele>63.1</ele>
        <time>2018-09-16T06:30:02Z</time>
      </trkpt>
      <trkpt lat="43.67326" lon="3.86167">
        <ele>63</ele>
        <time>2018-09-16T06:30:03Z</time>
      </trkpt>
      <trkpt lat="43.67333" lon="3.86167">
        <ele>63</ele>
        <time>2018-09-16T06:30:06Z</time>
      </trkpt>
      <trkpt lat="43.67335" lon="3.86168">
        <ele>62.8</ele>
        <time>2018-09-16T06:30:07Z</time>
      </trkpt>
      <trkpt lat="43.67342" lon="3.86174">
        <ele>61.9</ele>
        <time>2018-09-16T06:30:11Z</time>
      </trkpt>
      <trkpt lat="43.67344" lon="3.86177">
        <ele>61.5</ele>
        <time>2018-09-16T06:30:12Z</time>
      </trkpt>
      <trkpt lat="43.67348" lon="3.86187">
        <ele>60.1</ele>
        <time>2018-09-16T06:30:15Z</time>
      </trkpt>
      <trkpt lat="43.67347" lon="3.8619">
        <ele>59.6</ele>
        <time>2018-09-16T06:30:16Z</time>
      </trkpt>
      <trkpt lat="43.67346" lon="3.86201">
        <ele>58.2</ele>
        <time>2018-09-16T06:30:20Z</time>
      </trkpt>
      <trkpt lat="43.67345" lon="3.86204">
        <ele>57.8</ele>
        <time>2018-09-16T06:30:21Z</time>
      </trkpt>
      <trkpt lat="43.67344" lon="3.86207">
        <ele>57.4</ele>
        <time>2018-09-16T06:30:22Z</time>
      </trkpt>
      <trkpt lat="43.67334" lon="3.86221">
        <ele>55.2</ele>
        <time>2018-09-16T06:30:23Z</time>
      </trkpt>
      <trkpt lat="43.67331" lon="3.86223">
        <ele>55</ele>
        <time>2018-09-16T06:30:24Z</time>
      </trkpt>
      <trkpt lat="43.67326" lon="3.86227">
        <ele>55</ele>
        <time>2018-09-16T06:30:25Z</time>
      </trkpt>
      <trkpt lat="43.67322" lon="3.86231">
        <ele>54.9</ele>
        <time>2018-09-16T06:30:26Z</time>
      </trkpt>
      <trkpt lat="43.67318" lon="3.86235">
        <ele>54.7</ele>
        <time>2018-09-16T06:30:27Z</time>
      </trkpt>
      <trkpt lat="43.67313" lon="3.86239">
        <ele>54.6</ele>
        <time>2018-09-16T06:30:28Z</time>
      </trkpt>
      <trkpt lat="43.67309" lon="3.86242">
        <ele>54.4</ele>
        <time>2018-09-16T06:30:29Z</time>
      </trkpt>
      <trkpt lat="43.67305" lon="3.86245">
        <ele>54.2</ele>
        <time>2018-09-16T06:30:30Z</time>
      </trkpt>
      <trkpt lat="43.67302" lon="3.86249">
        <ele>54.2</ele>
        <time>2018-09-16T06:30:31Z</time>
      </trkpt>
      <trkpt lat="43.67298" lon="3.86254">
        <ele>54.2</ele>
        <time>2018-09-16T06:30:32Z</time>
      </trkpt>
      <trkpt lat="43.67294" lon="3.86257">
        <ele>54.2</ele>
        <time>2018-09-16T06:30:33Z</time>
      </trkpt>
      <trkpt lat="43.67286" lon="3.86262">
        <ele>54.1</ele>
        <time>2018-09-16T06:30:35Z</time>
      </trkpt>
      <trkpt lat="43.67285" lon="3.86264">
        <ele>54</ele>
        <time>2018-09-16T06:30:36Z</time>
      </trkpt>
      <trkpt lat="43.67288" lon="3.86275">
        <ele>53.5</ele>
        <time>2018-09-16T06:30:40Z</time>
      </trkpt>
      <trkpt lat="43.67289" lon="3.86278">
        <ele>53.4</ele>
        <time>2018-09-16T06:30:41Z</time>
      </trkpt>
      <trkpt lat="43.67293" lon="3.86289">
        <ele>53.4</ele>
        <time>2018-09-16T06:30:42Z</time>
      </trkpt>
      <trkpt lat="43.67293" lon="3.86298">
        <ele>53.2</ele>
        <time>2018-09-16T06:30:44Z</time>
      </trkpt>
      <trkpt lat="43.67293" lon="3.86304">
        <ele>53.1</ele>
        <time>2018-09-16T06:30:45Z</time>
      </trkpt>
      <trkpt lat="43.67294" lon="3.86314">
        <ele>52.9</ele>
        <time>2018-09-16T06:30:47Z</time>
      </trkpt>
      <trkpt lat="43.67295" lon="3.86316">
        <ele>52.9</ele>
        <time>2018-09-16T06:30:48Z</time>
      </trkpt>
      <trkpt lat="43.67298" lon="3.86325">
        <ele>52.8</ele>
        <time>2018-09-16T06:30:51Z</time>
      </trkpt>
      <trkpt lat="43.67299" lon="3.86328">
        <ele>52.7</ele>
        <time>2018-09-16T06:30:52Z</time>
      </trkpt>
      <trkpt lat="43.67302" lon="3.86336">
        <ele>52.6</ele>
        <time>2018-09-16T06:30:54Z</time>
      </trkpt>
      <trkpt lat="43.67303" lon="3.86341">
        <ele>52.3</ele>
        <time>2018-09-16T06:30:55Z</time>
      </trkpt>
      <trkpt lat="43.67308" lon="3.86353">
        <ele>51.8</ele>
        <time>2018-09-16T06:30:56Z</time>
      </trkpt>
      <trkpt lat="43.67312" lon="3.86362">
        <ele>51.7</ele>
        <time>2018-09-16T06:30:58Z</time>
      </trkpt>
      <trkpt lat="43.67315" lon="3.86366">
        <ele>51.8</ele>
        <time>2018-09-16T06:30:59Z</time>
      </trkpt>
      <trkpt lat="43.67319" lon="3.86375">
        <ele>51.7</ele>
        <time>2018-09-16T06:31:01Z</time>
      </trkpt>
      <trkpt lat="43.67323" lon="3.86379">
        <ele>51.8</ele>
        <time>2018-09-16T06:31:02Z</time>
      </trkpt>
      <trkpt lat="43.67329" lon="3.86387">
        <ele>51.8</ele>
        <time>2018-09-16T06:31:04Z</time>
      </trkpt>
      <trkpt lat="43.67331" lon="3.86392">
        <ele>51.7</ele>
        <time>2018-09-16T06:31:05Z</time>
      </trkpt>
      <trkpt lat="43.67337" lon="3.86402">
        <ele>51.8</ele>
        <time>2018-09-16T06:31:07Z</time>
      </trkpt>
      <trkpt lat="43.67341" lon="3.86407">
        <ele>51.9</ele>
        <time>2018-09-16T06:31:08Z</time>
      </trkpt>
      <trkpt lat="43.67347" lon="3.86414">
        <ele>52.1</ele>
        <time>2018-09-16T06:31:10Z</time>
      </trkpt>
      <trkpt lat="43.67351" lon="3.86418">
        <ele>52.2</ele>
        <time>2018-09-16T06:31:11Z</time>
      </trkpt>
      <trkpt lat="43.67354" lon="3.8643">
        <ele>52.1</ele>
        <time>2018-09-16T06:31:17Z</time>
      </trkpt>
      <trkpt lat="43.67347" lon="3.8643">
        <ele>51.7</ele>
        <time>2018-09-16T06:31:18Z</time>
      </trkpt>
      <trkpt lat="43.67338" lon="3.86431">
        <ele>51.2</ele>
        <time>2018-09-16T06:31:20Z</time>
      </trkpt>
      <trkpt lat="43.67334" lon="3.86432">
        <ele>51</ele>
        <time>2018-09-16T06:31:21Z</time>
      </trkpt>
      <trkpt lat="43.6733" lon="3.86435">
        <ele>51</ele>
        <time>2018-09-16T06:31:22Z</time>
      </trkpt>
      <trkpt lat="43.67325" lon="3.86438">
        <ele>51</ele>
        <time>2018-09-16T06:31:23Z</time>
      </trkpt>
      <trkpt lat="43.67319" lon="3.86446">
        <ele>51</ele>
        <time>2018-09-16T06:31:25Z</time>
      </trkpt>
      <trkpt lat="43.67316" lon="3.86451">
        <ele>51</ele>
        <time>2018-09-16T06:31:26Z</time>
      </trkpt>
      <trkpt lat="43.67311" lon="3.8646">
        <ele>51</ele>
        <time>2018-09-16T06:31:28Z</time>
      </trkpt>
      <trkpt lat="43.67308" lon="3.86465">
        <ele>51</ele>
        <time>2018-09-16T06:31:29Z</time>
      </trkpt>
      <trkpt lat="43.67303" lon="3.86474">
        <ele>51</ele>
        <time>2018-09-16T06:31:31Z</time>
      </trkpt>
      <trkpt lat="43.67301" lon="3.86476">
        <ele>51</ele>
        <time>2018-09-16T06:31:32Z</time>
      </trkpt>
      <trkpt lat="43.67293" lon="3.8648">
        <ele>51</ele>
        <time>2018-09-16T06:31:36Z</time>
      </trkpt>
      <trkpt lat="43.67291" lon="3.86481">
        <ele>51</ele>
        <time>2018-09-16T06:31:37Z</time>
      </trkpt>
      <trkpt lat="43.67286" lon="3.86484">
        <ele>51</ele>
        <time>2018-09-16T06:31:40Z</time>
      </trkpt>
      <trkpt lat="43.67284" lon="3.86494">
        <ele>51</ele>
        <time>2018-09-16T06:31:41Z</time>
      </trkpt>
      <trkpt lat="43.67286" lon="3.86503">
        <ele>50.9</ele>
        <time>2018-09-16T06:31:43Z</time>
      </trkpt>
      <trkpt lat="43.67287" lon="3.86508">
        <ele>50.8</ele>
        <time>2018-09-16T06:31:44Z</time>
      </trkpt>
      <trkpt lat="43.67289" lon="3.86518">
        <ele>50.6</ele>
        <time>2018-09-16T06:31:46Z</time>
      </trkpt>
      <trkpt lat="43.6729" lon="3.86524">
        <ele>50.5</ele>
        <time>2018-09-16T06:31:47Z</time>
      </trkpt>
      <trkpt lat="43.67292" lon="3.86534">
        <ele>50.5</ele>
        <time>2018-09-16T06:31:49Z</time>
      </trkpt>
      <trkpt lat="43.67293" lon="3.86539">
        <ele>50.5</ele>
        <time>2018-09-16T06:31:50Z</time>
      </trkpt>
      <trkpt lat="43.67296" lon="3.86548">
        <ele>50.7</ele>
        <time>2018-09-16T06:31:52Z</time>
      </trkpt>
      <trkpt lat="43.67297" lon="3.86553">
        <ele>50.7</ele>
        <time>2018-09-16T06:31:53Z</time>
      </trkpt>
      <trkpt lat="43.67298" lon="3.86563">
        <ele>50.9</ele>
        <time>2018-09-16T06:31:55Z</time>
      </trkpt>
      <trkpt lat="43.67299" lon="3.86566">
        <ele>51.1</ele>
        <time>2018-09-16T06:31:56Z</time>
      </trkpt>
      <trkpt lat="43.67301" lon="3.86578">
        <ele>51.5</ele>
        <time>2018-09-16T06:31:58Z</time>
      </trkpt>
      <trkpt lat="43.67301" lon="3.86581">
        <ele>51.6</ele>
        <time>2018-09-16T06:31:59Z</time>
      </trkpt>
      <trkpt lat="43.67303" lon="3.86591">
        <ele>51.8</ele>
        <time>2018-09-16T06:32:02Z</time>
      </trkpt>
      <trkpt lat="43.67303" lon="3.86595">
        <ele>51.8</ele>
        <time>2018-09-16T06:32:03Z</time>
      </trkpt>
      <trkpt lat="43.67305" lon="3.86604">
        <ele>51.9</ele>
        <time>2018-09-16T06:32:05Z</time>
      </trkpt>
      <trkpt lat="43.67305" lon="3.86608">
        <ele>51.9</ele>
        <time>2018-09-16T06:32:06Z</time>
      </trkpt>
      <trkpt lat="43.67307" lon="3.86618">
        <ele>51.4</ele>
        <time>2018-09-16T06:32:08Z</time>
      </trkpt>
      <trkpt lat="43.67308" lon="3.86622">
        <ele>50.9</ele>
        <time>2018-09-16T06:32:09Z</time>
      </trkpt>
      <trkpt lat="43.6731" lon="3.86631">
        <ele>49.9</ele>
        <time>2018-09-16T06:32:11Z</time>
      </trkpt>
      <trkpt lat="43.67311" lon="3.86635">
        <ele>49.4</ele>
        <time>2018-09-16T06:32:12Z</time>
      </trkpt>
      <trkpt lat="43.67313" lon="3.86643">
        <ele>48</ele>
        <time>2018-09-16T06:32:14Z</time>
      </trkpt>
      <trkpt lat="43.67314" lon="3.86647">
        <ele>47.2</ele>
        <time>2018-09-16T06:32:15Z</time>
      </trkpt>
      <trkpt lat="43.67315" lon="3.86656">
        <ele>45.7</ele>
        <time>2018-09-16T06:32:17Z</time>
      </trkpt>
      <trkpt lat="43.67316" lon="3.86661">
        <ele>44.8</ele>
        <time>2018-09-16T06:32:18Z</time>
      </trkpt>
      <trkpt lat="43.67319" lon="3.8667">
        <ele>45.1</ele>
        <time>2018-09-16T06:32:20Z</time>
      </trkpt>
      <trkpt lat="43.67322" lon="3.86683">
        <ele>49.5</ele>
        <time>2018-09-16T06:32:21Z</time>
      </trkpt>
      <trkpt lat="43.67324" lon="3.86694">
        <ele>53.5</ele>
        <time>2018-09-16T06:32:23Z</time>
      </trkpt>
      <trkpt lat="43.67325" lon="3.867">
        <ele>53.9</ele>
        <time>2018-09-16T06:32:24Z</time>
      </trkpt>
      <trkpt lat="43.67328" lon="3.86709">
        <ele>54.3</ele>
        <time>2018-09-16T06:32:26Z</time>
      </trkpt>
      <trkpt lat="43.67329" lon="3.86715">
        <ele>54.5</ele>
        <time>2018-09-16T06:32:27Z</time>
      </trkpt>
      <trkpt lat="43.6733" lon="3.86725">
        <ele>54.8</ele>
        <time>2018-09-16T06:32:29Z</time>
      </trkpt>
      <trkpt lat="43.6733" lon="3.8673">
        <ele>55</ele>
        <time>2018-09-16T06:32:30Z</time>
      </trkpt>
      <trkpt lat="43.6733" lon="3.86741">
        <ele>55.6</ele>
        <time>2018-09-16T06:32:35Z</time>
      </trkpt>
      <trkpt lat="43.67329" lon="3.86745">
        <ele>55.7</ele>
        <time>2018-09-16T06:32:36Z</time>
      </trkpt>
      <trkpt lat="43.67328" lon="3.86749">
        <ele>55.9</ele>
        <time>2018-09-16T06:32:37Z</time>
      </trkpt>
      <trkpt lat="43.67326" lon="3.86762">
        <ele>57.3</ele>
        <time>2018-09-16T06:32:38Z</time>
      </trkpt>
      <trkpt lat="43.67329" lon="3.86766">
        <ele>57.7</ele>
        <time>2018-09-16T06:32:40Z</time>
      </trkpt>
      <trkpt lat="43.67335" lon="3.86771">
        <ele>58.2</ele>
        <time>2018-09-16T06:32:41Z</time>
      </trkpt>
      <trkpt lat="43.67341" lon="3.86772">
        <ele>58.2</ele>
        <time>2018-09-16T06:32:43Z</time>
      </trkpt>
      <trkpt lat="43.67348" lon="3.86772">
        <ele>58</ele>
        <time>2018-09-16T06:32:44Z</time>
      </trkpt>
      <trkpt lat="43.67355" lon="3.86767">
        <ele>57.4</ele>
        <time>2018-09-16T06:32:46Z</time>
      </trkpt>
      <trkpt lat="43.67359" lon="3.86766">
        <ele>57.2</ele>
        <time>2018-09-16T06:32:47Z</time>
      </trkpt>
      <trkpt lat="43.67363" lon="3.86765">
        <ele>57</ele>
        <time>2018-09-16T06:32:48Z</time>
      </trkpt>
      <trkpt lat="43.67368" lon="3.86766">
        <ele>56.9</ele>
        <time>2018-09-16T06:32:49Z</time>
      </trkpt>
      <trkpt lat="43.67377" lon="3.86766">
        <ele>56.6</ele>
        <time>2018-09-16T06:32:51Z</time>
      </trkpt>
      <trkpt lat="43.67382" lon="3.86768">
        <ele>56.5</ele>
        <time>2018-09-16T06:32:52Z</time>
      </trkpt>
      <trkpt lat="43.67391" lon="3.86769">
        <ele>56.3</ele>
        <time>2018-09-16T06:32:54Z</time>
      </trkpt>
      <trkpt lat="43.67394" lon="3.86771">
        <ele>56.3</ele>
        <time>2018-09-16T06:32:55Z</time>
      </trkpt>
      <trkpt lat="43.67402" lon="3.86772">
        <ele>56.1</ele>
        <time>2018-09-16T06:32:57Z</time>
      </trkpt>
      <trkpt lat="43.67407" lon="3.86772">
        <ele>55.9</ele>
        <time>2018-09-16T06:32:58Z</time>
      </trkpt>
      <trkpt lat="43.67415" lon="3.86772">
        <ele>55.6</ele>
        <time>2018-09-16T06:33:00Z</time>
      </trkpt>
      <trkpt lat="43.67419" lon="3.86772">
        <ele>55.6</ele>
        <time>2018-09-16T06:33:01Z</time>
      </trkpt>
      <trkpt lat="43.67427" lon="3.86771">
        <ele>55.5</ele>
        <time>2018-09-16T06:33:03Z</time>
      </trkpt>
      <trkpt lat="43.67432" lon="3.86771">
        <ele>55.5</ele>
        <time>2018-09-16T06:33:04Z</time>
      </trkpt>
      <trkpt lat="43.6744" lon="3.86773">
        <ele>55.7</ele>
        <time>2018-09-16T06:33:06Z</time>
      </trkpt>
      <trkpt lat="43.67442" lon="3.86772">
        <ele>55.6</ele>
        <time>2018-09-16T06:33:07Z</time>
      </trkpt>
      <trkpt lat="43.67447" lon="3.8677">
        <ele>55.4</ele>
        <time>2018-09-16T06:33:08Z</time>
      </trkpt>
      <trkpt lat="43.67452" lon="3.86768">
        <ele>55.3</ele>
        <time>2018-09-16T06:33:09Z</time>
      </trkpt>
      <trkpt lat="43.6746" lon="3.86765">
        <ele>55.1</ele>
        <time>2018-09-16T06:33:11Z</time>
      </trkpt>
      <trkpt lat="43.67464" lon="3.86763">
        <ele>54.9</ele>
        <time>2018-09-16T06:33:12Z</time>
      </trkpt>
      <trkpt lat="43.67472" lon="3.86761">
        <ele>54.8</ele>
        <time>2018-09-16T06:33:14Z</time>
      </trkpt>
      <trkpt lat="43.67477" lon="3.86759">
        <ele>54.6</ele>
        <time>2018-09-16T06:33:15Z</time>
      </trkpt>
      <trkpt lat="43.67481" lon="3.86756">
        <ele>54.4</ele>
        <time>2018-09-16T06:33:16Z</time>
      </trkpt>
      <trkpt lat="43.67486" lon="3.86753">
        <ele>54.2</ele>
        <time>2018-09-16T06:33:17Z</time>
      </trkpt>
      <trkpt lat="43.67491" lon="3.86751">
        <ele>54</ele>
        <time>2018-09-16T06:33:18Z</time>
      </trkpt>
      <trkpt lat="43.67496" lon="3.86748">
        <ele>54</ele>
        <time>2018-09-16T06:33:19Z</time>
      </trkpt>
      <trkpt lat="43.67502" lon="3.86746">
        <ele>54</ele>
        <time>2018-09-16T06:33:20Z</time>
      </trkpt>
      <trkpt lat="43.67506" lon="3.86744">
        <ele>54</ele>
        <time>2018-09-16T06:33:21Z</time>
      </trkpt>
      <trkpt lat="43.67515" lon="3.8674">
        <ele>54</ele>
        <time>2018-09-16T06:33:24Z</time>
      </trkpt>
      <trkpt lat="43.67517" lon="3.86744">
        <ele>54</ele>
        <time>2018-09-16T06:33:25Z</time>
      </trkpt>
      <trkpt lat="43.67521" lon="3.86753">
        <ele>54</ele>
        <time>2018-09-16T06:33:26Z</time>
      </trkpt>
      <trkpt lat="43.67525" lon="3.86756">
        <ele>54</ele>
        <time>2018-09-16T06:33:27Z</time>
      </trkpt>
      <trkpt lat="43.67527" lon="3.86765">
        <ele>54</ele>
        <time>2018-09-16T06:33:30Z</time>
      </trkpt>
      <trkpt lat="43.67528" lon="3.8677">
        <ele>54</ele>
        <time>2018-09-16T06:33:31Z</time>
      </trkpt>
      <trkpt lat="43.67529" lon="3.86781">
        <ele>54.1</ele>
        <time>2018-09-16T06:33:32Z</time>
      </trkpt>
      <trkpt lat="43.6753" lon="3.86786">
        <ele>54.3</ele>
        <time>2018-09-16T06:33:33Z</time>
      </trkpt>
      <trkpt lat="43.6753" lon="3.86793">
        <ele>54.5</ele>
        <time>2018-09-16T06:33:35Z</time>
      </trkpt>
      <trkpt lat="43.67531" lon="3.86801">
        <ele>54.7</ele>
        <time>2018-09-16T06:33:36Z</time>
      </trkpt>
      <trkpt lat="43.67533" lon="3.86813">
        <ele>55.1</ele>
        <time>2018-09-16T06:33:38Z</time>
      </trkpt>
      <trkpt lat="43.67534" lon="3.86817">
        <ele>55.2</ele>
        <time>2018-09-16T06:33:39Z</time>
      </trkpt>
      <trkpt lat="43.67535" lon="3.86827">
        <ele>55.5</ele>
        <time>2018-09-16T06:33:42Z</time>
      </trkpt>
      <trkpt lat="43.67535" lon="3.8683">
        <ele>55.6</ele>
        <time>2018-09-16T06:33:43Z</time>
      </trkpt>
      <trkpt lat="43.67536" lon="3.86839">
        <ele>55.9</ele>
        <time>2018-09-16T06:33:45Z</time>
      </trkpt>
      <trkpt lat="43.67537" lon="3.86843">
        <ele>56</ele>
        <time>2018-09-16T06:33:46Z</time>
      </trkpt>
      <trkpt lat="43.67539" lon="3.86851">
        <ele>56.2</ele>
        <time>2018-09-16T06:33:48Z</time>
      </trkpt>
      <trkpt lat="43.6754" lon="3.86855">
        <ele>56.3</ele>
        <time>2018-09-16T06:33:49Z</time>
      </trkpt>
      <trkpt lat="43.67541" lon="3.86865">
        <ele>56.7</ele>
        <time>2018-09-16T06:33:51Z</time>
      </trkpt>
      <trkpt lat="43.67542" lon="3.86869">
        <ele>56.8</ele>
        <time>2018-09-16T06:33:52Z</time>
      </trkpt>
      <trkpt lat="43.67543" lon="3.86877">
        <ele>57</ele>
        <time>2018-09-16T06:33:54Z</time>
      </trkpt>
      <trkpt lat="43.67543" lon="3.86882">
        <ele>57.2</ele>
        <time>2018-09-16T06:33:55Z</time>
      </trkpt>
      <trkpt lat="43.67543" lon="3.86891">
        <ele>57.5</ele>
        <time>2018-09-16T06:33:57Z</time>
      </trkpt>
      <trkpt lat="43.67544" lon="3.86896">
        <ele>57.7</ele>
        <time>2018-09-16T06:33:58Z</time>
      </trkpt>
      <trkpt lat="43.67545" lon="3.86908">
        <ele>58.1</ele>
        <time>2018-09-16T06:33:59Z</time>
      </trkpt>
      <trkpt lat="43.67547" lon="3.86919">
        <ele>58.3</ele>
        <time>2018-09-16T06:34:01Z</time>
      </trkpt>
      <trkpt lat="43.67548" lon="3.86924">
        <ele>58.3</ele>
        <time>2018-09-16T06:34:02Z</time>
      </trkpt>
      <trkpt lat="43.67551" lon="3.86935">
        <ele>58.3</ele>
        <time>2018-09-16T06:34:04Z</time>
      </trkpt>
      <trkpt lat="43.67553" lon="3.86939">
        <ele>58.2</ele>
        <time>2018-09-16T06:34:05Z</time>
      </trkpt>
      <trkpt lat="43.67555" lon="3.8695">
        <ele>58.2</ele>
        <time>2018-09-16T06:34:07Z</time>
      </trkpt>
      <trkpt lat="43.67557" lon="3.86956">
        <ele>58.3</ele>
        <time>2018-09-16T06:34:08Z</time>
      </trkpt>
      <trkpt lat="43.6756" lon="3.86966">
        <ele>58.5</ele>
        <time>2018-09-16T06:34:10Z</time>
      </trkpt>
      <trkpt lat="43.67561" lon="3.86971">
        <ele>58.6</ele>
        <time>2018-09-16T06:34:11Z</time>
      </trkpt>
      <trkpt lat="43.67564" lon="3.86981">
        <ele>58.7</ele>
        <time>2018-09-16T06:34:13Z</time>
      </trkpt>
      <trkpt lat="43.67566" lon="3.86986">
        <ele>58.7</ele>
        <time>2018-09-16T06:34:14Z</time>
      </trkpt>
      <trkpt lat="43.67569" lon="3.86991">
        <ele>58.7</ele>
        <time>2018-09-16T06:34:15Z</time>
      </trkpt>
      <trkpt lat="43.67571" lon="3.86997">
        <ele>58.8</ele>
        <time>2018-09-16T06:34:16Z</time>
      </trkpt>
      <trkpt lat="43.67575" lon="3.87006">
        <ele>58.9</ele>
        <time>2018-09-16T06:34:18Z</time>
      </trkpt>
      <trkpt lat="43.67577" lon="3.8701">
        <ele>59</ele>
        <time>2018-09-16T06:34:19Z</time>
      </trkpt>
      <trkpt lat="43.67579" lon="3.87015">
        <ele>59</ele>
        <time>2018-09-16T06:34:20Z</time>
      </trkpt>
      <trkpt lat="43.67582" lon="3.8702">
        <ele>58.9</ele>
        <time>2018-09-16T06:34:21Z</time>
      </trkpt>
      <trkpt lat="43.67585" lon="3.87024">
        <ele>58.8</ele>
        <time>2018-09-16T06:34:22Z</time>
      </trkpt>
      <trkpt lat="43.67589" lon="3.87029">
        <ele>58.9</ele>
        <time>2018-09-16T06:34:23Z</time>
      </trkpt>
      <trkpt lat="43.67592" lon="3.87035">
        <ele>59.3</ele>
        <time>2018-09-16T06:34:24Z</time>
      </trkpt>
      <trkpt lat="43.67593" lon="3.87041">
        <ele>59.7</ele>
        <time>2018-09-16T06:34:25Z</time>
      </trkpt>
      <trkpt lat="43.67598" lon="3.8705">
        <ele>60</ele>
        <time>2018-09-16T06:34:27Z</time>
      </trkpt>
      <trkpt lat="43.676" lon="3.87055">
        <ele>60.2</ele>
        <time>2018-09-16T06:34:28Z</time>
      </trkpt>
      <trkpt lat="43.67605" lon="3.87065">
        <ele>60.5</ele>
        <time>2018-09-16T06:34:30Z</time>
      </trkpt>
      <trkpt lat="43.67608" lon="3.87069">
        <ele>60.4</ele>
        <time>2018-09-16T06:34:31Z</time>
      </trkpt>
      <trkpt lat="43.67612" lon="3.87079">
        <ele>60.6</ele>
        <time>2018-09-16T06:34:33Z</time>
      </trkpt>
      <trkpt lat="43.67613" lon="3.87083">
        <ele>60.8</ele>
        <time>2018-09-16T06:34:34Z</time>
      </trkpt>
      <trkpt lat="43.67617" lon="3.87088">
        <ele>60.7</ele>
        <time>2018-09-16T06:34:35Z</time>
      </trkpt>
      <trkpt lat="43.67619" lon="3.87092">
        <ele>60.7</ele>
        <time>2018-09-16T06:34:36Z</time>
      </trkpt>
      <trkpt lat="43.67626" lon="3.871">
        <ele>60.3</ele>
        <time>2018-09-16T06:34:38Z</time>
      </trkpt>
      <trkpt lat="43.6763" lon="3.87104">
        <ele>59.9</ele>
        <time>2018-09-16T06:34:39Z</time>
      </trkpt>
      <trkpt lat="43.67636" lon="3.8711">
        <ele>59.4</ele>
        <time>2018-09-16T06:34:44Z</time>
      </trkpt>
      <trkpt lat="43.67638" lon="3.87111">
        <ele>59.1</ele>
        <time>2018-09-16T06:34:45Z</time>
      </trkpt>
      <trkpt lat="43.67646" lon="3.87117">
        <ele>59</ele>
        <time>2018-09-16T06:34:48Z</time>
      </trkpt>
      <trkpt lat="43.67648" lon="3.87119">
        <ele>59</ele>
        <time>2018-09-16T06:34:49Z</time>
      </trkpt>
      <trkpt lat="43.67654" lon="3.87127">
        <ele>59</ele>
        <time>2018-09-16T06:34:56Z</time>
      </trkpt>
      <trkpt lat="43.67656" lon="3.87129">
        <ele>59</ele>
        <time>2018-09-16T06:34:57Z</time>
      </trkpt>
      <trkpt lat="43.67662" lon="3.87137">
        <ele>59</ele>
        <time>2018-09-16T06:35:02Z</time>
      </trkpt>
      <trkpt lat="43.67663" lon="3.87138">
        <ele>59</ele>
        <time>2018-09-16T06:35:03Z</time>
      </trkpt>
      <trkpt lat="43.67665" lon="3.87147">
        <ele>59.3</ele>
        <time>2018-09-16T06:35:06Z</time>
      </trkpt>
      <trkpt lat="43.67665" lon="3.87162">
        <ele>59.8</ele>
        <time>2018-09-16T06:35:14Z</time>
      </trkpt>
      <trkpt lat="43.67666" lon="3.87171">
        <ele>60</ele>
        <time>2018-09-16T06:35:15Z</time>
      </trkpt>
      <trkpt lat="43.67667" lon="3.87178">
        <ele>60</ele>
        <time>2018-09-16T06:35:16Z</time>
      </trkpt>
      <trkpt lat="43.6767" lon="3.87186">
        <ele>60.1</ele>
        <time>2018-09-16T06:35:18Z</time>
      </trkpt>
      <trkpt lat="43.67672" lon="3.8719">
        <ele>60.1</ele>
        <time>2018-09-16T06:35:19Z</time>
      </trkpt>
      <trkpt lat="43.67677" lon="3.87196">
        <ele>60</ele>
        <time>2018-09-16T06:35:21Z</time>
      </trkpt>
      <trkpt lat="43.6768" lon="3.87199">
        <ele>60</ele>
        <time>2018-09-16T06:35:22Z</time>
      </trkpt>
      <trkpt lat="43.67684" lon="3.87206">
        <ele>60</ele>
        <time>2018-09-16T06:35:24Z</time>
      </trkpt>
      <trkpt lat="43.67686" lon="3.87209">
        <ele>60</ele>
        <time>2018-09-16T06:35:25Z</time>
      </trkpt>
      <trkpt lat="43.67692" lon="3.87218">
        <ele>60</ele>
        <time>2018-09-16T06:35:28Z</time>
      </trkpt>
      <trkpt lat="43.67694" lon="3.87221">
        <ele>60</ele>
        <time>2018-09-16T06:35:29Z</time>
      </trkpt>
      <trkpt lat="43.67702" lon="3.87227">
        <ele>60.3</ele>
        <time>2018-09-16T06:35:32Z</time>
      </trkpt>
      <trkpt lat="43.67705" lon="3.87229">
        <ele>60.4</ele>
        <time>2018-09-16T06:35:33Z</time>
      </trkpt>
      <trkpt lat="43.67711" lon="3.87233">
        <ele>60.6</ele>
        <time>2018-09-16T06:35:35Z</time>
      </trkpt>
      <trkpt lat="43.67715" lon="3.87235">
        <ele>60.7</ele>
        <time>2018-09-16T06:35:36Z</time>
      </trkpt>
      <trkpt lat="43.67721" lon="3.87237">
        <ele>61</ele>
        <time>2018-09-16T06:35:38Z</time>
      </trkpt>
      <trkpt lat="43.67724" lon="3.87237">
        <ele>61.1</ele>
        <time>2018-09-16T06:35:39Z</time>
      </trkpt>
      <trkpt lat="43.67731" lon="3.87236">
        <ele>61.5</ele>
        <time>2018-09-16T06:35:42Z</time>
      </trkpt>
      <trkpt lat="43.67733" lon="3.87237">
        <ele>61.5</ele>
        <time>2018-09-16T06:35:43Z</time>
      </trkpt>
      <trkpt lat="43.67741" lon="3.87237">
        <ele>61.9</ele>
        <time>2018-09-16T06:35:46Z</time>
      </trkpt>
      <trkpt lat="43.67743" lon="3.87236">
        <ele>62.1</ele>
        <time>2018-09-16T06:35:47Z</time>
      </trkpt>
      <trkpt lat="43.67751" lon="3.87234">
        <ele>62.8</ele>
        <time>2018-09-16T06:35:52Z</time>
      </trkpt>
      <trkpt lat="43.67753" lon="3.87234">
        <ele>62.9</ele>
        <time>2018-09-16T06:35:53Z</time>
      </trkpt>
      <trkpt lat="43.67759" lon="3.87231">
        <ele>63.6</ele>
        <time>2018-09-16T06:35:56Z</time>
      </trkpt>
      <trkpt lat="43.67761" lon="3.87228">
        <ele>63.9</ele>
        <time>2018-09-16T06:35:57Z</time>
      </trkpt>
      <trkpt lat="43.67766" lon="3.87218">
        <ele>64.6</ele>
        <time>2018-09-16T06:36:01Z</time>
      </trkpt>
      <trkpt lat="43.67766" lon="3.87215">
        <ele>64.7</ele>
        <time>2018-09-16T06:36:02Z</time>
      </trkpt>
      <trkpt lat="43.67768" lon="3.87204">
        <ele>65</ele>
        <time>2018-09-16T06:36:07Z</time>
      </trkpt>
      <trkpt lat="43.67769" lon="3.87201">
        <ele>65.2</ele>
        <time>2018-09-16T06:36:08Z</time>
      </trkpt>
      <trkpt lat="43.6777" lon="3.87192">
        <ele>65.8</ele>
        <time>2018-09-16T06:36:11Z</time>
      </trkpt>
      <trkpt lat="43.67771" lon="3.87189">
        <ele>66.1</ele>
        <time>2018-09-16T06:36:12Z</time>
      </trkpt>
      <trkpt lat="43.67771" lon="3.87177">
        <ele>66.9</ele>
        <time>2018-09-16T06:36:16Z</time>
      </trkpt>
      <trkpt lat="43.67771" lon="3.87174">
        <ele>67.1</ele>
        <time>2018-09-16T06:36:17Z</time>
      </trkpt>
      <trkpt lat="43.67771" lon="3.87162">
        <ele>67.8</ele>
        <time>2018-09-16T06:36:21Z</time>
      </trkpt>
      <trkpt lat="43.67771" lon="3.87159">
        <ele>68</ele>
        <time>2018-09-16T06:36:22Z</time>
      </trkpt>
      <trkpt lat="43.67772" lon="3.87148">
        <ele>69</ele>
        <time>2018-09-16T06:36:26Z</time>
      </trkpt>
      <trkpt lat="43.67773" lon="3.87146">
        <ele>69.3</ele>
        <time>2018-09-16T06:36:27Z</time>
      </trkpt>
      <trkpt lat="43.67773" lon="3.87135">
        <ele>70</ele>
        <time>2018-09-16T06:36:31Z</time>
      </trkpt>
      <trkpt lat="43.67774" lon="3.87132">
        <ele>70.5</ele>
        <time>2018-09-16T06:36:32Z</time>
      </trkpt>
      <trkpt lat="43.67774" lon="3.87121">
        <ele>71.2</ele>
        <time>2018-09-16T06:36:36Z</time>
      </trkpt>
      <trkpt lat="43.67775" lon="3.87118">
        <ele>71.7</ele>
        <time>2018-09-16T06:36:37Z</time>
      </trkpt>
      <trkpt lat="43.67777" lon="3.87106">
        <ele>72.9</ele>
        <time>2018-09-16T06:36:41Z</time>
      </trkpt>
      <trkpt lat="43.67778" lon="3.87104">
        <ele>73.3</ele>
        <time>2018-09-16T06:36:42Z</time>
      </trkpt>
      <trkpt lat="43.67783" lon="3.87096">
        <ele>73.6</ele>
        <time>2018-09-16T06:36:46Z</time>
      </trkpt>
      <trkpt lat="43.67784" lon="3.87094">
        <ele>73.8</ele>
        <time>2018-09-16T06:36:47Z</time>
      </trkpt>
      <trkpt lat="43.6779" lon="3.87086">
        <ele>74.3</ele>
        <time>2018-09-16T06:36:51Z</time>
      </trkpt>
      <trkpt lat="43.67792" lon="3.87083">
        <ele>74.5</ele>
        <time>2018-09-16T06:36:52Z</time>
      </trkpt>
      <trkpt lat="43.67797" lon="3.87077">
        <ele>75.1</ele>
        <time>2018-09-16T06:36:55Z</time>
      </trkpt>
      <trkpt lat="43.67798" lon="3.87074">
        <ele>75.3</ele>
        <time>2018-09-16T06:36:56Z</time>
      </trkpt>
      <trkpt lat="43.67802" lon="3.87066">
        <ele>76</ele>
        <time>2018-09-16T06:36:59Z</time>
      </trkpt>
      <trkpt lat="43.67804" lon="3.87064">
        <ele>76.3</ele>
        <time>2018-09-16T06:37:00Z</time>
      </trkpt>
      <trkpt lat="43.6781" lon="3.87057">
        <ele>76.9</ele>
        <time>2018-09-16T06:37:04Z</time>
      </trkpt>
      <trkpt lat="43.67811" lon="3.87055">
        <ele>77.1</ele>
        <time>2018-09-16T06:37:05Z</time>
      </trkpt>
      <trkpt lat="43.67817" lon="3.87049">
        <ele>77.7</ele>
        <time>2018-09-16T06:37:09Z</time>
      </trkpt>
      <trkpt lat="43.67819" lon="3.87048">
        <ele>77.8</ele>
        <time>2018-09-16T06:37:10Z</time>
      </trkpt>
      <trkpt lat="43.67825" lon="3.87042">
        <ele>78.5</ele>
        <time>2018-09-16T06:37:13Z</time>
      </trkpt>
      <trkpt lat="43.67827" lon="3.8704">
        <ele>78.7</ele>
        <time>2018-09-16T06:37:14Z</time>
      </trkpt>
      <trkpt lat="43.67833" lon="3.87034">
        <ele>79.3</ele>
        <time>2018-09-16T06:37:17Z</time>
      </trkpt>
      <trkpt lat="43.67835" lon="3.87032">
        <ele>79.4</ele>
        <time>2018-09-16T06:37:18Z</time>
      </trkpt>
      <trkpt lat="43.67842" lon="3.87027">
        <ele>79.4</ele>
        <time>2018-09-16T06:37:21Z</time>
      </trkpt>
      <trkpt lat="43.67845" lon="3.87025">
        <ele>79.4</ele>
        <time>2018-09-16T06:37:22Z</time>
      </trkpt>
      <trkpt lat="43.67852" lon="3.8702">
        <ele>79.2</ele>
        <time>2018-09-16T06:37:25Z</time>
      </trkpt>
      <trkpt lat="43.67855" lon="3.87019">
        <ele>79.1</ele>
        <time>2018-09-16T06:37:26Z</time>
      </trkpt>
      <trkpt lat="43.67862" lon="3.87013">
        <ele>79</ele>
        <time>2018-09-16T06:37:29Z</time>
      </trkpt>
      <trkpt lat="43.67864" lon="3.8701">
        <ele>79.2</ele>
        <time>2018-09-16T06:37:30Z</time>
      </trkpt>
      <trkpt lat="43.67871" lon="3.87005">
        <ele>79.3</ele>
        <time>2018-09-16T06:37:33Z</time>
      </trkpt>
      <trkpt lat="43.67874" lon="3.87005">
        <ele>79.3</ele>
        <time>2018-09-16T06:37:34Z</time>
      </trkpt>
      <trkpt lat="43.6788" lon="3.87004">
        <ele>79.1</ele>
        <time>2018-09-16T06:37:36Z</time>
      </trkpt>
      <trkpt lat="43.67883" lon="3.87003">
        <ele>79.1</ele>
        <time>2018-09-16T06:37:37Z</time>
      </trkpt>
      <trkpt lat="43.67889" lon="3.87003">
        <ele>78.9</ele>
        <time>2018-09-16T06:37:39Z</time>
      </trkpt>
      <trkpt lat="43.67893" lon="3.87004">
        <ele>79</ele>
        <time>2018-09-16T06:37:40Z</time>
      </trkpt>
      <trkpt lat="43.67899" lon="3.87008">
        <ele>79</ele>
        <time>2018-09-16T06:37:42Z</time>
      </trkpt>
      <trkpt lat="43.67902" lon="3.8701">
        <ele>78.9</ele>
        <time>2018-09-16T06:37:43Z</time>
      </trkpt>
      <trkpt lat="43.67911" lon="3.87019">
        <ele>78.6</ele>
        <time>2018-09-16T06:37:44Z</time>
      </trkpt>
      <trkpt lat="43.67918" lon="3.87025">
        <ele>78.3</ele>
        <time>2018-09-16T06:37:46Z</time>
      </trkpt>
      <trkpt lat="43.67922" lon="3.87029">
        <ele>78.5</ele>
        <time>2018-09-16T06:37:47Z</time>
      </trkpt>
      <trkpt lat="43.67929" lon="3.87036">
        <ele>78.7</ele>
        <time>2018-09-16T06:37:49Z</time>
      </trkpt>
      <trkpt lat="43.67933" lon="3.87039">
        <ele>79</ele>
        <time>2018-09-16T06:37:50Z</time>
      </trkpt>
      <trkpt lat="43.6794" lon="3.87047">
        <ele>79.1</ele>
        <time>2018-09-16T06:37:52Z</time>
      </trkpt>
      <trkpt lat="43.67944" lon="3.8705">
        <ele>79.4</ele>
        <time>2018-09-16T06:37:53Z</time>
      </trkpt>
      <trkpt lat="43.67949" lon="3.87056">
        <ele>79.6</ele>
        <time>2018-09-16T06:37:55Z</time>
      </trkpt>
      <trkpt lat="43.67954" lon="3.87059">
        <ele>80</ele>
        <time>2018-09-16T06:37:56Z</time>
      </trkpt>
      <trkpt lat="43.67961" lon="3.87065">
        <ele>80.2</ele>
        <time>2018-09-16T06:37:58Z</time>
      </trkpt>
      <trkpt lat="43.67964" lon="3.87069">
        <ele>80</ele>
        <time>2018-09-16T06:37:59Z</time>
      </trkpt>
      <trkpt lat="43.67968" lon="3.87073">
        <ele>80</ele>
        <time>2018-09-16T06:38:01Z</time>
      </trkpt>
      <trkpt lat="43.67973" lon="3.87077">
        <ele>79.9</ele>
        <time>2018-09-16T06:38:02Z</time>
      </trkpt>
      <trkpt lat="43.67981" lon="3.8708">
        <ele>79.4</ele>
        <time>2018-09-16T06:38:04Z</time>
      </trkpt>
      <trkpt lat="43.67985" lon="3.87079">
        <ele>79.6</ele>
        <time>2018-09-16T06:38:05Z</time>
      </trkpt>
      <trkpt lat="43.67993" lon="3.87076">
        <ele>79.9</ele>
        <time>2018-09-16T06:38:07Z</time>
      </trkpt>
      <trkpt lat="43.67995" lon="3.87074">
        <ele>80.1</ele>
        <time>2018-09-16T06:38:08Z</time>
      </trkpt>
      <trkpt lat="43.68001" lon="3.87068">
        <ele>80.7</ele>
        <time>2018-09-16T06:38:10Z</time>
      </trkpt>
      <trkpt lat="43.68005" lon="3.87066">
        <ele>80.9</ele>
        <time>2018-09-16T06:38:11Z</time>
      </trkpt>
      <trkpt lat="43.68013" lon="3.87062">
        <ele>81.4</ele>
        <time>2018-09-16T06:38:15Z</time>
      </trkpt>
      <trkpt lat="43.68016" lon="3.87061">
        <ele>81.5</ele>
        <time>2018-09-16T06:38:16Z</time>
      </trkpt>
      <trkpt lat="43.68025" lon="3.87062">
        <ele>81.5</ele>
        <time>2018-09-16T06:38:19Z</time>
      </trkpt>
      <trkpt lat="43.68033" lon="3.87068">
        <ele>81.7</ele>
        <time>2018-09-16T06:38:20Z</time>
      </trkpt>
      <trkpt lat="43.68036" lon="3.87074">
        <ele>81.6</ele>
        <time>2018-09-16T06:38:23Z</time>
      </trkpt>
      <trkpt lat="43.6804" lon="3.87082">
        <ele>81.4</ele>
        <time>2018-09-16T06:38:24Z</time>
      </trkpt>
      <trkpt lat="43.68042" lon="3.87087">
        <ele>81.3</ele>
        <time>2018-09-16T06:38:26Z</time>
      </trkpt>
      <trkpt lat="43.68046" lon="3.87095">
        <ele>81.1</ele>
        <time>2018-09-16T06:38:27Z</time>
      </trkpt>
      <trkpt lat="43.6805" lon="3.87101">
        <ele>81.1</ele>
        <time>2018-09-16T06:38:28Z</time>
      </trkpt>
      <trkpt lat="43.68054" lon="3.87106">
        <ele>81.2</ele>
        <time>2018-09-16T06:38:29Z</time>
      </trkpt>
      <trkpt lat="43.68057" lon="3.87115">
        <ele>81</ele>
        <time>2018-09-16T06:38:31Z</time>
      </trkpt>
      <trkpt lat="43.68059" lon="3.87121">
        <ele>80.9</ele>
        <time>2018-09-16T06:38:32Z</time>
      </trkpt>
      <trkpt lat="43.68064" lon="3.87129">
        <ele>81.2</ele>
        <time>2018-09-16T06:38:34Z</time>
      </trkpt>
      <trkpt lat="43.68067" lon="3.87135">
        <ele>81.3</ele>
        <time>2018-09-16T06:38:35Z</time>
      </trkpt>
      <trkpt lat="43.6807" lon="3.87141">
        <ele>81.4</ele>
        <time>2018-09-16T06:38:37Z</time>
      </trkpt>
      <trkpt lat="43.68076" lon="3.87147">
        <ele>82</ele>
        <time>2018-09-16T06:38:38Z</time>
      </trkpt>
      <trkpt lat="43.6808" lon="3.87153">
        <ele>82</ele>
        <time>2018-09-16T06:38:40Z</time>
      </trkpt>
      <trkpt lat="43.68084" lon="3.87159">
        <ele>81.9</ele>
        <time>2018-09-16T06:38:41Z</time>
      </trkpt>
      <trkpt lat="43.68091" lon="3.87164">
        <ele>82.4</ele>
        <time>2018-09-16T06:38:43Z</time>
      </trkpt>
      <trkpt lat="43.68094" lon="3.87167">
        <ele>82.5</ele>
        <time>2018-09-16T06:38:44Z</time>
      </trkpt>
      <trkpt lat="43.68101" lon="3.87172">
        <ele>82.8</ele>
        <time>2018-09-16T06:38:46Z</time>
      </trkpt>
      <trkpt lat="43.68105" lon="3.87175">
        <ele>83</ele>
        <time>2018-09-16T06:38:47Z</time>
      </trkpt>
      <trkpt lat="43.68109" lon="3.87177">
        <ele>83.2</ele>
        <time>2018-09-16T06:38:48Z</time>
      </trkpt>
      <trkpt lat="43.68114" lon="3.87181">
        <ele>83.2</ele>
        <time>2018-09-16T06:38:49Z</time>
      </trkpt>
      <trkpt lat="43.68121" lon="3.87188">
        <ele>82.7</ele>
        <time>2018-09-16T06:38:51Z</time>
      </trkpt>
      <trkpt lat="43.68125" lon="3.87191">
        <ele>82.6</ele>
        <time>2018-09-16T06:38:52Z</time>
      </trkpt>
      <trkpt lat="43.68131" lon="3.87195">
        <ele>82.4</ele>
        <time>2018-09-16T06:38:54Z</time>
      </trkpt>
      <trkpt lat="43.68134" lon="3.87198">
        <ele>82.4</ele>
        <time>2018-09-16T06:38:55Z</time>
      </trkpt>
      <trkpt lat="43.6814" lon="3.87202">
        <ele>82.6</ele>
        <time>2018-09-16T06:38:57Z</time>
      </trkpt>
      <trkpt lat="43.68143" lon="3.87205">
        <ele>82.8</ele>
        <time>2018-09-16T06:38:58Z</time>
      </trkpt>
      <trkpt lat="43.6815" lon="3.87207">
        <ele>83.5</ele>
        <time>2018-09-16T06:39:00Z</time>
      </trkpt>
      <trkpt lat="43.68153" lon="3.87211">
        <ele>83.5</ele>
        <time>2018-09-16T06:39:01Z</time>
      </trkpt>
      <trkpt lat="43.68159" lon="3.87221">
        <ele>83.3</ele>
        <time>2018-09-16T06:39:03Z</time>
      </trkpt>
      <trkpt lat="43.68162" lon="3.87226">
        <ele>83.1</ele>
        <time>2018-09-16T06:39:04Z</time>
      </trkpt>
      <trkpt lat="43.68165" lon="3.8723">
        <ele>83</ele>
        <time>2018-09-16T06:39:05Z</time>
      </trkpt>
      <trkpt lat="43.68168" lon="3.87235">
        <ele>82.8</ele>
        <time>2018-09-16T06:39:06Z</time>
      </trkpt>
      <trkpt lat="43.68172" lon="3.87239">
        <ele>83</ele>
        <time>2018-09-16T06:39:07Z</time>
      </trkpt>
      <trkpt lat="43.68175" lon="3.87245">
        <ele>82.7</ele>
        <time>2018-09-16T06:39:08Z</time>
      </trkpt>
      <trkpt lat="43.6818" lon="3.87248">
        <ele>83.1</ele>
        <time>2018-09-16T06:39:09Z</time>
      </trkpt>
      <trkpt lat="43.68182" lon="3.87252">
        <ele>83</ele>
        <time>2018-09-16T06:39:10Z</time>
      </trkpt>
      <trkpt lat="43.68188" lon="3.8726">
        <ele>82.8</ele>
        <time>2018-09-16T06:39:15Z</time>
      </trkpt>
      <trkpt lat="43.68193" lon="3.87268">
        <ele>82.3</ele>
        <time>2018-09-16T06:39:16Z</time>
      </trkpt>
      <trkpt lat="43.68195" lon="3.87277">
        <ele>81.2</ele>
        <time>2018-09-16T06:39:18Z</time>
      </trkpt>
      <trkpt lat="43.68198" lon="3.87282">
        <ele>81.3</ele>
        <time>2018-09-16T06:39:19Z</time>
      </trkpt>
      <trkpt lat="43.68202" lon="3.87287">
        <ele>81.5</ele>
        <time>2018-09-16T06:39:20Z</time>
      </trkpt>
      <trkpt lat="43.68205" lon="3.87291">
        <ele>81.6</ele>
        <time>2018-09-16T06:39:21Z</time>
      </trkpt>
      <trkpt lat="43.68212" lon="3.87297">
        <ele>81.9</ele>
        <time>2018-09-16T06:39:23Z</time>
      </trkpt>
      <trkpt lat="43.68214" lon="3.873">
        <ele>81.8</ele>
        <time>2018-09-16T06:39:24Z</time>
      </trkpt>
      <trkpt lat="43.6822" lon="3.87307">
        <ele>81.6</ele>
        <time>2018-09-16T06:39:26Z</time>
      </trkpt>
      <trkpt lat="43.68224" lon="3.8731">
        <ele>81.8</ele>
        <time>2018-09-16T06:39:27Z</time>
      </trkpt>
      <trkpt lat="43.68232" lon="3.87312">
        <ele>82.6</ele>
        <time>2018-09-16T06:39:31Z</time>
      </trkpt>
      <trkpt lat="43.68234" lon="3.87313">
        <ele>82.8</ele>
        <time>2018-09-16T06:39:32Z</time>
      </trkpt>
      <trkpt lat="43.68242" lon="3.87317">
        <ele>83.3</ele>
        <time>2018-09-16T06:39:36Z</time>
      </trkpt>
      <trkpt lat="43.68244" lon="3.87318">
        <ele>83.4</ele>
        <time>2018-09-16T06:39:37Z</time>
      </trkpt>
      <trkpt lat="43.68252" lon="3.8732">
        <ele>84.1</ele>
        <time>2018-09-16T06:39:41Z</time>
      </trkpt>
      <trkpt lat="43.68254" lon="3.87321">
        <ele>84</ele>
        <time>2018-09-16T06:39:42Z</time>
      </trkpt>
      <trkpt lat="43.68261" lon="3.87324">
        <ele>84</ele>
        <time>2018-09-16T06:39:46Z</time>
      </trkpt>
      <trkpt lat="43.68263" lon="3.87325">
        <ele>83.9</ele>
        <time>2018-09-16T06:39:47Z</time>
      </trkpt>
      <trkpt lat="43.68268" lon="3.87331">
        <ele>83.1</ele>
        <time>2018-09-16T06:39:49Z</time>
      </trkpt>
      <trkpt lat="43.68277" lon="3.87339">
        <ele>82.2</ele>
        <time>2018-09-16T06:39:50Z</time>
      </trkpt>
      <trkpt lat="43.68284" lon="3.8734">
        <ele>82</ele>
        <time>2018-09-16T06:39:54Z</time>
      </trkpt>
      <trkpt lat="43.68286" lon="3.8734">
        <ele>82</ele>
        <time>2018-09-16T06:39:55Z</time>
      </trkpt>
      <trkpt lat="43.68293" lon="3.87338">
        <ele>82.3</ele>
        <time>2018-09-16T06:39:59Z</time>
      </trkpt>
      <trkpt lat="43.68295" lon="3.87338">
        <ele>82.3</ele>
        <time>2018-09-16T06:40:00Z</time>
      </trkpt>
      <trkpt lat="43.68301" lon="3.87333">
        <ele>83.1</ele>
        <time>2018-09-16T06:40:03Z</time>
      </trkpt>
      <trkpt lat="43.68303" lon="3.87331">
        <ele>83.4</ele>
        <time>2018-09-16T06:40:04Z</time>
      </trkpt>
      <trkpt lat="43.68308" lon="3.87325">
        <ele>83.9</ele>
        <time>2018-09-16T06:40:07Z</time>
      </trkpt>
      <trkpt lat="43.68309" lon="3.87323">
        <ele>84.1</ele>
        <time>2018-09-16T06:40:08Z</time>
      </trkpt>
      <trkpt lat="43.68315" lon="3.87313">
        <ele>84.9</ele>
        <time>2018-09-16T06:40:12Z</time>
      </trkpt>
      <trkpt lat="43.68316" lon="3.8731">
        <ele>85.2</ele>
        <time>2018-09-16T06:40:13Z</time>
      </trkpt>
      <trkpt lat="43.6832" lon="3.87301">
        <ele>86.2</ele>
        <time>2018-09-16T06:40:18Z</time>
      </trkpt>
      <trkpt lat="43.68321" lon="3.87298">
        <ele>86.5</ele>
        <time>2018-09-16T06:40:19Z</time>
      </trkpt>
      <trkpt lat="43.68324" lon="3.8729">
        <ele>87.4</ele>
        <time>2018-09-16T06:40:22Z</time>
      </trkpt>
      <trkpt lat="43.68325" lon="3.87287">
        <ele>87.8</ele>
        <time>2018-09-16T06:40:23Z</time>
      </trkpt>
      <trkpt lat="43.68329" lon="3.87278">
        <ele>88.6</ele>
        <time>2018-09-16T06:40:27Z</time>
      </trkpt>
      <trkpt lat="43.6833" lon="3.87276">
        <ele>88.7</ele>
        <time>2018-09-16T06:40:28Z</time>
      </trkpt>
      <trkpt lat="43.68332" lon="3.87266">
        <ele>89.5</ele>
        <time>2018-09-16T06:40:32Z</time>
      </trkpt>
      <trkpt lat="43.68333" lon="3.87264">
        <ele>89.5</ele>
        <time>2018-09-16T06:40:33Z</time>
      </trkpt>
      <trkpt lat="43.68335" lon="3.87254">
        <ele>90.3</ele>
        <time>2018-09-16T06:40:37Z</time>
      </trkpt>
      <trkpt lat="43.68336" lon="3.87251">
        <ele>90.4</ele>
        <time>2018-09-16T06:40:38Z</time>
      </trkpt>
      <trkpt lat="43.68342" lon="3.87242">
        <ele>90.4</ele>
        <time>2018-09-16T06:40:42Z</time>
      </trkpt>
      <trkpt lat="43.68343" lon="3.87239">
        <ele>90.6</ele>
        <time>2018-09-16T06:40:43Z</time>
      </trkpt>
      <trkpt lat="43.68347" lon="3.87232">
        <ele>90.5</ele>
        <time>2018-09-16T06:40:45Z</time>
      </trkpt>
      <trkpt lat="43.6835" lon="3.87228">
        <ele>90.2</ele>
        <time>2018-09-16T06:40:46Z</time>
      </trkpt>
      <trkpt lat="43.68353" lon="3.8722">
        <ele>90.3</ele>
        <time>2018-09-16T06:40:48Z</time>
      </trkpt>
      <trkpt lat="43.68355" lon="3.87216">
        <ele>90.2</ele>
        <time>2018-09-16T06:40:49Z</time>
      </trkpt>
      <trkpt lat="43.6836" lon="3.87206">
        <ele>90</ele>
        <time>2018-09-16T06:40:52Z</time>
      </trkpt>
      <trkpt lat="43.68361" lon="3.87203">
        <ele>90.1</ele>
        <time>2018-09-16T06:40:53Z</time>
      </trkpt>
      <trkpt lat="43.68364" lon="3.87193">
        <ele>90.7</ele>
        <time>2018-09-16T06:40:56Z</time>
      </trkpt>
      <trkpt lat="43.68365" lon="3.87191">
        <ele>90.8</ele>
        <time>2018-09-16T06:40:57Z</time>
      </trkpt>
      <trkpt lat="43.68368" lon="3.8718">
        <ele>91.6</ele>
        <time>2018-09-16T06:41:01Z</time>
      </trkpt>
      <trkpt lat="43.6837" lon="3.87177">
        <ele>91.6</ele>
        <time>2018-09-16T06:41:02Z</time>
      </trkpt>
      <trkpt lat="43.68373" lon="3.87168">
        <ele>92.1</ele>
        <time>2018-09-16T06:41:05Z</time>
      </trkpt>
      <trkpt lat="43.68375" lon="3.87165">
        <ele>92.2</ele>
        <time>2018-09-16T06:41:06Z</time>
      </trkpt>
      <trkpt lat="43.68378" lon="3.87157">
        <ele>92.6</ele>
        <time>2018-09-16T06:41:09Z</time>
      </trkpt>
      <trkpt lat="43.6838" lon="3.87154">
        <ele>92.6</ele>
        <time>2018-09-16T06:41:10Z</time>
      </trkpt>
      <trkpt lat="43.68385" lon="3.87147">
        <ele>92.7</ele>
        <time>2018-09-16T06:41:13Z</time>
      </trkpt>
      <trkpt lat="43.68385" lon="3.87144">
        <ele>93</ele>
        <time>2018-09-16T06:41:14Z</time>
      </trkpt>
      <trkpt lat="43.68388" lon="3.87135">
        <ele>93.3</ele>
        <time>2018-09-16T06:41:17Z</time>
      </trkpt>
      <trkpt lat="43.68389" lon="3.8713">
        <ele>93.3</ele>
        <time>2018-09-16T06:41:18Z</time>
      </trkpt>
      <trkpt lat="43.68391" lon="3.87122">
        <ele>93.4</ele>
        <time>2018-09-16T06:41:20Z</time>
      </trkpt>
      <trkpt lat="43.68392" lon="3.87119">
        <ele>93.3</ele>
        <time>2018-09-16T06:41:21Z</time>
      </trkpt>
      <trkpt lat="43.68395" lon="3.87108">
        <ele>93.5</ele>
        <time>2018-09-16T06:41:24Z</time>
      </trkpt>
      <trkpt lat="43.68395" lon="3.87105">
        <ele>93.6</ele>
        <time>2018-09-16T06:41:25Z</time>
      </trkpt>
      <trkpt lat="43.68398" lon="3.87095">
        <ele>93.6</ele>
        <time>2018-09-16T06:41:28Z</time>
      </trkpt>
      <trkpt lat="43.684" lon="3.87091">
        <ele>93.5</ele>
        <time>2018-09-16T06:41:29Z</time>
      </trkpt>
      <trkpt lat="43.68403" lon="3.87083">
        <ele>93.5</ele>
        <time>2018-09-16T06:41:31Z</time>
      </trkpt>
      <trkpt lat="43.68405" lon="3.87079">
        <ele>93.3</ele>
        <time>2018-09-16T06:41:32Z</time>
      </trkpt>
      <trkpt lat="43.68408" lon="3.87069">
        <ele>92.9</ele>
        <time>2018-09-16T06:41:34Z</time>
      </trkpt>
      <trkpt lat="43.68409" lon="3.87064">
        <ele>92.8</ele>
        <time>2018-09-16T06:41:35Z</time>
      </trkpt>
      <trkpt lat="43.68411" lon="3.87049">
        <ele>92.6</ele>
        <time>2018-09-16T06:41:36Z</time>
      </trkpt>
      <trkpt lat="43.68412" lon="3.87046">
        <ele>92.5</ele>
        <time>2018-09-16T06:41:37Z</time>
      </trkpt>
      <trkpt lat="43.68416" lon="3.87039">
        <ele>92.1</ele>
        <time>2018-09-16T06:41:38Z</time>
      </trkpt>
      <trkpt lat="43.68419" lon="3.87034">
        <ele>91.7</ele>
        <time>2018-09-16T06:41:39Z</time>
      </trkpt>
      <trkpt lat="43.68423" lon="3.87028">
        <ele>91.3</ele>
        <time>2018-09-16T06:41:40Z</time>
      </trkpt>
      <trkpt lat="43.68426" lon="3.87024">
        <ele>90.9</ele>
        <time>2018-09-16T06:41:42Z</time>
      </trkpt>
      <trkpt lat="43.68431" lon="3.87015">
        <ele>90</ele>
        <time>2018-09-16T06:41:43Z</time>
      </trkpt>
      <trkpt lat="43.68433" lon="3.87007">
        <ele>89.5</ele>
        <time>2018-09-16T06:41:44Z</time>
      </trkpt>
      <trkpt lat="43.68437" lon="3.87004">
        <ele>88.9</ele>
        <time>2018-09-16T06:41:45Z</time>
      </trkpt>
      <trkpt lat="43.6844" lon="3.86998">
        <ele>88.3</ele>
        <time>2018-09-16T06:41:46Z</time>
      </trkpt>
      <trkpt lat="43.68443" lon="3.86989">
        <ele>87.4</ele>
        <time>2018-09-16T06:41:47Z</time>
      </trkpt>
      <trkpt lat="43.68445" lon="3.8698">
        <ele>86.5</ele>
        <time>2018-09-16T06:41:49Z</time>
      </trkpt>
      <trkpt lat="43.68446" lon="3.86977">
        <ele>86.2</ele>
        <time>2018-09-16T06:41:50Z</time>
      </trkpt>
      <trkpt lat="43.6845" lon="3.86967">
        <ele>85</ele>
        <time>2018-09-16T06:41:53Z</time>
      </trkpt>
      <trkpt lat="43.68452" lon="3.86964">
        <ele>84.6</ele>
        <time>2018-09-16T06:41:54Z</time>
      </trkpt>
      <trkpt lat="43.68456" lon="3.86959">
        <ele>83.8</ele>
        <time>2018-09-16T06:41:56Z</time>
      </trkpt>
      <trkpt lat="43.68468" lon="3.86957">
        <ele>82.4</ele>
        <time>2018-09-16T06:41:57Z</time>
      </trkpt>
      <trkpt lat="43.68475" lon="3.8696">
        <ele>81.8</ele>
        <time>2018-09-16T06:41:58Z</time>
      </trkpt>
      <trkpt lat="43.68478" lon="3.86964">
        <ele>81.6</ele>
        <time>2018-09-16T06:41:59Z</time>
      </trkpt>
      <trkpt lat="43.68481" lon="3.86969">
        <ele>81.5</ele>
        <time>2018-09-16T06:42:00Z</time>
      </trkpt>
      <trkpt lat="43.68485" lon="3.86974">
        <ele>81.2</ele>
        <time>2018-09-16T06:42:01Z</time>
      </trkpt>
      <trkpt lat="43.6849" lon="3.86979">
        <ele>80.7</ele>
        <time>2018-09-16T06:42:02Z</time>
      </trkpt>
      <trkpt lat="43.68494" lon="3.86983">
        <ele>80.3</ele>
        <time>2018-09-16T06:42:03Z</time>
      </trkpt>
      <trkpt lat="43.68501" lon="3.86992">
        <ele>79.6</ele>
        <time>2018-09-16T06:42:06Z</time>
      </trkpt>
      <trkpt lat="43.68502" lon="3.86995">
        <ele>79.5</ele>
        <time>2018-09-16T06:42:07Z</time>
      </trkpt>
      <trkpt lat="43.68508" lon="3.87003">
        <ele>78.8</ele>
        <time>2018-09-16T06:42:10Z</time>
      </trkpt>
      <trkpt lat="43.68515" lon="3.87013">
        <ele>77.8</ele>
        <time>2018-09-16T06:42:11Z</time>
      </trkpt>
      <trkpt lat="43.68518" lon="3.87023">
        <ele>77.4</ele>
        <time>2018-09-16T06:42:13Z</time>
      </trkpt>
      <trkpt lat="43.6852" lon="3.87031">
        <ele>77.1</ele>
        <time>2018-09-16T06:42:14Z</time>
      </trkpt>
      <trkpt lat="43.68523" lon="3.87042">
        <ele>76.7</ele>
        <time>2018-09-16T06:42:18Z</time>
      </trkpt>
      <trkpt lat="43.68526" lon="3.87053">
        <ele>76.3</ele>
        <time>2018-09-16T06:42:19Z</time>
      </trkpt>
      <trkpt lat="43.68526" lon="3.87059">
        <ele>76.1</ele>
        <time>2018-09-16T06:42:20Z</time>
      </trkpt>
      <trkpt lat="43.68529" lon="3.87064">
        <ele>75.6</ele>
        <time>2018-09-16T06:42:21Z</time>
      </trkpt>
      <trkpt lat="43.68536" lon="3.87071">
        <ele>74.6</ele>
        <time>2018-09-16T06:42:25Z</time>
      </trkpt>
      <trkpt lat="43.68538" lon="3.87073">
        <ele>74.3</ele>
        <time>2018-09-16T06:42:26Z</time>
      </trkpt>
      <trkpt lat="43.68542" lon="3.87081">
        <ele>73.5</ele>
        <time>2018-09-16T06:42:29Z</time>
      </trkpt>
      <trkpt lat="43.68542" lon="3.87085">
        <ele>73.4</ele>
        <time>2018-09-16T06:42:30Z</time>
      </trkpt>
      <trkpt lat="43.68545" lon="3.87095">
        <ele>72.7</ele>
        <time>2018-09-16T06:42:33Z</time>
      </trkpt>
      <trkpt lat="43.68546" lon="3.87098">
        <ele>72.5</ele>
        <time>2018-09-16T06:42:34Z</time>
      </trkpt>
      <trkpt lat="43.6855" lon="3.87108">
        <ele>71.7</ele>
        <time>2018-09-16T06:42:37Z</time>
      </trkpt>
      <trkpt lat="43.68552" lon="3.87112">
        <ele>71.4</ele>
        <time>2018-09-16T06:42:38Z</time>
      </trkpt>
      <trkpt lat="43.68554" lon="3.87117">
        <ele>71.2</ele>
        <time>2018-09-16T06:42:39Z</time>
      </trkpt>
      <trkpt lat="43.68564" lon="3.87132">
        <ele>70.7</ele>
        <time>2018-09-16T06:42:40Z</time>
      </trkpt>
      <trkpt lat="43.68566" lon="3.87143">
        <ele>70.7</ele>
        <time>2018-09-16T06:42:43Z</time>
      </trkpt>
      <trkpt lat="43.68565" lon="3.87146">
        <ele>70.7</ele>
        <time>2018-09-16T06:42:44Z</time>
      </trkpt>
      <trkpt lat="43.68563" lon="3.87156">
        <ele>70.9</ele>
        <time>2018-09-16T06:42:48Z</time>
      </trkpt>
      <trkpt lat="43.68562" lon="3.87159">
        <ele>70.9</ele>
        <time>2018-09-16T06:42:49Z</time>
      </trkpt>
      <trkpt lat="43.68558" lon="3.87167">
        <ele>71</ele>
        <time>2018-09-16T06:42:52Z</time>
      </trkpt>
      <trkpt lat="43.68556" lon="3.87169">
        <ele>71.1</ele>
        <time>2018-09-16T06:42:53Z</time>
      </trkpt>
      <trkpt lat="43.68553" lon="3.87172">
        <ele>71.4</ele>
        <time>2018-09-16T06:42:54Z</time>
      </trkpt>
      <trkpt lat="43.68545" lon="3.87181">
        <ele>72.1</ele>
        <time>2018-09-16T06:42:55Z</time>
      </trkpt>
      <trkpt lat="43.68541" lon="3.87184">
        <ele>72.3</ele>
        <time>2018-09-16T06:42:56Z</time>
      </trkpt>
      <trkpt lat="43.68537" lon="3.87189">
        <ele>72.6</ele>
        <time>2018-09-16T06:42:57Z</time>
      </trkpt>
      <trkpt lat="43.68531" lon="3.87194">
        <ele>72.9</ele>
        <time>2018-09-16T06:42:59Z</time>
      </trkpt>
      <trkpt lat="43.68529" lon="3.87197">
        <ele>72.9</ele>
        <time>2018-09-16T06:43:00Z</time>
      </trkpt>
      <trkpt lat="43.68523" lon="3.87204">
        <ele>72.9</ele>
        <time>2018-09-16T06:43:01Z</time>
      </trkpt>
      <trkpt lat="43.6852" lon="3.87207">
        <ele>73</ele>
        <time>2018-09-16T06:43:02Z</time>
      </trkpt>
      <trkpt lat="43.68516" lon="3.87213">
        <ele>73</ele>
        <time>2018-09-16T06:43:04Z</time>
      </trkpt>
      <trkpt lat="43.68512" lon="3.87218">
        <ele>73.2</ele>
        <time>2018-09-16T06:43:05Z</time>
      </trkpt>
      <trkpt lat="43.68504" lon="3.87222">
        <ele>73.7</ele>
        <time>2018-09-16T06:43:07Z</time>
      </trkpt>
      <trkpt lat="43.68501" lon="3.87226">
        <ele>73.8</ele>
        <time>2018-09-16T06:43:08Z</time>
      </trkpt>
      <trkpt lat="43.68495" lon="3.87232">
        <ele>73.8</ele>
        <time>2018-09-16T06:43:10Z</time>
      </trkpt>
      <trkpt lat="43.68492" lon="3.87235">
        <ele>73.8</ele>
        <time>2018-09-16T06:43:11Z</time>
      </trkpt>
      <trkpt lat="43.68489" lon="3.8724">
        <ele>73.8</ele>
        <time>2018-09-16T06:43:13Z</time>
      </trkpt>
      <trkpt lat="43.68484" lon="3.87246">
        <ele>73.7</ele>
        <time>2018-09-16T06:43:14Z</time>
      </trkpt>
      <trkpt lat="43.68477" lon="3.8725">
        <ele>73.8</ele>
        <time>2018-09-16T06:43:16Z</time>
      </trkpt>
      <trkpt lat="43.68476" lon="3.8725">
        <ele>73.9</ele>
        <time>2018-09-16T06:43:17Z</time>
      </trkpt>
      <trkpt lat="43.6847" lon="3.87256">
        <ele>74.1</ele>
        <time>2018-09-16T06:43:20Z</time>
      </trkpt>
      <trkpt lat="43.68463" lon="3.87263">
        <ele>74.4</ele>
        <time>2018-09-16T06:43:21Z</time>
      </trkpt>
      <trkpt lat="43.68456" lon="3.87266">
        <ele>74.5</ele>
        <time>2018-09-16T06:43:23Z</time>
      </trkpt>
      <trkpt lat="43.68452" lon="3.8727">
        <ele>74.4</ele>
        <time>2018-09-16T06:43:24Z</time>
      </trkpt>
      <trkpt lat="43.68445" lon="3.87276">
        <ele>74.1</ele>
        <time>2018-09-16T06:43:26Z</time>
      </trkpt>
      <trkpt lat="43.68443" lon="3.8728">
        <ele>74.1</ele>
        <time>2018-09-16T06:43:27Z</time>
      </trkpt>
      <trkpt lat="43.68437" lon="3.87287">
        <ele>74.4</ele>
        <time>2018-09-16T06:43:29Z</time>
      </trkpt>
      <trkpt lat="43.68435" lon="3.87288">
        <ele>74.6</ele>
        <time>2018-09-16T06:43:30Z</time>
      </trkpt>
      <trkpt lat="43.68428" lon="3.87293">
        <ele>74.9</ele>
        <time>2018-09-16T06:43:32Z</time>
      </trkpt>
      <trkpt lat="43.68426" lon="3.87295">
        <ele>74.9</ele>
        <time>2018-09-16T06:43:33Z</time>
      </trkpt>
      <trkpt lat="43.68419" lon="3.87301">
        <ele>75.1</ele>
        <time>2018-09-16T06:43:35Z</time>
      </trkpt>
      <trkpt lat="43.68415" lon="3.87305">
        <ele>75.1</ele>
        <time>2018-09-16T06:43:36Z</time>
      </trkpt>
      <trkpt lat="43.68409" lon="3.87311">
        <ele>75.5</ele>
        <time>2018-09-16T06:43:39Z</time>
      </trkpt>
      <trkpt lat="43.68407" lon="3.87313">
        <ele>75.6</ele>
        <time>2018-09-16T06:43:40Z</time>
      </trkpt>
      <trkpt lat="43.684" lon="3.8732">
        <ele>75.9</ele>
        <time>2018-09-16T06:43:43Z</time>
      </trkpt>
      <trkpt lat="43.68397" lon="3.87321">
        <ele>76</ele>
        <time>2018-09-16T06:43:44Z</time>
      </trkpt>
      <trkpt lat="43.68389" lon="3.87327">
        <ele>76.2</ele>
        <time>2018-09-16T06:43:47Z</time>
      </trkpt>
      <trkpt lat="43.68386" lon="3.87329">
        <ele>76.4</ele>
        <time>2018-09-16T06:43:48Z</time>
      </trkpt>
      <trkpt lat="43.68382" lon="3.87335">
        <ele>76.5</ele>
        <time>2018-09-16T06:43:50Z</time>
      </trkpt>
      <trkpt lat="43.68379" lon="3.87338">
        <ele>76.7</ele>
        <time>2018-09-16T06:43:51Z</time>
      </trkpt>
      <trkpt lat="43.68374" lon="3.87341">
        <ele>76.9</ele>
        <time>2018-09-16T06:43:53Z</time>
      </trkpt>
      <trkpt lat="43.68365" lon="3.87346">
        <ele>77.3</ele>
        <time>2018-09-16T06:43:54Z</time>
      </trkpt>
      <trkpt lat="43.68358" lon="3.8735">
        <ele>77.6</ele>
        <time>2018-09-16T06:43:57Z</time>
      </trkpt>
      <trkpt lat="43.68356" lon="3.87352">
        <ele>77.6</ele>
        <time>2018-09-16T06:43:58Z</time>
      </trkpt>
      <trkpt lat="43.68351" lon="3.87356">
        <ele>77.6</ele>
        <time>2018-09-16T06:44:00Z</time>
      </trkpt>
      <trkpt lat="43.68343" lon="3.87365">
        <ele>77.7</ele>
        <time>2018-09-16T06:44:01Z</time>
      </trkpt>
      <trkpt lat="43.68337" lon="3.8737">
        <ele>77.9</ele>
        <time>2018-09-16T06:44:04Z</time>
      </trkpt>
      <trkpt lat="43.68335" lon="3.87372">
        <ele>77.9</ele>
        <time>2018-09-16T06:44:05Z</time>
      </trkpt>
      <trkpt lat="43.68331" lon="3.87383">
        <ele>78</ele>
        <time>2018-09-16T06:44:06Z</time>
      </trkpt>
      <trkpt lat="43.6833" lon="3.87388">
        <ele>78</ele>
        <time>2018-09-16T06:44:08Z</time>
      </trkpt>
      <trkpt lat="43.68328" lon="3.87397">
        <ele>78</ele>
        <time>2018-09-16T06:44:10Z</time>
      </trkpt>
      <trkpt lat="43.68327" lon="3.87402">
        <ele>78</ele>
        <time>2018-09-16T06:44:11Z</time>
      </trkpt>
      <trkpt lat="43.68325" lon="3.87411">
        <ele>78</ele>
        <time>2018-09-16T06:44:14Z</time>
      </trkpt>
      <trkpt lat="43.68325" lon="3.87415">
        <ele>78</ele>
        <time>2018-09-16T06:44:15Z</time>
      </trkpt>
      <trkpt lat="43.68325" lon="3.87424">
        <ele>78.3</ele>
        <time>2018-09-16T06:44:17Z</time>
      </trkpt>
      <trkpt lat="43.68325" lon="3.87429">
        <ele>78.4</ele>
        <time>2018-09-16T06:44:18Z</time>
      </trkpt>
      <trkpt lat="43.68324" lon="3.87439">
        <ele>78.8</ele>
        <time>2018-09-16T06:44:21Z</time>
      </trkpt>
      <trkpt lat="43.68322" lon="3.87441">
        <ele>78.9</ele>
        <time>2018-09-16T06:44:22Z</time>
      </trkpt>
      <trkpt lat="43.68316" lon="3.87445">
        <ele>79</ele>
        <time>2018-09-16T06:44:25Z</time>
      </trkpt>
      <trkpt lat="43.68313" lon="3.87447">
        <ele>79</ele>
        <time>2018-09-16T06:44:26Z</time>
      </trkpt>
      <trkpt lat="43.68308" lon="3.87452">
        <ele>79</ele>
        <time>2018-09-16T06:44:28Z</time>
      </trkpt>
      <trkpt lat="43.68298" lon="3.87455">
        <ele>78.7</ele>
        <time>2018-09-16T06:44:29Z</time>
      </trkpt>
      <trkpt lat="43.6829" lon="3.87453">
        <ele>78.4</ele>
        <time>2018-09-16T06:44:31Z</time>
      </trkpt>
      <trkpt lat="43.68286" lon="3.87452">
        <ele>78.3</ele>
        <time>2018-09-16T06:44:32Z</time>
      </trkpt>
      <trkpt lat="43.68281" lon="3.87451">
        <ele>78.1</ele>
        <time>2018-09-16T06:44:33Z</time>
      </trkpt>
      <trkpt lat="43.68276" lon="3.87449">
        <ele>78</ele>
        <time>2018-09-16T06:44:34Z</time>
      </trkpt>
      <trkpt lat="43.68268" lon="3.87449">
        <ele>78</ele>
        <time>2018-09-16T06:44:36Z</time>
      </trkpt>
      <trkpt lat="43.68263" lon="3.87449">
        <ele>78</ele>
        <time>2018-09-16T06:44:37Z</time>
      </trkpt>
      <trkpt lat="43.68254" lon="3.87447">
        <ele>78</ele>
        <time>2018-09-16T06:44:39Z</time>
      </trkpt>
      <trkpt lat="43.6825" lon="3.87446">
        <ele>78</ele>
        <time>2018-09-16T06:44:40Z</time>
      </trkpt>
      <trkpt lat="43.68246" lon="3.87445">
        <ele>77.9</ele>
        <time>2018-09-16T06:44:41Z</time>
      </trkpt>
      <trkpt lat="43.68241" lon="3.87443">
        <ele>77.7</ele>
        <time>2018-09-16T06:44:42Z</time>
      </trkpt>
      <trkpt lat="43.68237" lon="3.87443">
        <ele>77.5</ele>
        <time>2018-09-16T06:44:43Z</time>
      </trkpt>
      <trkpt lat="43.6823" lon="3.87444">
        <ele>77.3</ele>
        <time>2018-09-16T06:44:44Z</time>
      </trkpt>
      <trkpt lat="43.68226" lon="3.87443">
        <ele>77.1</ele>
        <time>2018-09-16T06:44:45Z</time>
      </trkpt>
      <trkpt lat="43.68221" lon="3.87442">
        <ele>77</ele>
        <time>2018-09-16T06:44:46Z</time>
      </trkpt>
      <trkpt lat="43.68216" lon="3.87441">
        <ele>76.7</ele>
        <time>2018-09-16T06:44:47Z</time>
      </trkpt>
      <trkpt lat="43.6821" lon="3.87436">
        <ele>76.4</ele>
        <time>2018-09-16T06:44:48Z</time>
      </trkpt>
      <trkpt lat="43.68205" lon="3.8744">
        <ele>76.3</ele>
        <time>2018-09-16T06:44:49Z</time>
      </trkpt>
      <trkpt lat="43.68201" lon="3.87448">
        <ele>76.2</ele>
        <time>2018-09-16T06:44:50Z</time>
      </trkpt>
      <trkpt lat="43.68198" lon="3.87454">
        <ele>76.1</ele>
        <time>2018-09-16T06:44:51Z</time>
      </trkpt>
      <trkpt lat="43.68197" lon="3.87461">
        <ele>76.1</ele>
        <time>2018-09-16T06:44:52Z</time>
      </trkpt>
      <trkpt lat="43.68195" lon="3.87467">
        <ele>76</ele>
        <time>2018-09-16T06:44:53Z</time>
      </trkpt>
      <trkpt lat="43.68194" lon="3.87472">
        <ele>76</ele>
        <time>2018-09-16T06:44:54Z</time>
      </trkpt>
      <trkpt lat="43.6819" lon="3.87483">
        <ele>76.2</ele>
        <time>2018-09-16T06:44:56Z</time>
      </trkpt>
      <trkpt lat="43.68189" lon="3.87489">
        <ele>76.4</ele>
        <time>2018-09-16T06:44:57Z</time>
      </trkpt>
      <trkpt lat="43.68186" lon="3.87499">
        <ele>76.7</ele>
        <time>2018-09-16T06:44:59Z</time>
      </trkpt>
      <trkpt lat="43.68185" lon="3.87504">
        <ele>76.9</ele>
        <time>2018-09-16T06:45:00Z</time>
      </trkpt>
      <trkpt lat="43.68182" lon="3.87515">
        <ele>77.4</ele>
        <time>2018-09-16T06:45:03Z</time>
      </trkpt>
      <trkpt lat="43.68181" lon="3.87518">
        <ele>77.5</ele>
        <time>2018-09-16T06:45:04Z</time>
      </trkpt>
      <trkpt lat="43.68179" lon="3.87526">
        <ele>77.8</ele>
        <time>2018-09-16T06:45:06Z</time>
      </trkpt>
      <trkpt lat="43.68179" lon="3.8753">
        <ele>78</ele>
        <time>2018-09-16T06:45:07Z</time>
      </trkpt>
      <trkpt lat="43.68176" lon="3.87538">
        <ele>78.4</ele>
        <time>2018-09-16T06:45:09Z</time>
      </trkpt>
      <trkpt lat="43.68174" lon="3.87543">
        <ele>78.6</ele>
        <time>2018-09-16T06:45:10Z</time>
      </trkpt>
      <trkpt lat="43.68172" lon="3.8755">
        <ele>79</ele>
        <time>2018-09-16T06:45:12Z</time>
      </trkpt>
      <trkpt lat="43.68171" lon="3.87554">
        <ele>79.2</ele>
        <time>2018-09-16T06:45:13Z</time>
      </trkpt>
      <trkpt lat="43.68169" lon="3.87563">
        <ele>79.4</ele>
        <time>2018-09-16T06:45:15Z</time>
      </trkpt>
      <trkpt lat="43.68166" lon="3.87574">
        <ele>79.6</ele>
        <time>2018-09-16T06:45:16Z</time>
      </trkpt>
      <trkpt lat="43.68164" lon="3.87582">
        <ele>79.8</ele>
        <time>2018-09-16T06:45:19Z</time>
      </trkpt>
      <trkpt lat="43.68163" lon="3.87586">
        <ele>79.8</ele>
        <time>2018-09-16T06:45:20Z</time>
      </trkpt>
      <trkpt lat="43.6816" lon="3.87597">
        <ele>80</ele>
        <time>2018-09-16T06:45:21Z</time>
      </trkpt>
      <trkpt lat="43.68159" lon="3.87599">
        <ele>80</ele>
        <time>2018-09-16T06:45:22Z</time>
      </trkpt>
      <trkpt lat="43.68157" lon="3.87606">
        <ele>80.1</ele>
        <time>2018-09-16T06:45:23Z</time>
      </trkpt>
      <trkpt lat="43.68156" lon="3.87611">
        <ele>80.2</ele>
        <time>2018-09-16T06:45:24Z</time>
      </trkpt>
      <trkpt lat="43.68152" lon="3.8762">
        <ele>80.4</ele>
        <time>2018-09-16T06:45:26Z</time>
      </trkpt>
      <trkpt lat="43.68152" lon="3.87623">
        <ele>80.6</ele>
        <time>2018-09-16T06:45:27Z</time>
      </trkpt>
      <trkpt lat="43.68151" lon="3.87626">
        <ele>80.6</ele>
        <time>2018-09-16T06:45:28Z</time>
      </trkpt>
      <trkpt lat="43.68148" lon="3.87634">
        <ele>80.8</ele>
        <time>2018-09-16T06:45:29Z</time>
      </trkpt>
      <trkpt lat="43.68145" lon="3.87645">
        <ele>80.9</ele>
        <time>2018-09-16T06:45:32Z</time>
      </trkpt>
      <trkpt lat="43.68143" lon="3.87652">
        <ele>80.9</ele>
        <time>2018-09-16T06:45:33Z</time>
      </trkpt>
      <trkpt lat="43.68141" lon="3.87662">
        <ele>81.1</ele>
        <time>2018-09-16T06:45:35Z</time>
      </trkpt>
      <trkpt lat="43.6814" lon="3.87667">
        <ele>81.1</ele>
        <time>2018-09-16T06:45:36Z</time>
      </trkpt>
      <trkpt lat="43.68134" lon="3.87675">
        <ele>80.6</ele>
        <time>2018-09-16T06:45:38Z</time>
      </trkpt>
      <trkpt lat="43.68132" lon="3.8768">
        <ele>80.5</ele>
        <time>2018-09-16T06:45:39Z</time>
      </trkpt>
      <trkpt lat="43.68128" lon="3.8769">
        <ele>80.2</ele>
        <time>2018-09-16T06:45:41Z</time>
      </trkpt>
      <trkpt lat="43.68125" lon="3.87695">
        <ele>80</ele>
        <time>2018-09-16T06:45:42Z</time>
      </trkpt>
      <trkpt lat="43.68126" lon="3.87704">
        <ele>79.6</ele>
        <time>2018-09-16T06:45:43Z</time>
      </trkpt>
      <trkpt lat="43.68128" lon="3.87711">
        <ele>79.4</ele>
        <time>2018-09-16T06:45:44Z</time>
      </trkpt>
      <trkpt lat="43.68132" lon="3.8772">
        <ele>79.4</ele>
        <time>2018-09-16T06:45:45Z</time>
      </trkpt>
      <trkpt lat="43.68135" lon="3.87729">
        <ele>78.7</ele>
        <time>2018-09-16T06:45:46Z</time>
      </trkpt>
      <trkpt lat="43.68138" lon="3.87738">
        <ele>77.7</ele>
        <time>2018-09-16T06:45:47Z</time>
      </trkpt>
      <trkpt lat="43.68141" lon="3.87745">
        <ele>76.9</ele>
        <time>2018-09-16T06:45:48Z</time>
      </trkpt>
      <trkpt lat="43.68144" lon="3.87753">
        <ele>76.5</ele>
        <time>2018-09-16T06:45:49Z</time>
      </trkpt>
      <trkpt lat="43.68147" lon="3.8776">
        <ele>76.7</ele>
        <time>2018-09-16T06:45:50Z</time>
      </trkpt>
      <trkpt lat="43.68149" lon="3.87767">
        <ele>76.6</ele>
        <time>2018-09-16T06:45:51Z</time>
      </trkpt>
      <trkpt lat="43.6815" lon="3.87772">
        <ele>76.6</ele>
        <time>2018-09-16T06:45:52Z</time>
      </trkpt>
      <trkpt lat="43.68148" lon="3.87777">
        <ele>76.4</ele>
      </trkpt>
      <trkpt lat="43.68142" lon="3.87775">
        <ele>76.1</ele>
        <time>2018-09-16T06:45:54Z</time>
      </trkpt>
      <trkpt lat="43.6814" lon="3.87774">
        <ele>76.1</ele>
        <time>2018-09-16T06:45:55Z</time>
      </trkpt>
      <trkpt lat="43.68134" lon="3.87771">
        <ele>76</ele>
        <time>2018-09-16T06:45:58Z</time>
      </trkpt>
      <trkpt lat="43.68131" lon="3.8777">
        <ele>76</ele>
        <time>2018-09-16T06:45:59Z</time>
      </trkpt>
      <trkpt lat="43.68121" lon="3.87766">
        <ele>76</ele>
        <time>2018-09-16T06:46:00Z</time>
      </trkpt>
      <trkpt lat="43.68112" lon="3.87764">
        <ele>76</ele>
        <time>2018-09-16T06:46:02Z</time>
      </trkpt>
      <trkpt lat="43.68108" lon="3.87763">
        <ele>75.9</ele>
        <time>2018-09-16T06:46:03Z</time>
      </trkpt>
      <trkpt lat="43.681" lon="3.8776">
        <ele>75.7</ele>
        <time>2018-09-16T06:46:05Z</time>
      </trkpt>
      <trkpt lat="43.68096" lon="3.8776">
        <ele>75.7</ele>
        <time>2018-09-16T06:46:06Z</time>
      </trkpt>
      <trkpt lat="43.68088" lon="3.87757">
        <ele>75.4</ele>
        <time>2018-09-16T06:46:09Z</time>
      </trkpt>
      <trkpt lat="43.68086" lon="3.87756">
        <ele>75.3</ele>
        <time>2018-09-16T06:46:10Z</time>
      </trkpt>
      <trkpt lat="43.6808" lon="3.87763">
        <ele>75.4</ele>
        <time>2018-09-16T06:46:51Z</time>
      </trkpt>
      <trkpt lat="43.68079" lon="3.87764">
        <ele>75.4</ele>
        <time>2018-09-16T06:46:52Z</time>
      </trkpt>
      <trkpt lat="43.68078" lon="3.87765">
        <ele>75.5</ele>
        <time>2018-09-16T06:46:53Z</time>
      </trkpt>
      <trkpt lat="43.68078" lon="3.87766">
        <ele>75.5</ele>
        <time>2018-09-16T06:46:54Z</time>
      </trkpt>
      <trkpt lat="43.68075" lon="3.8777">
        <ele>75.6</ele>
        <time>2018-09-16T06:47:13Z</time>
      </trkpt>
      <trkpt lat="43.68075" lon="3.87771">
        <ele>75.7</ele>
        <time>2018-09-16T06:47:14Z</time>
      </trkpt>
      <trkpt lat="43.68069" lon="3.87778">
        <ele>76</ele>
        <time>2018-09-16T06:47:21Z</time>
      </trkpt>
      <trkpt lat="43.68066" lon="3.87779">
        <ele>76.2</ele>
        <time>2018-09-16T06:47:22Z</time>
      </trkpt>
      <trkpt lat="43.6806" lon="3.87779">
        <ele>76.2</ele>
        <time>2018-09-16T06:47:24Z</time>
      </trkpt>
      <trkpt lat="43.68057" lon="3.87778">
        <ele>76</ele>
        <time>2018-09-16T06:47:25Z</time>
      </trkpt>
      <trkpt lat="43.6805" lon="3.87773">
        <ele>75.7</ele>
        <time>2018-09-16T06:47:28Z</time>
      </trkpt>
      <trkpt lat="43.68048" lon="3.87772">
        <ele>75.6</ele>
        <time>2018-09-16T06:47:29Z</time>
      </trkpt>
      <trkpt lat="43.68041" lon="3.87766">
        <ele>75.4</ele>
        <time>2018-09-16T06:47:32Z</time>
      </trkpt>
      <trkpt lat="43.68039" lon="3.87764">
        <ele>75.3</ele>
        <time>2018-09-16T06:47:33Z</time>
      </trkpt>
      <trkpt lat="43.68032" lon="3.87755">
        <ele>75.1</ele>
        <time>2018-09-16T06:47:36Z</time>
      </trkpt>
      <trkpt lat="43.68031" lon="3.87752">
        <ele>75</ele>
        <time>2018-09-16T06:47:37Z</time>
      </trkpt>
      <trkpt lat="43.68028" lon="3.87741">
        <ele>74.7</ele>
        <time>2018-09-16T06:47:40Z</time>
      </trkpt>
      <trkpt lat="43.68027" lon="3.87739">
        <ele>74.6</ele>
        <time>2018-09-16T06:47:41Z</time>
      </trkpt>
      <trkpt lat="43.68019" lon="3.87733">
        <ele>74.2</ele>
        <time>2018-09-16T06:47:45Z</time>
      </trkpt>
      <trkpt lat="43.68017" lon="3.87732">
        <ele>74.1</ele>
        <time>2018-09-16T06:47:46Z</time>
      </trkpt>
      <trkpt lat="43.6801" lon="3.87729">
        <ele>73.8</ele>
        <time>2018-09-16T06:47:49Z</time>
      </trkpt>
      <trkpt lat="43.68008" lon="3.87728">
        <ele>73.6</ele>
        <time>2018-09-16T06:47:50Z</time>
      </trkpt>
      <trkpt lat="43.68" lon="3.87724">
        <ele>73.1</ele>
        <time>2018-09-16T06:47:54Z</time>
      </trkpt>
      <trkpt lat="43.67996" lon="3.87722">
        <ele>73</ele>
        <time>2018-09-16T06:47:55Z</time>
      </trkpt>
      <trkpt lat="43.6799" lon="3.87721">
        <ele>72.9</ele>
        <time>2018-09-16T06:47:57Z</time>
      </trkpt>
      <trkpt lat="43.67987" lon="3.87721">
        <ele>72.9</ele>
        <time>2018-09-16T06:47:58Z</time>
      </trkpt>
      <trkpt lat="43.67981" lon="3.8772">
        <ele>72.9</ele>
        <time>2018-09-16T06:48:00Z</time>
      </trkpt>
      <trkpt lat="43.67977" lon="3.87721">
        <ele>72.9</ele>
        <time>2018-09-16T06:48:01Z</time>
      </trkpt>
      <trkpt lat="43.67971" lon="3.8772">
        <ele>72.9</ele>
        <time>2018-09-16T06:48:03Z</time>
      </trkpt>
      <trkpt lat="43.67967" lon="3.87719">
        <ele>73</ele>
        <time>2018-09-16T06:48:04Z</time>
      </trkpt>
      <trkpt lat="43.6796" lon="3.87713">
        <ele>72.8</ele>
        <time>2018-09-16T06:48:06Z</time>
      </trkpt>
      <trkpt lat="43.67956" lon="3.87709">
        <ele>72.6</ele>
        <time>2018-09-16T06:48:07Z</time>
      </trkpt>
      <trkpt lat="43.67949" lon="3.87707">
        <ele>72.7</ele>
        <time>2018-09-16T06:48:09Z</time>
      </trkpt>
      <trkpt lat="43.67946" lon="3.87706">
        <ele>72.8</ele>
        <time>2018-09-16T06:48:10Z</time>
      </trkpt>
      <trkpt lat="43.67937" lon="3.87704">
        <ele>73.3</ele>
        <time>2018-09-16T06:48:14Z</time>
      </trkpt>
      <trkpt lat="43.67936" lon="3.87704">
        <ele>73.4</ele>
        <time>2018-09-16T06:48:15Z</time>
      </trkpt>
      <trkpt lat="43.67928" lon="3.87703">
        <ele>74</ele>
        <time>2018-09-16T06:48:21Z</time>
      </trkpt>
      <trkpt lat="43.67926" lon="3.87704">
        <ele>74.2</ele>
        <time>2018-09-16T06:48:22Z</time>
      </trkpt>
      <trkpt lat="43.6792" lon="3.87711">
        <ele>75.5</ele>
        <time>2018-09-16T06:48:29Z</time>
      </trkpt>
      <trkpt lat="43.67919" lon="3.87713">
        <ele>75.8</ele>
        <time>2018-09-16T06:48:30Z</time>
      </trkpt>
      <trkpt lat="43.67912" lon="3.87717">
        <ele>76.6</ele>
        <time>2018-09-16T06:48:34Z</time>
      </trkpt>
      <trkpt lat="43.6791" lon="3.87717">
        <ele>76.7</ele>
        <time>2018-09-16T06:48:35Z</time>
      </trkpt>
      <trkpt lat="43.67901" lon="3.87715">
        <ele>76.8</ele>
        <time>2018-09-16T06:48:40Z</time>
      </trkpt>
      <trkpt lat="43.67899" lon="3.87716">
        <ele>77</ele>
        <time>2018-09-16T06:48:41Z</time>
      </trkpt>
      <trkpt lat="43.6789" lon="3.87718">
        <ele>77.5</ele>
        <time>2018-09-16T06:48:45Z</time>
      </trkpt>
      <trkpt lat="43.67887" lon="3.87719">
        <ele>77.7</ele>
        <time>2018-09-16T06:48:46Z</time>
      </trkpt>
      <trkpt lat="43.6788" lon="3.87724">
        <ele>78.2</ele>
        <time>2018-09-16T06:48:49Z</time>
      </trkpt>
      <trkpt lat="43.67879" lon="3.87725">
        <ele>78.3</ele>
        <time>2018-09-16T06:48:50Z</time>
      </trkpt>
      <trkpt lat="43.67872" lon="3.87732">
        <ele>78.8</ele>
        <time>2018-09-16T06:48:54Z</time>
      </trkpt>
      <trkpt lat="43.67871" lon="3.87733">
        <ele>78.9</ele>
        <time>2018-09-16T06:48:55Z</time>
      </trkpt>
      <trkpt lat="43.67863" lon="3.87738">
        <ele>79.2</ele>
        <time>2018-09-16T06:49:05Z</time>
      </trkpt>
      <trkpt lat="43.67862" lon="3.87737">
        <ele>79.1</ele>
        <time>2018-09-16T06:49:06Z</time>
      </trkpt>
      <trkpt lat="43.67857" lon="3.87741">
        <ele>79.7</ele>
        <time>2018-09-16T06:49:14Z</time>
      </trkpt>
      <trkpt lat="43.67854" lon="3.87743">
        <ele>80.1</ele>
        <time>2018-09-16T06:49:15Z</time>
      </trkpt>
      <trkpt lat="43.67847" lon="3.87738">
        <ele>80.4</ele>
        <time>2018-09-16T06:49:19Z</time>
      </trkpt>
      <trkpt lat="43.67847" lon="3.87736">
        <ele>80.3</ele>
        <time>2018-09-16T06:49:20Z</time>
      </trkpt>
      <trkpt lat="43.67844" lon="3.87731">
        <ele>80.3</ele>
      </trkpt>
      <trkpt lat="43.67841" lon="3.87726">
        <ele>80.3</ele>
        <time>2018-09-16T06:49:23Z</time>
      </trkpt>
      <trkpt lat="43.6784" lon="3.87724">
        <ele>80.4</ele>
        <time>2018-09-16T06:49:24Z</time>
      </trkpt>
      <trkpt lat="43.67833" lon="3.87718">
        <ele>80.9</ele>
        <time>2018-09-16T06:49:27Z</time>
      </trkpt>
      <trkpt lat="43.67831" lon="3.87716">
        <ele>80.9</ele>
        <time>2018-09-16T06:49:28Z</time>
      </trkpt>
      <trkpt lat="43.67823" lon="3.87712">
        <ele>81</ele>
        <time>2018-09-16T06:49:33Z</time>
      </trkpt>
      <trkpt lat="43.67821" lon="3.87712">
        <ele>81.1</ele>
        <time>2018-09-16T06:49:34Z</time>
      </trkpt>
      <trkpt lat="43.67813" lon="3.87714">
        <ele>81.4</ele>
        <time>2018-09-16T06:49:38Z</time>
      </trkpt>
      <trkpt lat="43.6781" lon="3.87714">
        <ele>81.5</ele>
        <time>2018-09-16T06:49:39Z</time>
      </trkpt>
      <trkpt lat="43.67801" lon="3.87713">
        <ele>81.7</ele>
        <time>2018-09-16T06:49:42Z</time>
      </trkpt>
      <trkpt lat="43.67799" lon="3.87711">
        <ele>81.6</ele>
        <time>2018-09-16T06:49:43Z</time>
      </trkpt>
      <trkpt lat="43.67794" lon="3.87705">
        <ele>81.4</ele>
        <time>2018-09-16T06:49:47Z</time>
      </trkpt>
      <trkpt lat="43.67792" lon="3.87703">
        <ele>81.3</ele>
        <time>2018-09-16T06:49:48Z</time>
      </trkpt>
      <trkpt lat="43.67786" lon="3.87695">
        <ele>81</ele>
        <time>2018-09-16T06:49:51Z</time>
      </trkpt>
      <trkpt lat="43.67784" lon="3.87692">
        <ele>81</ele>
        <time>2018-09-16T06:49:52Z</time>
      </trkpt>
      <trkpt lat="43.67778" lon="3.87683">
        <ele>81</ele>
        <time>2018-09-16T06:49:56Z</time>
      </trkpt>
      <trkpt lat="43.67777" lon="3.8768">
        <ele>81</ele>
        <time>2018-09-16T06:49:57Z</time>
      </trkpt>
      <trkpt lat="43.67771" lon="3.87671">
        <ele>80.8</ele>
        <time>2018-09-16T06:50:01Z</time>
      </trkpt>
      <trkpt lat="43.6777" lon="3.87668">
        <ele>80.7</ele>
        <time>2018-09-16T06:50:02Z</time>
      </trkpt>
      <trkpt lat="43.67768" lon="3.87659">
        <ele>80.6</ele>
        <time>2018-09-16T06:50:05Z</time>
      </trkpt>
      <trkpt lat="43.67768" lon="3.87656">
        <ele>80.6</ele>
        <time>2018-09-16T06:50:06Z</time>
      </trkpt>
      <trkpt lat="43.67764" lon="3.87645">
        <ele>80.5</ele>
        <time>2018-09-16T06:50:09Z</time>
      </trkpt>
      <trkpt lat="43.67762" lon="3.8764">
        <ele>80.4</ele>
        <time>2018-09-16T06:50:10Z</time>
      </trkpt>
      <trkpt lat="43.67761" lon="3.87631">
        <ele>80.4</ele>
        <time>2018-09-16T06:50:12Z</time>
      </trkpt>
      <trkpt lat="43.6776" lon="3.87626">
        <ele>80.4</ele>
        <time>2018-09-16T06:50:13Z</time>
      </trkpt>
      <trkpt lat="43.6776" lon="3.87621">
        <ele>80.4</ele>
        <time>2018-09-16T06:50:14Z</time>
      </trkpt>
      <trkpt lat="43.67757" lon="3.87605">
        <ele>80</ele>
        <time>2018-09-16T06:50:15Z</time>
      </trkpt>
      <trkpt lat="43.67755" lon="3.87594">
        <ele>79.6</ele>
        <time>2018-09-16T06:50:27Z</time>
      </trkpt>
      <trkpt lat="43.67752" lon="3.87594">
        <ele>79.5</ele>
        <time>2018-09-16T06:50:28Z</time>
      </trkpt>
      <trkpt lat="43.67744" lon="3.87597">
        <ele>78.2</ele>
        <time>2018-09-16T06:50:32Z</time>
      </trkpt>
      <trkpt lat="43.67742" lon="3.87598">
        <ele>77.8</ele>
        <time>2018-09-16T06:50:33Z</time>
      </trkpt>
      <trkpt lat="43.67735" lon="3.87606">
        <ele>76.9</ele>
        <time>2018-09-16T06:50:37Z</time>
      </trkpt>
      <trkpt lat="43.67733" lon="3.87607">
        <ele>76.6</ele>
        <time>2018-09-16T06:50:38Z</time>
      </trkpt>
      <trkpt lat="43.67726" lon="3.87613">
        <ele>75.7</ele>
        <time>2018-09-16T06:50:41Z</time>
      </trkpt>
      <trkpt lat="43.67723" lon="3.87615">
        <ele>75.3</ele>
        <time>2018-09-16T06:50:42Z</time>
      </trkpt>
      <trkpt lat="43.67717" lon="3.87619">
        <ele>74.5</ele>
        <time>2018-09-16T06:50:44Z</time>
      </trkpt>
      <trkpt lat="43.67704" lon="3.87629">
        <ele>73</ele>
        <time>2018-09-16T06:50:45Z</time>
      </trkpt>
      <trkpt lat="43.67703" lon="3.87633">
        <ele>73</ele>
      </trkpt>
      <trkpt lat="43.67708" lon="3.8764">
        <ele>74</ele>
        <time>2018-09-16T06:50:52Z</time>
      </trkpt>
      <trkpt lat="43.67708" lon="3.87644">
        <ele>74</ele>
        <time>2018-09-16T06:50:53Z</time>
      </trkpt>
      <trkpt lat="43.67707" lon="3.87652">
        <ele>74.1</ele>
        <time>2018-09-16T06:50:55Z</time>
      </trkpt>
      <trkpt lat="43.67708" lon="3.87657">
        <ele>74.3</ele>
        <time>2018-09-16T06:50:56Z</time>
      </trkpt>
      <trkpt lat="43.6771" lon="3.87667">
        <ele>74.7</ele>
        <time>2018-09-16T06:50:59Z</time>
      </trkpt>
      <trkpt lat="43.6771" lon="3.8767">
        <ele>74.8</ele>
        <time>2018-09-16T06:51:00Z</time>
      </trkpt>
      <trkpt lat="43.6771" lon="3.87681">
        <ele>75.2</ele>
        <time>2018-09-16T06:51:04Z</time>
      </trkpt>
      <trkpt lat="43.67709" lon="3.87684">
        <ele>75.2</ele>
        <time>2018-09-16T06:51:05Z</time>
      </trkpt>
      <trkpt lat="43.67707" lon="3.87695">
        <ele>75.4</ele>
        <time>2018-09-16T06:51:09Z</time>
      </trkpt>
      <trkpt lat="43.67707" lon="3.87699">
        <ele>75.4</ele>
        <time>2018-09-16T06:51:10Z</time>
      </trkpt>
      <trkpt lat="43.67708" lon="3.87707">
        <ele>75.7</ele>
        <time>2018-09-16T06:51:12Z</time>
      </trkpt>
      <trkpt lat="43.67709" lon="3.87711">
        <ele>75.9</ele>
        <time>2018-09-16T06:51:13Z</time>
      </trkpt>
      <trkpt lat="43.67709" lon="3.87718">
        <ele>76</ele>
      </trkpt>
      <trkpt lat="43.67709" lon="3.87719">
        <ele>76</ele>
      </trkpt>
      <trkpt lat="43.67709" lon="3.8772">
        <ele>76</ele>
      </trkpt>
      <trkpt lat="43.6771" lon="3.87721">
        <ele>76.1</ele>
        <time>2018-09-16T06:51:17Z</time>
      </trkpt>
      <trkpt lat="43.67713" lon="3.87728">
        <ele>76.8</ele>
        <time>2018-09-16T06:51:24Z</time>
      </trkpt>
      <trkpt lat="43.67716" lon="3.87735">
        <ele>77.5</ele>
        <time>2018-09-16T06:51:25Z</time>
      </trkpt>
      <trkpt lat="43.67717" lon="3.87745">
        <ele>78.4</ele>
        <time>2018-09-16T06:51:28Z</time>
      </trkpt>
      <trkpt lat="43.67713" lon="3.87748">
        <ele>78.5</ele>
        <time>2018-09-16T06:51:29Z</time>
      </trkpt>
      <trkpt lat="43.67711" lon="3.87757">
        <ele>78.8</ele>
        <time>2018-09-16T06:51:32Z</time>
      </trkpt>
      <trkpt lat="43.67713" lon="3.87767">
        <ele>79.3</ele>
        <time>2018-09-16T06:51:33Z</time>
      </trkpt>
      <trkpt lat="43.67717" lon="3.87778">
        <ele>79.8</ele>
        <time>2018-09-16T06:51:36Z</time>
      </trkpt>
      <trkpt lat="43.67719" lon="3.87782">
        <ele>79.9</ele>
        <time>2018-09-16T06:51:37Z</time>
      </trkpt>
      <trkpt lat="43.67722" lon="3.8779">
        <ele>80</ele>
        <time>2018-09-16T06:51:40Z</time>
      </trkpt>
      <trkpt lat="43.67723" lon="3.87793">
        <ele>80.1</ele>
        <time>2018-09-16T06:51:41Z</time>
      </trkpt>
      <trkpt lat="43.67725" lon="3.87802">
        <ele>80.4</ele>
        <time>2018-09-16T06:51:44Z</time>
      </trkpt>
      <trkpt lat="43.67726" lon="3.87805">
        <ele>80.5</ele>
        <time>2018-09-16T06:51:45Z</time>
      </trkpt>
      <trkpt lat="43.67727" lon="3.87814">
        <ele>81.2</ele>
        <time>2018-09-16T06:51:48Z</time>
      </trkpt>
      <trkpt lat="43.67728" lon="3.87819">
        <ele>81.7</ele>
        <time>2018-09-16T06:51:49Z</time>
      </trkpt>
      <trkpt lat="43.6773" lon="3.87825">
        <ele>82.3</ele>
        <time>2018-09-16T06:51:52Z</time>
      </trkpt>
      <trkpt lat="43.67731" lon="3.8783">
        <ele>82.7</ele>
        <time>2018-09-16T06:51:53Z</time>
      </trkpt>
      <trkpt lat="43.67729" lon="3.87841">
        <ele>83.2</ele>
        <time>2018-09-16T06:51:57Z</time>
      </trkpt>
      <trkpt lat="43.67727" lon="3.87844">
        <ele>83.2</ele>
        <time>2018-09-16T06:51:58Z</time>
      </trkpt>
      <trkpt lat="43.67723" lon="3.87852">
        <ele>83.4</ele>
        <time>2018-09-16T06:52:02Z</time>
      </trkpt>
      <trkpt lat="43.6772" lon="3.87854">
        <ele>83.5</ele>
        <time>2018-09-16T06:52:03Z</time>
      </trkpt>
      <trkpt lat="43.67717" lon="3.87862">
        <ele>84.2</ele>
        <time>2018-09-16T06:52:07Z</time>
      </trkpt>
      <trkpt lat="43.67717" lon="3.87868">
        <ele>84.8</ele>
        <time>2018-09-16T06:52:08Z</time>
      </trkpt>
      <trkpt lat="43.6772" lon="3.87878">
        <ele>85.8</ele>
        <time>2018-09-16T06:52:12Z</time>
      </trkpt>
      <trkpt lat="43.6772" lon="3.8788">
        <ele>86</ele>
        <time>2018-09-16T06:52:13Z</time>
      </trkpt>
      <trkpt lat="43.67726" lon="3.87889">
        <ele>87.2</ele>
      </trkpt>
      <trkpt lat="43.67729" lon="3.87891">
        <ele>87.5</ele>
        <time>2018-09-16T06:52:24Z</time>
      </trkpt>
      <trkpt lat="43.67731" lon="3.87894">
        <ele>87.9</ele>
        <time>2018-09-16T06:52:25Z</time>
      </trkpt>
      <trkpt lat="43.67735" lon="3.87895">
        <ele>88.1</ele>
      </trkpt>
      <trkpt lat="43.67737" lon="3.87895">
        <ele>88.2</ele>
        <time>2018-09-16T06:52:29Z</time>
      </trkpt>
      <trkpt lat="43.67738" lon="3.87897">
        <ele>88.5</ele>
        <time>2018-09-16T06:52:30Z</time>
      </trkpt>
      <trkpt lat="43.67742" lon="3.87899">
        <ele>88.8</ele>
      </trkpt>
      <trkpt lat="43.67744" lon="3.87901">
        <ele>89</ele>
        <time>2018-09-16T06:52:36Z</time>
      </trkpt>
      <trkpt lat="43.67745" lon="3.879">
        <ele>89.1</ele>
        <time>2018-09-16T06:52:37Z</time>
      </trkpt>
      <trkpt lat="43.67754" lon="3.87901">
        <ele>89.6</ele>
        <time>2018-09-16T06:52:43Z</time>
      </trkpt>
      <trkpt lat="43.67759" lon="3.87901">
        <ele>89.9</ele>
        <time>2018-09-16T06:52:44Z</time>
      </trkpt>
      <trkpt lat="43.67759" lon="3.8791">
        <ele>90.9</ele>
        <time>2018-09-16T06:52:49Z</time>
      </trkpt>
      <trkpt lat="43.67767" lon="3.87907">
        <ele>91.2</ele>
        <time>2018-09-16T06:52:50Z</time>
      </trkpt>
      <trkpt lat="43.67774" lon="3.87908">
        <ele>91.7</ele>
        <time>2018-09-16T06:52:54Z</time>
      </trkpt>
      <trkpt lat="43.67778" lon="3.87909">
        <ele>92.1</ele>
        <time>2018-09-16T06:52:55Z</time>
      </trkpt>
      <trkpt lat="43.67782" lon="3.87904">
        <ele>91.6</ele>
        <time>2018-09-16T06:52:58Z</time>
      </trkpt>
      <trkpt lat="43.67785" lon="3.87904">
        <ele>91.6</ele>
        <time>2018-09-16T06:52:59Z</time>
      </trkpt>
      <trkpt lat="43.67792" lon="3.87906">
        <ele>91.8</ele>
        <time>2018-09-16T06:53:02Z</time>
      </trkpt>
      <trkpt lat="43.67795" lon="3.87907">
        <ele>92</ele>
        <time>2018-09-16T06:53:03Z</time>
      </trkpt>
      <trkpt lat="43.67802" lon="3.87913">
        <ele>92.6</ele>
        <time>2018-09-16T06:53:06Z</time>
      </trkpt>
      <trkpt lat="43.67805" lon="3.87915">
        <ele>92.8</ele>
        <time>2018-09-16T06:53:07Z</time>
      </trkpt>
      <trkpt lat="43.6781" lon="3.87919">
        <ele>93</ele>
        <time>2018-09-16T06:53:09Z</time>
      </trkpt>
      <trkpt lat="43.67812" lon="3.87921">
        <ele>93.1</ele>
        <time>2018-09-16T06:53:10Z</time>
      </trkpt>
      <trkpt lat="43.67819" lon="3.87927">
        <ele>93.3</ele>
        <time>2018-09-16T06:53:13Z</time>
      </trkpt>
      <trkpt lat="43.67821" lon="3.8793">
        <ele>93.4</ele>
        <time>2018-09-16T06:53:14Z</time>
      </trkpt>
      <trkpt lat="43.67827" lon="3.87936">
        <ele>93.6</ele>
        <time>2018-09-16T06:53:17Z</time>
      </trkpt>
      <trkpt lat="43.67829" lon="3.87938">
        <ele>93.7</ele>
        <time>2018-09-16T06:53:18Z</time>
      </trkpt>
      <trkpt lat="43.67837" lon="3.8794">
        <ele>94</ele>
        <time>2018-09-16T06:53:21Z</time>
      </trkpt>
      <trkpt lat="43.67839" lon="3.8794">
        <ele>94.1</ele>
        <time>2018-09-16T06:53:22Z</time>
      </trkpt>
      <trkpt lat="43.67845" lon="3.87934">
        <ele>94.2</ele>
        <time>2018-09-16T06:53:25Z</time>
      </trkpt>
      <trkpt lat="43.67847" lon="3.87931">
        <ele>94.3</ele>
        <time>2018-09-16T06:53:26Z</time>
      </trkpt>
      <trkpt lat="43.67851" lon="3.87922">
        <ele>94.2</ele>
        <time>2018-09-16T06:53:29Z</time>
      </trkpt>
      <trkpt lat="43.67852" lon="3.87918">
        <ele>94.1</ele>
        <time>2018-09-16T06:53:30Z</time>
      </trkpt>
      <trkpt lat="43.67854" lon="3.87911">
        <ele>94</ele>
        <time>2018-09-16T06:53:32Z</time>
      </trkpt>
      <trkpt lat="43.67856" lon="3.87907">
        <ele>94.1</ele>
        <time>2018-09-16T06:53:33Z</time>
      </trkpt>
      <trkpt lat="43.67858" lon="3.87899">
        <ele>94</ele>
        <time>2018-09-16T06:53:35Z</time>
      </trkpt>
      <trkpt lat="43.67859" lon="3.87895">
        <ele>94</ele>
        <time>2018-09-16T06:53:36Z</time>
      </trkpt>
      <trkpt lat="43.67863" lon="3.87884">
        <ele>93.8</ele>
        <time>2018-09-16T06:53:39Z</time>
      </trkpt>
      <trkpt lat="43.67864" lon="3.87881">
        <ele>93.7</ele>
        <time>2018-09-16T06:53:40Z</time>
      </trkpt>
      <trkpt lat="43.6787" lon="3.87873">
        <ele>93.6</ele>
        <time>2018-09-16T06:53:43Z</time>
      </trkpt>
      <trkpt lat="43.67872" lon="3.87871">
        <ele>93.6</ele>
        <time>2018-09-16T06:53:44Z</time>
      </trkpt>
      <trkpt lat="43.67879" lon="3.87865">
        <ele>93.7</ele>
        <time>2018-09-16T06:53:47Z</time>
      </trkpt>
      <trkpt lat="43.67882" lon="3.87864">
        <ele>93.8</ele>
        <time>2018-09-16T06:53:48Z</time>
      </trkpt>
      <trkpt lat="43.6789" lon="3.87863">
        <ele>94.2</ele>
        <time>2018-09-16T06:53:51Z</time>
      </trkpt>
      <trkpt lat="43.67893" lon="3.87863">
        <ele>94.4</ele>
        <time>2018-09-16T06:53:52Z</time>
      </trkpt>
      <trkpt lat="43.67902" lon="3.87864">
        <ele>94.8</ele>
        <time>2018-09-16T06:53:55Z</time>
      </trkpt>
      <trkpt lat="43.67904" lon="3.87868">
        <ele>95.2</ele>
        <time>2018-09-16T06:53:56Z</time>
      </trkpt>
      <trkpt lat="43.67911" lon="3.87872">
        <ele>96</ele>
        <time>2018-09-16T06:53:59Z</time>
      </trkpt>
      <trkpt lat="43.67918" lon="3.87869">
        <ele>95.8</ele>
        <time>2018-09-16T06:54:00Z</time>
      </trkpt>
      <trkpt lat="43.67923" lon="3.87867">
        <ele>95.2</ele>
        <time>2018-09-16T06:54:02Z</time>
      </trkpt>
      <trkpt lat="43.67934" lon="3.87868">
        <ele>94.7</ele>
        <time>2018-09-16T06:54:03Z</time>
      </trkpt>
      <trkpt lat="43.67939" lon="3.87871">
        <ele>94.7</ele>
        <time>2018-09-16T06:54:05Z</time>
      </trkpt>
      <trkpt lat="43.67944" lon="3.87873">
        <ele>94.7</ele>
        <time>2018-09-16T06:54:06Z</time>
      </trkpt>
      <trkpt lat="43.67951" lon="3.87878">
        <ele>94.9</ele>
        <time>2018-09-16T06:54:08Z</time>
      </trkpt>
      <trkpt lat="43.67954" lon="3.87879">
        <ele>94.8</ele>
        <time>2018-09-16T06:54:09Z</time>
      </trkpt>
      <trkpt lat="43.67958" lon="3.87881">
        <ele>94.7</ele>
        <time>2018-09-16T06:54:11Z</time>
      </trkpt>
      <trkpt lat="43.67964" lon="3.87887">
        <ele>95.3</ele>
        <time>2018-09-16T06:54:12Z</time>
      </trkpt>
      <trkpt lat="43.67968" lon="3.87888">
        <ele>95.1</ele>
        <time>2018-09-16T06:54:13Z</time>
      </trkpt>
      <trkpt lat="43.67973" lon="3.87894">
        <ele>95.8</ele>
        <time>2018-09-16T06:54:14Z</time>
      </trkpt>
      <trkpt lat="43.67978" lon="3.87898">
        <ele>96</ele>
        <time>2018-09-16T06:54:16Z</time>
      </trkpt>
      <trkpt lat="43.67982" lon="3.87899">
        <ele>95.8</ele>
        <time>2018-09-16T06:54:17Z</time>
      </trkpt>
      <trkpt lat="43.67986" lon="3.87904">
        <ele>96.2</ele>
        <time>2018-09-16T06:54:18Z</time>
      </trkpt>
      <trkpt lat="43.6799" lon="3.87907">
        <ele>96.3</ele>
        <time>2018-09-16T06:54:19Z</time>
      </trkpt>
      <trkpt lat="43.67995" lon="3.8791">
        <ele>96.3</ele>
        <time>2018-09-16T06:54:21Z</time>
      </trkpt>
      <trkpt lat="43.68" lon="3.87911">
        <ele>96</ele>
        <time>2018-09-16T06:54:22Z</time>
      </trkpt>
      <trkpt lat="43.68004" lon="3.87913">
        <ele>95.6</ele>
        <time>2018-09-16T06:54:24Z</time>
      </trkpt>
      <trkpt lat="43.68011" lon="3.87918">
        <ele>95.2</ele>
        <time>2018-09-16T06:54:25Z</time>
      </trkpt>
      <trkpt lat="43.68018" lon="3.87923">
        <ele>94.8</ele>
        <time>2018-09-16T06:54:27Z</time>
      </trkpt>
      <trkpt lat="43.68021" lon="3.87927">
        <ele>94.8</ele>
        <time>2018-09-16T06:54:28Z</time>
      </trkpt>
      <trkpt lat="43.68024" lon="3.87933">
        <ele>95.1</ele>
        <time>2018-09-16T06:54:29Z</time>
      </trkpt>
      <trkpt lat="43.68027" lon="3.87937">
        <ele>95.1</ele>
        <time>2018-09-16T06:54:30Z</time>
      </trkpt>
      <trkpt lat="43.68029" lon="3.87945">
        <ele>96</ele>
        <time>2018-09-16T06:54:33Z</time>
      </trkpt>
      <trkpt lat="43.68029" lon="3.87949">
        <ele>96.4</ele>
        <time>2018-09-16T06:54:34Z</time>
      </trkpt>
      <trkpt lat="43.68031" lon="3.87957">
        <ele>97.2</ele>
        <time>2018-09-16T06:54:36Z</time>
      </trkpt>
      <trkpt lat="43.68032" lon="3.87961">
        <ele>97.6</ele>
        <time>2018-09-16T06:54:37Z</time>
      </trkpt>
      <trkpt lat="43.68033" lon="3.87971">
        <ele>98.7</ele>
        <time>2018-09-16T06:54:40Z</time>
      </trkpt>
      <trkpt lat="43.68032" lon="3.87975">
        <ele>99</ele>
        <time>2018-09-16T06:54:41Z</time>
      </trkpt>
      <trkpt lat="43.6803" lon="3.87984">
        <ele>99.4</ele>
        <time>2018-09-16T06:54:43Z</time>
      </trkpt>
      <trkpt lat="43.68029" lon="3.88">
        <ele>100</ele>
        <time>2018-09-16T06:54:44Z</time>
      </trkpt>
      <trkpt lat="43.68032" lon="3.8801">
        <ele>100.9</ele>
        <time>2018-09-16T06:54:46Z</time>
      </trkpt>
      <trkpt lat="43.68034" lon="3.88012">
        <ele>101.2</ele>
        <time>2018-09-16T06:54:47Z</time>
      </trkpt>
      <trkpt lat="43.68043" lon="3.88015">
        <ele>101.9</ele>
        <time>2018-09-16T06:54:50Z</time>
      </trkpt>
      <trkpt lat="43.68044" lon="3.88014">
        <ele>101.9</ele>
        <time>2018-09-16T06:54:51Z</time>
      </trkpt>
      <trkpt lat="43.68047" lon="3.88005">
        <ele>101.2</ele>
        <time>2018-09-16T06:54:54Z</time>
      </trkpt>
      <trkpt lat="43.68049" lon="3.88001">
        <ele>100.9</ele>
        <time>2018-09-16T06:54:55Z</time>
      </trkpt>
      <trkpt lat="43.68055" lon="3.87987">
        <ele>99.6</ele>
        <time>2018-09-16T06:54:56Z</time>
      </trkpt>
      <trkpt lat="43.68058" lon="3.87982">
        <ele>99.4</ele>
        <time>2018-09-16T06:54:59Z</time>
      </trkpt>
      <trkpt lat="43.68064" lon="3.87972">
        <ele>98.9</ele>
        <time>2018-09-16T06:55:00Z</time>
      </trkpt>
      <trkpt lat="43.68068" lon="3.87966">
        <ele>98.4</ele>
        <time>2018-09-16T06:55:01Z</time>
      </trkpt>
      <trkpt lat="43.68071" lon="3.87963">
        <ele>98.3</ele>
        <time>2018-09-16T06:55:02Z</time>
      </trkpt>
      <trkpt lat="43.68075" lon="3.87961">
        <ele>98.5</ele>
        <time>2018-09-16T06:55:03Z</time>
      </trkpt>
      <trkpt lat="43.68079" lon="3.87957">
        <ele>98.3</ele>
        <time>2018-09-16T06:55:04Z</time>
      </trkpt>
      <trkpt lat="43.68087" lon="3.87955">
        <ele>98.3</ele>
        <time>2018-09-16T06:55:06Z</time>
      </trkpt>
      <trkpt lat="43.68091" lon="3.87953">
        <ele>97.7</ele>
        <time>2018-09-16T06:55:07Z</time>
      </trkpt>
      <trkpt lat="43.68096" lon="3.87954">
        <ele>97.5</ele>
        <time>2018-09-16T06:55:09Z</time>
      </trkpt>
      <trkpt lat="43.68102" lon="3.87953">
        <ele>96.9</ele>
        <time>2018-09-16T06:55:10Z</time>
      </trkpt>
      <trkpt lat="43.68104" lon="3.87955">
        <ele>97</ele>
        <time>2018-09-16T06:55:11Z</time>
      </trkpt>
      <trkpt lat="43.6811" lon="3.87961">
        <ele>97.5</ele>
        <time>2018-09-16T06:55:12Z</time>
      </trkpt>
      <trkpt lat="43.68113" lon="3.87969">
        <ele>98.3</ele>
        <time>2018-09-16T06:55:16Z</time>
      </trkpt>
      <trkpt lat="43.68118" lon="3.8798">
        <ele>99.1</ele>
        <time>2018-09-16T06:55:17Z</time>
      </trkpt>
      <trkpt lat="43.68121" lon="3.87992">
        <ele>100.3</ele>
        <time>2018-09-16T06:55:19Z</time>
      </trkpt>
      <trkpt lat="43.68125" lon="3.87995">
        <ele>100.3</ele>
        <time>2018-09-16T06:55:20Z</time>
      </trkpt>
      <trkpt lat="43.6813" lon="3.87996">
        <ele>99.7</ele>
        <time>2018-09-16T06:55:21Z</time>
      </trkpt>
      <trkpt lat="43.68135" lon="3.87996">
        <ele>99</ele>
        <time>2018-09-16T06:55:22Z</time>
      </trkpt>
      <trkpt lat="43.68141" lon="3.88">
        <ele>98.9</ele>
        <time>2018-09-16T06:55:24Z</time>
      </trkpt>
      <trkpt lat="43.68145" lon="3.88001">
        <ele>99</ele>
        <time>2018-09-16T06:55:25Z</time>
      </trkpt>
      <trkpt lat="43.68154" lon="3.88004">
        <ele>99.2</ele>
        <time>2018-09-16T06:55:27Z</time>
      </trkpt>
      <trkpt lat="43.68158" lon="3.88008">
        <ele>99.7</ele>
        <time>2018-09-16T06:55:28Z</time>
      </trkpt>
      <trkpt lat="43.68162" lon="3.88011">
        <ele>100</ele>
        <time>2018-09-16T06:55:29Z</time>
      </trkpt>
      <trkpt lat="43.68166" lon="3.88014">
        <ele>100.1</ele>
        <time>2018-09-16T06:55:30Z</time>
      </trkpt>
      <trkpt lat="43.68173" lon="3.88021">
        <ele>100.7</ele>
        <time>2018-09-16T06:55:32Z</time>
      </trkpt>
      <trkpt lat="43.68177" lon="3.88024">
        <ele>100.9</ele>
        <time>2018-09-16T06:55:33Z</time>
      </trkpt>
      <trkpt lat="43.68184" lon="3.8803">
        <ele>101</ele>
        <time>2018-09-16T06:55:35Z</time>
      </trkpt>
      <trkpt lat="43.68187" lon="3.88033">
        <ele>100.9</ele>
        <time>2018-09-16T06:55:36Z</time>
      </trkpt>
      <trkpt lat="43.68191" lon="3.88038">
        <ele>100.8</ele>
        <time>2018-09-16T06:55:37Z</time>
      </trkpt>
      <trkpt lat="43.68194" lon="3.88044">
        <ele>100.7</ele>
        <time>2018-09-16T06:55:38Z</time>
      </trkpt>
      <trkpt lat="43.68198" lon="3.88053">
        <ele>101.2</ele>
        <time>2018-09-16T06:55:40Z</time>
      </trkpt>
      <trkpt lat="43.68202" lon="3.88058">
        <ele>101.8</ele>
        <time>2018-09-16T06:55:41Z</time>
      </trkpt>
      <trkpt lat="43.68209" lon="3.88052">
        <ele>101.9</ele>
        <time>2018-09-16T06:55:45Z</time>
      </trkpt>
      <trkpt lat="43.68209" lon="3.88049">
        <ele>101.8</ele>
        <time>2018-09-16T06:55:46Z</time>
      </trkpt>
      <trkpt lat="43.6821" lon="3.88036">
        <ele>101.4</ele>
        <time>2018-09-16T06:55:47Z</time>
      </trkpt>
      <trkpt lat="43.6821" lon="3.88029">
        <ele>101.2</ele>
        <time>2018-09-16T06:55:48Z</time>
      </trkpt>
      <trkpt lat="43.68209" lon="3.88023">
        <ele>101</ele>
        <time>2018-09-16T06:55:49Z</time>
      </trkpt>
      <trkpt lat="43.68208" lon="3.88013">
        <ele>100.7</ele>
        <time>2018-09-16T06:55:51Z</time>
      </trkpt>
      <trkpt lat="43.68208" lon="3.8801">
        <ele>100.6</ele>
        <time>2018-09-16T06:55:52Z</time>
      </trkpt>
      <trkpt lat="43.68205" lon="3.88001">
        <ele>100.2</ele>
        <time>2018-09-16T06:55:53Z</time>
      </trkpt>
      <trkpt lat="43.68203" lon="3.87996">
        <ele>99.7</ele>
        <time>2018-09-16T06:55:54Z</time>
      </trkpt>
      <trkpt lat="43.68204" lon="3.87985">
        <ele>99.3</ele>
        <time>2018-09-16T06:55:56Z</time>
      </trkpt>
      <trkpt lat="43.6821" lon="3.87974">
        <ele>99.2</ele>
        <time>2018-09-16T06:55:57Z</time>
      </trkpt>
      <trkpt lat="43.68205" lon="3.87965">
        <ele>98.3</ele>
        <time>2018-09-16T06:56:00Z</time>
      </trkpt>
      <trkpt lat="43.68205" lon="3.87961">
        <ele>98</ele>
        <time>2018-09-16T06:56:01Z</time>
      </trkpt>
      <trkpt lat="43.68199" lon="3.87952">
        <ele>97.4</ele>
        <time>2018-09-16T06:56:05Z</time>
      </trkpt>
      <trkpt lat="43.68198" lon="3.8795">
        <ele>97.3</ele>
        <time>2018-09-16T06:56:06Z</time>
      </trkpt>
      <trkpt lat="43.68193" lon="3.87941">
        <ele>96.6</ele>
        <time>2018-09-16T06:56:09Z</time>
      </trkpt>
      <trkpt lat="43.68191" lon="3.87938">
        <ele>96.2</ele>
        <time>2018-09-16T06:56:10Z</time>
      </trkpt>
      <trkpt lat="43.68186" lon="3.87931">
        <ele>95.1</ele>
        <time>2018-09-16T06:56:13Z</time>
      </trkpt>
      <trkpt lat="43.68184" lon="3.87929">
        <ele>94.8</ele>
        <time>2018-09-16T06:56:14Z</time>
      </trkpt>
      <trkpt lat="43.68179" lon="3.87919">
        <ele>93.5</ele>
        <time>2018-09-16T06:56:18Z</time>
      </trkpt>
      <trkpt lat="43.68178" lon="3.87916">
        <ele>93.1</ele>
        <time>2018-09-16T06:56:19Z</time>
      </trkpt>
      <trkpt lat="43.68174" lon="3.87908">
        <ele>91.7</ele>
        <time>2018-09-16T06:56:22Z</time>
      </trkpt>
      <trkpt lat="43.68173" lon="3.87905">
        <ele>91.2</ele>
        <time>2018-09-16T06:56:23Z</time>
      </trkpt>
      <trkpt lat="43.68169" lon="3.87897">
        <ele>90</ele>
        <time>2018-09-16T06:56:26Z</time>
      </trkpt>
      <trkpt lat="43.68168" lon="3.87894">
        <ele>89.6</ele>
        <time>2018-09-16T06:56:27Z</time>
      </trkpt>
      <trkpt lat="43.68162" lon="3.87885">
        <ele>87.8</ele>
        <time>2018-09-16T06:56:30Z</time>
      </trkpt>
      <trkpt lat="43.68161" lon="3.87882">
        <ele>87.2</ele>
        <time>2018-09-16T06:56:31Z</time>
      </trkpt>
      <trkpt lat="43.68158" lon="3.87872">
        <ele>85.4</ele>
        <time>2018-09-16T06:56:34Z</time>
      </trkpt>
      <trkpt lat="43.68158" lon="3.87868">
        <ele>84.8</ele>
        <time>2018-09-16T06:56:35Z</time>
      </trkpt>
      <trkpt lat="43.68158" lon="3.87859">
        <ele>83.3</ele>
        <time>2018-09-16T06:56:37Z</time>
      </trkpt>
      <trkpt lat="43.68158" lon="3.87844">
        <ele>80.6</ele>
        <time>2018-09-16T06:56:38Z</time>
      </trkpt>
      <trkpt lat="43.68159" lon="3.87833">
        <ele>78.5</ele>
        <time>2018-09-16T06:56:41Z</time>
      </trkpt>
      <trkpt lat="43.68158" lon="3.87831">
        <ele>78.4</ele>
        <time>2018-09-16T06:56:42Z</time>
      </trkpt>
      <trkpt lat="43.68154" lon="3.87821">
        <ele>77.6</ele>
        <time>2018-09-16T06:56:46Z</time>
      </trkpt>
      <trkpt lat="43.68154" lon="3.87819">
        <ele>77.4</ele>
        <time>2018-09-16T06:56:47Z</time>
      </trkpt>
      <trkpt lat="43.68149" lon="3.87806">
        <ele>76.3</ele>
        <time>2018-09-16T06:56:49Z</time>
      </trkpt>
      <trkpt lat="43.68154" lon="3.87787">
        <ele>76.3</ele>
        <time>2018-09-16T06:56:50Z</time>
      </trkpt>
      <trkpt lat="43.68162" lon="3.87801">
        <ele>75.6</ele>
        <time>2018-09-16T06:56:54Z</time>
      </trkpt>
      <trkpt lat="43.68164" lon="3.87804">
        <ele>75.3</ele>
        <time>2018-09-16T06:56:55Z</time>
      </trkpt>
      <trkpt lat="43.68173" lon="3.87812">
        <ele>75.6</ele>
        <time>2018-09-16T06:56:56Z</time>
      </trkpt>
      <trkpt lat="43.68176" lon="3.87816">
        <ele>75.9</ele>
        <time>2018-09-16T06:56:57Z</time>
      </trkpt>
      <trkpt lat="43.68181" lon="3.87818">
        <ele>75.9</ele>
        <time>2018-09-16T06:56:58Z</time>
      </trkpt>
      <trkpt lat="43.68188" lon="3.87823">
        <ele>75.9</ele>
        <time>2018-09-16T06:57:01Z</time>
      </trkpt>
      <trkpt lat="43.68193" lon="3.87826">
        <ele>75.8</ele>
        <time>2018-09-16T06:57:02Z</time>
      </trkpt>
      <trkpt lat="43.68199" lon="3.87829">
        <ele>75.9</ele>
        <time>2018-09-16T06:57:05Z</time>
      </trkpt>
      <trkpt lat="43.68202" lon="3.87831">
        <ele>76</ele>
        <time>2018-09-16T06:57:06Z</time>
      </trkpt>
      <trkpt lat="43.68207" lon="3.87834">
        <ele>76.1</ele>
        <time>2018-09-16T06:57:08Z</time>
      </trkpt>
      <trkpt lat="43.6821" lon="3.87836">
        <ele>76.6</ele>
        <time>2018-09-16T06:57:09Z</time>
      </trkpt>
      <trkpt lat="43.68217" lon="3.87839">
        <ele>77</ele>
        <time>2018-09-16T06:57:11Z</time>
      </trkpt>
      <trkpt lat="43.6822" lon="3.87842">
        <ele>77.3</ele>
        <time>2018-09-16T06:57:12Z</time>
      </trkpt>
      <trkpt lat="43.68226" lon="3.87846">
        <ele>77.9</ele>
        <time>2018-09-16T06:57:14Z</time>
      </trkpt>
      <trkpt lat="43.68229" lon="3.87848">
        <ele>78.2</ele>
        <time>2018-09-16T06:57:15Z</time>
      </trkpt>
      <trkpt lat="43.68234" lon="3.87852">
        <ele>78.4</ele>
        <time>2018-09-16T06:57:17Z</time>
      </trkpt>
      <trkpt lat="43.68237" lon="3.87853">
        <ele>78.3</ele>
        <time>2018-09-16T06:57:18Z</time>
      </trkpt>
      <trkpt lat="43.68243" lon="3.87856">
        <ele>78</ele>
        <time>2018-09-16T06:57:20Z</time>
      </trkpt>
      <trkpt lat="43.68246" lon="3.87858">
        <ele>77.7</ele>
        <time>2018-09-16T06:57:21Z</time>
      </trkpt>
      <trkpt lat="43.68252" lon="3.8786">
        <ele>77.2</ele>
        <time>2018-09-16T06:57:23Z</time>
      </trkpt>
      <trkpt lat="43.68256" lon="3.87862">
        <ele>77.4</ele>
        <time>2018-09-16T06:57:24Z</time>
      </trkpt>
      <trkpt lat="43.68267" lon="3.87869">
        <ele>79.1</ele>
        <time>2018-09-16T06:57:25Z</time>
      </trkpt>
      <trkpt lat="43.68271" lon="3.8787">
        <ele>79.3</ele>
        <time>2018-09-16T06:57:27Z</time>
      </trkpt>
      <trkpt lat="43.68278" lon="3.87871">
        <ele>79.4</ele>
        <time>2018-09-16T06:57:28Z</time>
      </trkpt>
      <trkpt lat="43.68286" lon="3.87871">
        <ele>79.7</ele>
        <time>2018-09-16T06:57:30Z</time>
      </trkpt>
      <trkpt lat="43.68289" lon="3.8787">
        <ele>79.7</ele>
        <time>2018-09-16T06:57:31Z</time>
      </trkpt>
      <trkpt lat="43.68296" lon="3.87868">
        <ele>79.8</ele>
        <time>2018-09-16T06:57:34Z</time>
      </trkpt>
      <trkpt lat="43.68299" lon="3.87867">
        <ele>79.9</ele>
        <time>2018-09-16T06:57:35Z</time>
      </trkpt>
      <trkpt lat="43.68305" lon="3.87866">
        <ele>80.1</ele>
        <time>2018-09-16T06:57:37Z</time>
      </trkpt>
      <trkpt lat="43.68308" lon="3.87866">
        <ele>80.6</ele>
        <time>2018-09-16T06:57:38Z</time>
      </trkpt>
      <trkpt lat="43.68315" lon="3.87867">
        <ele>81.6</ele>
        <time>2018-09-16T06:57:40Z</time>
      </trkpt>
      <trkpt lat="43.68319" lon="3.87868">
        <ele>82.2</ele>
        <time>2018-09-16T06:57:41Z</time>
      </trkpt>
      <trkpt lat="43.68325" lon="3.87871">
        <ele>82.9</ele>
        <time>2018-09-16T06:57:43Z</time>
      </trkpt>
      <trkpt lat="43.68328" lon="3.87872">
        <ele>83.2</ele>
        <time>2018-09-16T06:57:44Z</time>
      </trkpt>
      <trkpt lat="43.68334" lon="3.87875">
        <ele>83.6</ele>
        <time>2018-09-16T06:57:46Z</time>
      </trkpt>
      <trkpt lat="43.68336" lon="3.87877">
        <ele>83.5</ele>
        <time>2018-09-16T06:57:47Z</time>
      </trkpt>
      <trkpt lat="43.68345" lon="3.87879">
        <ele>83.9</ele>
        <time>2018-09-16T06:57:50Z</time>
      </trkpt>
      <trkpt lat="43.68347" lon="3.8788">
        <ele>83.9</ele>
        <time>2018-09-16T06:57:51Z</time>
      </trkpt>
      <trkpt lat="43.68355" lon="3.87882">
        <ele>84.1</ele>
        <time>2018-09-16T06:57:55Z</time>
      </trkpt>
      <trkpt lat="43.68358" lon="3.87882">
        <ele>84.3</ele>
        <time>2018-09-16T06:57:56Z</time>
      </trkpt>
      <trkpt lat="43.68366" lon="3.87884">
        <ele>84.4</ele>
        <time>2018-09-16T06:57:59Z</time>
      </trkpt>
      <trkpt lat="43.6837" lon="3.87885">
        <ele>84.4</ele>
        <time>2018-09-16T06:58:00Z</time>
      </trkpt>
      <trkpt lat="43.68376" lon="3.87888">
        <ele>84.2</ele>
        <time>2018-09-16T06:58:02Z</time>
      </trkpt>
      <trkpt lat="43.68379" lon="3.8789">
        <ele>84.3</ele>
        <time>2018-09-16T06:58:03Z</time>
      </trkpt>
      <trkpt lat="43.68384" lon="3.87893">
        <ele>84.6</ele>
        <time>2018-09-16T06:58:05Z</time>
      </trkpt>
      <trkpt lat="43.68388" lon="3.87895">
        <ele>84.7</ele>
        <time>2018-09-16T06:58:06Z</time>
      </trkpt>
      <trkpt lat="43.68394" lon="3.87898">
        <ele>85</ele>
        <time>2018-09-16T06:58:08Z</time>
      </trkpt>
      <trkpt lat="43.68397" lon="3.87899">
        <ele>85.2</ele>
        <time>2018-09-16T06:58:09Z</time>
      </trkpt>
      <trkpt lat="43.68406" lon="3.87902">
        <ele>85.8</ele>
        <time>2018-09-16T06:58:12Z</time>
      </trkpt>
      <trkpt lat="43.68408" lon="3.87903">
        <ele>85.9</ele>
        <time>2018-09-16T06:58:13Z</time>
      </trkpt>
      <trkpt lat="43.68416" lon="3.87906">
        <ele>86.3</ele>
        <time>2018-09-16T06:58:16Z</time>
      </trkpt>
      <trkpt lat="43.68418" lon="3.87906">
        <ele>86.4</ele>
        <time>2018-09-16T06:58:17Z</time>
      </trkpt>
      <trkpt lat="43.68425" lon="3.87906">
        <ele>86.7</ele>
        <time>2018-09-16T06:58:20Z</time>
      </trkpt>
      <trkpt lat="43.68427" lon="3.87906">
        <ele>86.8</ele>
        <time>2018-09-16T06:58:21Z</time>
      </trkpt>
      <trkpt lat="43.68435" lon="3.87904">
        <ele>87.1</ele>
        <time>2018-09-16T06:58:24Z</time>
      </trkpt>
      <trkpt lat="43.68437" lon="3.87903">
        <ele>87.2</ele>
        <time>2018-09-16T06:58:25Z</time>
      </trkpt>
      <trkpt lat="43.68443" lon="3.87899">
        <ele>87.6</ele>
        <time>2018-09-16T06:58:28Z</time>
      </trkpt>
      <trkpt lat="43.68445" lon="3.87898">
        <ele>87.7</ele>
        <time>2018-09-16T06:58:29Z</time>
      </trkpt>
      <trkpt lat="43.68453" lon="3.87892">
        <ele>88.5</ele>
        <time>2018-09-16T06:58:32Z</time>
      </trkpt>
      <trkpt lat="43.68455" lon="3.8789">
        <ele>88.7</ele>
        <time>2018-09-16T06:58:33Z</time>
      </trkpt>
      <trkpt lat="43.68461" lon="3.87885">
        <ele>89.4</ele>
        <time>2018-09-16T06:58:36Z</time>
      </trkpt>
      <trkpt lat="43.68463" lon="3.87884">
        <ele>89.6</ele>
        <time>2018-09-16T06:58:37Z</time>
      </trkpt>
      <trkpt lat="43.68468" lon="3.87878">
        <ele>90.4</ele>
        <time>2018-09-16T06:58:41Z</time>
      </trkpt>
      <trkpt lat="43.6847" lon="3.87876">
        <ele>90.7</ele>
        <time>2018-09-16T06:58:42Z</time>
      </trkpt>
      <trkpt lat="43.68478" lon="3.87871">
        <ele>92</ele>
        <time>2018-09-16T06:58:46Z</time>
      </trkpt>
      <trkpt lat="43.6848" lon="3.8787">
        <ele>92.3</ele>
        <time>2018-09-16T06:58:47Z</time>
      </trkpt>
      <trkpt lat="43.68487" lon="3.87868">
        <ele>93.2</ele>
        <time>2018-09-16T06:58:51Z</time>
      </trkpt>
      <trkpt lat="43.68489" lon="3.87868">
        <ele>93.5</ele>
        <time>2018-09-16T06:58:52Z</time>
      </trkpt>
      <trkpt lat="43.68497" lon="3.87868">
        <ele>94.4</ele>
        <time>2018-09-16T06:58:57Z</time>
      </trkpt>
      <trkpt lat="43.68499" lon="3.87868">
        <ele>94.6</ele>
        <time>2018-09-16T06:58:58Z</time>
      </trkpt>
      <trkpt lat="43.68507" lon="3.87865">
        <ele>95.7</ele>
        <time>2018-09-16T06:59:03Z</time>
      </trkpt>
      <trkpt lat="43.68508" lon="3.87865">
        <ele>95.8</ele>
        <time>2018-09-16T06:59:04Z</time>
      </trkpt>
      <trkpt lat="43.68517" lon="3.8786">
        <ele>96.8</ele>
        <time>2018-09-16T06:59:10Z</time>
      </trkpt>
      <trkpt lat="43.68518" lon="3.8786">
        <ele>96.9</ele>
        <time>2018-09-16T06:59:11Z</time>
      </trkpt>
      <trkpt lat="43.68527" lon="3.87859">
        <ele>97.8</ele>
        <time>2018-09-16T06:59:15Z</time>
      </trkpt>
      <trkpt lat="43.68528" lon="3.8786">
        <ele>98</ele>
        <time>2018-09-16T06:59:16Z</time>
      </trkpt>
      <trkpt lat="43.68534" lon="3.87868">
        <ele>99</ele>
        <time>2018-09-16T06:59:20Z</time>
      </trkpt>
      <trkpt lat="43.68535" lon="3.87871">
        <ele>99.1</ele>
        <time>2018-09-16T06:59:21Z</time>
      </trkpt>
      <trkpt lat="43.68537" lon="3.87882">
        <ele>99.6</ele>
        <time>2018-09-16T06:59:23Z</time>
      </trkpt>
      <trkpt lat="43.68537" lon="3.87884">
        <ele>99.6</ele>
        <time>2018-09-16T06:59:24Z</time>
      </trkpt>
      <trkpt lat="43.68536" lon="3.87895">
        <ele>99.7</ele>
        <time>2018-09-16T06:59:28Z</time>
      </trkpt>
      <trkpt lat="43.68536" lon="3.87898">
        <ele>99.8</ele>
        <time>2018-09-16T06:59:29Z</time>
      </trkpt>
      <trkpt lat="43.68536" lon="3.87909">
        <ele>100.2</ele>
        <time>2018-09-16T06:59:33Z</time>
      </trkpt>
      <trkpt lat="43.68535" lon="3.87913">
        <ele>100.2</ele>
        <time>2018-09-16T06:59:34Z</time>
      </trkpt>
      <trkpt lat="43.68535" lon="3.87922">
        <ele>100.3</ele>
        <time>2018-09-16T06:59:37Z</time>
      </trkpt>
      <trkpt lat="43.68535" lon="3.87926">
        <ele>100.4</ele>
        <time>2018-09-16T06:59:38Z</time>
      </trkpt>
      <trkpt lat="43.68535" lon="3.87938">
        <ele>100.5</ele>
        <time>2018-09-16T06:59:41Z</time>
      </trkpt>
      <trkpt lat="43.68535" lon="3.87942">
        <ele>100.5</ele>
        <time>2018-09-16T06:59:42Z</time>
      </trkpt>
      <trkpt lat="43.68534" lon="3.87951">
        <ele>100.3</ele>
        <time>2018-09-16T06:59:44Z</time>
      </trkpt>
      <trkpt lat="43.68534" lon="3.87955">
        <ele>100.3</ele>
        <time>2018-09-16T06:59:45Z</time>
      </trkpt>
      <trkpt lat="43.68534" lon="3.8796">
        <ele>100.2</ele>
        <time>2018-09-16T06:59:46Z</time>
      </trkpt>
      <trkpt lat="43.68535" lon="3.87972">
        <ele>100.3</ele>
        <time>2018-09-16T06:59:47Z</time>
      </trkpt>
      <trkpt lat="43.68537" lon="3.87983">
        <ele>100.4</ele>
        <time>2018-09-16T06:59:51Z</time>
      </trkpt>
      <trkpt lat="43.6854" lon="3.87995">
        <ele>100.5</ele>
        <time>2018-09-16T06:59:52Z</time>
      </trkpt>
      <trkpt lat="43.68542" lon="3.88">
        <ele>100.5</ele>
        <time>2018-09-16T06:59:53Z</time>
      </trkpt>
      <trkpt lat="43.68543" lon="3.88008">
        <ele>100.3</ele>
        <time>2018-09-16T06:59:54Z</time>
      </trkpt>
      <trkpt lat="43.68543" lon="3.88016">
        <ele>100</ele>
        <time>2018-09-16T06:59:55Z</time>
      </trkpt>
      <trkpt lat="43.68542" lon="3.88023">
        <ele>99.7</ele>
        <time>2018-09-16T06:59:56Z</time>
      </trkpt>
      <trkpt lat="43.68533" lon="3.88039">
        <ele>99.2</ele>
        <time>2018-09-16T06:59:58Z</time>
      </trkpt>
      <trkpt lat="43.68543" lon="3.88037">
        <ele>99.5</ele>
        <time>2018-09-16T06:59:59Z</time>
      </trkpt>
      <trkpt lat="43.6855" lon="3.88041">
        <ele>99.8</ele>
        <time>2018-09-16T07:00:03Z</time>
      </trkpt>
      <trkpt lat="43.68552" lon="3.88041">
        <ele>99.9</ele>
        <time>2018-09-16T07:00:04Z</time>
      </trkpt>
      <trkpt lat="43.6856" lon="3.88044">
        <ele>100.2</ele>
        <time>2018-09-16T07:00:08Z</time>
      </trkpt>
      <trkpt lat="43.68562" lon="3.88044">
        <ele>100.3</ele>
        <time>2018-09-16T07:00:09Z</time>
      </trkpt>
      <trkpt lat="43.68569" lon="3.88046">
        <ele>100.7</ele>
        <time>2018-09-16T07:00:12Z</time>
      </trkpt>
      <trkpt lat="43.68572" lon="3.88047">
        <ele>100.8</ele>
        <time>2018-09-16T07:00:13Z</time>
      </trkpt>
      <trkpt lat="43.6858" lon="3.88049">
        <ele>101.1</ele>
        <time>2018-09-16T07:00:17Z</time>
      </trkpt>
      <trkpt lat="43.68582" lon="3.8805">
        <ele>101.1</ele>
        <time>2018-09-16T07:00:18Z</time>
      </trkpt>
      <trkpt lat="43.6859" lon="3.88052">
        <ele>101.8</ele>
        <time>2018-09-16T07:00:22Z</time>
      </trkpt>
      <trkpt lat="43.68592" lon="3.88053">
        <ele>102</ele>
        <time>2018-09-16T07:00:23Z</time>
      </trkpt>
      <trkpt lat="43.68599" lon="3.88056">
        <ele>102.7</ele>
        <time>2018-09-16T07:00:27Z</time>
      </trkpt>
      <trkpt lat="43.68601" lon="3.88057">
        <ele>103</ele>
        <time>2018-09-16T07:00:28Z</time>
      </trkpt>
      <trkpt lat="43.68609" lon="3.88061">
        <ele>104</ele>
        <time>2018-09-16T07:00:33Z</time>
      </trkpt>
      <trkpt lat="43.6861" lon="3.88062">
        <ele>104.1</ele>
        <time>2018-09-16T07:00:34Z</time>
      </trkpt>
      <trkpt lat="43.68619" lon="3.88065">
        <ele>105.9</ele>
        <time>2018-09-16T07:00:39Z</time>
      </trkpt>
      <trkpt lat="43.68621" lon="3.88065">
        <ele>106.2</ele>
        <time>2018-09-16T07:00:40Z</time>
      </trkpt>
      <trkpt lat="43.68629" lon="3.88066">
        <ele>107.8</ele>
        <time>2018-09-16T07:00:45Z</time>
      </trkpt>
      <trkpt lat="43.6863" lon="3.88066">
        <ele>107.9</ele>
        <time>2018-09-16T07:00:46Z</time>
      </trkpt>
      <trkpt lat="43.68636" lon="3.88072">
        <ele>108.9</ele>
        <time>2018-09-16T07:00:52Z</time>
      </trkpt>
      <trkpt lat="43.68638" lon="3.88073">
        <ele>109.2</ele>
        <time>2018-09-16T07:00:53Z</time>
      </trkpt>
      <trkpt lat="43.68643" lon="3.88081">
        <ele>110</ele>
        <time>2018-09-16T07:00:58Z</time>
      </trkpt>
      <trkpt lat="43.68644" lon="3.88083">
        <ele>110.1</ele>
        <time>2018-09-16T07:00:59Z</time>
      </trkpt>
      <trkpt lat="43.68648" lon="3.88092">
        <ele>111.4</ele>
        <time>2018-09-16T07:01:04Z</time>
      </trkpt>
      <trkpt lat="43.68649" lon="3.88093">
        <ele>111.6</ele>
        <time>2018-09-16T07:01:05Z</time>
      </trkpt>
      <trkpt lat="43.68654" lon="3.88102">
        <ele>112.9</ele>
        <time>2018-09-16T07:01:11Z</time>
      </trkpt>
      <trkpt lat="43.68655" lon="3.88103">
        <ele>113.1</ele>
        <time>2018-09-16T07:01:12Z</time>
      </trkpt>
      <trkpt lat="43.68657" lon="3.88115">
        <ele>114.1</ele>
        <time>2018-09-16T07:01:19Z</time>
      </trkpt>
      <trkpt lat="43.68657" lon="3.88117">
        <ele>114.3</ele>
        <time>2018-09-16T07:01:20Z</time>
      </trkpt>
      <trkpt lat="43.68656" lon="3.88128">
        <ele>115.5</ele>
        <time>2018-09-16T07:01:26Z</time>
      </trkpt>
      <trkpt lat="43.68656" lon="3.8813">
        <ele>115.8</ele>
        <time>2018-09-16T07:01:27Z</time>
      </trkpt>
      <trkpt lat="43.68653" lon="3.8814">
        <ele>116.6</ele>
        <time>2018-09-16T07:01:32Z</time>
      </trkpt>
      <trkpt lat="43.68652" lon="3.88142">
        <ele>116.8</ele>
        <time>2018-09-16T07:01:33Z</time>
      </trkpt>
      <trkpt lat="43.68648" lon="3.88153">
        <ele>117.5</ele>
        <time>2018-09-16T07:01:40Z</time>
      </trkpt>
      <trkpt lat="43.68647" lon="3.88154">
        <ele>117.5</ele>
        <time>2018-09-16T07:01:41Z</time>
      </trkpt>
      <trkpt lat="43.68643" lon="3.88164">
        <ele>118.2</ele>
        <time>2018-09-16T07:01:48Z</time>
      </trkpt>
      <trkpt lat="43.68642" lon="3.88165">
        <ele>118.2</ele>
        <time>2018-09-16T07:01:49Z</time>
      </trkpt>
      <trkpt lat="43.68643" lon="3.88176">
        <ele>118.8</ele>
        <time>2018-09-16T07:01:55Z</time>
      </trkpt>
      <trkpt lat="43.68643" lon="3.88186">
        <ele>119.2</ele>
      </trkpt>
      <trkpt lat="43.68644" lon="3.88183">
        <ele>119.2</ele>
        <time>2018-09-16T07:01:56Z</time>
      </trkpt>
      <trkpt lat="43.68651" lon="3.88178">
        <ele>119.7</ele>
        <time>2018-09-16T07:02:08Z</time>
      </trkpt>
      <trkpt lat="43.68653" lon="3.88177">
        <ele>119.9</ele>
        <time>2018-09-16T07:02:09Z</time>
      </trkpt>
      <trkpt lat="43.6866" lon="3.88173">
        <ele>120.5</ele>
        <time>2018-09-16T07:02:13Z</time>
      </trkpt>
      <trkpt lat="43.68661" lon="3.88173">
        <ele>120.6</ele>
        <time>2018-09-16T07:02:14Z</time>
      </trkpt>
      <trkpt lat="43.6867" lon="3.88174">
        <ele>121.7</ele>
        <time>2018-09-16T07:02:19Z</time>
      </trkpt>
      <trkpt lat="43.68671" lon="3.88175">
        <ele>121.9</ele>
        <time>2018-09-16T07:02:20Z</time>
      </trkpt>
      <trkpt lat="43.68679" lon="3.88178">
        <ele>123</ele>
        <time>2018-09-16T07:02:25Z</time>
      </trkpt>
      <trkpt lat="43.6868" lon="3.88179">
        <ele>123.2</ele>
        <time>2018-09-16T07:02:26Z</time>
      </trkpt>
      <trkpt lat="43.68688" lon="3.88182">
        <ele>124.2</ele>
        <time>2018-09-16T07:02:33Z</time>
      </trkpt>
      <trkpt lat="43.68689" lon="3.88183">
        <ele>124.3</ele>
        <time>2018-09-16T07:02:34Z</time>
      </trkpt>
      <trkpt lat="43.68697" lon="3.88188">
        <ele>125.4</ele>
        <time>2018-09-16T07:02:40Z</time>
      </trkpt>
      <trkpt lat="43.68699" lon="3.88187">
        <ele>125.7</ele>
        <time>2018-09-16T07:02:41Z</time>
      </trkpt>
      <trkpt lat="43.68705" lon="3.88189">
        <ele>126.5</ele>
        <time>2018-09-16T07:02:51Z</time>
      </trkpt>
      <trkpt lat="43.68706" lon="3.88186">
        <ele>126.7</ele>
        <time>2018-09-16T07:02:54Z</time>
      </trkpt>
      <trkpt lat="43.68715" lon="3.88185">
        <ele>128</ele>
        <time>2018-09-16T07:03:20Z</time>
      </trkpt>
      <trkpt lat="43.68715" lon="3.88184">
        <ele>128</ele>
        <time>2018-09-16T07:03:21Z</time>
      </trkpt>
      <trkpt lat="43.68717" lon="3.88179">
        <ele>128.2</ele>
        <time>2018-09-16T07:03:37Z</time>
      </trkpt>
      <trkpt lat="43.68717" lon="3.88178">
        <ele>128.2</ele>
        <time>2018-09-16T07:03:38Z</time>
      </trkpt>
      <trkpt lat="43.68722" lon="3.8817">
        <ele>129</ele>
        <time>2018-09-16T07:04:00Z</time>
      </trkpt>
      <trkpt lat="43.68724" lon="3.88169">
        <ele>129.1</ele>
        <time>2018-09-16T07:04:01Z</time>
      </trkpt>
      <trkpt lat="43.68733" lon="3.88167">
        <ele>129.4</ele>
        <time>2018-09-16T07:04:04Z</time>
      </trkpt>
      <trkpt lat="43.68736" lon="3.88168">
        <ele>129.5</ele>
        <time>2018-09-16T07:04:05Z</time>
      </trkpt>
      <trkpt lat="43.68744" lon="3.8817">
        <ele>129.8</ele>
        <time>2018-09-16T07:04:08Z</time>
      </trkpt>
      <trkpt lat="43.68746" lon="3.88171">
        <ele>129.9</ele>
        <time>2018-09-16T07:04:09Z</time>
      </trkpt>
      <trkpt lat="43.68753" lon="3.88168">
        <ele>129.9</ele>
        <time>2018-09-16T07:04:11Z</time>
      </trkpt>
      <trkpt lat="43.68756" lon="3.88179">
        <ele>129.8</ele>
        <time>2018-09-16T07:04:12Z</time>
      </trkpt>
      <trkpt lat="43.6876" lon="3.88195">
        <ele>129.6</ele>
      </trkpt>
      <trkpt lat="43.68765" lon="3.88193">
        <ele>129.5</ele>
        <time>2018-09-16T07:04:13Z</time>
      </trkpt>
      <trkpt lat="43.68765" lon="3.88204">
        <ele>129.8</ele>
        <time>2018-09-16T07:04:15Z</time>
      </trkpt>
      <trkpt lat="43.68768" lon="3.88208">
        <ele>129.8</ele>
        <time>2018-09-16T07:04:16Z</time>
      </trkpt>
      <trkpt lat="43.68772" lon="3.88217">
        <ele>130</ele>
        <time>2018-09-16T07:04:19Z</time>
      </trkpt>
      <trkpt lat="43.68774" lon="3.88219">
        <ele>130</ele>
        <time>2018-09-16T07:04:20Z</time>
      </trkpt>
      <trkpt lat="43.6878" lon="3.88226">
        <ele>129.8</ele>
        <time>2018-09-16T07:04:21Z</time>
      </trkpt>
      <trkpt lat="43.68783" lon="3.88231">
        <ele>129.6</ele>
        <time>2018-09-16T07:04:22Z</time>
      </trkpt>
      <trkpt lat="43.68786" lon="3.88235">
        <ele>129.4</ele>
        <time>2018-09-16T07:04:23Z</time>
      </trkpt>
      <trkpt lat="43.6879" lon="3.8824">
        <ele>129.1</ele>
        <time>2018-09-16T07:04:24Z</time>
      </trkpt>
      <trkpt lat="43.68791" lon="3.88247">
        <ele>129</ele>
        <time>2018-09-16T07:04:25Z</time>
      </trkpt>
      <trkpt lat="43.6879" lon="3.88254">
        <ele>129.1</ele>
        <time>2018-09-16T07:04:26Z</time>
      </trkpt>
      <trkpt lat="43.68789" lon="3.88264">
        <ele>129.3</ele>
        <time>2018-09-16T07:04:28Z</time>
      </trkpt>
      <trkpt lat="43.6879" lon="3.88269">
        <ele>129.2</ele>
        <time>2018-09-16T07:04:29Z</time>
      </trkpt>
      <trkpt lat="43.68794" lon="3.88278">
        <ele>128.6</ele>
        <time>2018-09-16T07:04:31Z</time>
      </trkpt>
      <trkpt lat="43.68794" lon="3.88285">
        <ele>127.9</ele>
        <time>2018-09-16T07:04:32Z</time>
      </trkpt>
      <trkpt lat="43.68799" lon="3.88294">
        <ele>126.2</ele>
        <time>2018-09-16T07:04:34Z</time>
      </trkpt>
      <trkpt lat="43.68801" lon="3.88304">
        <ele>124.8</ele>
        <time>2018-09-16T07:04:35Z</time>
      </trkpt>
      <trkpt lat="43.68797" lon="3.88315">
        <ele>124.7</ele>
        <time>2018-09-16T07:04:39Z</time>
      </trkpt>
      <trkpt lat="43.68798" lon="3.88318">
        <ele>124.4</ele>
        <time>2018-09-16T07:04:40Z</time>
      </trkpt>
      <trkpt lat="43.68805" lon="3.88324">
        <ele>123.4</ele>
        <time>2018-09-16T07:04:44Z</time>
      </trkpt>
      <trkpt lat="43.68816" lon="3.88326">
        <ele>121.8</ele>
        <time>2018-09-16T07:04:45Z</time>
      </trkpt>
      <trkpt lat="43.68825" lon="3.88327">
        <ele>120.4</ele>
        <time>2018-09-16T07:04:46Z</time>
      </trkpt>
      <trkpt lat="43.68835" lon="3.88329">
        <ele>119</ele>
        <time>2018-09-16T07:04:47Z</time>
      </trkpt>
      <trkpt lat="43.68841" lon="3.8833">
        <ele>118.3</ele>
        <time>2018-09-16T07:04:48Z</time>
      </trkpt>
      <trkpt lat="43.68849" lon="3.88329">
        <ele>117.6</ele>
        <time>2018-09-16T07:04:49Z</time>
      </trkpt>
      <trkpt lat="43.68855" lon="3.88331">
        <ele>116.8</ele>
        <time>2018-09-16T07:04:50Z</time>
      </trkpt>
      <trkpt lat="43.6886" lon="3.88335">
        <ele>116.1</ele>
        <time>2018-09-16T07:04:51Z</time>
      </trkpt>
      <trkpt lat="43.68865" lon="3.8834">
        <ele>115.6</ele>
        <time>2018-09-16T07:04:52Z</time>
      </trkpt>
      <trkpt lat="43.68871" lon="3.88342">
        <ele>115.3</ele>
        <time>2018-09-16T07:04:53Z</time>
      </trkpt>
      <trkpt lat="43.68876" lon="3.88341">
        <ele>115.2</ele>
        <time>2018-09-16T07:04:54Z</time>
      </trkpt>
      <trkpt lat="43.68882" lon="3.88341">
        <ele>115</ele>
        <time>2018-09-16T07:04:55Z</time>
      </trkpt>
      <trkpt lat="43.68887" lon="3.88341">
        <ele>114.8</ele>
        <time>2018-09-16T07:04:56Z</time>
      </trkpt>
      <trkpt lat="43.68892" lon="3.88341">
        <ele>114.6</ele>
        <time>2018-09-16T07:04:57Z</time>
      </trkpt>
      <trkpt lat="43.68898" lon="3.88341">
        <ele>114.4</ele>
        <time>2018-09-16T07:04:58Z</time>
      </trkpt>
      <trkpt lat="43.68903" lon="3.88342">
        <ele>114.2</ele>
        <time>2018-09-16T07:04:59Z</time>
      </trkpt>
      <trkpt lat="43.68912" lon="3.88343">
        <ele>113.8</ele>
        <time>2018-09-16T07:05:02Z</time>
      </trkpt>
      <trkpt lat="43.68914" lon="3.88342">
        <ele>113.8</ele>
        <time>2018-09-16T07:05:03Z</time>
      </trkpt>
      <trkpt lat="43.68923" lon="3.88345">
        <ele>113.4</ele>
        <time>2018-09-16T07:05:07Z</time>
      </trkpt>
      <trkpt lat="43.68931" lon="3.88355">
        <ele>112.7</ele>
        <time>2018-09-16T07:05:08Z</time>
      </trkpt>
      <trkpt lat="43.68942" lon="3.88356">
        <ele>112.3</ele>
        <time>2018-09-16T07:05:10Z</time>
      </trkpt>
      <trkpt lat="43.68949" lon="3.88361">
        <ele>112</ele>
        <time>2018-09-16T07:05:11Z</time>
      </trkpt>
      <trkpt lat="43.68958" lon="3.88363">
        <ele>111.9</ele>
        <time>2018-09-16T07:05:12Z</time>
      </trkpt>
      <trkpt lat="43.68963" lon="3.8836">
        <ele>112</ele>
        <time>2018-09-16T07:05:13Z</time>
      </trkpt>
      <trkpt lat="43.68965" lon="3.8836">
        <ele>112</ele>
      </trkpt>
      <trkpt lat="43.68969" lon="3.88361">
        <ele>112</ele>
        <time>2018-09-16T07:05:14Z</time>
      </trkpt>
      <trkpt lat="43.68971" lon="3.8836">
        <ele>112</ele>
        <time>2018-09-16T07:05:16Z</time>
      </trkpt>
      <trkpt lat="43.68977" lon="3.88361">
        <ele>112</ele>
        <time>2018-09-16T07:05:17Z</time>
      </trkpt>
      <trkpt lat="43.68982" lon="3.88363">
        <ele>111.9</ele>
        <time>2018-09-16T07:05:18Z</time>
      </trkpt>
      <trkpt lat="43.68986" lon="3.88366">
        <ele>111.8</ele>
        <time>2018-09-16T07:05:19Z</time>
      </trkpt>
      <trkpt lat="43.68991" lon="3.88368">
        <ele>111.8</ele>
        <time>2018-09-16T07:05:20Z</time>
      </trkpt>
      <trkpt lat="43.68994" lon="3.88371">
        <ele>111.6</ele>
      </trkpt>
      <trkpt lat="43.68996" lon="3.88371">
        <ele>111.6</ele>
        <time>2018-09-16T07:05:21Z</time>
      </trkpt>
      <trkpt lat="43.69" lon="3.88373">
        <ele>111.6</ele>
        <time>2018-09-16T07:05:22Z</time>
      </trkpt>
      <trkpt lat="43.69002" lon="3.88375">
        <ele>111.5</ele>
        <time>2018-09-16T07:05:23Z</time>
      </trkpt>
      <trkpt lat="43.69006" lon="3.88379">
        <ele>111.4</ele>
        <time>2018-09-16T07:05:24Z</time>
      </trkpt>
      <trkpt lat="43.69009" lon="3.88382">
        <ele>111.2</ele>
        <time>2018-09-16T07:05:25Z</time>
      </trkpt>
      <trkpt lat="43.69014" lon="3.88387">
        <ele>111.1</ele>
        <time>2018-09-16T07:05:26Z</time>
      </trkpt>
      <trkpt lat="43.69019" lon="3.88391">
        <ele>110.9</ele>
        <time>2018-09-16T07:05:27Z</time>
      </trkpt>
      <trkpt lat="43.69022" lon="3.88397">
        <ele>110.7</ele>
        <time>2018-09-16T07:05:28Z</time>
      </trkpt>
      <trkpt lat="43.69026" lon="3.88403">
        <ele>110.5</ele>
        <time>2018-09-16T07:05:29Z</time>
      </trkpt>
      <trkpt lat="43.69031" lon="3.88407">
        <ele>110.3</ele>
        <time>2018-09-16T07:05:30Z</time>
      </trkpt>
      <trkpt lat="43.69037" lon="3.88412">
        <ele>110.1</ele>
        <time>2018-09-16T07:05:31Z</time>
      </trkpt>
      <trkpt lat="43.6904" lon="3.88418">
        <ele>110</ele>
        <time>2018-09-16T07:05:32Z</time>
      </trkpt>
      <trkpt lat="43.69044" lon="3.88422">
        <ele>110.1</ele>
        <time>2018-09-16T07:05:33Z</time>
      </trkpt>
      <trkpt lat="43.69047" lon="3.88428">
        <ele>110.1</ele>
        <time>2018-09-16T07:05:34Z</time>
      </trkpt>
      <trkpt lat="43.6905" lon="3.88434">
        <ele>110.1</ele>
        <time>2018-09-16T07:05:35Z</time>
      </trkpt>
      <trkpt lat="43.69054" lon="3.88439">
        <ele>110</ele>
        <time>2018-09-16T07:05:36Z</time>
      </trkpt>
      <trkpt lat="43.69058" lon="3.88443">
        <ele>109.8</ele>
        <time>2018-09-16T07:05:37Z</time>
      </trkpt>
      <trkpt lat="43.69062" lon="3.88446">
        <ele>109.7</ele>
        <time>2018-09-16T07:05:38Z</time>
      </trkpt>
      <trkpt lat="43.69068" lon="3.88449">
        <ele>109.5</ele>
        <time>2018-09-16T07:05:39Z</time>
      </trkpt>
      <trkpt lat="43.69073" lon="3.88453">
        <ele>109.6</ele>
        <time>2018-09-16T07:05:40Z</time>
      </trkpt>
      <trkpt lat="43.69078" lon="3.88456">
        <ele>109.6</ele>
        <time>2018-09-16T07:05:41Z</time>
      </trkpt>
      <trkpt lat="43.69083" lon="3.88459">
        <ele>109.6</ele>
        <time>2018-09-16T07:05:42Z</time>
      </trkpt>
      <trkpt lat="43.69088" lon="3.88461">
        <ele>109.4</ele>
        <time>2018-09-16T07:05:43Z</time>
      </trkpt>
      <trkpt lat="43.69092" lon="3.88462">
        <ele>109.1</ele>
        <time>2018-09-16T07:05:44Z</time>
      </trkpt>
      <trkpt lat="43.69098" lon="3.88463">
        <ele>108.6</ele>
        <time>2018-09-16T07:05:45Z</time>
      </trkpt>
      <trkpt lat="43.69103" lon="3.88463">
        <ele>108.1</ele>
        <time>2018-09-16T07:05:46Z</time>
      </trkpt>
      <trkpt lat="43.6911" lon="3.88467">
        <ele>107.7</ele>
        <time>2018-09-16T07:05:47Z</time>
      </trkpt>
      <trkpt lat="43.69115" lon="3.88471">
        <ele>107.4</ele>
        <time>2018-09-16T07:05:48Z</time>
      </trkpt>
      <trkpt lat="43.6912" lon="3.88474">
        <ele>106.8</ele>
        <time>2018-09-16T07:05:49Z</time>
      </trkpt>
      <trkpt lat="43.69123" lon="3.88479">
        <ele>106.8</ele>
        <time>2018-09-16T07:05:50Z</time>
      </trkpt>
      <trkpt lat="43.69129" lon="3.88485">
        <ele>106.3</ele>
        <time>2018-09-16T07:05:51Z</time>
      </trkpt>
      <trkpt lat="43.69135" lon="3.8849">
        <ele>105.8</ele>
        <time>2018-09-16T07:05:52Z</time>
      </trkpt>
      <trkpt lat="43.69139" lon="3.88492">
        <ele>105.4</ele>
        <time>2018-09-16T07:05:53Z</time>
      </trkpt>
      <trkpt lat="43.69145" lon="3.88497">
        <ele>105.1</ele>
        <time>2018-09-16T07:05:54Z</time>
      </trkpt>
      <trkpt lat="43.69151" lon="3.88502">
        <ele>104.8</ele>
        <time>2018-09-16T07:05:55Z</time>
      </trkpt>
      <trkpt lat="43.69155" lon="3.88509">
        <ele>104.7</ele>
        <time>2018-09-16T07:05:56Z</time>
      </trkpt>
      <trkpt lat="43.69159" lon="3.88512">
        <ele>104.4</ele>
        <time>2018-09-16T07:05:57Z</time>
      </trkpt>
      <trkpt lat="43.69165" lon="3.88517">
        <ele>103.8</ele>
        <time>2018-09-16T07:05:58Z</time>
      </trkpt>
      <trkpt lat="43.6917" lon="3.88522">
        <ele>103.3</ele>
        <time>2018-09-16T07:05:59Z</time>
      </trkpt>
      <trkpt lat="43.69176" lon="3.88526">
        <ele>102.6</ele>
        <time>2018-09-16T07:06:00Z</time>
      </trkpt>
      <trkpt lat="43.69179" lon="3.88531">
        <ele>102.3</ele>
        <time>2018-09-16T07:06:01Z</time>
      </trkpt>
      <trkpt lat="43.69186" lon="3.88534">
        <ele>101.4</ele>
        <time>2018-09-16T07:06:03Z</time>
      </trkpt>
      <trkpt lat="43.69194" lon="3.88537">
        <ele>100.4</ele>
        <time>2018-09-16T07:06:04Z</time>
      </trkpt>
      <trkpt lat="43.692" lon="3.88545">
        <ele>100</ele>
        <time>2018-09-16T07:06:05Z</time>
      </trkpt>
      <trkpt lat="43.69205" lon="3.88552">
        <ele>99.7</ele>
        <time>2018-09-16T07:06:06Z</time>
      </trkpt>
      <trkpt lat="43.69209" lon="3.88559">
        <ele>99.4</ele>
        <time>2018-09-16T07:06:07Z</time>
      </trkpt>
      <trkpt lat="43.69214" lon="3.88565">
        <ele>98.6</ele>
        <time>2018-09-16T07:06:08Z</time>
      </trkpt>
      <trkpt lat="43.69216" lon="3.88572">
        <ele>98.2</ele>
        <time>2018-09-16T07:06:09Z</time>
      </trkpt>
      <trkpt lat="43.69218" lon="3.88578">
        <ele>97.8</ele>
        <time>2018-09-16T07:06:10Z</time>
      </trkpt>
      <trkpt lat="43.69223" lon="3.88586">
        <ele>96.8</ele>
        <time>2018-09-16T07:06:11Z</time>
      </trkpt>
      <trkpt lat="43.69226" lon="3.88595">
        <ele>96.2</ele>
        <time>2018-09-16T07:06:12Z</time>
      </trkpt>
      <trkpt lat="43.69232" lon="3.88603">
        <ele>95.2</ele>
        <time>2018-09-16T07:06:14Z</time>
      </trkpt>
      <trkpt lat="43.69234" lon="3.88608">
        <ele>94.8</ele>
        <time>2018-09-16T07:06:15Z</time>
      </trkpt>
      <trkpt lat="43.69237" lon="3.88614">
        <ele>94.3</ele>
        <time>2018-09-16T07:06:16Z</time>
      </trkpt>
      <trkpt lat="43.69241" lon="3.88621">
        <ele>93.7</ele>
        <time>2018-09-16T07:06:17Z</time>
      </trkpt>
      <trkpt lat="43.69243" lon="3.88629">
        <ele>93.4</ele>
        <time>2018-09-16T07:06:18Z</time>
      </trkpt>
      <trkpt lat="43.69247" lon="3.88636">
        <ele>93.1</ele>
        <time>2018-09-16T07:06:19Z</time>
      </trkpt>
      <trkpt lat="43.69247" lon="3.88643">
        <ele>93.1</ele>
        <time>2018-09-16T07:06:20Z</time>
      </trkpt>
      <trkpt lat="43.69248" lon="3.88651">
        <ele>93</ele>
        <time>2018-09-16T07:06:21Z</time>
      </trkpt>
      <trkpt lat="43.6925" lon="3.88658">
        <ele>93</ele>
        <time>2018-09-16T07:06:22Z</time>
      </trkpt>
      <trkpt lat="43.69252" lon="3.88664">
        <ele>93</ele>
        <time>2018-09-16T07:06:23Z</time>
      </trkpt>
      <trkpt lat="43.69257" lon="3.88674">
        <ele>92.9</ele>
        <time>2018-09-16T07:06:25Z</time>
      </trkpt>
      <trkpt lat="43.6926" lon="3.88679">
        <ele>92.9</ele>
        <time>2018-09-16T07:06:26Z</time>
      </trkpt>
      <trkpt lat="43.69263" lon="3.88684">
        <ele>93</ele>
        <time>2018-09-16T07:06:27Z</time>
      </trkpt>
      <trkpt lat="43.69265" lon="3.88691">
        <ele>93.1</ele>
        <time>2018-09-16T07:06:28Z</time>
      </trkpt>
      <trkpt lat="43.69267" lon="3.88697">
        <ele>93.3</ele>
        <time>2018-09-16T07:06:29Z</time>
      </trkpt>
      <trkpt lat="43.69268" lon="3.88704">
        <ele>93.6</ele>
        <time>2018-09-16T07:06:30Z</time>
      </trkpt>
      <trkpt lat="43.69268" lon="3.88709">
        <ele>93.8</ele>
        <time>2018-09-16T07:06:31Z</time>
      </trkpt>
      <trkpt lat="43.6927" lon="3.88716">
        <ele>94.2</ele>
        <time>2018-09-16T07:06:32Z</time>
      </trkpt>
      <trkpt lat="43.69269" lon="3.88728">
        <ele>94.5</ele>
        <time>2018-09-16T07:06:34Z</time>
      </trkpt>
      <trkpt lat="43.69271" lon="3.88734">
        <ele>94.8</ele>
        <time>2018-09-16T07:06:35Z</time>
      </trkpt>
      <trkpt lat="43.69273" lon="3.88746">
        <ele>95.4</ele>
        <time>2018-09-16T07:06:37Z</time>
      </trkpt>
      <trkpt lat="43.69274" lon="3.8875">
        <ele>95.6</ele>
        <time>2018-09-16T07:06:38Z</time>
      </trkpt>
      <trkpt lat="43.69276" lon="3.8876">
        <ele>95.8</ele>
        <time>2018-09-16T07:06:41Z</time>
      </trkpt>
      <trkpt lat="43.69276" lon="3.88769">
        <ele>95.9</ele>
        <time>2018-09-16T07:06:42Z</time>
      </trkpt>
      <trkpt lat="43.69276" lon="3.88776">
        <ele>95.9</ele>
        <time>2018-09-16T07:06:43Z</time>
      </trkpt>
      <trkpt lat="43.69277" lon="3.88782">
        <ele>96.1</ele>
        <time>2018-09-16T07:06:44Z</time>
      </trkpt>
      <trkpt lat="43.69279" lon="3.88792">
        <ele>96.7</ele>
        <time>2018-09-16T07:06:47Z</time>
      </trkpt>
      <trkpt lat="43.69281" lon="3.88804">
        <ele>97.4</ele>
        <time>2018-09-16T07:06:48Z</time>
      </trkpt>
      <trkpt lat="43.69282" lon="3.88814">
        <ele>97.9</ele>
        <time>2018-09-16T07:06:51Z</time>
      </trkpt>
      <trkpt lat="43.69283" lon="3.88817">
        <ele>98.1</ele>
        <time>2018-09-16T07:06:52Z</time>
      </trkpt>
      <trkpt lat="43.69287" lon="3.88828">
        <ele>98.9</ele>
        <time>2018-09-16T07:06:55Z</time>
      </trkpt>
      <trkpt lat="43.69288" lon="3.88831">
        <ele>99.1</ele>
        <time>2018-09-16T07:06:56Z</time>
      </trkpt>
      <trkpt lat="43.69291" lon="3.88839">
        <ele>99.3</ele>
        <time>2018-09-16T07:06:58Z</time>
      </trkpt>
      <trkpt lat="43.69293" lon="3.88842">
        <ele>99.5</ele>
        <time>2018-09-16T07:06:59Z</time>
      </trkpt>
      <trkpt lat="43.69296" lon="3.8885">
        <ele>99.6</ele>
        <time>2018-09-16T07:07:01Z</time>
      </trkpt>
      <trkpt lat="43.69297" lon="3.88853">
        <ele>99.6</ele>
        <time>2018-09-16T07:07:02Z</time>
      </trkpt>
      <trkpt lat="43.69301" lon="3.88861">
        <ele>99.7</ele>
        <time>2018-09-16T07:07:04Z</time>
      </trkpt>
      <trkpt lat="43.69302" lon="3.88864">
        <ele>99.7</ele>
        <time>2018-09-16T07:07:05Z</time>
      </trkpt>
      <trkpt lat="43.69306" lon="3.88871">
        <ele>100.1</ele>
        <time>2018-09-16T07:07:07Z</time>
      </trkpt>
      <trkpt lat="43.69308" lon="3.88875">
        <ele>100.5</ele>
        <time>2018-09-16T07:07:08Z</time>
      </trkpt>
      <trkpt lat="43.69311" lon="3.88882">
        <ele>100.8</ele>
        <time>2018-09-16T07:07:10Z</time>
      </trkpt>
      <trkpt lat="43.69313" lon="3.88886">
        <ele>100.9</ele>
        <time>2018-09-16T07:07:11Z</time>
      </trkpt>
      <trkpt lat="43.69317" lon="3.88893">
        <ele>101</ele>
        <time>2018-09-16T07:07:13Z</time>
      </trkpt>
      <trkpt lat="43.69319" lon="3.88896">
        <ele>101.1</ele>
        <time>2018-09-16T07:07:14Z</time>
      </trkpt>
      <trkpt lat="43.69326" lon="3.88904">
        <ele>101.3</ele>
        <time>2018-09-16T07:07:17Z</time>
      </trkpt>
      <trkpt lat="43.69328" lon="3.88906">
        <ele>101.3</ele>
        <time>2018-09-16T07:07:18Z</time>
      </trkpt>
      <trkpt lat="43.69336" lon="3.88911">
        <ele>101.6</ele>
        <time>2018-09-16T07:07:21Z</time>
      </trkpt>
      <trkpt lat="43.69338" lon="3.88912">
        <ele>101.7</ele>
        <time>2018-09-16T07:07:22Z</time>
      </trkpt>
      <trkpt lat="43.69345" lon="3.88916">
        <ele>101.9</ele>
        <time>2018-09-16T07:07:25Z</time>
      </trkpt>
      <trkpt lat="43.69348" lon="3.88916">
        <ele>102.1</ele>
        <time>2018-09-16T07:07:26Z</time>
      </trkpt>
      <trkpt lat="43.69355" lon="3.88919">
        <ele>102.5</ele>
        <time>2018-09-16T07:07:29Z</time>
      </trkpt>
      <trkpt lat="43.69358" lon="3.8892">
        <ele>102.7</ele>
        <time>2018-09-16T07:07:30Z</time>
      </trkpt>
      <trkpt lat="43.69367" lon="3.88924">
        <ele>103.6</ele>
        <time>2018-09-16T07:07:33Z</time>
      </trkpt>
      <trkpt lat="43.69369" lon="3.88926">
        <ele>103.8</ele>
        <time>2018-09-16T07:07:34Z</time>
      </trkpt>
      <trkpt lat="43.69377" lon="3.8893">
        <ele>104.6</ele>
        <time>2018-09-16T07:07:37Z</time>
      </trkpt>
      <trkpt lat="43.69379" lon="3.88932">
        <ele>104.6</ele>
        <time>2018-09-16T07:07:38Z</time>
      </trkpt>
      <trkpt lat="43.69386" lon="3.88938">
        <ele>104.6</ele>
        <time>2018-09-16T07:07:41Z</time>
      </trkpt>
      <trkpt lat="43.69388" lon="3.8894">
        <ele>104.6</ele>
        <time>2018-09-16T07:07:42Z</time>
      </trkpt>
      <trkpt lat="43.69393" lon="3.88944">
        <ele>104.8</ele>
        <time>2018-09-16T07:07:44Z</time>
      </trkpt>
      <trkpt lat="43.69396" lon="3.88947">
        <ele>105.3</ele>
        <time>2018-09-16T07:07:46Z</time>
      </trkpt>
      <trkpt lat="43.69401" lon="3.88951">
        <ele>106.1</ele>
        <time>2018-09-16T07:07:48Z</time>
      </trkpt>
      <trkpt lat="43.69404" lon="3.88954">
        <ele>106.5</ele>
        <time>2018-09-16T07:07:49Z</time>
      </trkpt>
      <trkpt lat="43.69411" lon="3.8896">
        <ele>107.2</ele>
        <time>2018-09-16T07:07:52Z</time>
      </trkpt>
      <trkpt lat="43.69413" lon="3.88961">
        <ele>107.4</ele>
        <time>2018-09-16T07:07:53Z</time>
      </trkpt>
      <trkpt lat="43.69419" lon="3.88968">
        <ele>107.8</ele>
        <time>2018-09-16T07:07:56Z</time>
      </trkpt>
      <trkpt lat="43.69422" lon="3.8897">
        <ele>108.3</ele>
        <time>2018-09-16T07:07:57Z</time>
      </trkpt>
      <trkpt lat="43.69428" lon="3.88977">
        <ele>109.3</ele>
        <time>2018-09-16T07:08:00Z</time>
      </trkpt>
      <trkpt lat="43.69431" lon="3.8898">
        <ele>109.8</ele>
        <time>2018-09-16T07:08:01Z</time>
      </trkpt>
      <trkpt lat="43.69437" lon="3.88984">
        <ele>110.6</ele>
        <time>2018-09-16T07:08:03Z</time>
      </trkpt>
      <trkpt lat="43.6944" lon="3.88986">
        <ele>110.9</ele>
        <time>2018-09-16T07:08:04Z</time>
      </trkpt>
      <trkpt lat="43.69447" lon="3.88993">
        <ele>111.3</ele>
        <time>2018-09-16T07:08:08Z</time>
      </trkpt>
      <trkpt lat="43.69448" lon="3.88995">
        <ele>111.3</ele>
        <time>2018-09-16T07:08:09Z</time>
      </trkpt>
      <trkpt lat="43.69453" lon="3.89004">
        <ele>111.7</ele>
        <time>2018-09-16T07:08:13Z</time>
      </trkpt>
      <trkpt lat="43.69454" lon="3.89008">
        <ele>111.8</ele>
        <time>2018-09-16T07:08:14Z</time>
      </trkpt>
      <trkpt lat="43.69459" lon="3.89017">
        <ele>112.2</ele>
        <time>2018-09-16T07:08:17Z</time>
      </trkpt>
      <trkpt lat="43.6946" lon="3.8902">
        <ele>112.2</ele>
        <time>2018-09-16T07:08:18Z</time>
      </trkpt>
      <trkpt lat="43.69462" lon="3.89031">
        <ele>111.9</ele>
        <time>2018-09-16T07:08:22Z</time>
      </trkpt>
      <trkpt lat="43.69462" lon="3.89035">
        <ele>111.9</ele>
        <time>2018-09-16T07:08:23Z</time>
      </trkpt>
      <trkpt lat="43.6946" lon="3.89044">
        <ele>111.9</ele>
        <time>2018-09-16T07:08:25Z</time>
      </trkpt>
      <trkpt lat="43.69459" lon="3.89049">
        <ele>111.9</ele>
        <time>2018-09-16T07:08:26Z</time>
      </trkpt>
      <trkpt lat="43.69458" lon="3.89057">
        <ele>112.2</ele>
        <time>2018-09-16T07:08:28Z</time>
      </trkpt>
      <trkpt lat="43.69458" lon="3.89061">
        <ele>112.6</ele>
        <time>2018-09-16T07:08:29Z</time>
      </trkpt>
      <trkpt lat="43.69456" lon="3.89073">
        <ele>114</ele>
        <time>2018-09-16T07:08:32Z</time>
      </trkpt>
      <trkpt lat="43.69456" lon="3.89076">
        <ele>114.3</ele>
        <time>2018-09-16T07:08:33Z</time>
      </trkpt>
      <trkpt lat="43.69458" lon="3.89086">
        <ele>115.3</ele>
        <time>2018-09-16T07:08:36Z</time>
      </trkpt>
      <trkpt lat="43.6946" lon="3.89089">
        <ele>115.4</ele>
        <time>2018-09-16T07:08:37Z</time>
      </trkpt>
      <trkpt lat="43.69463" lon="3.89097">
        <ele>115.6</ele>
        <time>2018-09-16T07:08:40Z</time>
      </trkpt>
      <trkpt lat="43.69464" lon="3.891">
        <ele>115.7</ele>
        <time>2018-09-16T07:08:41Z</time>
      </trkpt>
      <trkpt lat="43.69467" lon="3.89108">
        <ele>115.8</ele>
        <time>2018-09-16T07:08:44Z</time>
      </trkpt>
      <trkpt lat="43.69468" lon="3.89111">
        <ele>115.8</ele>
        <time>2018-09-16T07:08:45Z</time>
      </trkpt>
      <trkpt lat="43.69471" lon="3.8912">
        <ele>116.2</ele>
        <time>2018-09-16T07:08:48Z</time>
      </trkpt>
      <trkpt lat="43.69471" lon="3.89123">
        <ele>116.5</ele>
        <time>2018-09-16T07:08:49Z</time>
      </trkpt>
      <trkpt lat="43.69473" lon="3.89132">
        <ele>117.2</ele>
        <time>2018-09-16T07:08:52Z</time>
      </trkpt>
      <trkpt lat="43.69475" lon="3.89136">
        <ele>117.5</ele>
        <time>2018-09-16T07:08:53Z</time>
      </trkpt>
      <trkpt lat="43.69478" lon="3.89146">
        <ele>117.9</ele>
        <time>2018-09-16T07:08:56Z</time>
      </trkpt>
      <trkpt lat="43.69479" lon="3.8915">
        <ele>118</ele>
        <time>2018-09-16T07:08:57Z</time>
      </trkpt>
      <trkpt lat="43.69483" lon="3.89159">
        <ele>118.2</ele>
        <time>2018-09-16T07:09:00Z</time>
      </trkpt>
      <trkpt lat="43.69485" lon="3.89162">
        <ele>118.3</ele>
        <time>2018-09-16T07:09:01Z</time>
      </trkpt>
      <trkpt lat="43.69489" lon="3.89171">
        <ele>118.4</ele>
        <time>2018-09-16T07:09:04Z</time>
      </trkpt>
      <trkpt lat="43.6949" lon="3.89174">
        <ele>118.4</ele>
        <time>2018-09-16T07:09:05Z</time>
      </trkpt>
      <trkpt lat="43.69495" lon="3.89182">
        <ele>118.5</ele>
        <time>2018-09-16T07:09:08Z</time>
      </trkpt>
      <trkpt lat="43.69497" lon="3.89184">
        <ele>118.6</ele>
        <time>2018-09-16T07:09:09Z</time>
      </trkpt>
      <trkpt lat="43.69504" lon="3.8919">
        <ele>118.8</ele>
        <time>2018-09-16T07:09:12Z</time>
      </trkpt>
      <trkpt lat="43.69506" lon="3.89192">
        <ele>118.9</ele>
        <time>2018-09-16T07:09:13Z</time>
      </trkpt>
      <trkpt lat="43.69513" lon="3.89196">
        <ele>119</ele>
        <time>2018-09-16T07:09:16Z</time>
      </trkpt>
      <trkpt lat="43.69515" lon="3.89198">
        <ele>118.9</ele>
        <time>2018-09-16T07:09:17Z</time>
      </trkpt>
      <trkpt lat="43.69521" lon="3.89206">
        <ele>118.9</ele>
        <time>2018-09-16T07:09:21Z</time>
      </trkpt>
      <trkpt lat="43.69522" lon="3.89209">
        <ele>118.9</ele>
        <time>2018-09-16T07:09:22Z</time>
      </trkpt>
      <trkpt lat="43.6952" lon="3.89221">
        <ele>118.7</ele>
        <time>2018-09-16T07:09:23Z</time>
      </trkpt>
      <trkpt lat="43.69517" lon="3.89233">
        <ele>117.8</ele>
        <time>2018-09-16T07:09:25Z</time>
      </trkpt>
      <trkpt lat="43.69515" lon="3.89239">
        <ele>117.3</ele>
        <time>2018-09-16T07:09:26Z</time>
      </trkpt>
      <trkpt lat="43.69514" lon="3.89245">
        <ele>116.9</ele>
        <time>2018-09-16T07:09:27Z</time>
      </trkpt>
      <trkpt lat="43.69511" lon="3.89252">
        <ele>116.2</ele>
        <time>2018-09-16T07:09:28Z</time>
      </trkpt>
      <trkpt lat="43.69508" lon="3.89256">
        <ele>115.7</ele>
        <time>2018-09-16T07:09:29Z</time>
      </trkpt>
      <trkpt lat="43.69505" lon="3.89262">
        <ele>115</ele>
        <time>2018-09-16T07:09:30Z</time>
      </trkpt>
      <trkpt lat="43.69502" lon="3.8927">
        <ele>114</ele>
        <time>2018-09-16T07:09:35Z</time>
      </trkpt>
      <trkpt lat="43.69498" lon="3.89273">
        <ele>113.4</ele>
        <time>2018-09-16T07:09:36Z</time>
      </trkpt>
      <trkpt lat="43.69502" lon="3.89284">
        <ele>112.7</ele>
        <time>2018-09-16T07:09:43Z</time>
      </trkpt>
      <trkpt lat="43.69502" lon="3.89287">
        <ele>112.5</ele>
        <time>2018-09-16T07:09:44Z</time>
      </trkpt>
      <trkpt lat="43.69506" lon="3.89297">
        <ele>112</ele>
        <time>2018-09-16T07:09:47Z</time>
      </trkpt>
      <trkpt lat="43.69508" lon="3.89299">
        <ele>112</ele>
        <time>2018-09-16T07:09:48Z</time>
      </trkpt>
      <trkpt lat="43.69512" lon="3.8931">
        <ele>112.1</ele>
        <time>2018-09-16T07:09:52Z</time>
      </trkpt>
      <trkpt lat="43.69514" lon="3.89312">
        <ele>112.4</ele>
        <time>2018-09-16T07:09:53Z</time>
      </trkpt>
      <trkpt lat="43.69517" lon="3.8932">
        <ele>112.9</ele>
        <time>2018-09-16T07:09:56Z</time>
      </trkpt>
      <trkpt lat="43.69518" lon="3.89323">
        <ele>113.1</ele>
        <time>2018-09-16T07:09:57Z</time>
      </trkpt>
      <trkpt lat="43.69521" lon="3.89333">
        <ele>113.7</ele>
        <time>2018-09-16T07:10:01Z</time>
      </trkpt>
      <trkpt lat="43.69521" lon="3.89335">
        <ele>113.8</ele>
        <time>2018-09-16T07:10:02Z</time>
      </trkpt>
      <trkpt lat="43.69525" lon="3.89344">
        <ele>114.3</ele>
        <time>2018-09-16T07:10:07Z</time>
      </trkpt>
      <trkpt lat="43.69527" lon="3.89346">
        <ele>114.4</ele>
        <time>2018-09-16T07:10:08Z</time>
      </trkpt>
      <trkpt lat="43.69529" lon="3.89357">
        <ele>114.9</ele>
        <time>2018-09-16T07:10:14Z</time>
      </trkpt>
      <trkpt lat="43.69529" lon="3.89359">
        <ele>114.9</ele>
        <time>2018-09-16T07:10:15Z</time>
      </trkpt>
      <trkpt lat="43.6953" lon="3.89369">
        <ele>115.5</ele>
        <time>2018-09-16T07:10:20Z</time>
      </trkpt>
      <trkpt lat="43.69531" lon="3.89372">
        <ele>115.7</ele>
        <time>2018-09-16T07:10:21Z</time>
      </trkpt>
      <trkpt lat="43.69535" lon="3.89381">
        <ele>116.2</ele>
        <time>2018-09-16T07:10:24Z</time>
      </trkpt>
      <trkpt lat="43.69537" lon="3.89385">
        <ele>116.4</ele>
        <time>2018-09-16T07:10:25Z</time>
      </trkpt>
      <trkpt lat="43.6954" lon="3.89392">
        <ele>116.5</ele>
        <time>2018-09-16T07:10:27Z</time>
      </trkpt>
      <trkpt lat="43.69542" lon="3.89395">
        <ele>116.4</ele>
        <time>2018-09-16T07:10:28Z</time>
      </trkpt>
      <trkpt lat="43.69547" lon="3.89402">
        <ele>115.8</ele>
        <time>2018-09-16T07:10:30Z</time>
      </trkpt>
      <trkpt lat="43.69555" lon="3.89411">
        <ele>114.5</ele>
        <time>2018-09-16T07:10:31Z</time>
      </trkpt>
      <trkpt lat="43.69559" lon="3.89417">
        <ele>113.8</ele>
        <time>2018-09-16T07:10:32Z</time>
      </trkpt>
      <trkpt lat="43.69561" lon="3.89424">
        <ele>114</ele>
        <time>2018-09-16T07:10:33Z</time>
      </trkpt>
      <trkpt lat="43.69563" lon="3.8943">
        <ele>114</ele>
        <time>2018-09-16T07:10:34Z</time>
      </trkpt>
      <trkpt lat="43.69569" lon="3.89437">
        <ele>113.4</ele>
        <time>2018-09-16T07:10:35Z</time>
      </trkpt>
      <trkpt lat="43.69577" lon="3.89446">
        <ele>112.2</ele>
        <time>2018-09-16T07:10:36Z</time>
      </trkpt>
      <trkpt lat="43.69578" lon="3.8945">
        <ele>112.2</ele>
        <time>2018-09-16T07:10:37Z</time>
      </trkpt>
      <trkpt lat="43.69583" lon="3.89458">
        <ele>111.5</ele>
        <time>2018-09-16T07:10:38Z</time>
      </trkpt>
      <trkpt lat="43.6959" lon="3.89465">
        <ele>110.9</ele>
        <time>2018-09-16T07:10:39Z</time>
      </trkpt>
      <trkpt lat="43.69591" lon="3.89469">
        <ele>110.8</ele>
        <time>2018-09-16T07:10:40Z</time>
      </trkpt>
      <trkpt lat="43.69593" lon="3.89477">
        <ele>110.9</ele>
        <time>2018-09-16T07:10:41Z</time>
      </trkpt>
      <trkpt lat="43.69598" lon="3.89484">
        <ele>110.5</ele>
        <time>2018-09-16T07:10:42Z</time>
      </trkpt>
      <trkpt lat="43.69603" lon="3.89492">
        <ele>110.1</ele>
        <time>2018-09-16T07:10:43Z</time>
      </trkpt>
      <trkpt lat="43.69609" lon="3.89498">
        <ele>109.3</ele>
        <time>2018-09-16T07:10:44Z</time>
      </trkpt>
      <trkpt lat="43.69611" lon="3.89507">
        <ele>109.3</ele>
        <time>2018-09-16T07:10:45Z</time>
      </trkpt>
      <trkpt lat="43.69615" lon="3.89515">
        <ele>109</ele>
        <time>2018-09-16T07:10:46Z</time>
      </trkpt>
      <trkpt lat="43.6962" lon="3.89522">
        <ele>108.3</ele>
        <time>2018-09-16T07:10:47Z</time>
      </trkpt>
      <trkpt lat="43.69623" lon="3.89531">
        <ele>107.8</ele>
        <time>2018-09-16T07:10:48Z</time>
      </trkpt>
      <trkpt lat="43.69624" lon="3.89541">
        <ele>107.5</ele>
        <time>2018-09-16T07:10:49Z</time>
      </trkpt>
      <trkpt lat="43.69626" lon="3.89548">
        <ele>106.9</ele>
        <time>2018-09-16T07:10:50Z</time>
      </trkpt>
      <trkpt lat="43.69626" lon="3.89555">
        <ele>106.8</ele>
        <time>2018-09-16T07:10:51Z</time>
      </trkpt>
      <trkpt lat="43.69631" lon="3.89558">
        <ele>105.6</ele>
        <time>2018-09-16T07:10:52Z</time>
      </trkpt>
      <trkpt lat="43.69634" lon="3.89568">
        <ele>104.8</ele>
        <time>2018-09-16T07:10:53Z</time>
      </trkpt>
      <trkpt lat="43.69637" lon="3.89577">
        <ele>103.7</ele>
        <time>2018-09-16T07:10:54Z</time>
      </trkpt>
      <trkpt lat="43.6963" lon="3.89586">
        <ele>105.5</ele>
        <time>2018-09-16T07:10:56Z</time>
      </trkpt>
      <trkpt lat="43.69628" lon="3.89591">
        <ele>106.4</ele>
        <time>2018-09-16T07:10:57Z</time>
      </trkpt>
      <trkpt lat="43.69621" lon="3.896">
        <ele>108.8</ele>
        <time>2018-09-16T07:11:11Z</time>
      </trkpt>
      <trkpt lat="43.69619" lon="3.89606">
        <ele>109.7</ele>
      </trkpt>
      <trkpt lat="43.69612" lon="3.8961">
        <ele>111.8</ele>
        <time>2018-09-16T07:11:17Z</time>
      </trkpt>
      <trkpt lat="43.69607" lon="3.89619">
        <ele>112.3</ele>
        <time>2018-09-16T07:11:24Z</time>
      </trkpt>
      <trkpt lat="43.69605" lon="3.89618">
        <ele>112.6</ele>
        <time>2018-09-16T07:11:25Z</time>
      </trkpt>
      <trkpt lat="43.69598" lon="3.89623">
        <ele>113.3</ele>
        <time>2018-09-16T07:11:32Z</time>
      </trkpt>
      <trkpt lat="43.69596" lon="3.89623">
        <ele>113.5</ele>
        <time>2018-09-16T07:11:33Z</time>
      </trkpt>
      <trkpt lat="43.69587" lon="3.89622">
        <ele>114.7</ele>
        <time>2018-09-16T07:11:39Z</time>
      </trkpt>
      <trkpt lat="43.69586" lon="3.89621">
        <ele>114.9</ele>
        <time>2018-09-16T07:11:40Z</time>
      </trkpt>
      <trkpt lat="43.6958" lon="3.89623">
        <ele>115.1</ele>
        <time>2018-09-16T07:11:46Z</time>
      </trkpt>
      <trkpt lat="43.69576" lon="3.89627">
        <ele>114.9</ele>
      </trkpt>
      <trkpt lat="43.6957" lon="3.89628">
        <ele>114.8</ele>
        <time>2018-09-16T07:11:57Z</time>
      </trkpt>
      <trkpt lat="43.69566" lon="3.89631">
        <ele>114.6</ele>
      </trkpt>
      <trkpt lat="43.69558" lon="3.89638">
        <ele>114.1</ele>
        <time>2018-09-16T07:12:02Z</time>
      </trkpt>
      <trkpt lat="43.69549" lon="3.89641">
        <ele>112.7</ele>
        <time>2018-09-16T07:12:08Z</time>
      </trkpt>
      <trkpt lat="43.69541" lon="3.89648">
        <ele>110.3</ele>
        <time>2018-09-16T07:12:27Z</time>
      </trkpt>
      <trkpt lat="43.69532" lon="3.89653">
        <ele>107.9</ele>
      </trkpt>
      <trkpt lat="43.69526" lon="3.89653">
        <ele>106.6</ele>
        <time>2018-09-16T07:12:32Z</time>
      </trkpt>
      <trkpt lat="43.69523" lon="3.89652">
        <ele>106.2</ele>
        <time>2018-09-16T07:12:33Z</time>
      </trkpt>
      <trkpt lat="43.69518" lon="3.89656">
        <ele>104.7</ele>
        <time>2018-09-16T07:12:35Z</time>
      </trkpt>
      <trkpt lat="43.69515" lon="3.89659">
        <ele>103.9</ele>
        <time>2018-09-16T07:12:36Z</time>
      </trkpt>
      <trkpt lat="43.69504" lon="3.89671">
        <ele>101.4</ele>
        <time>2018-09-16T07:12:37Z</time>
      </trkpt>
      <trkpt lat="43.69501" lon="3.89679">
        <ele>100.7</ele>
        <time>2018-09-16T07:12:38Z</time>
      </trkpt>
      <trkpt lat="43.695" lon="3.89686">
        <ele>100.3</ele>
        <time>2018-09-16T07:12:39Z</time>
      </trkpt>
      <trkpt lat="43.69504" lon="3.89694">
        <ele>100.2</ele>
        <time>2018-09-16T07:12:43Z</time>
      </trkpt>
      <trkpt lat="43.69505" lon="3.89698">
        <ele>100.1</ele>
        <time>2018-09-16T07:12:44Z</time>
      </trkpt>
      <trkpt lat="43.695" lon="3.89706">
        <ele>100</ele>
        <time>2018-09-16T07:12:48Z</time>
      </trkpt>
      <trkpt lat="43.69497" lon="3.89708">
        <ele>100.3</ele>
        <time>2018-09-16T07:12:49Z</time>
      </trkpt>
      <trkpt lat="43.69494" lon="3.89708">
        <ele>100.5</ele>
      </trkpt>
      <trkpt lat="43.69491" lon="3.89719">
        <ele>101</ele>
        <time>2018-09-16T07:12:53Z</time>
      </trkpt>
      <trkpt lat="43.69492" lon="3.89724">
        <ele>100.8</ele>
        <time>2018-09-16T07:12:54Z</time>
      </trkpt>
      <trkpt lat="43.69493" lon="3.89729">
        <ele>100.6</ele>
        <time>2018-09-16T07:12:56Z</time>
      </trkpt>
      <trkpt lat="43.69495" lon="3.89734">
        <ele>100.2</ele>
      </trkpt>
      <trkpt lat="43.69495" lon="3.89742">
        <ele>100</ele>
        <time>2018-09-16T07:12:57Z</time>
      </trkpt>
      <trkpt lat="43.69497" lon="3.89754">
        <ele>99.3</ele>
        <time>2018-09-16T07:12:59Z</time>
      </trkpt>
      <trkpt lat="43.69495" lon="3.89761">
        <ele>99.3</ele>
      </trkpt>
      <trkpt lat="43.69498" lon="3.89761">
        <ele>98.9</ele>
        <time>2018-09-16T07:13:00Z</time>
      </trkpt>
      <trkpt lat="43.69496" lon="3.89773">
        <ele>98.9</ele>
        <time>2018-09-16T07:13:01Z</time>
      </trkpt>
      <trkpt lat="43.69497" lon="3.89777">
        <ele>98.6</ele>
        <time>2018-09-16T07:13:02Z</time>
      </trkpt>
      <trkpt lat="43.69499" lon="3.89785">
        <ele>98.2</ele>
        <time>2018-09-16T07:13:03Z</time>
      </trkpt>
      <trkpt lat="43.69506" lon="3.898">
        <ele>97.3</ele>
        <time>2018-09-16T07:13:05Z</time>
      </trkpt>
      <trkpt lat="43.69509" lon="3.89811">
        <ele>97.1</ele>
        <time>2018-09-16T07:13:07Z</time>
      </trkpt>
      <trkpt lat="43.69511" lon="3.89816">
        <ele>97</ele>
        <time>2018-09-16T07:13:08Z</time>
      </trkpt>
      <trkpt lat="43.69515" lon="3.89825">
        <ele>96.8</ele>
        <time>2018-09-16T07:13:10Z</time>
      </trkpt>
      <trkpt lat="43.69518" lon="3.8983">
        <ele>96.4</ele>
        <time>2018-09-16T07:13:11Z</time>
      </trkpt>
      <trkpt lat="43.69519" lon="3.89834">
        <ele>96.3</ele>
        <time>2018-09-16T07:13:12Z</time>
      </trkpt>
      <trkpt lat="43.69521" lon="3.89839">
        <ele>96</ele>
        <time>2018-09-16T07:13:13Z</time>
      </trkpt>
      <trkpt lat="43.69525" lon="3.89849">
        <ele>95.8</ele>
        <time>2018-09-16T07:13:15Z</time>
      </trkpt>
      <trkpt lat="43.69528" lon="3.89855">
        <ele>95.8</ele>
        <time>2018-09-16T07:13:16Z</time>
      </trkpt>
      <trkpt lat="43.69533" lon="3.8986">
        <ele>95.2</ele>
        <time>2018-09-16T07:13:17Z</time>
      </trkpt>
      <trkpt lat="43.69537" lon="3.89866">
        <ele>94.3</ele>
        <time>2018-09-16T07:13:18Z</time>
      </trkpt>
      <trkpt lat="43.69542" lon="3.89871">
        <ele>93.4</ele>
        <time>2018-09-16T07:13:19Z</time>
      </trkpt>
      <trkpt lat="43.69546" lon="3.89873">
        <ele>92.9</ele>
        <time>2018-09-16T07:13:20Z</time>
      </trkpt>
      <trkpt lat="43.6955" lon="3.89878">
        <ele>92.4</ele>
        <time>2018-09-16T07:13:21Z</time>
      </trkpt>
      <trkpt lat="43.69554" lon="3.89885">
        <ele>92.1</ele>
        <time>2018-09-16T07:13:22Z</time>
      </trkpt>
      <trkpt lat="43.6956" lon="3.89894">
        <ele>91.4</ele>
        <time>2018-09-16T07:13:23Z</time>
      </trkpt>
      <trkpt lat="43.6956" lon="3.89902">
        <ele>90.9</ele>
        <time>2018-09-16T07:13:24Z</time>
      </trkpt>
      <trkpt lat="43.69559" lon="3.89915">
        <ele>90.1</ele>
        <time>2018-09-16T07:13:28Z</time>
      </trkpt>
      <trkpt lat="43.6956" lon="3.89918">
        <ele>90</ele>
        <time>2018-09-16T07:13:29Z</time>
      </trkpt>
      <trkpt lat="43.69558" lon="3.8993">
        <ele>89.6</ele>
        <time>2018-09-16T07:13:33Z</time>
      </trkpt>
      <trkpt lat="43.69565" lon="3.8993">
        <ele>89.7</ele>
        <time>2018-09-16T07:13:34Z</time>
      </trkpt>
      <trkpt lat="43.69573" lon="3.89932">
        <ele>89.8</ele>
        <time>2018-09-16T07:13:38Z</time>
      </trkpt>
      <trkpt lat="43.69576" lon="3.89933">
        <ele>89.8</ele>
        <time>2018-09-16T07:13:39Z</time>
      </trkpt>
      <trkpt lat="43.6959" lon="3.89932">
        <ele>90.2</ele>
        <time>2018-09-16T07:13:40Z</time>
      </trkpt>
      <trkpt lat="43.69587" lon="3.89939">
        <ele>90.1</ele>
        <time>2018-09-16T07:13:41Z</time>
      </trkpt>
      <trkpt lat="43.69589" lon="3.8995">
        <ele>90.6</ele>
        <time>2018-09-16T07:13:44Z</time>
      </trkpt>
      <trkpt lat="43.69589" lon="3.89952">
        <ele>90.7</ele>
        <time>2018-09-16T07:13:45Z</time>
      </trkpt>
      <trkpt lat="43.69589" lon="3.89964">
        <ele>91.5</ele>
        <time>2018-09-16T07:13:50Z</time>
      </trkpt>
      <trkpt lat="43.69589" lon="3.89967">
        <ele>91.7</ele>
        <time>2018-09-16T07:13:51Z</time>
      </trkpt>
      <trkpt lat="43.6959" lon="3.89977">
        <ele>92.4</ele>
        <time>2018-09-16T07:13:55Z</time>
      </trkpt>
      <trkpt lat="43.6959" lon="3.8998">
        <ele>92.7</ele>
        <time>2018-09-16T07:13:56Z</time>
      </trkpt>
      <trkpt lat="43.69593" lon="3.89988">
        <ele>93.3</ele>
        <time>2018-09-16T07:13:59Z</time>
      </trkpt>
      <trkpt lat="43.69594" lon="3.89994">
        <ele>93.7</ele>
        <time>2018-09-16T07:14:00Z</time>
      </trkpt>
      <trkpt lat="43.69595" lon="3.90004">
        <ele>94.3</ele>
        <time>2018-09-16T07:14:03Z</time>
      </trkpt>
      <trkpt lat="43.69595" lon="3.90009">
        <ele>94.6</ele>
        <time>2018-09-16T07:14:04Z</time>
      </trkpt>
      <trkpt lat="43.69594" lon="3.90018">
        <ele>95</ele>
        <time>2018-09-16T07:14:07Z</time>
      </trkpt>
      <trkpt lat="43.69595" lon="3.90022">
        <ele>95.1</ele>
        <time>2018-09-16T07:14:08Z</time>
      </trkpt>
      <trkpt lat="43.69597" lon="3.90032">
        <ele>95.3</ele>
        <time>2018-09-16T07:14:11Z</time>
      </trkpt>
      <trkpt lat="43.69598" lon="3.90036">
        <ele>95.3</ele>
        <time>2018-09-16T07:14:12Z</time>
      </trkpt>
      <trkpt lat="43.69601" lon="3.90046">
        <ele>95.5</ele>
        <time>2018-09-16T07:14:15Z</time>
      </trkpt>
      <trkpt lat="43.69602" lon="3.90049">
        <ele>95.6</ele>
        <time>2018-09-16T07:14:16Z</time>
      </trkpt>
      <trkpt lat="43.69605" lon="3.90058">
        <ele>95.8</ele>
        <time>2018-09-16T07:14:19Z</time>
      </trkpt>
      <trkpt lat="43.69605" lon="3.90061">
        <ele>95.9</ele>
        <time>2018-09-16T07:14:20Z</time>
      </trkpt>
      <trkpt lat="43.69607" lon="3.90071">
        <ele>96.1</ele>
        <time>2018-09-16T07:14:23Z</time>
      </trkpt>
      <trkpt lat="43.69608" lon="3.90074">
        <ele>96.1</ele>
        <time>2018-09-16T07:14:24Z</time>
      </trkpt>
      <trkpt lat="43.69609" lon="3.90083">
        <ele>96.3</ele>
        <time>2018-09-16T07:14:27Z</time>
      </trkpt>
      <trkpt lat="43.6961" lon="3.90087">
        <ele>96.4</ele>
        <time>2018-09-16T07:14:28Z</time>
      </trkpt>
      <trkpt lat="43.69612" lon="3.90097">
        <ele>97</ele>
        <time>2018-09-16T07:14:31Z</time>
      </trkpt>
      <trkpt lat="43.69613" lon="3.901">
        <ele>97.2</ele>
        <time>2018-09-16T07:14:32Z</time>
      </trkpt>
      <trkpt lat="43.69614" lon="3.90109">
        <ele>97.9</ele>
        <time>2018-09-16T07:14:35Z</time>
      </trkpt>
      <trkpt lat="43.69614" lon="3.90112">
        <ele>98.2</ele>
        <time>2018-09-16T07:14:36Z</time>
      </trkpt>
      <trkpt lat="43.69615" lon="3.90124">
        <ele>99</ele>
        <time>2018-09-16T07:14:40Z</time>
      </trkpt>
      <trkpt lat="43.69616" lon="3.90127">
        <ele>99.2</ele>
        <time>2018-09-16T07:14:41Z</time>
      </trkpt>
      <trkpt lat="43.69616" lon="3.90136">
        <ele>99.8</ele>
        <time>2018-09-16T07:14:45Z</time>
      </trkpt>
      <trkpt lat="43.69617" lon="3.9014">
        <ele>100.1</ele>
        <time>2018-09-16T07:14:46Z</time>
      </trkpt>
      <trkpt lat="43.69618" lon="3.90151">
        <ele>101.1</ele>
        <time>2018-09-16T07:14:50Z</time>
      </trkpt>
      <trkpt lat="43.69618" lon="3.90154">
        <ele>101.4</ele>
        <time>2018-09-16T07:14:51Z</time>
      </trkpt>
      <trkpt lat="43.6962" lon="3.90164">
        <ele>102.1</ele>
        <time>2018-09-16T07:14:55Z</time>
      </trkpt>
      <trkpt lat="43.6962" lon="3.90166">
        <ele>102.3</ele>
        <time>2018-09-16T07:14:56Z</time>
      </trkpt>
      <trkpt lat="43.69622" lon="3.90178">
        <ele>102.9</ele>
        <time>2018-09-16T07:15:01Z</time>
      </trkpt>
      <trkpt lat="43.69622" lon="3.9018">
        <ele>103</ele>
        <time>2018-09-16T07:15:02Z</time>
      </trkpt>
      <trkpt lat="43.69624" lon="3.90191">
        <ele>103.4</ele>
        <time>2018-09-16T07:15:06Z</time>
      </trkpt>
      <trkpt lat="43.69624" lon="3.90193">
        <ele>103.5</ele>
        <time>2018-09-16T07:15:07Z</time>
      </trkpt>
      <trkpt lat="43.69625" lon="3.90204">
        <ele>104.4</ele>
        <time>2018-09-16T07:15:11Z</time>
      </trkpt>
      <trkpt lat="43.69625" lon="3.90207">
        <ele>104.6</ele>
        <time>2018-09-16T07:15:12Z</time>
      </trkpt>
      <trkpt lat="43.69626" lon="3.90218">
        <ele>105.5</ele>
        <time>2018-09-16T07:15:16Z</time>
      </trkpt>
      <trkpt lat="43.69626" lon="3.9022">
        <ele>105.7</ele>
        <time>2018-09-16T07:15:17Z</time>
      </trkpt>
      <trkpt lat="43.69627" lon="3.90231">
        <ele>106.4</ele>
        <time>2018-09-16T07:15:22Z</time>
      </trkpt>
      <trkpt lat="43.69627" lon="3.90233">
        <ele>106.5</ele>
        <time>2018-09-16T07:15:23Z</time>
      </trkpt>
      <trkpt lat="43.69626" lon="3.90244">
        <ele>107.5</ele>
        <time>2018-09-16T07:15:29Z</time>
      </trkpt>
      <trkpt lat="43.69626" lon="3.90245">
        <ele>107.6</ele>
        <time>2018-09-16T07:15:30Z</time>
      </trkpt>
      <trkpt lat="43.69626" lon="3.90246">
        <ele>107.6</ele>
        <time>2018-09-16T07:15:31Z</time>
      </trkpt>
      <trkpt lat="43.69626" lon="3.90247">
        <ele>107.7</ele>
        <time>2018-09-16T07:15:32Z</time>
      </trkpt>
      <trkpt lat="43.69625" lon="3.90248">
        <ele>107.9</ele>
        <time>2018-09-16T07:15:33Z</time>
      </trkpt>
      <trkpt lat="43.69629" lon="3.90259">
        <ele>108.3</ele>
        <time>2018-09-16T07:15:44Z</time>
      </trkpt>
      <trkpt lat="43.69629" lon="3.90262">
        <ele>108.5</ele>
        <time>2018-09-16T07:15:45Z</time>
      </trkpt>
      <trkpt lat="43.69631" lon="3.90268">
        <ele>109.2</ele>
        <time>2018-09-16T07:15:56Z</time>
      </trkpt>
      <trkpt lat="43.69632" lon="3.90268">
        <ele>109.3</ele>
        <time>2018-09-16T07:15:57Z</time>
      </trkpt>
      <trkpt lat="43.69635" lon="3.90271">
        <ele>110.1</ele>
        <time>2018-09-16T07:16:00Z</time>
      </trkpt>
      <trkpt lat="43.69636" lon="3.90272">
        <ele>110.4</ele>
        <time>2018-09-16T07:16:01Z</time>
      </trkpt>
      <trkpt lat="43.69637" lon="3.90273">
        <ele>110.8</ele>
        <time>2018-09-16T07:16:07Z</time>
      </trkpt>
      <trkpt lat="43.69638" lon="3.90274">
        <ele>111.1</ele>
        <time>2018-09-16T07:16:08Z</time>
      </trkpt>
      <trkpt lat="43.69645" lon="3.9028">
        <ele>112.2</ele>
        <time>2018-09-16T07:16:15Z</time>
      </trkpt>
      <trkpt lat="43.69646" lon="3.90281">
        <ele>112.2</ele>
        <time>2018-09-16T07:16:16Z</time>
      </trkpt>
      <trkpt lat="43.69654" lon="3.90286">
        <ele>112.4</ele>
        <time>2018-09-16T07:16:21Z</time>
      </trkpt>
      <trkpt lat="43.69655" lon="3.90287">
        <ele>112.4</ele>
        <time>2018-09-16T07:16:22Z</time>
      </trkpt>
      <trkpt lat="43.69663" lon="3.90293">
        <ele>112.8</ele>
        <time>2018-09-16T07:16:26Z</time>
      </trkpt>
      <trkpt lat="43.69665" lon="3.90294">
        <ele>112.9</ele>
        <time>2018-09-16T07:16:27Z</time>
      </trkpt>
      <trkpt lat="43.69673" lon="3.90294">
        <ele>113.3</ele>
        <time>2018-09-16T07:16:31Z</time>
      </trkpt>
      <trkpt lat="43.69675" lon="3.90295">
        <ele>113.4</ele>
        <time>2018-09-16T07:16:32Z</time>
      </trkpt>
      <trkpt lat="43.69678" lon="3.90304">
        <ele>113.4</ele>
        <time>2018-09-16T07:16:36Z</time>
      </trkpt>
      <trkpt lat="43.69679" lon="3.90307">
        <ele>113.4</ele>
        <time>2018-09-16T07:16:37Z</time>
      </trkpt>
      <trkpt lat="43.69682" lon="3.90317">
        <ele>112.9</ele>
        <time>2018-09-16T07:16:40Z</time>
      </trkpt>
      <trkpt lat="43.69684" lon="3.9032">
        <ele>112.8</ele>
        <time>2018-09-16T07:16:41Z</time>
      </trkpt>
      <trkpt lat="43.6969" lon="3.90324">
        <ele>112.6</ele>
        <time>2018-09-16T07:16:43Z</time>
      </trkpt>
      <trkpt lat="43.69692" lon="3.90327">
        <ele>112.4</ele>
        <time>2018-09-16T07:16:44Z</time>
      </trkpt>
      <trkpt lat="43.69697" lon="3.90334">
        <ele>111.8</ele>
        <time>2018-09-16T07:16:46Z</time>
      </trkpt>
      <trkpt lat="43.69699" lon="3.90338">
        <ele>111.7</ele>
        <time>2018-09-16T07:16:47Z</time>
      </trkpt>
      <trkpt lat="43.69702" lon="3.90346">
        <ele>111.5</ele>
        <time>2018-09-16T07:16:49Z</time>
      </trkpt>
      <trkpt lat="43.69702" lon="3.90351">
        <ele>111.5</ele>
        <time>2018-09-16T07:16:50Z</time>
      </trkpt>
      <trkpt lat="43.69703" lon="3.90355">
        <ele>111.4</ele>
        <time>2018-09-16T07:16:51Z</time>
      </trkpt>
      <trkpt lat="43.69707" lon="3.90368">
        <ele>111.3</ele>
        <time>2018-09-16T07:16:52Z</time>
      </trkpt>
      <trkpt lat="43.6971" lon="3.90377">
        <ele>111.5</ele>
        <time>2018-09-16T07:16:55Z</time>
      </trkpt>
      <trkpt lat="43.69715" lon="3.90386">
        <ele>111.4</ele>
        <time>2018-09-16T07:16:56Z</time>
      </trkpt>
      <trkpt lat="43.69717" lon="3.90392">
        <ele>111.4</ele>
        <time>2018-09-16T07:16:57Z</time>
      </trkpt>
      <trkpt lat="43.69718" lon="3.90397">
        <ele>111.3</ele>
        <time>2018-09-16T07:16:58Z</time>
      </trkpt>
      <trkpt lat="43.69719" lon="3.90403">
        <ele>111.3</ele>
        <time>2018-09-16T07:16:59Z</time>
      </trkpt>
      <trkpt lat="43.69722" lon="3.90409">
        <ele>111</ele>
        <time>2018-09-16T07:17:00Z</time>
      </trkpt>
      <trkpt lat="43.69723" lon="3.90419">
        <ele>111</ele>
        <time>2018-09-16T07:17:02Z</time>
      </trkpt>
      <trkpt lat="43.69725" lon="3.90424">
        <ele>110.9</ele>
        <time>2018-09-16T07:17:03Z</time>
      </trkpt>
      <trkpt lat="43.69727" lon="3.90434">
        <ele>110.9</ele>
        <time>2018-09-16T07:17:05Z</time>
      </trkpt>
      <trkpt lat="43.69728" lon="3.90439">
        <ele>111</ele>
        <time>2018-09-16T07:17:06Z</time>
      </trkpt>
      <trkpt lat="43.6973" lon="3.90449">
        <ele>111</ele>
        <time>2018-09-16T07:17:08Z</time>
      </trkpt>
      <trkpt lat="43.69733" lon="3.90454">
        <ele>110.8</ele>
        <time>2018-09-16T07:17:09Z</time>
      </trkpt>
      <trkpt lat="43.69736" lon="3.90464">
        <ele>110.7</ele>
        <time>2018-09-16T07:17:11Z</time>
      </trkpt>
      <trkpt lat="43.69738" lon="3.90469">
        <ele>110.6</ele>
        <time>2018-09-16T07:17:12Z</time>
      </trkpt>
      <trkpt lat="43.69743" lon="3.90478">
        <ele>110</ele>
        <time>2018-09-16T07:17:15Z</time>
      </trkpt>
      <trkpt lat="43.69744" lon="3.90481">
        <ele>109.9</ele>
        <time>2018-09-16T07:17:16Z</time>
      </trkpt>
      <trkpt lat="43.69747" lon="3.90484">
        <ele>109.4</ele>
        <time>2018-09-16T07:17:17Z</time>
      </trkpt>
      <trkpt lat="43.69754" lon="3.90495">
        <ele>108.5</ele>
        <time>2018-09-16T07:17:18Z</time>
      </trkpt>
      <trkpt lat="43.69756" lon="3.90501">
        <ele>108.4</ele>
        <time>2018-09-16T07:17:19Z</time>
      </trkpt>
      <trkpt lat="43.69759" lon="3.90508">
        <ele>108.2</ele>
        <time>2018-09-16T07:17:20Z</time>
      </trkpt>
      <trkpt lat="43.69764" lon="3.90513">
        <ele>107.7</ele>
        <time>2018-09-16T07:17:21Z</time>
      </trkpt>
      <trkpt lat="43.69766" lon="3.90518">
        <ele>107.5</ele>
        <time>2018-09-16T07:17:22Z</time>
      </trkpt>
      <trkpt lat="43.69769" lon="3.90524">
        <ele>107.2</ele>
        <time>2018-09-16T07:17:23Z</time>
      </trkpt>
      <trkpt lat="43.69775" lon="3.90526">
        <ele>106.4</ele>
        <time>2018-09-16T07:17:24Z</time>
      </trkpt>
      <trkpt lat="43.69779" lon="3.90531">
        <ele>106</ele>
        <time>2018-09-16T07:17:25Z</time>
      </trkpt>
      <trkpt lat="43.69786" lon="3.90535">
        <ele>105.4</ele>
        <time>2018-09-16T07:17:26Z</time>
      </trkpt>
      <trkpt lat="43.6979" lon="3.90537">
        <ele>105</ele>
        <time>2018-09-16T07:17:27Z</time>
      </trkpt>
      <trkpt lat="43.69793" lon="3.90545">
        <ele>105</ele>
        <time>2018-09-16T07:17:28Z</time>
      </trkpt>
      <trkpt lat="43.69796" lon="3.9055">
        <ele>104.8</ele>
        <time>2018-09-16T07:17:29Z</time>
      </trkpt>
      <trkpt lat="43.69802" lon="3.90558">
        <ele>104.4</ele>
        <time>2018-09-16T07:17:30Z</time>
      </trkpt>
      <trkpt lat="43.69804" lon="3.90565">
        <ele>104.2</ele>
        <time>2018-09-16T07:17:31Z</time>
      </trkpt>
      <trkpt lat="43.69806" lon="3.90572">
        <ele>104</ele>
        <time>2018-09-16T07:17:32Z</time>
      </trkpt>
      <trkpt lat="43.69808" lon="3.90581">
        <ele>103.7</ele>
        <time>2018-09-16T07:17:33Z</time>
      </trkpt>
      <trkpt lat="43.69811" lon="3.90589">
        <ele>103.5</ele>
        <time>2018-09-16T07:17:34Z</time>
      </trkpt>
      <trkpt lat="43.69813" lon="3.90598">
        <ele>103.3</ele>
        <time>2018-09-16T07:17:35Z</time>
      </trkpt>
      <trkpt lat="43.69813" lon="3.90604">
        <ele>103.4</ele>
        <time>2018-09-16T07:17:36Z</time>
      </trkpt>
      <trkpt lat="43.69815" lon="3.90611">
        <ele>103.3</ele>
        <time>2018-09-16T07:17:37Z</time>
      </trkpt>
      <trkpt lat="43.69817" lon="3.90618">
        <ele>103.6</ele>
        <time>2018-09-16T07:17:38Z</time>
      </trkpt>
      <trkpt lat="43.69821" lon="3.90627">
        <ele>103.7</ele>
        <time>2018-09-16T07:17:41Z</time>
      </trkpt>
      <trkpt lat="43.69821" lon="3.9063">
        <ele>103.9</ele>
        <time>2018-09-16T07:17:42Z</time>
      </trkpt>
      <trkpt lat="43.69824" lon="3.9064">
        <ele>104</ele>
        <time>2018-09-16T07:17:48Z</time>
      </trkpt>
      <trkpt lat="43.69825" lon="3.90642">
        <ele>103.9</ele>
        <time>2018-09-16T07:17:49Z</time>
      </trkpt>
      <trkpt lat="43.6983" lon="3.9065">
        <ele>103.4</ele>
        <time>2018-09-16T07:17:52Z</time>
      </trkpt>
      <trkpt lat="43.69832" lon="3.90652">
        <ele>103.1</ele>
        <time>2018-09-16T07:17:53Z</time>
      </trkpt>
      <trkpt lat="43.69837" lon="3.90662">
        <ele>102.7</ele>
        <time>2018-09-16T07:17:57Z</time>
      </trkpt>
      <trkpt lat="43.69838" lon="3.90664">
        <ele>102.7</ele>
        <time>2018-09-16T07:17:58Z</time>
      </trkpt>
      <trkpt lat="43.69843" lon="3.9067">
        <ele>102.4</ele>
        <time>2018-09-16T07:18:01Z</time>
      </trkpt>
      <trkpt lat="43.69845" lon="3.90673">
        <ele>102.3</ele>
        <time>2018-09-16T07:18:02Z</time>
      </trkpt>
      <trkpt lat="43.69849" lon="3.90681">
        <ele>102.1</ele>
        <time>2018-09-16T07:18:05Z</time>
      </trkpt>
      <trkpt lat="43.69851" lon="3.90684">
        <ele>102</ele>
        <time>2018-09-16T07:18:06Z</time>
      </trkpt>
      <trkpt lat="43.69854" lon="3.90693">
        <ele>101.8</ele>
        <time>2018-09-16T07:18:09Z</time>
      </trkpt>
      <trkpt lat="43.69856" lon="3.90695">
        <ele>101.6</ele>
        <time>2018-09-16T07:18:10Z</time>
      </trkpt>
      <trkpt lat="43.6986" lon="3.90702">
        <ele>101.6</ele>
        <time>2018-09-16T07:18:12Z</time>
      </trkpt>
      <trkpt lat="43.69863" lon="3.90705">
        <ele>101.6</ele>
        <time>2018-09-16T07:18:13Z</time>
      </trkpt>
      <trkpt lat="43.69869" lon="3.90712">
        <ele>101.4</ele>
        <time>2018-09-16T07:18:15Z</time>
      </trkpt>
      <trkpt lat="43.69872" lon="3.90716">
        <ele>101.4</ele>
        <time>2018-09-16T07:18:16Z</time>
      </trkpt>
      <trkpt lat="43.69882" lon="3.90729">
        <ele>100.7</ele>
        <time>2018-09-16T07:18:17Z</time>
      </trkpt>
      <trkpt lat="43.69888" lon="3.90737">
        <ele>100.1</ele>
        <time>2018-09-16T07:18:19Z</time>
      </trkpt>
      <trkpt lat="43.6989" lon="3.90738">
        <ele>99.9</ele>
        <time>2018-09-16T07:18:20Z</time>
      </trkpt>
      <trkpt lat="43.69892" lon="3.90738">
        <ele>99.7</ele>
        <time>2018-09-16T07:18:21Z</time>
      </trkpt>
      <trkpt lat="43.69899" lon="3.9074">
        <ele>99.1</ele>
        <time>2018-09-16T07:18:22Z</time>
      </trkpt>
      <trkpt lat="43.69904" lon="3.90742">
        <ele>98.8</ele>
        <time>2018-09-16T07:18:23Z</time>
      </trkpt>
      <trkpt lat="43.69907" lon="3.90747">
        <ele>98.6</ele>
        <time>2018-09-16T07:18:24Z</time>
      </trkpt>
      <trkpt lat="43.69911" lon="3.90752">
        <ele>98.4</ele>
        <time>2018-09-16T07:18:25Z</time>
      </trkpt>
      <trkpt lat="43.69914" lon="3.90756">
        <ele>98.2</ele>
        <time>2018-09-16T07:18:26Z</time>
      </trkpt>
      <trkpt lat="43.69918" lon="3.90762">
        <ele>97.9</ele>
        <time>2018-09-16T07:18:27Z</time>
      </trkpt>
      <trkpt lat="43.69922" lon="3.90768">
        <ele>97.5</ele>
        <time>2018-09-16T07:18:28Z</time>
      </trkpt>
      <trkpt lat="43.69926" lon="3.90772">
        <ele>97.3</ele>
        <time>2018-09-16T07:18:29Z</time>
      </trkpt>
      <trkpt lat="43.69929" lon="3.90778">
        <ele>97.1</ele>
        <time>2018-09-16T07:18:30Z</time>
      </trkpt>
      <trkpt lat="43.69932" lon="3.90783">
        <ele>97.1</ele>
        <time>2018-09-16T07:18:31Z</time>
      </trkpt>
      <trkpt lat="43.69936" lon="3.90788">
        <ele>97</ele>
        <time>2018-09-16T07:18:32Z</time>
      </trkpt>
      <trkpt lat="43.69941" lon="3.90795">
        <ele>96.9</ele>
        <time>2018-09-16T07:18:33Z</time>
      </trkpt>
      <trkpt lat="43.69947" lon="3.90801">
        <ele>96.7</ele>
        <time>2018-09-16T07:18:34Z</time>
      </trkpt>
      <trkpt lat="43.6995" lon="3.90811">
        <ele>96.6</ele>
        <time>2018-09-16T07:18:36Z</time>
      </trkpt>
      <trkpt lat="43.69952" lon="3.90814">
        <ele>96.5</ele>
        <time>2018-09-16T07:18:37Z</time>
      </trkpt>
      <trkpt lat="43.69955" lon="3.90819">
        <ele>96.2</ele>
        <time>2018-09-16T07:18:38Z</time>
      </trkpt>
      <trkpt lat="43.6996" lon="3.90824">
        <ele>95.9</ele>
        <time>2018-09-16T07:18:39Z</time>
      </trkpt>
      <trkpt lat="43.69964" lon="3.90826">
        <ele>95.6</ele>
        <time>2018-09-16T07:18:40Z</time>
      </trkpt>
      <trkpt lat="43.69969" lon="3.9083">
        <ele>95.2</ele>
        <time>2018-09-16T07:18:41Z</time>
      </trkpt>
      <trkpt lat="43.69975" lon="3.90836">
        <ele>95</ele>
        <time>2018-09-16T07:18:42Z</time>
      </trkpt>
      <trkpt lat="43.69979" lon="3.9084">
        <ele>94.9</ele>
        <time>2018-09-16T07:18:43Z</time>
      </trkpt>
      <trkpt lat="43.69986" lon="3.90846">
        <ele>94.7</ele>
        <time>2018-09-16T07:18:45Z</time>
      </trkpt>
      <trkpt lat="43.69992" lon="3.90849">
        <ele>94.5</ele>
        <time>2018-09-16T07:18:46Z</time>
      </trkpt>
      <trkpt lat="43.69996" lon="3.90854">
        <ele>94.3</ele>
        <time>2018-09-16T07:18:47Z</time>
      </trkpt>
      <trkpt lat="43.70001" lon="3.90858">
        <ele>93.9</ele>
        <time>2018-09-16T07:18:48Z</time>
      </trkpt>
      <trkpt lat="43.70005" lon="3.90863">
        <ele>93.7</ele>
        <time>2018-09-16T07:18:49Z</time>
      </trkpt>
      <trkpt lat="43.7001" lon="3.90866">
        <ele>93.5</ele>
        <time>2018-09-16T07:18:50Z</time>
      </trkpt>
      <trkpt lat="43.70014" lon="3.90871">
        <ele>93.3</ele>
        <time>2018-09-16T07:18:51Z</time>
      </trkpt>
      <trkpt lat="43.70019" lon="3.90875">
        <ele>93.1</ele>
        <time>2018-09-16T07:18:52Z</time>
      </trkpt>
      <trkpt lat="43.70022" lon="3.90879">
        <ele>93.1</ele>
        <time>2018-09-16T07:18:53Z</time>
      </trkpt>
      <trkpt lat="43.70027" lon="3.90885">
        <ele>92.9</ele>
        <time>2018-09-16T07:18:54Z</time>
      </trkpt>
      <trkpt lat="43.70031" lon="3.90894">
        <ele>92.8</ele>
        <time>2018-09-16T07:18:55Z</time>
      </trkpt>
      <trkpt lat="43.70037" lon="3.90896">
        <ele>92.4</ele>
        <time>2018-09-16T07:18:56Z</time>
      </trkpt>
      <trkpt lat="43.70043" lon="3.90895">
        <ele>92</ele>
        <time>2018-09-16T07:18:57Z</time>
      </trkpt>
      <trkpt lat="43.70049" lon="3.90896">
        <ele>91.7</ele>
        <time>2018-09-16T07:18:58Z</time>
      </trkpt>
      <trkpt lat="43.70055" lon="3.90896">
        <ele>91.3</ele>
        <time>2018-09-16T07:18:59Z</time>
      </trkpt>
      <trkpt lat="43.70061" lon="3.90892">
        <ele>90.9</ele>
        <time>2018-09-16T07:19:00Z</time>
      </trkpt>
      <trkpt lat="43.70066" lon="3.90889">
        <ele>90.6</ele>
        <time>2018-09-16T07:19:02Z</time>
      </trkpt>
      <trkpt lat="43.70072" lon="3.90886">
        <ele>90.4</ele>
        <time>2018-09-16T07:19:03Z</time>
      </trkpt>
      <trkpt lat="43.70077" lon="3.90883">
        <ele>90</ele>
        <time>2018-09-16T07:19:04Z</time>
      </trkpt>
      <trkpt lat="43.70084" lon="3.90885">
        <ele>89.7</ele>
        <time>2018-09-16T07:19:05Z</time>
      </trkpt>
      <trkpt lat="43.70091" lon="3.90888">
        <ele>88.6</ele>
        <time>2018-09-16T07:19:07Z</time>
      </trkpt>
      <trkpt lat="43.70095" lon="3.90892">
        <ele>87.9</ele>
        <time>2018-09-16T07:19:08Z</time>
      </trkpt>
      <trkpt lat="43.70102" lon="3.90895">
        <ele>86.6</ele>
        <time>2018-09-16T07:19:12Z</time>
      </trkpt>
      <trkpt lat="43.70109" lon="3.90899">
        <ele>85.1</ele>
        <time>2018-09-16T07:19:13Z</time>
      </trkpt>
      <trkpt lat="43.70113" lon="3.90909">
        <ele>84.5</ele>
        <time>2018-09-16T07:19:18Z</time>
      </trkpt>
      <trkpt lat="43.70113" lon="3.9091">
        <ele>84.4</ele>
        <time>2018-09-16T07:19:19Z</time>
      </trkpt>
      <trkpt lat="43.70122" lon="3.90913">
        <ele>85.3</ele>
        <time>2018-09-16T07:19:28Z</time>
      </trkpt>
      <trkpt lat="43.70124" lon="3.90914">
        <ele>85.5</ele>
        <time>2018-09-16T07:19:29Z</time>
      </trkpt>
      <trkpt lat="43.7013" lon="3.90921">
        <ele>85.9</ele>
        <time>2018-09-16T07:19:32Z</time>
      </trkpt>
      <trkpt lat="43.70132" lon="3.90922">
        <ele>86.1</ele>
        <time>2018-09-16T07:19:33Z</time>
      </trkpt>
      <trkpt lat="43.7014" lon="3.90926">
        <ele>86.4</ele>
        <time>2018-09-16T07:19:38Z</time>
      </trkpt>
      <trkpt lat="43.70142" lon="3.90928">
        <ele>86.3</ele>
        <time>2018-09-16T07:19:39Z</time>
      </trkpt>
      <trkpt lat="43.70147" lon="3.90938">
        <ele>86</ele>
        <time>2018-09-16T07:19:42Z</time>
      </trkpt>
      <trkpt lat="43.70148" lon="3.90941">
        <ele>85.9</ele>
        <time>2018-09-16T07:19:43Z</time>
      </trkpt>
      <trkpt lat="43.70149" lon="3.90945">
        <ele>85.7</ele>
        <time>2018-09-16T07:19:44Z</time>
      </trkpt>
      <trkpt lat="43.70154" lon="3.90957">
        <ele>85.4</ele>
        <time>2018-09-16T07:19:45Z</time>
      </trkpt>
      <trkpt lat="43.70156" lon="3.90972">
        <ele>84.9</ele>
        <time>2018-09-16T07:19:47Z</time>
      </trkpt>
      <trkpt lat="43.7016" lon="3.90977">
        <ele>85.2</ele>
        <time>2018-09-16T07:19:48Z</time>
      </trkpt>
      <trkpt lat="43.70164" lon="3.90984">
        <ele>85.7</ele>
        <time>2018-09-16T07:19:51Z</time>
      </trkpt>
      <trkpt lat="43.70165" lon="3.90986">
        <ele>85.8</ele>
        <time>2018-09-16T07:19:52Z</time>
      </trkpt>
      <trkpt lat="43.7017" lon="3.90996">
        <ele>86.5</ele>
        <time>2018-09-16T07:19:56Z</time>
      </trkpt>
      <trkpt lat="43.70171" lon="3.90999">
        <ele>86.6</ele>
        <time>2018-09-16T07:19:57Z</time>
      </trkpt>
      <trkpt lat="43.70176" lon="3.91006">
        <ele>87.7</ele>
        <time>2018-09-16T07:20:00Z</time>
      </trkpt>
      <trkpt lat="43.70177" lon="3.91009">
        <ele>88</ele>
        <time>2018-09-16T07:20:01Z</time>
      </trkpt>
      <trkpt lat="43.70182" lon="3.91018">
        <ele>89.1</ele>
        <time>2018-09-16T07:20:05Z</time>
      </trkpt>
      <trkpt lat="43.70183" lon="3.9102">
        <ele>89.4</ele>
        <time>2018-09-16T07:20:06Z</time>
      </trkpt>
      <trkpt lat="43.70186" lon="3.91029">
        <ele>90.1</ele>
        <time>2018-09-16T07:20:10Z</time>
      </trkpt>
      <trkpt lat="43.70188" lon="3.91032">
        <ele>90.2</ele>
        <time>2018-09-16T07:20:11Z</time>
      </trkpt>
      <trkpt lat="43.70193" lon="3.9104">
        <ele>90.8</ele>
        <time>2018-09-16T07:20:16Z</time>
      </trkpt>
      <trkpt lat="43.70193" lon="3.91043">
        <ele>90.8</ele>
        <time>2018-09-16T07:20:17Z</time>
      </trkpt>
      <trkpt lat="43.70195" lon="3.91053">
        <ele>91.1</ele>
        <time>2018-09-16T07:20:20Z</time>
      </trkpt>
      <trkpt lat="43.70196" lon="3.91056">
        <ele>91.2</ele>
        <time>2018-09-16T07:20:21Z</time>
      </trkpt>
      <trkpt lat="43.70199" lon="3.91066">
        <ele>91.5</ele>
        <time>2018-09-16T07:20:24Z</time>
      </trkpt>
      <trkpt lat="43.702" lon="3.9107">
        <ele>91.6</ele>
        <time>2018-09-16T07:20:25Z</time>
      </trkpt>
      <trkpt lat="43.70204" lon="3.9108">
        <ele>92</ele>
        <time>2018-09-16T07:20:28Z</time>
      </trkpt>
      <trkpt lat="43.70205" lon="3.91083">
        <ele>92.1</ele>
        <time>2018-09-16T07:20:29Z</time>
      </trkpt>
      <trkpt lat="43.70209" lon="3.91091">
        <ele>92.3</ele>
        <time>2018-09-16T07:20:32Z</time>
      </trkpt>
      <trkpt lat="43.7021" lon="3.91093">
        <ele>92.4</ele>
        <time>2018-09-16T07:20:33Z</time>
      </trkpt>
      <trkpt lat="43.70217" lon="3.911">
        <ele>93.2</ele>
        <time>2018-09-16T07:20:38Z</time>
      </trkpt>
      <trkpt lat="43.70219" lon="3.91101">
        <ele>93.5</ele>
        <time>2018-09-16T07:20:39Z</time>
      </trkpt>
      <trkpt lat="43.70225" lon="3.91108">
        <ele>94.4</ele>
        <time>2018-09-16T07:20:43Z</time>
      </trkpt>
      <trkpt lat="43.70226" lon="3.9111">
        <ele>94.5</ele>
        <time>2018-09-16T07:20:44Z</time>
      </trkpt>
      <trkpt lat="43.70232" lon="3.91119">
        <ele>95.4</ele>
        <time>2018-09-16T07:20:50Z</time>
      </trkpt>
      <trkpt lat="43.70233" lon="3.9112">
        <ele>95.6</ele>
        <time>2018-09-16T07:20:51Z</time>
      </trkpt>
      <trkpt lat="43.70241" lon="3.91127">
        <ele>96.7</ele>
        <time>2018-09-16T07:20:57Z</time>
      </trkpt>
      <trkpt lat="43.70242" lon="3.91127">
        <ele>96.8</ele>
        <time>2018-09-16T07:20:58Z</time>
      </trkpt>
      <trkpt lat="43.70247" lon="3.91133">
        <ele>97.6</ele>
        <time>2018-09-16T07:21:02Z</time>
      </trkpt>
      <trkpt lat="43.70249" lon="3.91135">
        <ele>97.9</ele>
        <time>2018-09-16T07:21:03Z</time>
      </trkpt>
      <trkpt lat="43.70254" lon="3.91142">
        <ele>98.5</ele>
        <time>2018-09-16T07:21:06Z</time>
      </trkpt>
      <trkpt lat="43.70256" lon="3.91144">
        <ele>98.8</ele>
        <time>2018-09-16T07:21:07Z</time>
      </trkpt>
      <trkpt lat="43.70262" lon="3.91151">
        <ele>99.5</ele>
        <time>2018-09-16T07:21:11Z</time>
      </trkpt>
      <trkpt lat="43.70263" lon="3.91152">
        <ele>99.7</ele>
        <time>2018-09-16T07:21:12Z</time>
      </trkpt>
      <trkpt lat="43.7027" lon="3.9116">
        <ele>100.4</ele>
        <time>2018-09-16T07:21:16Z</time>
      </trkpt>
      <trkpt lat="43.70271" lon="3.91161">
        <ele>100.5</ele>
        <time>2018-09-16T07:21:17Z</time>
      </trkpt>
      <trkpt lat="43.70276" lon="3.91168">
        <ele>100.9</ele>
        <time>2018-09-16T07:21:21Z</time>
      </trkpt>
      <trkpt lat="43.70277" lon="3.9117">
        <ele>100.9</ele>
        <time>2018-09-16T07:21:22Z</time>
      </trkpt>
      <trkpt lat="43.70285" lon="3.91175">
        <ele>101.5</ele>
        <time>2018-09-16T07:21:27Z</time>
      </trkpt>
      <trkpt lat="43.70287" lon="3.91176">
        <ele>101.7</ele>
        <time>2018-09-16T07:21:28Z</time>
      </trkpt>
      <trkpt lat="43.70294" lon="3.91181">
        <ele>102.2</ele>
        <time>2018-09-16T07:21:32Z</time>
      </trkpt>
      <trkpt lat="43.70296" lon="3.91182">
        <ele>102.3</ele>
        <time>2018-09-16T07:21:33Z</time>
      </trkpt>
      <trkpt lat="43.70304" lon="3.91187">
        <ele>102.9</ele>
        <time>2018-09-16T07:21:38Z</time>
      </trkpt>
      <trkpt lat="43.70306" lon="3.91189">
        <ele>103</ele>
        <time>2018-09-16T07:21:39Z</time>
      </trkpt>
      <trkpt lat="43.70313" lon="3.91194">
        <ele>103.3</ele>
        <time>2018-09-16T07:21:42Z</time>
      </trkpt>
      <trkpt lat="43.70315" lon="3.91197">
        <ele>103.2</ele>
        <time>2018-09-16T07:21:43Z</time>
      </trkpt>
      <trkpt lat="43.70322" lon="3.91203">
        <ele>103</ele>
        <time>2018-09-16T07:21:46Z</time>
      </trkpt>
      <trkpt lat="43.70324" lon="3.91205">
        <ele>102.9</ele>
        <time>2018-09-16T07:21:47Z</time>
      </trkpt>
      <trkpt lat="43.70333" lon="3.91209">
        <ele>102.9</ele>
        <time>2018-09-16T07:21:50Z</time>
      </trkpt>
      <trkpt lat="43.70336" lon="3.9121">
        <ele>102.8</ele>
        <time>2018-09-16T07:21:51Z</time>
      </trkpt>
      <trkpt lat="43.70344" lon="3.91213">
        <ele>102.3</ele>
        <time>2018-09-16T07:21:54Z</time>
      </trkpt>
      <trkpt lat="43.70347" lon="3.91214">
        <ele>102.1</ele>
        <time>2018-09-16T07:21:55Z</time>
      </trkpt>
      <trkpt lat="43.70353" lon="3.91215">
        <ele>101.8</ele>
        <time>2018-09-16T07:21:57Z</time>
      </trkpt>
      <trkpt lat="43.70356" lon="3.91214">
        <ele>101.8</ele>
        <time>2018-09-16T07:21:58Z</time>
      </trkpt>
      <trkpt lat="43.70363" lon="3.91214">
        <ele>101.5</ele>
        <time>2018-09-16T07:22:00Z</time>
      </trkpt>
      <trkpt lat="43.70367" lon="3.91213">
        <ele>101.3</ele>
        <time>2018-09-16T07:22:01Z</time>
      </trkpt>
      <trkpt lat="43.70379" lon="3.9121">
        <ele>100.7</ele>
        <time>2018-09-16T07:22:02Z</time>
      </trkpt>
      <trkpt lat="43.70383" lon="3.91209">
        <ele>100.4</ele>
        <time>2018-09-16T07:22:03Z</time>
      </trkpt>
      <trkpt lat="43.70389" lon="3.9121">
        <ele>100</ele>
        <time>2018-09-16T07:22:04Z</time>
      </trkpt>
      <trkpt lat="43.70395" lon="3.91213">
        <ele>99.6</ele>
        <time>2018-09-16T07:22:06Z</time>
      </trkpt>
      <trkpt lat="43.70399" lon="3.91215">
        <ele>99.3</ele>
        <time>2018-09-16T07:22:07Z</time>
      </trkpt>
      <trkpt lat="43.70403" lon="3.91217">
        <ele>99</ele>
        <time>2018-09-16T07:22:08Z</time>
      </trkpt>
      <trkpt lat="43.70412" lon="3.91218">
        <ele>98.3</ele>
        <time>2018-09-16T07:22:09Z</time>
      </trkpt>
      <trkpt lat="43.7042" lon="3.91223">
        <ele>97.6</ele>
        <time>2018-09-16T07:22:10Z</time>
      </trkpt>
      <trkpt lat="43.70424" lon="3.91225">
        <ele>97.1</ele>
        <time>2018-09-16T07:22:11Z</time>
      </trkpt>
      <trkpt lat="43.7043" lon="3.91227">
        <ele>96.5</ele>
        <time>2018-09-16T07:22:12Z</time>
      </trkpt>
      <trkpt lat="43.70433" lon="3.91228">
        <ele>96.2</ele>
        <time>2018-09-16T07:22:13Z</time>
      </trkpt>
      <trkpt lat="43.7044" lon="3.9123">
        <ele>95.4</ele>
        <time>2018-09-16T07:22:15Z</time>
      </trkpt>
      <trkpt lat="43.70448" lon="3.91238">
        <ele>94.9</ele>
        <time>2018-09-16T07:22:16Z</time>
      </trkpt>
      <trkpt lat="43.70454" lon="3.91243">
        <ele>94.7</ele>
        <time>2018-09-16T07:22:17Z</time>
      </trkpt>
      <trkpt lat="43.7046" lon="3.9125">
        <ele>94.4</ele>
        <time>2018-09-16T07:22:18Z</time>
      </trkpt>
      <trkpt lat="43.70464" lon="3.91256">
        <ele>94.1</ele>
        <time>2018-09-16T07:22:19Z</time>
      </trkpt>
      <trkpt lat="43.70467" lon="3.91262">
        <ele>93.8</ele>
        <time>2018-09-16T07:22:20Z</time>
      </trkpt>
      <trkpt lat="43.70471" lon="3.91266">
        <ele>93.5</ele>
        <time>2018-09-16T07:22:21Z</time>
      </trkpt>
      <trkpt lat="43.70476" lon="3.91269">
        <ele>93.1</ele>
        <time>2018-09-16T07:22:22Z</time>
      </trkpt>
      <trkpt lat="43.70481" lon="3.91272">
        <ele>92.8</ele>
        <time>2018-09-16T07:22:23Z</time>
      </trkpt>
      <trkpt lat="43.70487" lon="3.91273">
        <ele>92.5</ele>
        <time>2018-09-16T07:22:24Z</time>
      </trkpt>
      <trkpt lat="43.70493" lon="3.91276">
        <ele>92.3</ele>
        <time>2018-09-16T07:22:25Z</time>
      </trkpt>
      <trkpt lat="43.70497" lon="3.91279">
        <ele>92.1</ele>
        <time>2018-09-16T07:22:26Z</time>
      </trkpt>
      <trkpt lat="43.705" lon="3.9128">
        <ele>92</ele>
        <time>2018-09-16T07:22:27Z</time>
      </trkpt>
      <trkpt lat="43.70505" lon="3.91283">
        <ele>91.8</ele>
        <time>2018-09-16T07:22:28Z</time>
      </trkpt>
      <trkpt lat="43.70511" lon="3.91286">
        <ele>91.6</ele>
        <time>2018-09-16T07:22:29Z</time>
      </trkpt>
      <trkpt lat="43.70515" lon="3.91289">
        <ele>91.5</ele>
        <time>2018-09-16T07:22:30Z</time>
      </trkpt>
      <trkpt lat="43.7052" lon="3.91292">
        <ele>91.3</ele>
        <time>2018-09-16T07:22:31Z</time>
      </trkpt>
      <trkpt lat="43.70524" lon="3.91293">
        <ele>91.1</ele>
        <time>2018-09-16T07:22:32Z</time>
      </trkpt>
      <trkpt lat="43.70532" lon="3.91298">
        <ele>90.8</ele>
        <time>2018-09-16T07:22:33Z</time>
      </trkpt>
      <trkpt lat="43.70535" lon="3.913">
        <ele>90.7</ele>
        <time>2018-09-16T07:22:34Z</time>
      </trkpt>
      <trkpt lat="43.70538" lon="3.91302">
        <ele>90.6</ele>
        <time>2018-09-16T07:22:35Z</time>
      </trkpt>
      <trkpt lat="43.70545" lon="3.91306">
        <ele>90.4</ele>
        <time>2018-09-16T07:22:36Z</time>
      </trkpt>
      <trkpt lat="43.7055" lon="3.91313">
        <ele>90.2</ele>
        <time>2018-09-16T07:22:37Z</time>
      </trkpt>
      <trkpt lat="43.70552" lon="3.91318">
        <ele>90.1</ele>
        <time>2018-09-16T07:22:38Z</time>
      </trkpt>
      <trkpt lat="43.70556" lon="3.91322">
        <ele>90</ele>
        <time>2018-09-16T07:22:39Z</time>
      </trkpt>
      <trkpt lat="43.70559" lon="3.91328">
        <ele>89.9</ele>
        <time>2018-09-16T07:22:40Z</time>
      </trkpt>
      <trkpt lat="43.70564" lon="3.91332">
        <ele>89.7</ele>
        <time>2018-09-16T07:22:41Z</time>
      </trkpt>
      <trkpt lat="43.70568" lon="3.91335">
        <ele>89.5</ele>
        <time>2018-09-16T07:22:42Z</time>
      </trkpt>
      <trkpt lat="43.70573" lon="3.91338">
        <ele>89.3</ele>
        <time>2018-09-16T07:22:43Z</time>
      </trkpt>
      <trkpt lat="43.70578" lon="3.91341">
        <ele>89</ele>
        <time>2018-09-16T07:22:44Z</time>
      </trkpt>
      <trkpt lat="43.70582" lon="3.91345">
        <ele>88.6</ele>
        <time>2018-09-16T07:22:45Z</time>
      </trkpt>
      <trkpt lat="43.70587" lon="3.91348">
        <ele>88.2</ele>
        <time>2018-09-16T07:22:46Z</time>
      </trkpt>
      <trkpt lat="43.70591" lon="3.91352">
        <ele>87.8</ele>
        <time>2018-09-16T07:22:47Z</time>
      </trkpt>
      <trkpt lat="43.70595" lon="3.91354">
        <ele>87.4</ele>
        <time>2018-09-16T07:22:48Z</time>
      </trkpt>
      <trkpt lat="43.70602" lon="3.9136">
        <ele>86.7</ele>
        <time>2018-09-16T07:22:51Z</time>
      </trkpt>
      <trkpt lat="43.70612" lon="3.91364">
        <ele>85.6</ele>
        <time>2018-09-16T07:22:52Z</time>
      </trkpt>
      <trkpt lat="43.70622" lon="3.91374">
        <ele>83.2</ele>
        <time>2018-09-16T07:22:54Z</time>
      </trkpt>
      <trkpt lat="43.70632" lon="3.91387">
        <ele>80.9</ele>
        <time>2018-09-16T07:22:55Z</time>
      </trkpt>
      <trkpt lat="43.70642" lon="3.91393">
        <ele>79.7</ele>
        <time>2018-09-16T07:22:58Z</time>
      </trkpt>
      <trkpt lat="43.70617" lon="3.91399">
        <ele>81.1</ele>
        <time>2018-09-16T07:22:59Z</time>
      </trkpt>
      <trkpt lat="43.70611" lon="3.91403">
        <ele>81</ele>
        <time>2018-09-16T07:23:03Z</time>
      </trkpt>
      <trkpt lat="43.70608" lon="3.91405">
        <ele>81</ele>
        <time>2018-09-16T07:23:04Z</time>
      </trkpt>
      <trkpt lat="43.70599" lon="3.91411">
        <ele>80.8</ele>
        <time>2018-09-16T07:23:05Z</time>
      </trkpt>
      <trkpt lat="43.70594" lon="3.91414">
        <ele>80.7</ele>
        <time>2018-09-16T07:23:06Z</time>
      </trkpt>
      <trkpt lat="43.70587" lon="3.91419">
        <ele>80.4</ele>
        <time>2018-09-16T07:23:07Z</time>
      </trkpt>
      <trkpt lat="43.70581" lon="3.91422">
        <ele>80.2</ele>
        <time>2018-09-16T07:23:08Z</time>
      </trkpt>
      <trkpt lat="43.70576" lon="3.91425">
        <ele>79.6</ele>
        <time>2018-09-16T07:23:09Z</time>
      </trkpt>
      <trkpt lat="43.7057" lon="3.91423">
        <ele>79.7</ele>
        <time>2018-09-16T07:23:10Z</time>
      </trkpt>
      <trkpt lat="43.70564" lon="3.91419">
        <ele>80</ele>
        <time>2018-09-16T07:23:11Z</time>
      </trkpt>
      <trkpt lat="43.70558" lon="3.91416">
        <ele>80.3</ele>
        <time>2018-09-16T07:23:12Z</time>
      </trkpt>
      <trkpt lat="43.70552" lon="3.91414">
        <ele>80.6</ele>
        <time>2018-09-16T07:23:13Z</time>
      </trkpt>
      <trkpt lat="43.70547" lon="3.91411">
        <ele>81.1</ele>
        <time>2018-09-16T07:23:14Z</time>
      </trkpt>
      <trkpt lat="43.70541" lon="3.91409">
        <ele>81.3</ele>
        <time>2018-09-16T07:23:15Z</time>
      </trkpt>
      <trkpt lat="43.70536" lon="3.91408">
        <ele>81.1</ele>
        <time>2018-09-16T07:23:16Z</time>
      </trkpt>
      <trkpt lat="43.7053" lon="3.91407">
        <ele>80.9</ele>
        <time>2018-09-16T07:23:17Z</time>
      </trkpt>
      <trkpt lat="43.70524" lon="3.91405">
        <ele>80.8</ele>
        <time>2018-09-16T07:23:18Z</time>
      </trkpt>
      <trkpt lat="43.70519" lon="3.91403">
        <ele>80.8</ele>
        <time>2018-09-16T07:23:19Z</time>
      </trkpt>
      <trkpt lat="43.70511" lon="3.91399">
        <ele>80.8</ele>
        <time>2018-09-16T07:23:21Z</time>
      </trkpt>
      <trkpt lat="43.70505" lon="3.91397">
        <ele>80.6</ele>
        <time>2018-09-16T07:23:22Z</time>
      </trkpt>
      <trkpt lat="43.70501" lon="3.91395">
        <ele>80.4</ele>
        <time>2018-09-16T07:23:23Z</time>
      </trkpt>
      <trkpt lat="43.70495" lon="3.91392">
        <ele>80.5</ele>
        <time>2018-09-16T07:23:24Z</time>
      </trkpt>
      <trkpt lat="43.70491" lon="3.91388">
        <ele>80.9</ele>
        <time>2018-09-16T07:23:25Z</time>
      </trkpt>
      <trkpt lat="43.70486" lon="3.91384">
        <ele>81.7</ele>
        <time>2018-09-16T07:23:26Z</time>
      </trkpt>
      <trkpt lat="43.70481" lon="3.91377">
        <ele>83.2</ele>
        <time>2018-09-16T07:23:28Z</time>
      </trkpt>
      <trkpt lat="43.70479" lon="3.91375">
        <ele>83.5</ele>
        <time>2018-09-16T07:23:29Z</time>
      </trkpt>
      <trkpt lat="43.70473" lon="3.91373">
        <ele>83.5</ele>
        <time>2018-09-16T07:23:32Z</time>
      </trkpt>
      <trkpt lat="43.70469" lon="3.91372">
        <ele>83.3</ele>
        <time>2018-09-16T07:23:33Z</time>
      </trkpt>
      <trkpt lat="43.70466" lon="3.91371">
        <ele>83.3</ele>
        <time>2018-09-16T07:23:34Z</time>
      </trkpt>
      <trkpt lat="43.70457" lon="3.91365">
        <ele>83.6</ele>
        <time>2018-09-16T07:23:35Z</time>
      </trkpt>
      <trkpt lat="43.70451" lon="3.91359">
        <ele>84.2</ele>
        <time>2018-09-16T07:23:39Z</time>
      </trkpt>
      <trkpt lat="43.70448" lon="3.91359">
        <ele>83.9</ele>
        <time>2018-09-16T07:23:40Z</time>
      </trkpt>
      <trkpt lat="43.7044" lon="3.91357">
        <ele>83.8</ele>
        <time>2018-09-16T07:23:43Z</time>
      </trkpt>
      <trkpt lat="43.70429" lon="3.91355">
        <ele>83.7</ele>
        <time>2018-09-16T07:23:44Z</time>
      </trkpt>
      <trkpt lat="43.70421" lon="3.91352">
        <ele>83.9</ele>
        <time>2018-09-16T07:23:46Z</time>
      </trkpt>
      <trkpt lat="43.70417" lon="3.91351">
        <ele>83.8</ele>
        <time>2018-09-16T07:23:47Z</time>
      </trkpt>
      <trkpt lat="43.70407" lon="3.91345">
        <ele>84.4</ele>
        <time>2018-09-16T07:23:49Z</time>
      </trkpt>
      <trkpt lat="43.70404" lon="3.91346">
        <ele>84</ele>
        <time>2018-09-16T07:23:50Z</time>
      </trkpt>
      <trkpt lat="43.70397" lon="3.91344">
        <ele>83.9</ele>
        <time>2018-09-16T07:23:51Z</time>
      </trkpt>
      <trkpt lat="43.70389" lon="3.91344">
        <ele>83.6</ele>
        <time>2018-09-16T07:23:52Z</time>
      </trkpt>
      <trkpt lat="43.70385" lon="3.91343">
        <ele>83.6</ele>
        <time>2018-09-16T07:23:53Z</time>
      </trkpt>
      <trkpt lat="43.70381" lon="3.91342">
        <ele>83.7</ele>
        <time>2018-09-16T07:23:54Z</time>
      </trkpt>
      <trkpt lat="43.70376" lon="3.91343">
        <ele>83.6</ele>
        <time>2018-09-16T07:23:58Z</time>
      </trkpt>
      <trkpt lat="43.70374" lon="3.9134">
        <ele>84</ele>
        <time>2018-09-16T07:23:59Z</time>
      </trkpt>
      <trkpt lat="43.70372" lon="3.91338">
        <ele>84.3</ele>
        <time>2018-09-16T07:24:00Z</time>
      </trkpt>
      <trkpt lat="43.70364" lon="3.9133">
        <ele>85.5</ele>
        <time>2018-09-16T07:24:01Z</time>
      </trkpt>
      <trkpt lat="43.70355" lon="3.91329">
        <ele>85.4</ele>
        <time>2018-09-16T07:24:03Z</time>
      </trkpt>
      <trkpt lat="43.7035" lon="3.9133">
        <ele>85</ele>
        <time>2018-09-16T07:24:04Z</time>
      </trkpt>
      <trkpt lat="43.70346" lon="3.91329">
        <ele>85</ele>
        <time>2018-09-16T07:24:05Z</time>
      </trkpt>
      <trkpt lat="43.7034" lon="3.91329">
        <ele>84.7</ele>
        <time>2018-09-16T07:24:06Z</time>
      </trkpt>
      <trkpt lat="43.70336" lon="3.91327">
        <ele>84.8</ele>
        <time>2018-09-16T07:24:07Z</time>
      </trkpt>
      <trkpt lat="43.70331" lon="3.91325">
        <ele>84.9</ele>
        <time>2018-09-16T07:24:08Z</time>
      </trkpt>
      <trkpt lat="43.70326" lon="3.91323">
        <ele>85</ele>
        <time>2018-09-16T07:24:09Z</time>
      </trkpt>
      <trkpt lat="43.70322" lon="3.9132">
        <ele>85.2</ele>
        <time>2018-09-16T07:24:10Z</time>
      </trkpt>
      <trkpt lat="43.70317" lon="3.91318">
        <ele>85.3</ele>
        <time>2018-09-16T07:24:11Z</time>
      </trkpt>
      <trkpt lat="43.70312" lon="3.91315">
        <ele>85.5</ele>
        <time>2018-09-16T07:24:12Z</time>
      </trkpt>
      <trkpt lat="43.70307" lon="3.91314">
        <ele>85.4</ele>
        <time>2018-09-16T07:24:13Z</time>
      </trkpt>
      <trkpt lat="43.70302" lon="3.91312">
        <ele>85.4</ele>
        <time>2018-09-16T07:24:14Z</time>
      </trkpt>
      <trkpt lat="43.70297" lon="3.91311">
        <ele>85.3</ele>
        <time>2018-09-16T07:24:15Z</time>
      </trkpt>
      <trkpt lat="43.70293" lon="3.9131">
        <ele>85.2</ele>
        <time>2018-09-16T07:24:16Z</time>
      </trkpt>
      <trkpt lat="43.70288" lon="3.91309">
        <ele>85.1</ele>
        <time>2018-09-16T07:24:17Z</time>
      </trkpt>
      <trkpt lat="43.70282" lon="3.91311">
        <ele>84.8</ele>
        <time>2018-09-16T07:24:18Z</time>
      </trkpt>
      <trkpt lat="43.70277" lon="3.91312">
        <ele>84.5</ele>
        <time>2018-09-16T07:24:19Z</time>
      </trkpt>
      <trkpt lat="43.70271" lon="3.91313">
        <ele>84.2</ele>
        <time>2018-09-16T07:24:20Z</time>
      </trkpt>
      <trkpt lat="43.70263" lon="3.9131">
        <ele>84.1</ele>
        <time>2018-09-16T07:24:26Z</time>
      </trkpt>
      <trkpt lat="43.70261" lon="3.91307">
        <ele>84.3</ele>
        <time>2018-09-16T07:24:27Z</time>
      </trkpt>
      <trkpt lat="43.70256" lon="3.91303">
        <ele>84.4</ele>
        <time>2018-09-16T07:24:29Z</time>
      </trkpt>
      <trkpt lat="43.70247" lon="3.91295">
        <ele>84.5</ele>
        <time>2018-09-16T07:24:30Z</time>
      </trkpt>
      <trkpt lat="43.70242" lon="3.9129">
        <ele>84.5</ele>
        <time>2018-09-16T07:24:32Z</time>
      </trkpt>
      <trkpt lat="43.70238" lon="3.91285">
        <ele>84.6</ele>
        <time>2018-09-16T07:24:33Z</time>
      </trkpt>
      <trkpt lat="43.70233" lon="3.91281">
        <ele>84.5</ele>
        <time>2018-09-16T07:24:34Z</time>
      </trkpt>
      <trkpt lat="43.70229" lon="3.91276">
        <ele>84.6</ele>
        <time>2018-09-16T07:24:35Z</time>
      </trkpt>
      <trkpt lat="43.70225" lon="3.91271">
        <ele>84.5</ele>
        <time>2018-09-16T07:24:36Z</time>
      </trkpt>
      <trkpt lat="43.70221" lon="3.91264">
        <ele>84.5</ele>
        <time>2018-09-16T07:24:37Z</time>
      </trkpt>
      <trkpt lat="43.70219" lon="3.91258">
        <ele>84.6</ele>
        <time>2018-09-16T07:24:38Z</time>
      </trkpt>
      <trkpt lat="43.70216" lon="3.91253">
        <ele>84.7</ele>
        <time>2018-09-16T07:24:39Z</time>
      </trkpt>
      <trkpt lat="43.70212" lon="3.91249">
        <ele>84.7</ele>
        <time>2018-09-16T07:24:40Z</time>
      </trkpt>
      <trkpt lat="43.70208" lon="3.91245">
        <ele>84.8</ele>
        <time>2018-09-16T07:24:41Z</time>
      </trkpt>
      <trkpt lat="43.70205" lon="3.91239">
        <ele>84.8</ele>
        <time>2018-09-16T07:24:42Z</time>
      </trkpt>
      <trkpt lat="43.70201" lon="3.91233">
        <ele>84.7</ele>
        <time>2018-09-16T07:24:43Z</time>
      </trkpt>
      <trkpt lat="43.70198" lon="3.91227">
        <ele>84.4</ele>
        <time>2018-09-16T07:24:44Z</time>
      </trkpt>
      <trkpt lat="43.70195" lon="3.9122">
        <ele>84.2</ele>
        <time>2018-09-16T07:24:45Z</time>
      </trkpt>
      <trkpt lat="43.70193" lon="3.91213">
        <ele>84.6</ele>
        <time>2018-09-16T07:24:46Z</time>
      </trkpt>
      <trkpt lat="43.7019" lon="3.91207">
        <ele>84.9</ele>
        <time>2018-09-16T07:24:47Z</time>
      </trkpt>
      <trkpt lat="43.70186" lon="3.91196">
        <ele>85.3</ele>
        <time>2018-09-16T07:24:50Z</time>
      </trkpt>
      <trkpt lat="43.70184" lon="3.91195">
        <ele>85.2</ele>
        <time>2018-09-16T07:24:51Z</time>
      </trkpt>
      <trkpt lat="43.70182" lon="3.91196">
        <ele>85</ele>
        <time>2018-09-16T07:24:52Z</time>
      </trkpt>
      <trkpt lat="43.70176" lon="3.91201">
        <ele>84.5</ele>
        <time>2018-09-16T07:24:53Z</time>
      </trkpt>
      <trkpt lat="43.70169" lon="3.91208">
        <ele>84.1</ele>
        <time>2018-09-16T07:24:55Z</time>
      </trkpt>
      <trkpt lat="43.70165" lon="3.91211">
        <ele>83.9</ele>
        <time>2018-09-16T07:24:56Z</time>
      </trkpt>
      <trkpt lat="43.70161" lon="3.91214">
        <ele>83.8</ele>
        <time>2018-09-16T07:24:57Z</time>
      </trkpt>
      <trkpt lat="43.70157" lon="3.91217">
        <ele>83.7</ele>
        <time>2018-09-16T07:24:58Z</time>
      </trkpt>
      <trkpt lat="43.70152" lon="3.91219">
        <ele>83.5</ele>
        <time>2018-09-16T07:24:59Z</time>
      </trkpt>
      <trkpt lat="43.70147" lon="3.91223">
        <ele>83.3</ele>
        <time>2018-09-16T07:25:00Z</time>
      </trkpt>
      <trkpt lat="43.70141" lon="3.91226">
        <ele>82.9</ele>
        <time>2018-09-16T07:25:01Z</time>
      </trkpt>
      <trkpt lat="43.70136" lon="3.91229">
        <ele>82.7</ele>
        <time>2018-09-16T07:25:02Z</time>
      </trkpt>
      <trkpt lat="43.70131" lon="3.91232">
        <ele>82.5</ele>
        <time>2018-09-16T07:25:03Z</time>
      </trkpt>
      <trkpt lat="43.70125" lon="3.91236">
        <ele>82.3</ele>
        <time>2018-09-16T07:25:04Z</time>
      </trkpt>
      <trkpt lat="43.7012" lon="3.91239">
        <ele>82.1</ele>
        <time>2018-09-16T07:25:05Z</time>
      </trkpt>
      <trkpt lat="43.70114" lon="3.91243">
        <ele>82</ele>
        <time>2018-09-16T07:25:06Z</time>
      </trkpt>
      <trkpt lat="43.70109" lon="3.91246">
        <ele>81.9</ele>
        <time>2018-09-16T07:25:07Z</time>
      </trkpt>
      <trkpt lat="43.70104" lon="3.9125">
        <ele>81.7</ele>
        <time>2018-09-16T07:25:08Z</time>
      </trkpt>
      <trkpt lat="43.70098" lon="3.91253">
        <ele>81.5</ele>
        <time>2018-09-16T07:25:09Z</time>
      </trkpt>
      <trkpt lat="43.70093" lon="3.91257">
        <ele>81.3</ele>
        <time>2018-09-16T07:25:10Z</time>
      </trkpt>
      <trkpt lat="43.70089" lon="3.9126">
        <ele>81.1</ele>
        <time>2018-09-16T07:25:11Z</time>
      </trkpt>
      <trkpt lat="43.70084" lon="3.91263">
        <ele>81</ele>
        <time>2018-09-16T07:25:12Z</time>
      </trkpt>
      <trkpt lat="43.70078" lon="3.91265">
        <ele>80.8</ele>
        <time>2018-09-16T07:25:13Z</time>
      </trkpt>
      <trkpt lat="43.70072" lon="3.91269">
        <ele>80.6</ele>
        <time>2018-09-16T07:25:14Z</time>
      </trkpt>
      <trkpt lat="43.70067" lon="3.91273">
        <ele>80.4</ele>
        <time>2018-09-16T07:25:15Z</time>
      </trkpt>
      <trkpt lat="43.7006" lon="3.91277">
        <ele>80.2</ele>
        <time>2018-09-16T07:25:16Z</time>
      </trkpt>
      <trkpt lat="43.70054" lon="3.91281">
        <ele>79.9</ele>
        <time>2018-09-16T07:25:17Z</time>
      </trkpt>
      <trkpt lat="43.70048" lon="3.91284">
        <ele>79.8</ele>
        <time>2018-09-16T07:25:18Z</time>
      </trkpt>
      <trkpt lat="43.70042" lon="3.91289">
        <ele>79.6</ele>
        <time>2018-09-16T07:25:19Z</time>
      </trkpt>
      <trkpt lat="43.70036" lon="3.91292">
        <ele>79.5</ele>
        <time>2018-09-16T07:25:20Z</time>
      </trkpt>
      <trkpt lat="43.7003" lon="3.91296">
        <ele>79.3</ele>
        <time>2018-09-16T07:25:21Z</time>
      </trkpt>
      <trkpt lat="43.70024" lon="3.91299">
        <ele>79.2</ele>
        <time>2018-09-16T07:25:22Z</time>
      </trkpt>
      <trkpt lat="43.70018" lon="3.91303">
        <ele>79.1</ele>
        <time>2018-09-16T07:25:23Z</time>
      </trkpt>
      <trkpt lat="43.70011" lon="3.91306">
        <ele>79</ele>
        <time>2018-09-16T07:25:24Z</time>
      </trkpt>
      <trkpt lat="43.70003" lon="3.9131">
        <ele>78.8</ele>
        <time>2018-09-16T07:25:26Z</time>
      </trkpt>
      <trkpt lat="43.7" lon="3.91311">
        <ele>78.8</ele>
        <time>2018-09-16T07:25:27Z</time>
      </trkpt>
      <trkpt lat="43.7" lon="3.91321">
        <ele>78.4</ele>
        <time>2018-09-16T07:25:33Z</time>
      </trkpt>
      <trkpt lat="43.7" lon="3.91324">
        <ele>78.3</ele>
        <time>2018-09-16T07:25:34Z</time>
      </trkpt>
      <trkpt lat="43.7" lon="3.91331">
        <ele>78.1</ele>
        <time>2018-09-16T07:25:36Z</time>
      </trkpt>
      <trkpt lat="43.7" lon="3.91342">
        <ele>78</ele>
        <time>2018-09-16T07:25:37Z</time>
      </trkpt>
      <trkpt lat="43.69994" lon="3.91347">
        <ele>78.1</ele>
        <time>2018-09-16T07:25:38Z</time>
      </trkpt>
      <trkpt lat="43.69989" lon="3.91349">
        <ele>78.2</ele>
        <time>2018-09-16T07:25:39Z</time>
      </trkpt>
      <trkpt lat="43.69981" lon="3.9135">
        <ele>78.3</ele>
        <time>2018-09-16T07:25:41Z</time>
      </trkpt>
      <trkpt lat="43.69976" lon="3.91351">
        <ele>78.3</ele>
        <time>2018-09-16T07:25:42Z</time>
      </trkpt>
      <trkpt lat="43.69972" lon="3.91352">
        <ele>78.3</ele>
        <time>2018-09-16T07:25:43Z</time>
      </trkpt>
      <trkpt lat="43.69966" lon="3.91352">
        <ele>78</ele>
        <time>2018-09-16T07:25:44Z</time>
      </trkpt>
      <trkpt lat="43.6996" lon="3.91352">
        <ele>77.7</ele>
        <time>2018-09-16T07:25:45Z</time>
      </trkpt>
      <trkpt lat="43.69954" lon="3.91353">
        <ele>77.4</ele>
        <time>2018-09-16T07:25:46Z</time>
      </trkpt>
      <trkpt lat="43.69949" lon="3.91352">
        <ele>77.2</ele>
        <time>2018-09-16T07:25:47Z</time>
      </trkpt>
      <trkpt lat="43.69944" lon="3.91351">
        <ele>77.1</ele>
        <time>2018-09-16T07:25:48Z</time>
      </trkpt>
      <trkpt lat="43.69939" lon="3.91348">
        <ele>77.1</ele>
        <time>2018-09-16T07:25:49Z</time>
      </trkpt>
      <trkpt lat="43.69935" lon="3.91343">
        <ele>77.4</ele>
        <time>2018-09-16T07:25:50Z</time>
      </trkpt>
      <trkpt lat="43.69933" lon="3.91337">
        <ele>77.8</ele>
        <time>2018-09-16T07:25:51Z</time>
      </trkpt>
      <trkpt lat="43.69931" lon="3.91331">
        <ele>78.1</ele>
        <time>2018-09-16T07:25:52Z</time>
      </trkpt>
      <trkpt lat="43.69931" lon="3.91319">
        <ele>78.3</ele>
        <time>2018-09-16T07:25:54Z</time>
      </trkpt>
      <trkpt lat="43.69928" lon="3.91313">
        <ele>78.2</ele>
        <time>2018-09-16T07:25:55Z</time>
      </trkpt>
      <trkpt lat="43.69926" lon="3.91308">
        <ele>78.3</ele>
        <time>2018-09-16T07:25:56Z</time>
      </trkpt>
      <trkpt lat="43.69923" lon="3.91302">
        <ele>78.2</ele>
        <time>2018-09-16T07:25:57Z</time>
      </trkpt>
      <trkpt lat="43.69921" lon="3.91296">
        <ele>78.1</ele>
        <time>2018-09-16T07:25:58Z</time>
      </trkpt>
      <trkpt lat="43.69918" lon="3.9129">
        <ele>78</ele>
        <time>2018-09-16T07:25:59Z</time>
      </trkpt>
      <trkpt lat="43.69915" lon="3.91283">
        <ele>77.9</ele>
        <time>2018-09-16T07:26:00Z</time>
      </trkpt>
      <trkpt lat="43.69913" lon="3.91276">
        <ele>77.9</ele>
        <time>2018-09-16T07:26:01Z</time>
      </trkpt>
      <trkpt lat="43.6991" lon="3.91269">
        <ele>77.8</ele>
        <time>2018-09-16T07:26:02Z</time>
      </trkpt>
      <trkpt lat="43.69906" lon="3.91262">
        <ele>77.6</ele>
        <time>2018-09-16T07:26:03Z</time>
      </trkpt>
      <trkpt lat="43.69903" lon="3.91254">
        <ele>77.5</ele>
        <time>2018-09-16T07:26:04Z</time>
      </trkpt>
      <trkpt lat="43.69899" lon="3.91245">
        <ele>77.2</ele>
        <time>2018-09-16T07:26:05Z</time>
      </trkpt>
      <trkpt lat="43.69896" lon="3.91237">
        <ele>76.8</ele>
        <time>2018-09-16T07:26:06Z</time>
      </trkpt>
      <trkpt lat="43.69893" lon="3.91228">
        <ele>76.4</ele>
        <time>2018-09-16T07:26:07Z</time>
      </trkpt>
      <trkpt lat="43.69888" lon="3.9122">
        <ele>76</ele>
        <time>2018-09-16T07:26:08Z</time>
      </trkpt>
      <trkpt lat="43.69885" lon="3.91213">
        <ele>76</ele>
        <time>2018-09-16T07:26:09Z</time>
      </trkpt>
      <trkpt lat="43.69881" lon="3.91205">
        <ele>75.8</ele>
        <time>2018-09-16T07:26:10Z</time>
      </trkpt>
      <trkpt lat="43.69879" lon="3.91195">
        <ele>75.7</ele>
        <time>2018-09-16T07:26:11Z</time>
      </trkpt>
      <trkpt lat="43.69877" lon="3.91186">
        <ele>75.6</ele>
        <time>2018-09-16T07:26:12Z</time>
      </trkpt>
      <trkpt lat="43.69873" lon="3.91177">
        <ele>75.4</ele>
        <time>2018-09-16T07:26:13Z</time>
      </trkpt>
      <trkpt lat="43.6987" lon="3.91168">
        <ele>75.3</ele>
        <time>2018-09-16T07:26:14Z</time>
      </trkpt>
      <trkpt lat="43.69866" lon="3.9116">
        <ele>75.4</ele>
        <time>2018-09-16T07:26:15Z</time>
      </trkpt>
      <trkpt lat="43.69862" lon="3.91153">
        <ele>75.5</ele>
        <time>2018-09-16T07:26:16Z</time>
      </trkpt>
      <trkpt lat="43.69857" lon="3.91146">
        <ele>75.6</ele>
        <time>2018-09-16T07:26:17Z</time>
      </trkpt>
      <trkpt lat="43.69852" lon="3.91139">
        <ele>75.7</ele>
        <time>2018-09-16T07:26:18Z</time>
      </trkpt>
      <trkpt lat="43.69848" lon="3.91134">
        <ele>75.8</ele>
        <time>2018-09-16T07:26:19Z</time>
      </trkpt>
      <trkpt lat="43.69843" lon="3.91127">
        <ele>76.1</ele>
        <time>2018-09-16T07:26:20Z</time>
      </trkpt>
      <trkpt lat="43.69838" lon="3.91122">
        <ele>76.3</ele>
        <time>2018-09-16T07:26:21Z</time>
      </trkpt>
      <trkpt lat="43.69835" lon="3.91115">
        <ele>76.7</ele>
        <time>2018-09-16T07:26:22Z</time>
      </trkpt>
      <trkpt lat="43.6983" lon="3.9111">
        <ele>76.9</ele>
        <time>2018-09-16T07:26:23Z</time>
      </trkpt>
      <trkpt lat="43.69826" lon="3.91107">
        <ele>76.8</ele>
        <time>2018-09-16T07:26:24Z</time>
      </trkpt>
      <trkpt lat="43.69821" lon="3.91102">
        <ele>76.7</ele>
        <time>2018-09-16T07:26:25Z</time>
      </trkpt>
      <trkpt lat="43.69817" lon="3.91096">
        <ele>76.7</ele>
        <time>2018-09-16T07:26:26Z</time>
      </trkpt>
      <trkpt lat="43.69813" lon="3.91091">
        <ele>76.8</ele>
        <time>2018-09-16T07:26:27Z</time>
      </trkpt>
      <trkpt lat="43.69808" lon="3.91086">
        <ele>76.9</ele>
        <time>2018-09-16T07:26:28Z</time>
      </trkpt>
      <trkpt lat="43.69804" lon="3.91079">
        <ele>76.9</ele>
        <time>2018-09-16T07:26:29Z</time>
      </trkpt>
      <trkpt lat="43.698" lon="3.91073">
        <ele>76.8</ele>
        <time>2018-09-16T07:26:30Z</time>
      </trkpt>
      <trkpt lat="43.69796" lon="3.91066">
        <ele>76.7</ele>
        <time>2018-09-16T07:26:31Z</time>
      </trkpt>
      <trkpt lat="43.69791" lon="3.91058">
        <ele>76.5</ele>
        <time>2018-09-16T07:26:32Z</time>
      </trkpt>
      <trkpt lat="43.69786" lon="3.91051">
        <ele>76.4</ele>
        <time>2018-09-16T07:26:33Z</time>
      </trkpt>
      <trkpt lat="43.69782" lon="3.91045">
        <ele>76.5</ele>
        <time>2018-09-16T07:26:34Z</time>
      </trkpt>
      <trkpt lat="43.69778" lon="3.9104">
        <ele>76.6</ele>
        <time>2018-09-16T07:26:35Z</time>
      </trkpt>
      <trkpt lat="43.69773" lon="3.91033">
        <ele>76.5</ele>
        <time>2018-09-16T07:26:36Z</time>
      </trkpt>
      <trkpt lat="43.69769" lon="3.91026">
        <ele>76.3</ele>
        <time>2018-09-16T07:26:37Z</time>
      </trkpt>
      <trkpt lat="43.69764" lon="3.9102">
        <ele>76</ele>
        <time>2018-09-16T07:26:38Z</time>
      </trkpt>
      <trkpt lat="43.6976" lon="3.91014">
        <ele>75.9</ele>
        <time>2018-09-16T07:26:39Z</time>
      </trkpt>
      <trkpt lat="43.69755" lon="3.91008">
        <ele>75.8</ele>
        <time>2018-09-16T07:26:40Z</time>
      </trkpt>
      <trkpt lat="43.6975" lon="3.91001">
        <ele>76</ele>
        <time>2018-09-16T07:26:41Z</time>
      </trkpt>
      <trkpt lat="43.69745" lon="3.90996">
        <ele>75.7</ele>
        <time>2018-09-16T07:26:42Z</time>
      </trkpt>
      <trkpt lat="43.6974" lon="3.9099">
        <ele>75.4</ele>
        <time>2018-09-16T07:26:43Z</time>
      </trkpt>
      <trkpt lat="43.69735" lon="3.90984">
        <ele>75.2</ele>
        <time>2018-09-16T07:26:44Z</time>
      </trkpt>
      <trkpt lat="43.6973" lon="3.90979">
        <ele>75.1</ele>
        <time>2018-09-16T07:26:45Z</time>
      </trkpt>
      <trkpt lat="43.69726" lon="3.90973">
        <ele>75.1</ele>
        <time>2018-09-16T07:26:46Z</time>
      </trkpt>
      <trkpt lat="43.69721" lon="3.90968">
        <ele>75</ele>
        <time>2018-09-16T07:26:47Z</time>
      </trkpt>
      <trkpt lat="43.69716" lon="3.90963">
        <ele>74.9</ele>
        <time>2018-09-16T07:26:48Z</time>
      </trkpt>
      <trkpt lat="43.6971" lon="3.90958">
        <ele>74.8</ele>
        <time>2018-09-16T07:26:49Z</time>
      </trkpt>
      <trkpt lat="43.69704" lon="3.90953">
        <ele>74.8</ele>
        <time>2018-09-16T07:26:50Z</time>
      </trkpt>
      <trkpt lat="43.69699" lon="3.90948">
        <ele>74.9</ele>
        <time>2018-09-16T07:26:51Z</time>
      </trkpt>
      <trkpt lat="43.69693" lon="3.90943">
        <ele>74.9</ele>
        <time>2018-09-16T07:26:52Z</time>
      </trkpt>
      <trkpt lat="43.69688" lon="3.90937">
        <ele>74.6</ele>
        <time>2018-09-16T07:26:53Z</time>
      </trkpt>
      <trkpt lat="43.69683" lon="3.90931">
        <ele>74.4</ele>
        <time>2018-09-16T07:26:54Z</time>
      </trkpt>
      <trkpt lat="43.69679" lon="3.90925">
        <ele>74.3</ele>
        <time>2018-09-16T07:26:55Z</time>
      </trkpt>
      <trkpt lat="43.69674" lon="3.9092">
        <ele>74.2</ele>
        <time>2018-09-16T07:26:56Z</time>
      </trkpt>
      <trkpt lat="43.69669" lon="3.90915">
        <ele>74.1</ele>
        <time>2018-09-16T07:26:57Z</time>
      </trkpt>
      <trkpt lat="43.69664" lon="3.90909">
        <ele>74.2</ele>
        <time>2018-09-16T07:26:58Z</time>
      </trkpt>
      <trkpt lat="43.6966" lon="3.90904">
        <ele>74.2</ele>
        <time>2018-09-16T07:26:59Z</time>
      </trkpt>
      <trkpt lat="43.69655" lon="3.90898">
        <ele>74.3</ele>
        <time>2018-09-16T07:27:00Z</time>
      </trkpt>
      <trkpt lat="43.69651" lon="3.90892">
        <ele>74.3</ele>
        <time>2018-09-16T07:27:01Z</time>
      </trkpt>
      <trkpt lat="43.69646" lon="3.90887">
        <ele>74.3</ele>
        <time>2018-09-16T07:27:02Z</time>
      </trkpt>
      <trkpt lat="43.69641" lon="3.90882">
        <ele>74.3</ele>
        <time>2018-09-16T07:27:03Z</time>
      </trkpt>
      <trkpt lat="43.69636" lon="3.90877">
        <ele>74.3</ele>
        <time>2018-09-16T07:27:04Z</time>
      </trkpt>
      <trkpt lat="43.69632" lon="3.90872">
        <ele>74.4</ele>
        <time>2018-09-16T07:27:05Z</time>
      </trkpt>
      <trkpt lat="43.69627" lon="3.90866">
        <ele>74.4</ele>
        <time>2018-09-16T07:27:06Z</time>
      </trkpt>
      <trkpt lat="43.69622" lon="3.90862">
        <ele>74.4</ele>
        <time>2018-09-16T07:27:07Z</time>
      </trkpt>
      <trkpt lat="43.69617" lon="3.90861">
        <ele>74.2</ele>
        <time>2018-09-16T07:27:08Z</time>
      </trkpt>
      <trkpt lat="43.6961" lon="3.90862">
        <ele>73.9</ele>
        <time>2018-09-16T07:27:09Z</time>
      </trkpt>
      <trkpt lat="43.69604" lon="3.90865">
        <ele>73.6</ele>
        <time>2018-09-16T07:27:10Z</time>
      </trkpt>
      <trkpt lat="43.69597" lon="3.90868">
        <ele>73.2</ele>
        <time>2018-09-16T07:27:11Z</time>
      </trkpt>
      <trkpt lat="43.6959" lon="3.9087">
        <ele>72.9</ele>
        <time>2018-09-16T07:27:12Z</time>
      </trkpt>
      <trkpt lat="43.69584" lon="3.90873">
        <ele>72.6</ele>
        <time>2018-09-16T07:27:13Z</time>
      </trkpt>
      <trkpt lat="43.69577" lon="3.90876">
        <ele>72.4</ele>
        <time>2018-09-16T07:27:14Z</time>
      </trkpt>
      <trkpt lat="43.6957" lon="3.90879">
        <ele>72.2</ele>
        <time>2018-09-16T07:27:15Z</time>
      </trkpt>
      <trkpt lat="43.69564" lon="3.90883">
        <ele>72.1</ele>
        <time>2018-09-16T07:27:16Z</time>
      </trkpt>
      <trkpt lat="43.69558" lon="3.90886">
        <ele>72</ele>
        <time>2018-09-16T07:27:17Z</time>
      </trkpt>
      <trkpt lat="43.69551" lon="3.90889">
        <ele>72</ele>
        <time>2018-09-16T07:27:18Z</time>
      </trkpt>
      <trkpt lat="43.69545" lon="3.90892">
        <ele>72</ele>
        <time>2018-09-16T07:27:19Z</time>
      </trkpt>
      <trkpt lat="43.6954" lon="3.90896">
        <ele>72</ele>
        <time>2018-09-16T07:27:20Z</time>
      </trkpt>
      <trkpt lat="43.69534" lon="3.909">
        <ele>72</ele>
        <time>2018-09-16T07:27:21Z</time>
      </trkpt>
      <trkpt lat="43.69528" lon="3.90904">
        <ele>72</ele>
        <time>2018-09-16T07:27:22Z</time>
      </trkpt>
      <trkpt lat="43.69523" lon="3.90908">
        <ele>72</ele>
        <time>2018-09-16T07:27:23Z</time>
      </trkpt>
      <trkpt lat="43.69517" lon="3.90912">
        <ele>72</ele>
        <time>2018-09-16T07:27:24Z</time>
      </trkpt>
      <trkpt lat="43.69511" lon="3.90916">
        <ele>72</ele>
        <time>2018-09-16T07:27:25Z</time>
      </trkpt>
      <trkpt lat="43.69505" lon="3.9092">
        <ele>71.9</ele>
        <time>2018-09-16T07:27:26Z</time>
      </trkpt>
      <trkpt lat="43.695" lon="3.90923">
        <ele>71.8</ele>
        <time>2018-09-16T07:27:27Z</time>
      </trkpt>
      <trkpt lat="43.69494" lon="3.90928">
        <ele>71.6</ele>
        <time>2018-09-16T07:27:28Z</time>
      </trkpt>
      <trkpt lat="43.69489" lon="3.90933">
        <ele>71.4</ele>
        <time>2018-09-16T07:27:29Z</time>
      </trkpt>
      <trkpt lat="43.69484" lon="3.90938">
        <ele>71.2</ele>
        <time>2018-09-16T07:27:30Z</time>
      </trkpt>
      <trkpt lat="43.69479" lon="3.90943">
        <ele>71.1</ele>
        <time>2018-09-16T07:27:31Z</time>
      </trkpt>
      <trkpt lat="43.69474" lon="3.90947">
        <ele>71</ele>
        <time>2018-09-16T07:27:32Z</time>
      </trkpt>
      <trkpt lat="43.69469" lon="3.90952">
        <ele>71.1</ele>
        <time>2018-09-16T07:27:33Z</time>
      </trkpt>
      <trkpt lat="43.69463" lon="3.90956">
        <ele>71.2</ele>
        <time>2018-09-16T07:27:34Z</time>
      </trkpt>
      <trkpt lat="43.69457" lon="3.9096">
        <ele>71.2</ele>
        <time>2018-09-16T07:27:35Z</time>
      </trkpt>
      <trkpt lat="43.69452" lon="3.90964">
        <ele>71.2</ele>
        <time>2018-09-16T07:27:36Z</time>
      </trkpt>
      <trkpt lat="43.69447" lon="3.90968">
        <ele>71.1</ele>
        <time>2018-09-16T07:27:37Z</time>
      </trkpt>
      <trkpt lat="43.69442" lon="3.90973">
        <ele>71.1</ele>
        <time>2018-09-16T07:27:38Z</time>
      </trkpt>
      <trkpt lat="43.69438" lon="3.90977">
        <ele>71.2</ele>
        <time>2018-09-16T07:27:39Z</time>
      </trkpt>
      <trkpt lat="43.69433" lon="3.90981">
        <ele>71.4</ele>
        <time>2018-09-16T07:27:40Z</time>
      </trkpt>
      <trkpt lat="43.69429" lon="3.90986">
        <ele>71.6</ele>
        <time>2018-09-16T07:27:41Z</time>
      </trkpt>
      <trkpt lat="43.69421" lon="3.90992">
        <ele>71.8</ele>
        <time>2018-09-16T07:27:43Z</time>
      </trkpt>
      <trkpt lat="43.69417" lon="3.90993">
        <ele>72</ele>
        <time>2018-09-16T07:27:44Z</time>
      </trkpt>
      <trkpt lat="43.69411" lon="3.91">
        <ele>72</ele>
        <time>2018-09-16T07:27:48Z</time>
      </trkpt>
      <trkpt lat="43.69409" lon="3.91001">
        <ele>72</ele>
        <time>2018-09-16T07:27:49Z</time>
      </trkpt>
      <trkpt lat="43.69401" lon="3.91005">
        <ele>72.1</ele>
        <time>2018-09-16T07:27:53Z</time>
      </trkpt>
      <trkpt lat="43.69399" lon="3.91005">
        <ele>72.1</ele>
        <time>2018-09-16T07:27:54Z</time>
      </trkpt>
      <trkpt lat="43.69396" lon="3.91006">
        <ele>72.2</ele>
        <time>2018-09-16T07:27:55Z</time>
      </trkpt>
      <trkpt lat="43.69387" lon="3.91009">
        <ele>72.3</ele>
        <time>2018-09-16T07:27:56Z</time>
      </trkpt>
      <trkpt lat="43.69383" lon="3.91011">
        <ele>72.1</ele>
        <time>2018-09-16T07:27:57Z</time>
      </trkpt>
      <trkpt lat="43.69377" lon="3.91013">
        <ele>71.9</ele>
        <time>2018-09-16T07:27:58Z</time>
      </trkpt>
      <trkpt lat="43.69372" lon="3.91015">
        <ele>71.6</ele>
        <time>2018-09-16T07:27:59Z</time>
      </trkpt>
      <trkpt lat="43.69367" lon="3.91018">
        <ele>71.1</ele>
        <time>2018-09-16T07:28:00Z</time>
      </trkpt>
      <trkpt lat="43.69361" lon="3.91024">
        <ele>70.3</ele>
        <time>2018-09-16T07:28:01Z</time>
      </trkpt>
      <trkpt lat="43.69356" lon="3.91029">
        <ele>70.2</ele>
        <time>2018-09-16T07:28:02Z</time>
      </trkpt>
      <trkpt lat="43.6935" lon="3.91035">
        <ele>70.2</ele>
        <time>2018-09-16T07:28:03Z</time>
      </trkpt>
      <trkpt lat="43.69345" lon="3.9104">
        <ele>70</ele>
        <time>2018-09-16T07:28:04Z</time>
      </trkpt>
      <trkpt lat="43.69339" lon="3.91046">
        <ele>69.4</ele>
        <time>2018-09-16T07:28:05Z</time>
      </trkpt>
      <trkpt lat="43.69333" lon="3.91052">
        <ele>68.4</ele>
        <time>2018-09-16T07:28:06Z</time>
      </trkpt>
      <trkpt lat="43.69328" lon="3.91058">
        <ele>67.9</ele>
        <time>2018-09-16T07:28:07Z</time>
      </trkpt>
      <trkpt lat="43.69321" lon="3.91065">
        <ele>67.5</ele>
        <time>2018-09-16T07:28:08Z</time>
      </trkpt>
      <trkpt lat="43.69315" lon="3.91071">
        <ele>67.1</ele>
        <time>2018-09-16T07:28:09Z</time>
      </trkpt>
      <trkpt lat="43.69309" lon="3.91076">
        <ele>66.6</ele>
        <time>2018-09-16T07:28:10Z</time>
      </trkpt>
      <trkpt lat="43.69302" lon="3.91079">
        <ele>66.3</ele>
        <time>2018-09-16T07:28:11Z</time>
      </trkpt>
      <trkpt lat="43.69295" lon="3.9108">
        <ele>66.2</ele>
        <time>2018-09-16T07:28:12Z</time>
      </trkpt>
      <trkpt lat="43.69288" lon="3.91082">
        <ele>66.1</ele>
        <time>2018-09-16T07:28:13Z</time>
      </trkpt>
      <trkpt lat="43.69281" lon="3.91083">
        <ele>66</ele>
        <time>2018-09-16T07:28:14Z</time>
      </trkpt>
      <trkpt lat="43.69275" lon="3.91085">
        <ele>66.4</ele>
        <time>2018-09-16T07:28:15Z</time>
      </trkpt>
      <trkpt lat="43.69272" lon="3.91085">
        <ele>66.4</ele>
        <time>2018-09-16T07:28:16Z</time>
      </trkpt>
      <trkpt lat="43.69267" lon="3.91087">
        <ele>66.9</ele>
        <time>2018-09-16T07:28:17Z</time>
      </trkpt>
      <trkpt lat="43.69263" lon="3.9109">
        <ele>67.6</ele>
        <time>2018-09-16T07:28:18Z</time>
      </trkpt>
      <trkpt lat="43.69257" lon="3.91091">
        <ele>67.7</ele>
        <time>2018-09-16T07:28:19Z</time>
      </trkpt>
      <trkpt lat="43.69252" lon="3.91094">
        <ele>68.3</ele>
        <time>2018-09-16T07:28:20Z</time>
      </trkpt>
      <trkpt lat="43.69247" lon="3.91095">
        <ele>68.4</ele>
        <time>2018-09-16T07:28:21Z</time>
      </trkpt>
      <trkpt lat="43.69241" lon="3.91097">
        <ele>68.6</ele>
        <time>2018-09-16T07:28:22Z</time>
      </trkpt>
      <trkpt lat="43.69234" lon="3.91098">
        <ele>68.6</ele>
        <time>2018-09-16T07:28:23Z</time>
      </trkpt>
      <trkpt lat="43.69228" lon="3.91099">
        <ele>68.5</ele>
        <time>2018-09-16T07:28:24Z</time>
      </trkpt>
      <trkpt lat="43.69222" lon="3.911">
        <ele>68.4</ele>
        <time>2018-09-16T07:28:25Z</time>
      </trkpt>
      <trkpt lat="43.69216" lon="3.911">
        <ele>68</ele>
        <time>2018-09-16T07:28:26Z</time>
      </trkpt>
      <trkpt lat="43.69211" lon="3.91101">
        <ele>67.9</ele>
        <time>2018-09-16T07:28:27Z</time>
      </trkpt>
      <trkpt lat="43.69206" lon="3.91103">
        <ele>67.8</ele>
        <time>2018-09-16T07:28:28Z</time>
      </trkpt>
      <trkpt lat="43.69201" lon="3.91104">
        <ele>67.6</ele>
        <time>2018-09-16T07:28:29Z</time>
      </trkpt>
      <trkpt lat="43.69195" lon="3.91105">
        <ele>67.4</ele>
        <time>2018-09-16T07:28:30Z</time>
      </trkpt>
      <trkpt lat="43.69186" lon="3.9111">
        <ele>67.6</ele>
        <time>2018-09-16T07:28:32Z</time>
      </trkpt>
      <trkpt lat="43.69183" lon="3.91114">
        <ele>67.9</ele>
        <time>2018-09-16T07:28:33Z</time>
      </trkpt>
      <trkpt lat="43.69175" lon="3.9112">
        <ele>68</ele>
        <time>2018-09-16T07:28:35Z</time>
      </trkpt>
      <trkpt lat="43.69171" lon="3.91124">
        <ele>68.2</ele>
        <time>2018-09-16T07:28:36Z</time>
      </trkpt>
      <trkpt lat="43.69167" lon="3.91131">
        <ele>68.4</ele>
        <time>2018-09-16T07:28:37Z</time>
      </trkpt>
      <trkpt lat="43.69162" lon="3.9113">
        <ele>68.2</ele>
        <time>2018-09-16T07:28:38Z</time>
      </trkpt>
      <trkpt lat="43.69157" lon="3.91129">
        <ele>67.9</ele>
        <time>2018-09-16T07:28:39Z</time>
      </trkpt>
      <trkpt lat="43.69152" lon="3.9113">
        <ele>67.8</ele>
        <time>2018-09-16T07:28:40Z</time>
      </trkpt>
      <trkpt lat="43.69147" lon="3.91123">
        <ele>67.1</ele>
        <time>2018-09-16T07:28:41Z</time>
      </trkpt>
      <trkpt lat="43.69142" lon="3.91118">
        <ele>66.6</ele>
        <time>2018-09-16T07:28:42Z</time>
      </trkpt>
      <trkpt lat="43.69139" lon="3.91113">
        <ele>66.1</ele>
        <time>2018-09-16T07:28:43Z</time>
      </trkpt>
      <trkpt lat="43.69134" lon="3.9111">
        <ele>66</ele>
        <time>2018-09-16T07:28:44Z</time>
      </trkpt>
      <trkpt lat="43.69127" lon="3.91109">
        <ele>65.9</ele>
        <time>2018-09-16T07:28:46Z</time>
      </trkpt>
      <trkpt lat="43.69123" lon="3.91109">
        <ele>65.9</ele>
        <time>2018-09-16T07:28:47Z</time>
      </trkpt>
      <trkpt lat="43.69115" lon="3.9111">
        <ele>66</ele>
        <time>2018-09-16T07:28:49Z</time>
      </trkpt>
      <trkpt lat="43.6911" lon="3.91111">
        <ele>65.9</ele>
        <time>2018-09-16T07:28:50Z</time>
      </trkpt>
      <trkpt lat="43.69104" lon="3.91112">
        <ele>65.5</ele>
        <time>2018-09-16T07:28:51Z</time>
      </trkpt>
      <trkpt lat="43.69097" lon="3.91113">
        <ele>65.1</ele>
        <time>2018-09-16T07:28:52Z</time>
      </trkpt>
      <trkpt lat="43.69092" lon="3.91113">
        <ele>64.7</ele>
        <time>2018-09-16T07:28:53Z</time>
      </trkpt>
      <trkpt lat="43.69086" lon="3.91115">
        <ele>64.4</ele>
        <time>2018-09-16T07:28:54Z</time>
      </trkpt>
      <trkpt lat="43.69077" lon="3.91114">
        <ele>64.2</ele>
        <time>2018-09-16T07:28:55Z</time>
      </trkpt>
      <trkpt lat="43.69072" lon="3.91114">
        <ele>64.2</ele>
        <time>2018-09-16T07:28:56Z</time>
      </trkpt>
      <trkpt lat="43.69065" lon="3.91117">
        <ele>64.3</ele>
        <time>2018-09-16T07:28:57Z</time>
      </trkpt>
      <trkpt lat="43.6906" lon="3.91119">
        <ele>64.3</ele>
        <time>2018-09-16T07:28:58Z</time>
      </trkpt>
      <trkpt lat="43.69053" lon="3.91122">
        <ele>64.4</ele>
        <time>2018-09-16T07:28:59Z</time>
      </trkpt>
      <trkpt lat="43.69046" lon="3.91125">
        <ele>64.5</ele>
        <time>2018-09-16T07:29:00Z</time>
      </trkpt>
      <trkpt lat="43.69039" lon="3.91131">
        <ele>64.5</ele>
        <time>2018-09-16T07:29:01Z</time>
      </trkpt>
      <trkpt lat="43.69034" lon="3.91133">
        <ele>64.3</ele>
        <time>2018-09-16T07:29:02Z</time>
      </trkpt>
      <trkpt lat="43.6903" lon="3.91135">
        <ele>64.2</ele>
        <time>2018-09-16T07:29:03Z</time>
      </trkpt>
      <trkpt lat="43.69024" lon="3.91136">
        <ele>64</ele>
        <time>2018-09-16T07:29:04Z</time>
      </trkpt>
      <trkpt lat="43.69016" lon="3.91138">
        <ele>63.6</ele>
        <time>2018-09-16T07:29:05Z</time>
      </trkpt>
      <trkpt lat="43.69011" lon="3.91137">
        <ele>63.5</ele>
        <time>2018-09-16T07:29:06Z</time>
      </trkpt>
      <trkpt lat="43.69005" lon="3.91137">
        <ele>63.4</ele>
        <time>2018-09-16T07:29:07Z</time>
      </trkpt>
      <trkpt lat="43.68998" lon="3.91137">
        <ele>63.2</ele>
        <time>2018-09-16T07:29:08Z</time>
      </trkpt>
      <trkpt lat="43.68994" lon="3.91133">
        <ele>63.6</ele>
        <time>2018-09-16T07:29:09Z</time>
      </trkpt>
      <trkpt lat="43.68989" lon="3.91132">
        <ele>63.7</ele>
        <time>2018-09-16T07:29:10Z</time>
      </trkpt>
      <trkpt lat="43.68982" lon="3.91131">
        <ele>63.9</ele>
        <time>2018-09-16T07:29:11Z</time>
      </trkpt>
      <trkpt lat="43.68976" lon="3.91129">
        <ele>64.1</ele>
        <time>2018-09-16T07:29:12Z</time>
      </trkpt>
      <trkpt lat="43.68972" lon="3.91128">
        <ele>64.2</ele>
        <time>2018-09-16T07:29:13Z</time>
      </trkpt>
      <trkpt lat="43.68967" lon="3.91128">
        <ele>64.4</ele>
        <time>2018-09-16T07:29:14Z</time>
      </trkpt>
      <trkpt lat="43.68962" lon="3.91127">
        <ele>64.7</ele>
        <time>2018-09-16T07:29:15Z</time>
      </trkpt>
      <trkpt lat="43.68957" lon="3.91127">
        <ele>64.8</ele>
        <time>2018-09-16T07:29:16Z</time>
      </trkpt>
      <trkpt lat="43.68953" lon="3.91125">
        <ele>65.2</ele>
        <time>2018-09-16T07:29:17Z</time>
      </trkpt>
      <trkpt lat="43.68948" lon="3.91123">
        <ele>65.6</ele>
        <time>2018-09-16T07:29:18Z</time>
      </trkpt>
      <trkpt lat="43.68941" lon="3.91117">
        <ele>66.1</ele>
        <time>2018-09-16T07:29:20Z</time>
      </trkpt>
      <trkpt lat="43.68939" lon="3.9111">
        <ele>66.6</ele>
        <time>2018-09-16T07:29:21Z</time>
      </trkpt>
      <trkpt lat="43.68938" lon="3.91099">
        <ele>66.6</ele>
        <time>2018-09-16T07:29:23Z</time>
      </trkpt>
      <trkpt lat="43.68938" lon="3.91094">
        <ele>66.7</ele>
        <time>2018-09-16T07:29:24Z</time>
      </trkpt>
      <trkpt lat="43.68939" lon="3.91082">
        <ele>66.8</ele>
        <time>2018-09-16T07:29:27Z</time>
      </trkpt>
      <trkpt lat="43.68941" lon="3.91075">
        <ele>67.1</ele>
        <time>2018-09-16T07:29:28Z</time>
      </trkpt>
      <trkpt lat="43.68944" lon="3.91066">
        <ele>67.6</ele>
        <time>2018-09-16T07:29:31Z</time>
      </trkpt>
      <trkpt lat="43.68945" lon="3.91063">
        <ele>67.7</ele>
        <time>2018-09-16T07:29:32Z</time>
      </trkpt>
      <trkpt lat="43.68948" lon="3.91052">
        <ele>68</ele>
        <time>2018-09-16T07:29:33Z</time>
      </trkpt>
      <trkpt lat="43.68948" lon="3.91049">
        <ele>68.1</ele>
        <time>2018-09-16T07:29:34Z</time>
      </trkpt>
      <trkpt lat="43.68948" lon="3.91037">
        <ele>68.2</ele>
        <time>2018-09-16T07:29:37Z</time>
      </trkpt>
      <trkpt lat="43.68949" lon="3.91033">
        <ele>68.3</ele>
        <time>2018-09-16T07:29:38Z</time>
      </trkpt>
      <trkpt lat="43.68949" lon="3.91024">
        <ele>68.4</ele>
        <time>2018-09-16T07:29:40Z</time>
      </trkpt>
      <trkpt lat="43.6895" lon="3.9102">
        <ele>68.5</ele>
        <time>2018-09-16T07:29:41Z</time>
      </trkpt>
      <trkpt lat="43.68952" lon="3.91011">
        <ele>68.7</ele>
        <time>2018-09-16T07:29:43Z</time>
      </trkpt>
      <trkpt lat="43.68954" lon="3.91007">
        <ele>68.9</ele>
        <time>2018-09-16T07:29:44Z</time>
      </trkpt>
      <trkpt lat="43.68956" lon="3.90999">
        <ele>69.3</ele>
        <time>2018-09-16T07:29:46Z</time>
      </trkpt>
      <trkpt lat="43.68957" lon="3.90995">
        <ele>69.5</ele>
        <time>2018-09-16T07:29:47Z</time>
      </trkpt>
      <trkpt lat="43.6896" lon="3.90985">
        <ele>70.2</ele>
        <time>2018-09-16T07:29:50Z</time>
      </trkpt>
      <trkpt lat="43.68961" lon="3.90982">
        <ele>70.4</ele>
        <time>2018-09-16T07:29:51Z</time>
      </trkpt>
      <trkpt lat="43.68964" lon="3.90972">
        <ele>71.1</ele>
        <time>2018-09-16T07:29:54Z</time>
      </trkpt>
      <trkpt lat="43.68965" lon="3.90969">
        <ele>71.3</ele>
        <time>2018-09-16T07:29:55Z</time>
      </trkpt>
      <trkpt lat="43.68969" lon="3.90959">
        <ele>71.8</ele>
        <time>2018-09-16T07:29:58Z</time>
      </trkpt>
      <trkpt lat="43.6897" lon="3.90956">
        <ele>71.9</ele>
        <time>2018-09-16T07:29:59Z</time>
      </trkpt>
      <trkpt lat="43.68974" lon="3.90945">
        <ele>72.2</ele>
        <time>2018-09-16T07:30:02Z</time>
      </trkpt>
      <trkpt lat="43.68975" lon="3.90942">
        <ele>72.3</ele>
        <time>2018-09-16T07:30:03Z</time>
      </trkpt>
      <trkpt lat="43.68978" lon="3.90931">
        <ele>72.6</ele>
        <time>2018-09-16T07:30:06Z</time>
      </trkpt>
      <trkpt lat="43.68979" lon="3.90928">
        <ele>72.7</ele>
        <time>2018-09-16T07:30:07Z</time>
      </trkpt>
      <trkpt lat="43.6898" lon="3.90919">
        <ele>72.8</ele>
        <time>2018-09-16T07:30:09Z</time>
      </trkpt>
      <trkpt lat="43.6898" lon="3.90915">
        <ele>72.9</ele>
        <time>2018-09-16T07:30:10Z</time>
      </trkpt>
      <trkpt lat="43.68979" lon="3.90907">
        <ele>73.2</ele>
        <time>2018-09-16T07:30:12Z</time>
      </trkpt>
      <trkpt lat="43.68979" lon="3.90902">
        <ele>73.4</ele>
        <time>2018-09-16T07:30:13Z</time>
      </trkpt>
      <trkpt lat="43.68977" lon="3.90891">
        <ele>73.6</ele>
        <time>2018-09-16T07:30:16Z</time>
      </trkpt>
      <trkpt lat="43.68977" lon="3.90887">
        <ele>73.8</ele>
        <time>2018-09-16T07:30:17Z</time>
      </trkpt>
      <trkpt lat="43.68974" lon="3.90875">
        <ele>74.3</ele>
        <time>2018-09-16T07:30:20Z</time>
      </trkpt>
      <trkpt lat="43.68972" lon="3.90871">
        <ele>74.3</ele>
        <time>2018-09-16T07:30:21Z</time>
      </trkpt>
      <trkpt lat="43.6897" lon="3.90863">
        <ele>74.7</ele>
        <time>2018-09-16T07:30:23Z</time>
      </trkpt>
      <trkpt lat="43.68969" lon="3.9086">
        <ele>74.8</ele>
        <time>2018-09-16T07:30:24Z</time>
      </trkpt>
      <trkpt lat="43.68966" lon="3.90849">
        <ele>75.3</ele>
        <time>2018-09-16T07:30:27Z</time>
      </trkpt>
      <trkpt lat="43.68965" lon="3.90845">
        <ele>75.5</ele>
        <time>2018-09-16T07:30:28Z</time>
      </trkpt>
      <trkpt lat="43.68962" lon="3.90834">
        <ele>75.9</ele>
        <time>2018-09-16T07:30:31Z</time>
      </trkpt>
      <trkpt lat="43.68961" lon="3.9083">
        <ele>75.9</ele>
        <time>2018-09-16T07:30:32Z</time>
      </trkpt>
      <trkpt lat="43.68959" lon="3.90819">
        <ele>76.1</ele>
        <time>2018-09-16T07:30:35Z</time>
      </trkpt>
      <trkpt lat="43.68958" lon="3.90815">
        <ele>76.1</ele>
        <time>2018-09-16T07:30:36Z</time>
      </trkpt>
      <trkpt lat="43.68955" lon="3.90804">
        <ele>76.2</ele>
        <time>2018-09-16T07:30:39Z</time>
      </trkpt>
      <trkpt lat="43.68954" lon="3.90799">
        <ele>76.3</ele>
        <time>2018-09-16T07:30:40Z</time>
      </trkpt>
      <trkpt lat="43.68953" lon="3.90791">
        <ele>76.6</ele>
        <time>2018-09-16T07:30:42Z</time>
      </trkpt>
      <trkpt lat="43.68952" lon="3.90787">
        <ele>76.7</ele>
        <time>2018-09-16T07:30:43Z</time>
      </trkpt>
      <trkpt lat="43.68949" lon="3.90776">
        <ele>76.8</ele>
        <time>2018-09-16T07:30:46Z</time>
      </trkpt>
      <trkpt lat="43.68948" lon="3.90773">
        <ele>76.9</ele>
        <time>2018-09-16T07:30:47Z</time>
      </trkpt>
      <trkpt lat="43.68944" lon="3.90761">
        <ele>77.2</ele>
        <time>2018-09-16T07:30:50Z</time>
      </trkpt>
      <trkpt lat="43.68944" lon="3.90758">
        <ele>77.4</ele>
        <time>2018-09-16T07:30:51Z</time>
      </trkpt>
      <trkpt lat="43.68943" lon="3.90747">
        <ele>78.2</ele>
        <time>2018-09-16T07:30:54Z</time>
      </trkpt>
      <trkpt lat="43.68942" lon="3.90743">
        <ele>78.5</ele>
        <time>2018-09-16T07:30:55Z</time>
      </trkpt>
      <trkpt lat="43.68939" lon="3.90731">
        <ele>79.1</ele>
        <time>2018-09-16T07:30:58Z</time>
      </trkpt>
      <trkpt lat="43.68938" lon="3.90727">
        <ele>79.3</ele>
        <time>2018-09-16T07:30:59Z</time>
      </trkpt>
      <trkpt lat="43.68935" lon="3.90719">
        <ele>79.4</ele>
        <time>2018-09-16T07:31:01Z</time>
      </trkpt>
      <trkpt lat="43.68934" lon="3.90715">
        <ele>79.5</ele>
        <time>2018-09-16T07:31:02Z</time>
      </trkpt>
      <trkpt lat="43.68932" lon="3.90707">
        <ele>79.7</ele>
        <time>2018-09-16T07:31:04Z</time>
      </trkpt>
      <trkpt lat="43.68931" lon="3.90703">
        <ele>79.7</ele>
        <time>2018-09-16T07:31:05Z</time>
      </trkpt>
      <trkpt lat="43.6893" lon="3.90694">
        <ele>80</ele>
        <time>2018-09-16T07:31:07Z</time>
      </trkpt>
      <trkpt lat="43.68929" lon="3.9069">
        <ele>80</ele>
        <time>2018-09-16T07:31:08Z</time>
      </trkpt>
      <trkpt lat="43.68928" lon="3.90679">
        <ele>80.3</ele>
        <time>2018-09-16T07:31:11Z</time>
      </trkpt>
      <trkpt lat="43.68927" lon="3.90675">
        <ele>80.3</ele>
        <time>2018-09-16T07:31:12Z</time>
      </trkpt>
      <trkpt lat="43.68925" lon="3.90664">
        <ele>80.4</ele>
        <time>2018-09-16T07:31:15Z</time>
      </trkpt>
      <trkpt lat="43.68924" lon="3.9066">
        <ele>80.5</ele>
        <time>2018-09-16T07:31:16Z</time>
      </trkpt>
      <trkpt lat="43.6892" lon="3.90649">
        <ele>80.8</ele>
        <time>2018-09-16T07:31:19Z</time>
      </trkpt>
      <trkpt lat="43.68919" lon="3.90645">
        <ele>80.9</ele>
        <time>2018-09-16T07:31:20Z</time>
      </trkpt>
      <trkpt lat="43.68917" lon="3.90634">
        <ele>81.4</ele>
        <time>2018-09-16T07:31:23Z</time>
      </trkpt>
      <trkpt lat="43.68917" lon="3.90631">
        <ele>81.6</ele>
        <time>2018-09-16T07:31:24Z</time>
      </trkpt>
      <trkpt lat="43.68915" lon="3.9062">
        <ele>82.3</ele>
        <time>2018-09-16T07:31:27Z</time>
      </trkpt>
      <trkpt lat="43.68915" lon="3.90616">
        <ele>82.6</ele>
        <time>2018-09-16T07:31:28Z</time>
      </trkpt>
      <trkpt lat="43.68912" lon="3.90607">
        <ele>83.1</ele>
        <time>2018-09-16T07:31:31Z</time>
      </trkpt>
      <trkpt lat="43.68912" lon="3.90604">
        <ele>83.3</ele>
        <time>2018-09-16T07:31:32Z</time>
      </trkpt>
      <trkpt lat="43.6891" lon="3.90593">
        <ele>84.1</ele>
        <time>2018-09-16T07:31:35Z</time>
      </trkpt>
      <trkpt lat="43.6891" lon="3.9059">
        <ele>84.3</ele>
        <time>2018-09-16T07:31:36Z</time>
      </trkpt>
      <trkpt lat="43.68907" lon="3.90581">
        <ele>84.8</ele>
        <time>2018-09-16T07:31:39Z</time>
      </trkpt>
      <trkpt lat="43.68906" lon="3.90578">
        <ele>84.9</ele>
        <time>2018-09-16T07:31:40Z</time>
      </trkpt>
      <trkpt lat="43.68905" lon="3.90568">
        <ele>85.5</ele>
        <time>2018-09-16T07:31:43Z</time>
      </trkpt>
      <trkpt lat="43.68904" lon="3.90565">
        <ele>85.6</ele>
        <time>2018-09-16T07:31:44Z</time>
      </trkpt>
      <trkpt lat="43.68898" lon="3.90556">
        <ele>85.6</ele>
        <time>2018-09-16T07:31:47Z</time>
      </trkpt>
      <trkpt lat="43.68896" lon="3.90554">
        <ele>85.6</ele>
        <time>2018-09-16T07:31:48Z</time>
      </trkpt>
      <trkpt lat="43.68889" lon="3.90547">
        <ele>85.6</ele>
        <time>2018-09-16T07:31:52Z</time>
      </trkpt>
      <trkpt lat="43.68887" lon="3.90547">
        <ele>85.8</ele>
        <time>2018-09-16T07:31:53Z</time>
      </trkpt>
      <trkpt lat="43.68878" lon="3.90547">
        <ele>86.7</ele>
        <time>2018-09-16T07:31:57Z</time>
      </trkpt>
      <trkpt lat="43.68876" lon="3.90547">
        <ele>86.9</ele>
        <time>2018-09-16T07:31:58Z</time>
      </trkpt>
      <trkpt lat="43.68869" lon="3.90549">
        <ele>87.5</ele>
        <time>2018-09-16T07:32:01Z</time>
      </trkpt>
      <trkpt lat="43.68867" lon="3.9055">
        <ele>87.6</ele>
        <time>2018-09-16T07:32:02Z</time>
      </trkpt>
      <trkpt lat="43.68861" lon="3.90553">
        <ele>88.1</ele>
        <time>2018-09-16T07:32:05Z</time>
      </trkpt>
      <trkpt lat="43.68858" lon="3.90554">
        <ele>88.3</ele>
        <time>2018-09-16T07:32:06Z</time>
      </trkpt>
      <trkpt lat="43.6885" lon="3.90556">
        <ele>88.8</ele>
        <time>2018-09-16T07:32:10Z</time>
      </trkpt>
      <trkpt lat="43.68849" lon="3.90554">
        <ele>88.9</ele>
      </trkpt>
      <trkpt lat="43.68848" lon="3.90557">
        <ele>88.9</ele>
        <time>2018-09-16T07:32:11Z</time>
      </trkpt>
      <trkpt lat="43.68839" lon="3.90546">
        <ele>89.6</ele>
        <time>2018-09-16T07:32:15Z</time>
      </trkpt>
      <trkpt lat="43.68832" lon="3.90556">
        <ele>90</ele>
        <time>2018-09-16T07:32:16Z</time>
      </trkpt>
      <trkpt lat="43.68825" lon="3.90563">
        <ele>89.7</ele>
        <time>2018-09-16T07:32:19Z</time>
      </trkpt>
      <trkpt lat="43.68822" lon="3.90565">
        <ele>89.7</ele>
        <time>2018-09-16T07:32:20Z</time>
      </trkpt>
      <trkpt lat="43.68818" lon="3.90571">
        <ele>89.8</ele>
        <time>2018-09-16T07:32:23Z</time>
      </trkpt>
      <trkpt lat="43.68819" lon="3.90575">
        <ele>89.7</ele>
        <time>2018-09-16T07:32:24Z</time>
      </trkpt>
      <trkpt lat="43.68814" lon="3.90583">
        <ele>90.1</ele>
        <time>2018-09-16T07:32:27Z</time>
      </trkpt>
      <trkpt lat="43.68813" lon="3.90585">
        <ele>90.2</ele>
        <time>2018-09-16T07:32:28Z</time>
      </trkpt>
      <trkpt lat="43.6881" lon="3.90595">
        <ele>90.9</ele>
        <time>2018-09-16T07:32:32Z</time>
      </trkpt>
      <trkpt lat="43.68809" lon="3.90598">
        <ele>91.1</ele>
        <time>2018-09-16T07:32:33Z</time>
      </trkpt>
      <trkpt lat="43.68806" lon="3.90609">
        <ele>91.9</ele>
        <time>2018-09-16T07:32:38Z</time>
      </trkpt>
      <trkpt lat="43.68805" lon="3.90611">
        <ele>92</ele>
        <time>2018-09-16T07:32:39Z</time>
      </trkpt>
      <trkpt lat="43.68804" lon="3.90623">
        <ele>92.9</ele>
        <time>2018-09-16T07:32:45Z</time>
      </trkpt>
      <trkpt lat="43.68803" lon="3.90626">
        <ele>93.2</ele>
        <time>2018-09-16T07:32:46Z</time>
      </trkpt>
      <trkpt lat="43.68801" lon="3.90636">
        <ele>94</ele>
        <time>2018-09-16T07:32:49Z</time>
      </trkpt>
      <trkpt lat="43.688" lon="3.90639">
        <ele>94.2</ele>
        <time>2018-09-16T07:32:50Z</time>
      </trkpt>
      <trkpt lat="43.68797" lon="3.90651">
        <ele>94.7</ele>
        <time>2018-09-16T07:32:54Z</time>
      </trkpt>
      <trkpt lat="43.68797" lon="3.90653">
        <ele>94.8</ele>
        <time>2018-09-16T07:32:55Z</time>
      </trkpt>
      <trkpt lat="43.68797" lon="3.90664">
        <ele>95.2</ele>
        <time>2018-09-16T07:32:59Z</time>
      </trkpt>
      <trkpt lat="43.68797" lon="3.90667">
        <ele>95.3</ele>
        <time>2018-09-16T07:33:00Z</time>
      </trkpt>
      <trkpt lat="43.68794" lon="3.90676">
        <ele>96.1</ele>
        <time>2018-09-16T07:33:04Z</time>
      </trkpt>
      <trkpt lat="43.68794" lon="3.90679">
        <ele>96.3</ele>
        <time>2018-09-16T07:33:05Z</time>
      </trkpt>
      <trkpt lat="43.68792" lon="3.90689">
        <ele>97.1</ele>
        <time>2018-09-16T07:33:09Z</time>
      </trkpt>
      <trkpt lat="43.68791" lon="3.90692">
        <ele>97.3</ele>
        <time>2018-09-16T07:33:10Z</time>
      </trkpt>
      <trkpt lat="43.68789" lon="3.90702">
        <ele>98</ele>
        <time>2018-09-16T07:33:14Z</time>
      </trkpt>
      <trkpt lat="43.68788" lon="3.90704">
        <ele>98.1</ele>
        <time>2018-09-16T07:33:15Z</time>
      </trkpt>
      <trkpt lat="43.68782" lon="3.90713">
        <ele>98.6</ele>
        <time>2018-09-16T07:33:20Z</time>
      </trkpt>
      <trkpt lat="43.68781" lon="3.90715">
        <ele>98.7</ele>
        <time>2018-09-16T07:33:21Z</time>
      </trkpt>
      <trkpt lat="43.68775" lon="3.90722">
        <ele>99</ele>
        <time>2018-09-16T07:33:25Z</time>
      </trkpt>
      <trkpt lat="43.68773" lon="3.90724">
        <ele>99.1</ele>
        <time>2018-09-16T07:33:26Z</time>
      </trkpt>
      <trkpt lat="43.68767" lon="3.90733">
        <ele>99.4</ele>
        <time>2018-09-16T07:33:30Z</time>
      </trkpt>
      <trkpt lat="43.68766" lon="3.90735">
        <ele>99.5</ele>
        <time>2018-09-16T07:33:31Z</time>
      </trkpt>
      <trkpt lat="43.68761" lon="3.90742">
        <ele>99.7</ele>
        <time>2018-09-16T07:33:34Z</time>
      </trkpt>
      <trkpt lat="43.68759" lon="3.90745">
        <ele>99.8</ele>
        <time>2018-09-16T07:33:35Z</time>
      </trkpt>
      <trkpt lat="43.68755" lon="3.90751">
        <ele>100</ele>
        <time>2018-09-16T07:33:37Z</time>
      </trkpt>
      <trkpt lat="43.68753" lon="3.90755">
        <ele>100.2</ele>
        <time>2018-09-16T07:33:38Z</time>
      </trkpt>
      <trkpt lat="43.68748" lon="3.90762">
        <ele>100.4</ele>
        <time>2018-09-16T07:33:41Z</time>
      </trkpt>
      <trkpt lat="43.68747" lon="3.90764">
        <ele>100.4</ele>
        <time>2018-09-16T07:33:42Z</time>
      </trkpt>
      <trkpt lat="43.68741" lon="3.90772">
        <ele>100.5</ele>
        <time>2018-09-16T07:33:45Z</time>
      </trkpt>
      <trkpt lat="43.68739" lon="3.90775">
        <ele>100.5</ele>
        <time>2018-09-16T07:33:46Z</time>
      </trkpt>
      <trkpt lat="43.68735" lon="3.90783">
        <ele>100.5</ele>
        <time>2018-09-16T07:33:48Z</time>
      </trkpt>
      <trkpt lat="43.68733" lon="3.90788">
        <ele>100.4</ele>
        <time>2018-09-16T07:33:49Z</time>
      </trkpt>
      <trkpt lat="43.6873" lon="3.90796">
        <ele>100.3</ele>
        <time>2018-09-16T07:33:51Z</time>
      </trkpt>
      <trkpt lat="43.68728" lon="3.908">
        <ele>100.2</ele>
        <time>2018-09-16T07:33:52Z</time>
      </trkpt>
      <trkpt lat="43.68725" lon="3.90807">
        <ele>100.1</ele>
        <time>2018-09-16T07:33:54Z</time>
      </trkpt>
      <trkpt lat="43.6872" lon="3.90818">
        <ele>100</ele>
        <time>2018-09-16T07:33:55Z</time>
      </trkpt>
      <trkpt lat="43.68717" lon="3.90824">
        <ele>100</ele>
        <time>2018-09-16T07:33:56Z</time>
      </trkpt>
      <trkpt lat="43.68715" lon="3.90829">
        <ele>100</ele>
        <time>2018-09-16T07:33:57Z</time>
      </trkpt>
      <trkpt lat="43.68711" lon="3.90834">
        <ele>99.9</ele>
        <time>2018-09-16T07:33:58Z</time>
      </trkpt>
      <trkpt lat="43.68709" lon="3.90839">
        <ele>99.6</ele>
        <time>2018-09-16T07:33:59Z</time>
      </trkpt>
      <trkpt lat="43.68705" lon="3.90845">
        <ele>99.3</ele>
        <time>2018-09-16T07:34:02Z</time>
      </trkpt>
      <trkpt lat="43.68697" lon="3.90853">
        <ele>99.2</ele>
        <time>2018-09-16T07:34:03Z</time>
      </trkpt>
      <trkpt lat="43.68692" lon="3.90862">
        <ele>99</ele>
        <time>2018-09-16T07:34:05Z</time>
      </trkpt>
      <trkpt lat="43.6869" lon="3.90863">
        <ele>99</ele>
        <time>2018-09-16T07:34:06Z</time>
      </trkpt>
      <trkpt lat="43.68682" lon="3.90864">
        <ele>99.3</ele>
        <time>2018-09-16T07:34:09Z</time>
      </trkpt>
      <trkpt lat="43.6868" lon="3.90863">
        <ele>99.5</ele>
        <time>2018-09-16T07:34:10Z</time>
      </trkpt>
      <trkpt lat="43.68675" lon="3.90854">
        <ele>99.8</ele>
        <time>2018-09-16T07:34:14Z</time>
      </trkpt>
      <trkpt lat="43.68672" lon="3.90851">
        <ele>99.9</ele>
        <time>2018-09-16T07:34:15Z</time>
      </trkpt>
      <trkpt lat="43.68666" lon="3.90845">
        <ele>100</ele>
        <time>2018-09-16T07:34:18Z</time>
      </trkpt>
      <trkpt lat="43.68663" lon="3.90844">
        <ele>100.1</ele>
        <time>2018-09-16T07:34:19Z</time>
      </trkpt>
      <trkpt lat="43.68657" lon="3.90842">
        <ele>100.1</ele>
        <time>2018-09-16T07:34:21Z</time>
      </trkpt>
      <trkpt lat="43.68654" lon="3.90842">
        <ele>100.1</ele>
        <time>2018-09-16T07:34:22Z</time>
      </trkpt>
      <trkpt lat="43.68646" lon="3.90838">
        <ele>100.1</ele>
        <time>2018-09-16T07:34:25Z</time>
      </trkpt>
      <trkpt lat="43.68643" lon="3.90837">
        <ele>100.1</ele>
        <time>2018-09-16T07:34:26Z</time>
      </trkpt>
      <trkpt lat="43.68629" lon="3.90828">
        <ele>100</ele>
        <time>2018-09-16T07:34:27Z</time>
      </trkpt>
      <trkpt lat="43.68629" lon="3.90821">
        <ele>100</ele>
        <time>2018-09-16T07:34:28Z</time>
      </trkpt>
      <trkpt lat="43.68626" lon="3.90814">
        <ele>100</ele>
        <time>2018-09-16T07:34:29Z</time>
      </trkpt>
      <trkpt lat="43.68625" lon="3.90809">
        <ele>100</ele>
        <time>2018-09-16T07:34:31Z</time>
      </trkpt>
      <trkpt lat="43.68622" lon="3.90801">
        <ele>99.8</ele>
        <time>2018-09-16T07:34:32Z</time>
      </trkpt>
      <trkpt lat="43.68621" lon="3.9079">
        <ele>99.4</ele>
        <time>2018-09-16T07:34:36Z</time>
      </trkpt>
      <trkpt lat="43.68623" lon="3.90788">
        <ele>99.4</ele>
        <time>2018-09-16T07:34:37Z</time>
      </trkpt>
      <trkpt lat="43.68628" lon="3.9078">
        <ele>99.1</ele>
        <time>2018-09-16T07:34:40Z</time>
      </trkpt>
      <trkpt lat="43.68629" lon="3.90778">
        <ele>99</ele>
        <time>2018-09-16T07:34:41Z</time>
      </trkpt>
      <trkpt lat="43.68629" lon="3.90765">
        <ele>98.5</ele>
        <time>2018-09-16T07:34:45Z</time>
      </trkpt>
      <trkpt lat="43.68628" lon="3.90762">
        <ele>98.4</ele>
        <time>2018-09-16T07:34:46Z</time>
      </trkpt>
      <trkpt lat="43.68626" lon="3.90759">
        <ele>98.3</ele>
        <time>2018-09-16T07:34:47Z</time>
      </trkpt>
      <trkpt lat="43.68618" lon="3.90752">
        <ele>98.1</ele>
        <time>2018-09-16T07:34:48Z</time>
      </trkpt>
      <trkpt lat="43.68614" lon="3.90752">
        <ele>98.1</ele>
        <time>2018-09-16T07:34:50Z</time>
      </trkpt>
      <trkpt lat="43.68609" lon="3.90751">
        <ele>98</ele>
        <time>2018-09-16T07:34:51Z</time>
      </trkpt>
      <trkpt lat="43.68601" lon="3.90748">
        <ele>97.5</ele>
        <time>2018-09-16T07:34:53Z</time>
      </trkpt>
      <trkpt lat="43.68597" lon="3.90747">
        <ele>97.3</ele>
        <time>2018-09-16T07:34:54Z</time>
      </trkpt>
      <trkpt lat="43.68592" lon="3.90748">
        <ele>97.2</ele>
        <time>2018-09-16T07:34:55Z</time>
      </trkpt>
      <trkpt lat="43.68587" lon="3.90746">
        <ele>96.8</ele>
        <time>2018-09-16T07:34:56Z</time>
      </trkpt>
      <trkpt lat="43.6858" lon="3.90743">
        <ele>96.5</ele>
        <time>2018-09-16T07:34:58Z</time>
      </trkpt>
      <trkpt lat="43.68575" lon="3.90742">
        <ele>96.4</ele>
        <time>2018-09-16T07:34:59Z</time>
      </trkpt>
      <trkpt lat="43.68568" lon="3.90741">
        <ele>96.4</ele>
        <time>2018-09-16T07:35:01Z</time>
      </trkpt>
      <trkpt lat="43.68564" lon="3.9074">
        <ele>96.3</ele>
        <time>2018-09-16T07:35:02Z</time>
      </trkpt>
      <trkpt lat="43.68557" lon="3.9074">
        <ele>96.3</ele>
        <time>2018-09-16T07:35:04Z</time>
      </trkpt>
      <trkpt lat="43.68553" lon="3.90737">
        <ele>96</ele>
        <time>2018-09-16T07:35:05Z</time>
      </trkpt>
      <trkpt lat="43.68547" lon="3.90736">
        <ele>95.8</ele>
        <time>2018-09-16T07:35:06Z</time>
      </trkpt>
      <trkpt lat="43.68543" lon="3.90733">
        <ele>95.5</ele>
        <time>2018-09-16T07:35:07Z</time>
      </trkpt>
      <trkpt lat="43.68537" lon="3.90731">
        <ele>95.2</ele>
        <time>2018-09-16T07:35:08Z</time>
      </trkpt>
      <trkpt lat="43.68531" lon="3.9073">
        <ele>94.9</ele>
        <time>2018-09-16T07:35:09Z</time>
      </trkpt>
      <trkpt lat="43.68523" lon="3.90727">
        <ele>94.5</ele>
        <time>2018-09-16T07:35:11Z</time>
      </trkpt>
      <trkpt lat="43.6852" lon="3.90726">
        <ele>94.4</ele>
        <time>2018-09-16T07:35:12Z</time>
      </trkpt>
      <trkpt lat="43.68515" lon="3.90718">
        <ele>93.7</ele>
        <time>2018-09-16T07:35:14Z</time>
      </trkpt>
      <trkpt lat="43.6851" lon="3.90714">
        <ele>93.4</ele>
        <time>2018-09-16T07:35:15Z</time>
      </trkpt>
      <trkpt lat="43.68502" lon="3.90716">
        <ele>93.6</ele>
        <time>2018-09-16T07:35:17Z</time>
      </trkpt>
      <trkpt lat="43.68498" lon="3.90713">
        <ele>93.3</ele>
        <time>2018-09-16T07:35:18Z</time>
      </trkpt>
      <trkpt lat="43.68492" lon="3.90709">
        <ele>93</ele>
        <time>2018-09-16T07:35:20Z</time>
      </trkpt>
      <trkpt lat="43.68487" lon="3.90708">
        <ele>93</ele>
        <time>2018-09-16T07:35:21Z</time>
      </trkpt>
      <trkpt lat="43.68482" lon="3.90706">
        <ele>92.8</ele>
        <time>2018-09-16T07:35:22Z</time>
      </trkpt>
      <trkpt lat="43.68478" lon="3.90702">
        <ele>92.5</ele>
        <time>2018-09-16T07:35:23Z</time>
      </trkpt>
      <trkpt lat="43.68474" lon="3.907">
        <ele>92.4</ele>
        <time>2018-09-16T07:35:24Z</time>
      </trkpt>
      <trkpt lat="43.68468" lon="3.90698">
        <ele>92.3</ele>
        <time>2018-09-16T07:35:25Z</time>
      </trkpt>
      <trkpt lat="43.68464" lon="3.90696">
        <ele>92.1</ele>
        <time>2018-09-16T07:35:26Z</time>
      </trkpt>
      <trkpt lat="43.68459" lon="3.90694">
        <ele>92</ele>
        <time>2018-09-16T07:35:27Z</time>
      </trkpt>
      <trkpt lat="43.68453" lon="3.90693">
        <ele>91.8</ele>
        <time>2018-09-16T07:35:28Z</time>
      </trkpt>
      <trkpt lat="43.68447" lon="3.90689">
        <ele>91.4</ele>
        <time>2018-09-16T07:35:29Z</time>
      </trkpt>
      <trkpt lat="43.68443" lon="3.90686">
        <ele>91.2</ele>
        <time>2018-09-16T07:35:30Z</time>
      </trkpt>
      <trkpt lat="43.68439" lon="3.90681">
        <ele>90.8</ele>
        <time>2018-09-16T07:35:31Z</time>
      </trkpt>
      <trkpt lat="43.68431" lon="3.90677">
        <ele>90.9</ele>
        <time>2018-09-16T07:35:33Z</time>
      </trkpt>
      <trkpt lat="43.68427" lon="3.90674">
        <ele>90.9</ele>
        <time>2018-09-16T07:35:34Z</time>
      </trkpt>
      <trkpt lat="43.68422" lon="3.90671">
        <ele>91</ele>
        <time>2018-09-16T07:35:35Z</time>
      </trkpt>
      <trkpt lat="43.68417" lon="3.90667">
        <ele>91</ele>
        <time>2018-09-16T07:35:36Z</time>
      </trkpt>
      <trkpt lat="43.68412" lon="3.90663">
        <ele>90.8</ele>
        <time>2018-09-16T07:35:37Z</time>
      </trkpt>
      <trkpt lat="43.68408" lon="3.90661">
        <ele>90.7</ele>
        <time>2018-09-16T07:35:38Z</time>
      </trkpt>
      <trkpt lat="43.684" lon="3.90656">
        <ele>90.4</ele>
        <time>2018-09-16T07:35:40Z</time>
      </trkpt>
      <trkpt lat="43.68396" lon="3.90654">
        <ele>90.4</ele>
        <time>2018-09-16T07:35:41Z</time>
      </trkpt>
      <trkpt lat="43.68389" lon="3.9065">
        <ele>90.2</ele>
        <time>2018-09-16T07:35:43Z</time>
      </trkpt>
      <trkpt lat="43.68386" lon="3.90648">
        <ele>90.1</ele>
        <time>2018-09-16T07:35:44Z</time>
      </trkpt>
      <trkpt lat="43.68383" lon="3.90646">
        <ele>90</ele>
        <time>2018-09-16T07:35:45Z</time>
      </trkpt>
      <trkpt lat="43.68377" lon="3.90642">
        <ele>89.8</ele>
        <time>2018-09-16T07:35:46Z</time>
      </trkpt>
      <trkpt lat="43.6837" lon="3.90641">
        <ele>89.9</ele>
        <time>2018-09-16T07:35:48Z</time>
      </trkpt>
      <trkpt lat="43.68366" lon="3.90639">
        <ele>89.8</ele>
        <time>2018-09-16T07:35:49Z</time>
      </trkpt>
      <trkpt lat="43.68359" lon="3.90633">
        <ele>89.4</ele>
        <time>2018-09-16T07:35:51Z</time>
      </trkpt>
      <trkpt lat="43.68357" lon="3.90632">
        <ele>89.4</ele>
        <time>2018-09-16T07:35:52Z</time>
      </trkpt>
      <trkpt lat="43.68352" lon="3.90635">
        <ele>89.9</ele>
        <time>2018-09-16T07:35:53Z</time>
      </trkpt>
      <trkpt lat="43.68347" lon="3.90635">
        <ele>90.1</ele>
        <time>2018-09-16T07:35:54Z</time>
      </trkpt>
      <trkpt lat="43.68338" lon="3.90632">
        <ele>90.1</ele>
        <time>2018-09-16T07:35:56Z</time>
      </trkpt>
      <trkpt lat="43.68334" lon="3.9063">
        <ele>90</ele>
        <time>2018-09-16T07:35:57Z</time>
      </trkpt>
      <trkpt lat="43.68325" lon="3.90629">
        <ele>90.1</ele>
        <time>2018-09-16T07:35:59Z</time>
      </trkpt>
      <trkpt lat="43.68321" lon="3.90626">
        <ele>89.8</ele>
        <time>2018-09-16T07:36:00Z</time>
      </trkpt>
      <trkpt lat="43.68315" lon="3.90619">
        <ele>89</ele>
        <time>2018-09-16T07:36:02Z</time>
      </trkpt>
      <trkpt lat="43.68311" lon="3.90615">
        <ele>88.5</ele>
        <time>2018-09-16T07:36:03Z</time>
      </trkpt>
      <trkpt lat="43.68303" lon="3.90614">
        <ele>88.6</ele>
        <time>2018-09-16T07:36:05Z</time>
      </trkpt>
      <trkpt lat="43.683" lon="3.9061">
        <ele>88.3</ele>
        <time>2018-09-16T07:36:06Z</time>
      </trkpt>
      <trkpt lat="43.68295" lon="3.90601">
        <ele>87.5</ele>
        <time>2018-09-16T07:36:11Z</time>
      </trkpt>
      <trkpt lat="43.68295" lon="3.90598">
        <ele>87.2</ele>
        <time>2018-09-16T07:36:12Z</time>
      </trkpt>
      <trkpt lat="43.68295" lon="3.90587">
        <ele>85.8</ele>
        <time>2018-09-16T07:36:13Z</time>
      </trkpt>
      <trkpt lat="43.68295" lon="3.90582">
        <ele>85.2</ele>
        <time>2018-09-16T07:36:14Z</time>
      </trkpt>
      <trkpt lat="43.68294" lon="3.90575">
        <ele>84.5</ele>
        <time>2018-09-16T07:36:16Z</time>
      </trkpt>
      <trkpt lat="43.68296" lon="3.90564">
        <ele>83.3</ele>
        <time>2018-09-16T07:36:17Z</time>
      </trkpt>
      <trkpt lat="43.68296" lon="3.90555">
        <ele>82.3</ele>
        <time>2018-09-16T07:36:20Z</time>
      </trkpt>
      <trkpt lat="43.68296" lon="3.90551">
        <ele>81.9</ele>
        <time>2018-09-16T07:36:21Z</time>
      </trkpt>
      <trkpt lat="43.68298" lon="3.90538">
        <ele>80.4</ele>
        <time>2018-09-16T07:36:22Z</time>
      </trkpt>
      <trkpt lat="43.68302" lon="3.90527">
        <ele>79</ele>
        <time>2018-09-16T07:36:25Z</time>
      </trkpt>
      <trkpt lat="43.68302" lon="3.90523">
        <ele>78.4</ele>
        <time>2018-09-16T07:36:26Z</time>
      </trkpt>
      <trkpt lat="43.68304" lon="3.90512">
        <ele>76.8</ele>
        <time>2018-09-16T07:36:29Z</time>
      </trkpt>
      <trkpt lat="43.68305" lon="3.90507">
        <ele>76</ele>
        <time>2018-09-16T07:36:30Z</time>
      </trkpt>
      <trkpt lat="43.68306" lon="3.90498">
        <ele>74.7</ele>
        <time>2018-09-16T07:36:32Z</time>
      </trkpt>
      <trkpt lat="43.68307" lon="3.90494">
        <ele>74.1</ele>
        <time>2018-09-16T07:36:33Z</time>
      </trkpt>
      <trkpt lat="43.68307" lon="3.90485">
        <ele>72.8</ele>
        <time>2018-09-16T07:36:35Z</time>
      </trkpt>
      <trkpt lat="43.68307" lon="3.9048">
        <ele>72.1</ele>
        <time>2018-09-16T07:36:36Z</time>
      </trkpt>
      <trkpt lat="43.68307" lon="3.90465">
        <ele>70.2</ele>
        <time>2018-09-16T07:36:37Z</time>
      </trkpt>
      <trkpt lat="43.68309" lon="3.90452">
        <ele>68.9</ele>
        <time>2018-09-16T07:36:38Z</time>
      </trkpt>
      <trkpt lat="43.68303" lon="3.9045">
        <ele>68.6</ele>
        <time>2018-09-16T07:36:39Z</time>
      </trkpt>
      <trkpt lat="43.68297" lon="3.90448">
        <ele>68.4</ele>
        <time>2018-09-16T07:36:40Z</time>
      </trkpt>
      <trkpt lat="43.68293" lon="3.90444">
        <ele>68</ele>
        <time>2018-09-16T07:36:41Z</time>
      </trkpt>
      <trkpt lat="43.68289" lon="3.90444">
        <ele>68</ele>
        <time>2018-09-16T07:36:42Z</time>
      </trkpt>
      <trkpt lat="43.68283" lon="3.9044">
        <ele>67.8</ele>
        <time>2018-09-16T07:36:43Z</time>
      </trkpt>
      <trkpt lat="43.68277" lon="3.90438">
        <ele>67.8</ele>
        <time>2018-09-16T07:36:44Z</time>
      </trkpt>
      <trkpt lat="43.68271" lon="3.90436">
        <ele>67.6</ele>
        <time>2018-09-16T07:36:45Z</time>
      </trkpt>
      <trkpt lat="43.68265" lon="3.90434">
        <ele>67.5</ele>
        <time>2018-09-16T07:36:46Z</time>
      </trkpt>
      <trkpt lat="43.68259" lon="3.90434">
        <ele>67.4</ele>
        <time>2018-09-16T07:36:47Z</time>
      </trkpt>
      <trkpt lat="43.68253" lon="3.90433">
        <ele>67.2</ele>
        <time>2018-09-16T07:36:48Z</time>
      </trkpt>
      <trkpt lat="43.68247" lon="3.90431">
        <ele>67.1</ele>
        <time>2018-09-16T07:36:49Z</time>
      </trkpt>
      <trkpt lat="43.68241" lon="3.90428">
        <ele>67.1</ele>
        <time>2018-09-16T07:36:50Z</time>
      </trkpt>
      <trkpt lat="43.68236" lon="3.90425">
        <ele>66.9</ele>
        <time>2018-09-16T07:36:51Z</time>
      </trkpt>
      <trkpt lat="43.68232" lon="3.90421">
        <ele>66.5</ele>
        <time>2018-09-16T07:36:52Z</time>
      </trkpt>
      <trkpt lat="43.68227" lon="3.90419">
        <ele>66.3</ele>
        <time>2018-09-16T07:36:53Z</time>
      </trkpt>
      <trkpt lat="43.68221" lon="3.90415">
        <ele>66.1</ele>
        <time>2018-09-16T07:36:55Z</time>
      </trkpt>
      <trkpt lat="43.68216" lon="3.90411">
        <ele>66.5</ele>
        <time>2018-09-16T07:36:56Z</time>
      </trkpt>
      <trkpt lat="43.68213" lon="3.90407">
        <ele>66.5</ele>
        <time>2018-09-16T07:36:57Z</time>
      </trkpt>
      <trkpt lat="43.68208" lon="3.90405">
        <ele>66.7</ele>
        <time>2018-09-16T07:36:58Z</time>
      </trkpt>
      <trkpt lat="43.68205" lon="3.90402">
        <ele>66.6</ele>
        <time>2018-09-16T07:36:59Z</time>
      </trkpt>
      <trkpt lat="43.68199" lon="3.90398">
        <ele>66.3</ele>
        <time>2018-09-16T07:37:00Z</time>
      </trkpt>
      <trkpt lat="43.68195" lon="3.90394">
        <ele>65.7</ele>
        <time>2018-09-16T07:37:01Z</time>
      </trkpt>
      <trkpt lat="43.68191" lon="3.90392">
        <ele>65.5</ele>
        <time>2018-09-16T07:37:02Z</time>
      </trkpt>
      <trkpt lat="43.68187" lon="3.90391">
        <ele>65.3</ele>
        <time>2018-09-16T07:37:03Z</time>
      </trkpt>
      <trkpt lat="43.68181" lon="3.90389">
        <ele>65</ele>
        <time>2018-09-16T07:37:04Z</time>
      </trkpt>
      <trkpt lat="43.68176" lon="3.90387">
        <ele>65</ele>
        <time>2018-09-16T07:37:05Z</time>
      </trkpt>
      <trkpt lat="43.6817" lon="3.90385">
        <ele>65</ele>
        <time>2018-09-16T07:37:06Z</time>
      </trkpt>
      <trkpt lat="43.68165" lon="3.90386">
        <ele>65</ele>
        <time>2018-09-16T07:37:07Z</time>
      </trkpt>
      <trkpt lat="43.6816" lon="3.90385">
        <ele>65.2</ele>
        <time>2018-09-16T07:37:08Z</time>
      </trkpt>
      <trkpt lat="43.68154" lon="3.90384">
        <ele>65.3</ele>
        <time>2018-09-16T07:37:09Z</time>
      </trkpt>
      <trkpt lat="43.6815" lon="3.90383">
        <ele>65.3</ele>
        <time>2018-09-16T07:37:10Z</time>
      </trkpt>
      <trkpt lat="43.68145" lon="3.90381">
        <ele>65.3</ele>
        <time>2018-09-16T07:37:11Z</time>
      </trkpt>
      <trkpt lat="43.68139" lon="3.90379">
        <ele>65.3</ele>
        <time>2018-09-16T07:37:12Z</time>
      </trkpt>
      <trkpt lat="43.68132" lon="3.90376">
        <ele>65.2</ele>
        <time>2018-09-16T07:37:13Z</time>
      </trkpt>
      <trkpt lat="43.68128" lon="3.90374">
        <ele>65.1</ele>
        <time>2018-09-16T07:37:14Z</time>
      </trkpt>
      <trkpt lat="43.68121" lon="3.90376">
        <ele>65.4</ele>
        <time>2018-09-16T07:37:16Z</time>
      </trkpt>
      <trkpt lat="43.68115" lon="3.90376">
        <ele>65.5</ele>
        <time>2018-09-16T07:37:17Z</time>
      </trkpt>
      <trkpt lat="43.68109" lon="3.90377">
        <ele>65.5</ele>
        <time>2018-09-16T07:37:18Z</time>
      </trkpt>
      <trkpt lat="43.68103" lon="3.90377">
        <ele>65.4</ele>
        <time>2018-09-16T07:37:19Z</time>
      </trkpt>
      <trkpt lat="43.68099" lon="3.90377">
        <ele>65.3</ele>
        <time>2018-09-16T07:37:20Z</time>
      </trkpt>
      <trkpt lat="43.68093" lon="3.90378">
        <ele>65.2</ele>
        <time>2018-09-16T07:37:21Z</time>
      </trkpt>
      <trkpt lat="43.68088" lon="3.9038">
        <ele>65.1</ele>
        <time>2018-09-16T07:37:22Z</time>
      </trkpt>
      <trkpt lat="43.68082" lon="3.90379">
        <ele>65.1</ele>
        <time>2018-09-16T07:37:23Z</time>
      </trkpt>
      <trkpt lat="43.68074" lon="3.90376">
        <ele>65.4</ele>
        <time>2018-09-16T07:37:25Z</time>
      </trkpt>
      <trkpt lat="43.68071" lon="3.90371">
        <ele>65.3</ele>
        <time>2018-09-16T07:37:26Z</time>
      </trkpt>
      <trkpt lat="43.68062" lon="3.90367">
        <ele>65.3</ele>
        <time>2018-09-16T07:37:28Z</time>
      </trkpt>
      <trkpt lat="43.68058" lon="3.90365">
        <ele>65.3</ele>
        <time>2018-09-16T07:37:29Z</time>
      </trkpt>
      <trkpt lat="43.6805" lon="3.90365">
        <ele>65.3</ele>
        <time>2018-09-16T07:37:31Z</time>
      </trkpt>
      <trkpt lat="43.68046" lon="3.90366">
        <ele>65.4</ele>
        <time>2018-09-16T07:37:32Z</time>
      </trkpt>
      <trkpt lat="43.6804" lon="3.90366">
        <ele>65.4</ele>
        <time>2018-09-16T07:37:33Z</time>
      </trkpt>
      <trkpt lat="43.68034" lon="3.90366">
        <ele>65.4</ele>
        <time>2018-09-16T07:37:34Z</time>
      </trkpt>
      <trkpt lat="43.68029" lon="3.90367">
        <ele>65.4</ele>
        <time>2018-09-16T07:37:35Z</time>
      </trkpt>
      <trkpt lat="43.68025" lon="3.90367">
        <ele>65.4</ele>
        <time>2018-09-16T07:37:36Z</time>
      </trkpt>
      <trkpt lat="43.6802" lon="3.9037">
        <ele>65.4</ele>
        <time>2018-09-16T07:37:37Z</time>
      </trkpt>
      <trkpt lat="43.68015" lon="3.90373">
        <ele>65.3</ele>
        <time>2018-09-16T07:37:38Z</time>
      </trkpt>
      <trkpt lat="43.6801" lon="3.90376">
        <ele>65</ele>
        <time>2018-09-16T07:37:39Z</time>
      </trkpt>
      <trkpt lat="43.68006" lon="3.90377">
        <ele>64.8</ele>
        <time>2018-09-16T07:37:40Z</time>
      </trkpt>
      <trkpt lat="43.68002" lon="3.9038">
        <ele>64.5</ele>
        <time>2018-09-16T07:37:41Z</time>
      </trkpt>
      <trkpt lat="43.67997" lon="3.90383">
        <ele>64.3</ele>
        <time>2018-09-16T07:37:42Z</time>
      </trkpt>
      <trkpt lat="43.6799" lon="3.90388">
        <ele>64.4</ele>
        <time>2018-09-16T07:37:44Z</time>
      </trkpt>
      <trkpt lat="43.67988" lon="3.90389">
        <ele>64.4</ele>
        <time>2018-09-16T07:37:45Z</time>
      </trkpt>
      <trkpt lat="43.6798" lon="3.90385">
        <ele>64.8</ele>
        <time>2018-09-16T07:37:49Z</time>
      </trkpt>
      <trkpt lat="43.67979" lon="3.90382">
        <ele>64.8</ele>
        <time>2018-09-16T07:37:50Z</time>
      </trkpt>
      <trkpt lat="43.67978" lon="3.90378">
        <ele>64.9</ele>
        <time>2018-09-16T07:37:51Z</time>
      </trkpt>
      <trkpt lat="43.67976" lon="3.90363">
        <ele>65</ele>
        <time>2018-09-16T07:37:52Z</time>
      </trkpt>
      <trkpt lat="43.67974" lon="3.90351">
        <ele>65</ele>
        <time>2018-09-16T07:37:54Z</time>
      </trkpt>
      <trkpt lat="43.67973" lon="3.90346">
        <ele>65</ele>
        <time>2018-09-16T07:37:55Z</time>
      </trkpt>
      <trkpt lat="43.67971" lon="3.90335">
        <ele>65.1</ele>
        <time>2018-09-16T07:37:57Z</time>
      </trkpt>
      <trkpt lat="43.6797" lon="3.9033">
        <ele>65.2</ele>
        <time>2018-09-16T07:37:58Z</time>
      </trkpt>
      <trkpt lat="43.67967" lon="3.9032">
        <ele>65.5</ele>
        <time>2018-09-16T07:38:00Z</time>
      </trkpt>
      <trkpt lat="43.67965" lon="3.90315">
        <ele>65.6</ele>
        <time>2018-09-16T07:38:01Z</time>
      </trkpt>
      <trkpt lat="43.67963" lon="3.90306">
        <ele>65.7</ele>
        <time>2018-09-16T07:38:04Z</time>
      </trkpt>
      <trkpt lat="43.6796" lon="3.90297">
        <ele>65.7</ele>
        <time>2018-09-16T07:38:05Z</time>
      </trkpt>
      <trkpt lat="43.67957" lon="3.90289">
        <ele>65.8</ele>
        <time>2018-09-16T07:38:08Z</time>
      </trkpt>
      <trkpt lat="43.67956" lon="3.90285">
        <ele>65.7</ele>
        <time>2018-09-16T07:38:09Z</time>
      </trkpt>
      <trkpt lat="43.67952" lon="3.90276">
        <ele>65.7</ele>
        <time>2018-09-16T07:38:12Z</time>
      </trkpt>
      <trkpt lat="43.67943" lon="3.90249">
        <ele>66.1</ele>
        <time>2018-09-16T07:38:20Z</time>
      </trkpt>
      <trkpt lat="43.67942" lon="3.90246">
        <ele>66.1</ele>
        <time>2018-09-16T07:38:21Z</time>
      </trkpt>
      <trkpt lat="43.67938" lon="3.90238">
        <ele>66.1</ele>
        <time>2018-09-16T07:38:24Z</time>
      </trkpt>
      <trkpt lat="43.67925" lon="3.90217">
        <ele>65.9</ele>
        <time>2018-09-16T07:38:32Z</time>
      </trkpt>
      <trkpt lat="43.67923" lon="3.90215">
        <ele>65.8</ele>
        <time>2018-09-16T07:38:33Z</time>
      </trkpt>
      <trkpt lat="43.67915" lon="3.90209">
        <ele>65.6</ele>
        <time>2018-09-16T07:38:38Z</time>
      </trkpt>
      <trkpt lat="43.67914" lon="3.90209">
        <ele>65.7</ele>
        <time>2018-09-16T07:38:39Z</time>
      </trkpt>
      <trkpt lat="43.67913" lon="3.90209">
        <ele>65.8</ele>
        <time>2018-09-16T07:39:58Z</time>
      </trkpt>
      <trkpt lat="43.67909" lon="3.90208">
        <ele>66</ele>
        <time>2018-09-16T07:39:59Z</time>
      </trkpt>
      <trkpt lat="43.67902" lon="3.90204">
        <ele>66.4</ele>
        <time>2018-09-16T07:40:01Z</time>
      </trkpt>
      <trkpt lat="43.67899" lon="3.90204">
        <ele>66.6</ele>
        <time>2018-09-16T07:40:02Z</time>
      </trkpt>
      <trkpt lat="43.67892" lon="3.90201">
        <ele>67</ele>
        <time>2018-09-16T07:40:04Z</time>
      </trkpt>
      <trkpt lat="43.67887" lon="3.902">
        <ele>67.2</ele>
        <time>2018-09-16T07:40:05Z</time>
      </trkpt>
      <trkpt lat="43.67879" lon="3.90199">
        <ele>67.2</ele>
        <time>2018-09-16T07:40:07Z</time>
      </trkpt>
      <trkpt lat="43.67875" lon="3.90199">
        <ele>67.2</ele>
        <time>2018-09-16T07:40:08Z</time>
      </trkpt>
      <trkpt lat="43.67866" lon="3.90198">
        <ele>67.2</ele>
        <time>2018-09-16T07:40:11Z</time>
      </trkpt>
      <trkpt lat="43.67863" lon="3.90197">
        <ele>67.2</ele>
        <time>2018-09-16T07:40:12Z</time>
      </trkpt>
      <trkpt lat="43.67861" lon="3.90196">
        <ele>67.1</ele>
        <time>2018-09-16T07:40:13Z</time>
      </trkpt>
      <trkpt lat="43.67852" lon="3.90193">
        <ele>67</ele>
        <time>2018-09-16T07:40:14Z</time>
      </trkpt>
      <trkpt lat="43.67847" lon="3.9019">
        <ele>66.9</ele>
        <time>2018-09-16T07:40:16Z</time>
      </trkpt>
      <trkpt lat="43.67844" lon="3.90188">
        <ele>66.9</ele>
        <time>2018-09-16T07:40:17Z</time>
      </trkpt>
      <trkpt lat="43.67836" lon="3.90183">
        <ele>67</ele>
        <time>2018-09-16T07:40:19Z</time>
      </trkpt>
      <trkpt lat="43.67834" lon="3.90181">
        <ele>67</ele>
        <time>2018-09-16T07:40:20Z</time>
      </trkpt>
      <trkpt lat="43.6783" lon="3.90176">
        <ele>67</ele>
        <time>2018-09-16T07:40:21Z</time>
      </trkpt>
      <trkpt lat="43.67828" lon="3.90171">
        <ele>67</ele>
        <time>2018-09-16T07:40:22Z</time>
      </trkpt>
      <trkpt lat="43.67824" lon="3.90164">
        <ele>66.9</ele>
        <time>2018-09-16T07:40:24Z</time>
      </trkpt>
      <trkpt lat="43.67822" lon="3.9016">
        <ele>66.9</ele>
        <time>2018-09-16T07:40:25Z</time>
      </trkpt>
      <trkpt lat="43.67819" lon="3.90148">
        <ele>66.7</ele>
        <time>2018-09-16T07:40:27Z</time>
      </trkpt>
      <trkpt lat="43.67819" lon="3.90143">
        <ele>66.6</ele>
        <time>2018-09-16T07:40:28Z</time>
      </trkpt>
      <trkpt lat="43.67817" lon="3.90134">
        <ele>66.8</ele>
        <time>2018-09-16T07:40:31Z</time>
      </trkpt>
      <trkpt lat="43.67817" lon="3.9013">
        <ele>66.9</ele>
        <time>2018-09-16T07:40:32Z</time>
      </trkpt>
      <trkpt lat="43.67817" lon="3.90118">
        <ele>67.3</ele>
        <time>2018-09-16T07:40:35Z</time>
      </trkpt>
      <trkpt lat="43.67818" lon="3.90114">
        <ele>67.4</ele>
        <time>2018-09-16T07:40:36Z</time>
      </trkpt>
      <trkpt lat="43.67818" lon="3.90109">
        <ele>67.6</ele>
        <time>2018-09-16T07:40:37Z</time>
      </trkpt>
      <trkpt lat="43.67822" lon="3.90099">
        <ele>67.7</ele>
        <time>2018-09-16T07:40:38Z</time>
      </trkpt>
      <trkpt lat="43.67823" lon="3.90088">
        <ele>67.9</ele>
        <time>2018-09-16T07:40:40Z</time>
      </trkpt>
      <trkpt lat="43.67823" lon="3.90086">
        <ele>67.9</ele>
        <time>2018-09-16T07:40:41Z</time>
      </trkpt>
      <trkpt lat="43.67822" lon="3.90078">
        <ele>67.7</ele>
        <time>2018-09-16T07:40:42Z</time>
      </trkpt>
      <trkpt lat="43.67819" lon="3.90074">
        <ele>67.5</ele>
        <time>2018-09-16T07:40:43Z</time>
      </trkpt>
      <trkpt lat="43.67815" lon="3.90066">
        <ele>67.2</ele>
        <time>2018-09-16T07:40:45Z</time>
      </trkpt>
      <trkpt lat="43.67812" lon="3.90062">
        <ele>67.1</ele>
        <time>2018-09-16T07:40:46Z</time>
      </trkpt>
      <trkpt lat="43.67807" lon="3.90059">
        <ele>67.1</ele>
        <time>2018-09-16T07:40:47Z</time>
      </trkpt>
      <trkpt lat="43.67803" lon="3.90056">
        <ele>67</ele>
        <time>2018-09-16T07:40:48Z</time>
      </trkpt>
      <trkpt lat="43.678" lon="3.90049">
        <ele>67.2</ele>
        <time>2018-09-16T07:40:49Z</time>
      </trkpt>
      <trkpt lat="43.67796" lon="3.90047">
        <ele>67.3</ele>
        <time>2018-09-16T07:40:50Z</time>
      </trkpt>
      <trkpt lat="43.67794" lon="3.90041">
        <ele>67.5</ele>
        <time>2018-09-16T07:40:51Z</time>
      </trkpt>
      <trkpt lat="43.67792" lon="3.90032">
        <ele>67.9</ele>
        <time>2018-09-16T07:40:52Z</time>
      </trkpt>
      <trkpt lat="43.6779" lon="3.90017">
        <ele>67.8</ele>
        <time>2018-09-16T07:40:54Z</time>
      </trkpt>
      <trkpt lat="43.67794" lon="3.90009">
        <ele>67.6</ele>
        <time>2018-09-16T07:40:55Z</time>
      </trkpt>
      <trkpt lat="43.67798" lon="3.90005">
        <ele>67.4</ele>
        <time>2018-09-16T07:40:56Z</time>
      </trkpt>
      <trkpt lat="43.67802" lon="3.90002">
        <ele>67.2</ele>
        <time>2018-09-16T07:40:57Z</time>
      </trkpt>
      <trkpt lat="43.678" lon="3.89992">
        <ele>67.2</ele>
        <time>2018-09-16T07:40:59Z</time>
      </trkpt>
      <trkpt lat="43.678" lon="3.89985">
        <ele>67.2</ele>
        <time>2018-09-16T07:41:00Z</time>
      </trkpt>
      <trkpt lat="43.67797" lon="3.89973">
        <ele>67.3</ele>
        <time>2018-09-16T07:41:02Z</time>
      </trkpt>
      <trkpt lat="43.67798" lon="3.89967">
        <ele>67.3</ele>
        <time>2018-09-16T07:41:03Z</time>
      </trkpt>
      <trkpt lat="43.67796" lon="3.89957">
        <ele>67.3</ele>
        <time>2018-09-16T07:41:05Z</time>
      </trkpt>
      <trkpt lat="43.67795" lon="3.89952">
        <ele>67.4</ele>
        <time>2018-09-16T07:41:06Z</time>
      </trkpt>
      <trkpt lat="43.67794" lon="3.89946">
        <ele>67.4</ele>
        <time>2018-09-16T07:41:07Z</time>
      </trkpt>
      <trkpt lat="43.67793" lon="3.8994">
        <ele>67.5</ele>
        <time>2018-09-16T07:41:08Z</time>
      </trkpt>
      <trkpt lat="43.67791" lon="3.8993">
        <ele>67.8</ele>
        <time>2018-09-16T07:41:10Z</time>
      </trkpt>
      <trkpt lat="43.67791" lon="3.89925">
        <ele>67.9</ele>
        <time>2018-09-16T07:41:11Z</time>
      </trkpt>
      <trkpt lat="43.67788" lon="3.89913">
        <ele>68.1</ele>
        <time>2018-09-16T07:41:13Z</time>
      </trkpt>
      <trkpt lat="43.67788" lon="3.89908">
        <ele>68.2</ele>
        <time>2018-09-16T07:41:14Z</time>
      </trkpt>
      <trkpt lat="43.67785" lon="3.89897">
        <ele>68.5</ele>
        <time>2018-09-16T07:41:16Z</time>
      </trkpt>
      <trkpt lat="43.67784" lon="3.89895">
        <ele>68.6</ele>
        <time>2018-09-16T07:41:17Z</time>
      </trkpt>
      <trkpt lat="43.67783" lon="3.89888">
        <ele>68.8</ele>
        <time>2018-09-16T07:41:18Z</time>
      </trkpt>
      <trkpt lat="43.67781" lon="3.89882">
        <ele>68.9</ele>
        <time>2018-09-16T07:41:19Z</time>
      </trkpt>
      <trkpt lat="43.67777" lon="3.89872">
        <ele>69</ele>
        <time>2018-09-16T07:41:21Z</time>
      </trkpt>
      <trkpt lat="43.67776" lon="3.89867">
        <ele>69.1</ele>
        <time>2018-09-16T07:41:22Z</time>
      </trkpt>
      <trkpt lat="43.67776" lon="3.89861">
        <ele>69.1</ele>
        <time>2018-09-16T07:41:23Z</time>
      </trkpt>
      <trkpt lat="43.67775" lon="3.89855">
        <ele>69.3</ele>
        <time>2018-09-16T07:41:24Z</time>
      </trkpt>
      <trkpt lat="43.67771" lon="3.89844">
        <ele>69.7</ele>
        <time>2018-09-16T07:41:27Z</time>
      </trkpt>
      <trkpt lat="43.6777" lon="3.89841">
        <ele>69.8</ele>
        <time>2018-09-16T07:41:28Z</time>
      </trkpt>
      <trkpt lat="43.67769" lon="3.89831">
        <ele>70</ele>
        <time>2018-09-16T07:41:29Z</time>
      </trkpt>
      <trkpt lat="43.67768" lon="3.89826">
        <ele>70.1</ele>
        <time>2018-09-16T07:41:30Z</time>
      </trkpt>
      <trkpt lat="43.67767" lon="3.89814">
        <ele>70.3</ele>
        <time>2018-09-16T07:41:33Z</time>
      </trkpt>
      <trkpt lat="43.67767" lon="3.89811">
        <ele>70.3</ele>
        <time>2018-09-16T07:41:34Z</time>
      </trkpt>
      <trkpt lat="43.67765" lon="3.89803">
        <ele>70.6</ele>
        <time>2018-09-16T07:41:35Z</time>
      </trkpt>
      <trkpt lat="43.67764" lon="3.89797">
        <ele>70.8</ele>
        <time>2018-09-16T07:41:36Z</time>
      </trkpt>
      <trkpt lat="43.67763" lon="3.89788">
        <ele>71.2</ele>
        <time>2018-09-16T07:41:38Z</time>
      </trkpt>
      <trkpt lat="43.67762" lon="3.89783">
        <ele>71.4</ele>
        <time>2018-09-16T07:41:39Z</time>
      </trkpt>
      <trkpt lat="43.6776" lon="3.89772">
        <ele>71.7</ele>
        <time>2018-09-16T07:41:41Z</time>
      </trkpt>
      <trkpt lat="43.67759" lon="3.89767">
        <ele>71.8</ele>
        <time>2018-09-16T07:41:42Z</time>
      </trkpt>
      <trkpt lat="43.67758" lon="3.89759">
        <ele>71.9</ele>
        <time>2018-09-16T07:41:44Z</time>
      </trkpt>
      <trkpt lat="43.67759" lon="3.89753">
        <ele>72</ele>
        <time>2018-09-16T07:41:45Z</time>
      </trkpt>
      <trkpt lat="43.67758" lon="3.89743">
        <ele>72</ele>
        <time>2018-09-16T07:41:47Z</time>
      </trkpt>
      <trkpt lat="43.67757" lon="3.89737">
        <ele>72</ele>
        <time>2018-09-16T07:41:48Z</time>
      </trkpt>
      <trkpt lat="43.67757" lon="3.89725">
        <ele>72</ele>
        <time>2018-09-16T07:41:50Z</time>
      </trkpt>
      <trkpt lat="43.67757" lon="3.89718">
        <ele>72.2</ele>
        <time>2018-09-16T07:41:51Z</time>
      </trkpt>
      <trkpt lat="43.67757" lon="3.89709">
        <ele>72.5</ele>
        <time>2018-09-16T07:41:53Z</time>
      </trkpt>
      <trkpt lat="43.67757" lon="3.89703">
        <ele>72.7</ele>
        <time>2018-09-16T07:41:54Z</time>
      </trkpt>
      <trkpt lat="43.67756" lon="3.89693">
        <ele>73</ele>
        <time>2018-09-16T07:41:56Z</time>
      </trkpt>
      <trkpt lat="43.67755" lon="3.89686">
        <ele>73</ele>
        <time>2018-09-16T07:41:57Z</time>
      </trkpt>
      <trkpt lat="43.67755" lon="3.89674">
        <ele>73</ele>
        <time>2018-09-16T07:41:59Z</time>
      </trkpt>
      <trkpt lat="43.67754" lon="3.89667">
        <ele>73</ele>
        <time>2018-09-16T07:42:00Z</time>
      </trkpt>
      <trkpt lat="43.67752" lon="3.89655">
        <ele>73</ele>
        <time>2018-09-16T07:42:02Z</time>
      </trkpt>
      <trkpt lat="43.67752" lon="3.89649">
        <ele>73</ele>
        <time>2018-09-16T07:42:03Z</time>
      </trkpt>
      <trkpt lat="43.67751" lon="3.89643">
        <ele>73</ele>
        <time>2018-09-16T07:42:04Z</time>
      </trkpt>
      <trkpt lat="43.6775" lon="3.89636">
        <ele>73</ele>
        <time>2018-09-16T07:42:05Z</time>
      </trkpt>
      <trkpt lat="43.6775" lon="3.89626">
        <ele>73</ele>
        <time>2018-09-16T07:42:07Z</time>
      </trkpt>
      <trkpt lat="43.67749" lon="3.89619">
        <ele>73</ele>
        <time>2018-09-16T07:42:08Z</time>
      </trkpt>
      <trkpt lat="43.67748" lon="3.89608">
        <ele>73.1</ele>
        <time>2018-09-16T07:42:10Z</time>
      </trkpt>
      <trkpt lat="43.67747" lon="3.89602">
        <ele>73.3</ele>
        <time>2018-09-16T07:42:11Z</time>
      </trkpt>
      <trkpt lat="43.67747" lon="3.8959">
        <ele>73.7</ele>
        <time>2018-09-16T07:42:13Z</time>
      </trkpt>
      <trkpt lat="43.67746" lon="3.89583">
        <ele>73.9</ele>
        <time>2018-09-16T07:42:14Z</time>
      </trkpt>
      <trkpt lat="43.67746" lon="3.89573">
        <ele>73.9</ele>
        <time>2018-09-16T07:42:16Z</time>
      </trkpt>
      <trkpt lat="43.67745" lon="3.89567">
        <ele>73.9</ele>
        <time>2018-09-16T07:42:17Z</time>
      </trkpt>
      <trkpt lat="43.67745" lon="3.89555">
        <ele>74</ele>
        <time>2018-09-16T07:42:19Z</time>
      </trkpt>
      <trkpt lat="43.67744" lon="3.89549">
        <ele>74</ele>
        <time>2018-09-16T07:42:20Z</time>
      </trkpt>
      <trkpt lat="43.67743" lon="3.89538">
        <ele>74</ele>
        <time>2018-09-16T07:42:22Z</time>
      </trkpt>
      <trkpt lat="43.67743" lon="3.89533">
        <ele>74</ele>
        <time>2018-09-16T07:42:23Z</time>
      </trkpt>
      <trkpt lat="43.67742" lon="3.89523">
        <ele>74</ele>
        <time>2018-09-16T07:42:25Z</time>
      </trkpt>
      <trkpt lat="43.67741" lon="3.89518">
        <ele>74</ele>
        <time>2018-09-16T07:42:26Z</time>
      </trkpt>
      <trkpt lat="43.67739" lon="3.89507">
        <ele>74</ele>
        <time>2018-09-16T07:42:28Z</time>
      </trkpt>
      <trkpt lat="43.6774" lon="3.89502">
        <ele>74</ele>
        <time>2018-09-16T07:42:29Z</time>
      </trkpt>
      <trkpt lat="43.67739" lon="3.8949">
        <ele>74</ele>
        <time>2018-09-16T07:42:31Z</time>
      </trkpt>
      <trkpt lat="43.67739" lon="3.89484">
        <ele>74</ele>
        <time>2018-09-16T07:42:32Z</time>
      </trkpt>
      <trkpt lat="43.67738" lon="3.89473">
        <ele>74</ele>
        <time>2018-09-16T07:42:34Z</time>
      </trkpt>
      <trkpt lat="43.67738" lon="3.89467">
        <ele>74.2</ele>
        <time>2018-09-16T07:42:35Z</time>
      </trkpt>
      <trkpt lat="43.67736" lon="3.89455">
        <ele>74.6</ele>
        <time>2018-09-16T07:42:37Z</time>
      </trkpt>
      <trkpt lat="43.67735" lon="3.8945">
        <ele>74.8</ele>
        <time>2018-09-16T07:42:38Z</time>
      </trkpt>
      <trkpt lat="43.67732" lon="3.89438">
        <ele>75</ele>
        <time>2018-09-16T07:42:40Z</time>
      </trkpt>
      <trkpt lat="43.6773" lon="3.89434">
        <ele>75</ele>
        <time>2018-09-16T07:42:41Z</time>
      </trkpt>
      <trkpt lat="43.67726" lon="3.89423">
        <ele>75</ele>
        <time>2018-09-16T07:42:43Z</time>
      </trkpt>
      <trkpt lat="43.67724" lon="3.89419">
        <ele>75</ele>
        <time>2018-09-16T07:42:44Z</time>
      </trkpt>
      <trkpt lat="43.67721" lon="3.89408">
        <ele>75.3</ele>
        <time>2018-09-16T07:42:46Z</time>
      </trkpt>
      <trkpt lat="43.6772" lon="3.89403">
        <ele>75.4</ele>
        <time>2018-09-16T07:42:47Z</time>
      </trkpt>
      <trkpt lat="43.67717" lon="3.89392">
        <ele>75.7</ele>
        <time>2018-09-16T07:42:49Z</time>
      </trkpt>
      <trkpt lat="43.67716" lon="3.89387">
        <ele>75.8</ele>
        <time>2018-09-16T07:42:50Z</time>
      </trkpt>
      <trkpt lat="43.67714" lon="3.89376">
        <ele>76</ele>
        <time>2018-09-16T07:42:52Z</time>
      </trkpt>
      <trkpt lat="43.67712" lon="3.8937">
        <ele>76.1</ele>
        <time>2018-09-16T07:42:53Z</time>
      </trkpt>
      <trkpt lat="43.6771" lon="3.89358">
        <ele>76.1</ele>
        <time>2018-09-16T07:42:55Z</time>
      </trkpt>
      <trkpt lat="43.67708" lon="3.89352">
        <ele>76</ele>
        <time>2018-09-16T07:42:56Z</time>
      </trkpt>
      <trkpt lat="43.67707" lon="3.89345">
        <ele>75.9</ele>
        <time>2018-09-16T07:42:57Z</time>
      </trkpt>
      <trkpt lat="43.67705" lon="3.89338">
        <ele>75.8</ele>
        <time>2018-09-16T07:42:58Z</time>
      </trkpt>
      <trkpt lat="43.67706" lon="3.89331">
        <ele>75.8</ele>
        <time>2018-09-16T07:42:59Z</time>
      </trkpt>
      <trkpt lat="43.67705" lon="3.89326">
        <ele>75.8</ele>
        <time>2018-09-16T07:43:00Z</time>
      </trkpt>
      <trkpt lat="43.67704" lon="3.89319">
        <ele>75.7</ele>
        <time>2018-09-16T07:43:01Z</time>
      </trkpt>
      <trkpt lat="43.67702" lon="3.89312">
        <ele>75.5</ele>
        <time>2018-09-16T07:43:02Z</time>
      </trkpt>
      <trkpt lat="43.67701" lon="3.89305">
        <ele>75.5</ele>
        <time>2018-09-16T07:43:03Z</time>
      </trkpt>
      <trkpt lat="43.677" lon="3.89298">
        <ele>75.4</ele>
        <time>2018-09-16T07:43:04Z</time>
      </trkpt>
      <trkpt lat="43.67699" lon="3.89292">
        <ele>75.3</ele>
        <time>2018-09-16T07:43:05Z</time>
      </trkpt>
      <trkpt lat="43.67697" lon="3.89286">
        <ele>75.2</ele>
        <time>2018-09-16T07:43:06Z</time>
      </trkpt>
      <trkpt lat="43.67698" lon="3.89276">
        <ele>75.3</ele>
        <time>2018-09-16T07:43:08Z</time>
      </trkpt>
      <trkpt lat="43.67697" lon="3.89269">
        <ele>75.5</ele>
        <time>2018-09-16T07:43:09Z</time>
      </trkpt>
      <trkpt lat="43.67696" lon="3.89262">
        <ele>75.6</ele>
        <time>2018-09-16T07:43:10Z</time>
      </trkpt>
      <trkpt lat="43.67696" lon="3.89255">
        <ele>75.9</ele>
        <time>2018-09-16T07:43:11Z</time>
      </trkpt>
      <trkpt lat="43.67695" lon="3.89248">
        <ele>76</ele>
        <time>2018-09-16T07:43:12Z</time>
      </trkpt>
      <trkpt lat="43.67692" lon="3.89242">
        <ele>75.8</ele>
        <time>2018-09-16T07:43:13Z</time>
      </trkpt>
      <trkpt lat="43.67691" lon="3.89234">
        <ele>75.8</ele>
        <time>2018-09-16T07:43:14Z</time>
      </trkpt>
      <trkpt lat="43.67689" lon="3.89227">
        <ele>75.8</ele>
        <time>2018-09-16T07:43:15Z</time>
      </trkpt>
      <trkpt lat="43.67687" lon="3.89222">
        <ele>75.7</ele>
        <time>2018-09-16T07:43:16Z</time>
      </trkpt>
      <trkpt lat="43.67686" lon="3.89215">
        <ele>75.7</ele>
        <time>2018-09-16T07:43:17Z</time>
      </trkpt>
      <trkpt lat="43.67684" lon="3.89209">
        <ele>75.6</ele>
        <time>2018-09-16T07:43:18Z</time>
      </trkpt>
      <trkpt lat="43.67684" lon="3.89202">
        <ele>75.6</ele>
        <time>2018-09-16T07:43:19Z</time>
      </trkpt>
      <trkpt lat="43.67683" lon="3.89196">
        <ele>75.6</ele>
        <time>2018-09-16T07:43:20Z</time>
      </trkpt>
      <trkpt lat="43.67681" lon="3.8919">
        <ele>75.5</ele>
        <time>2018-09-16T07:43:21Z</time>
      </trkpt>
      <trkpt lat="43.6768" lon="3.89184">
        <ele>75.5</ele>
        <time>2018-09-16T07:43:22Z</time>
      </trkpt>
      <trkpt lat="43.67678" lon="3.89178">
        <ele>75.4</ele>
        <time>2018-09-16T07:43:23Z</time>
      </trkpt>
      <trkpt lat="43.67676" lon="3.89171">
        <ele>75.3</ele>
        <time>2018-09-16T07:43:24Z</time>
      </trkpt>
      <trkpt lat="43.67675" lon="3.89165">
        <ele>75.4</ele>
        <time>2018-09-16T07:43:25Z</time>
      </trkpt>
      <trkpt lat="43.67673" lon="3.89158">
        <ele>75.5</ele>
        <time>2018-09-16T07:43:26Z</time>
      </trkpt>
      <trkpt lat="43.67672" lon="3.89152">
        <ele>75.7</ele>
        <time>2018-09-16T07:43:27Z</time>
      </trkpt>
      <trkpt lat="43.6767" lon="3.8914">
        <ele>76.1</ele>
        <time>2018-09-16T07:43:29Z</time>
      </trkpt>
      <trkpt lat="43.67668" lon="3.89134">
        <ele>76.2</ele>
        <time>2018-09-16T07:43:30Z</time>
      </trkpt>
      <trkpt lat="43.67667" lon="3.89127">
        <ele>76.4</ele>
        <time>2018-09-16T07:43:31Z</time>
      </trkpt>
      <trkpt lat="43.67666" lon="3.89121">
        <ele>76.6</ele>
        <time>2018-09-16T07:43:32Z</time>
      </trkpt>
      <trkpt lat="43.67664" lon="3.8911">
        <ele>77</ele>
        <time>2018-09-16T07:43:34Z</time>
      </trkpt>
      <trkpt lat="43.67662" lon="3.89106">
        <ele>77</ele>
        <time>2018-09-16T07:43:35Z</time>
      </trkpt>
      <trkpt lat="43.67658" lon="3.89095">
        <ele>77</ele>
        <time>2018-09-16T07:43:37Z</time>
      </trkpt>
      <trkpt lat="43.67656" lon="3.8909">
        <ele>77</ele>
        <time>2018-09-16T07:43:38Z</time>
      </trkpt>
      <trkpt lat="43.67655" lon="3.89083">
        <ele>77</ele>
        <time>2018-09-16T07:43:39Z</time>
      </trkpt>
      <trkpt lat="43.67651" lon="3.89077">
        <ele>77</ele>
        <time>2018-09-16T07:43:40Z</time>
      </trkpt>
      <trkpt lat="43.67647" lon="3.89067">
        <ele>77</ele>
        <time>2018-09-16T07:43:42Z</time>
      </trkpt>
      <trkpt lat="43.67645" lon="3.89063">
        <ele>77</ele>
        <time>2018-09-16T07:43:43Z</time>
      </trkpt>
      <trkpt lat="43.67639" lon="3.89054">
        <ele>77.1</ele>
        <time>2018-09-16T07:43:45Z</time>
      </trkpt>
      <trkpt lat="43.67636" lon="3.89049">
        <ele>77.2</ele>
        <time>2018-09-16T07:43:46Z</time>
      </trkpt>
      <trkpt lat="43.6763" lon="3.8904">
        <ele>77.4</ele>
        <time>2018-09-16T07:43:48Z</time>
      </trkpt>
      <trkpt lat="43.67626" lon="3.89037">
        <ele>77.4</ele>
        <time>2018-09-16T07:43:49Z</time>
      </trkpt>
      <trkpt lat="43.67622" lon="3.89034">
        <ele>77.3</ele>
        <time>2018-09-16T07:43:50Z</time>
      </trkpt>
      <trkpt lat="43.67618" lon="3.89029">
        <ele>77.2</ele>
        <time>2018-09-16T07:43:51Z</time>
      </trkpt>
      <trkpt lat="43.67614" lon="3.89019">
        <ele>77.1</ele>
        <time>2018-09-16T07:43:53Z</time>
      </trkpt>
      <trkpt lat="43.67611" lon="3.89013">
        <ele>77</ele>
        <time>2018-09-16T07:43:54Z</time>
      </trkpt>
      <trkpt lat="43.67607" lon="3.89003">
        <ele>77.1</ele>
        <time>2018-09-16T07:43:56Z</time>
      </trkpt>
      <trkpt lat="43.67605" lon="3.88997">
        <ele>77.3</ele>
        <time>2018-09-16T07:43:57Z</time>
      </trkpt>
      <trkpt lat="43.676" lon="3.88988">
        <ele>77.7</ele>
        <time>2018-09-16T07:43:59Z</time>
      </trkpt>
      <trkpt lat="43.67598" lon="3.88984">
        <ele>77.8</ele>
        <time>2018-09-16T07:44:00Z</time>
      </trkpt>
      <trkpt lat="43.67593" lon="3.88974">
        <ele>78</ele>
        <time>2018-09-16T07:44:02Z</time>
      </trkpt>
      <trkpt lat="43.67591" lon="3.88969">
        <ele>78.1</ele>
        <time>2018-09-16T07:44:03Z</time>
      </trkpt>
      <trkpt lat="43.67586" lon="3.8896">
        <ele>78.4</ele>
        <time>2018-09-16T07:44:05Z</time>
      </trkpt>
      <trkpt lat="43.67585" lon="3.88958">
        <ele>78.5</ele>
        <time>2018-09-16T07:44:06Z</time>
      </trkpt>
      <trkpt lat="43.67581" lon="3.88949">
        <ele>78.8</ele>
        <time>2018-09-16T07:44:08Z</time>
      </trkpt>
      <trkpt lat="43.67579" lon="3.88944">
        <ele>79</ele>
        <time>2018-09-16T07:44:09Z</time>
      </trkpt>
      <trkpt lat="43.67577" lon="3.88939">
        <ele>79.2</ele>
        <time>2018-09-16T07:44:11Z</time>
      </trkpt>
      <trkpt lat="43.67573" lon="3.88932">
        <ele>79.4</ele>
        <time>2018-09-16T07:44:12Z</time>
      </trkpt>
      <trkpt lat="43.67569" lon="3.88922">
        <ele>79.8</ele>
        <time>2018-09-16T07:44:16Z</time>
      </trkpt>
      <trkpt lat="43.67567" lon="3.88919">
        <ele>79.9</ele>
        <time>2018-09-16T07:44:17Z</time>
      </trkpt>
      <trkpt lat="43.67561" lon="3.88911">
        <ele>80.2</ele>
      </trkpt>
      <trkpt lat="43.6757" lon="3.88908">
        <ele>80.5</ele>
        <time>2018-09-16T07:44:21Z</time>
      </trkpt>
      <trkpt lat="43.67572" lon="3.88909">
        <ele>80.4</ele>
        <time>2018-09-16T07:44:22Z</time>
      </trkpt>
      <trkpt lat="43.67575" lon="3.88907">
        <ele>80.6</ele>
        <time>2018-09-16T07:44:23Z</time>
      </trkpt>
      <trkpt lat="43.67582" lon="3.88903">
        <ele>81</ele>
        <time>2018-09-16T07:44:24Z</time>
      </trkpt>
      <trkpt lat="43.67591" lon="3.88902">
        <ele>80.8</ele>
        <time>2018-09-16T07:44:26Z</time>
      </trkpt>
      <trkpt lat="43.67595" lon="3.88902">
        <ele>80.6</ele>
        <time>2018-09-16T07:44:27Z</time>
      </trkpt>
      <trkpt lat="43.67604" lon="3.88901">
        <ele>80.4</ele>
        <time>2018-09-16T07:44:29Z</time>
      </trkpt>
      <trkpt lat="43.67609" lon="3.88901">
        <ele>80.2</ele>
        <time>2018-09-16T07:44:30Z</time>
      </trkpt>
      <trkpt lat="43.67616" lon="3.88893">
        <ele>80.7</ele>
        <time>2018-09-16T07:44:35Z</time>
      </trkpt>
      <trkpt lat="43.67617" lon="3.88891">
        <ele>80.8</ele>
        <time>2018-09-16T07:44:36Z</time>
      </trkpt>
      <trkpt lat="43.67622" lon="3.88882">
        <ele>81.7</ele>
        <time>2018-09-16T07:44:40Z</time>
      </trkpt>
      <trkpt lat="43.67623" lon="3.8888">
        <ele>82</ele>
        <time>2018-09-16T07:44:41Z</time>
      </trkpt>
      <trkpt lat="43.67626" lon="3.88869">
        <ele>83.1</ele>
        <time>2018-09-16T07:44:45Z</time>
      </trkpt>
      <trkpt lat="43.67627" lon="3.88866">
        <ele>83.5</ele>
        <time>2018-09-16T07:44:46Z</time>
      </trkpt>
      <trkpt lat="43.67632" lon="3.88857">
        <ele>84.7</ele>
        <time>2018-09-16T07:44:49Z</time>
      </trkpt>
      <trkpt lat="43.67633" lon="3.88855">
        <ele>85</ele>
        <time>2018-09-16T07:44:50Z</time>
      </trkpt>
      <trkpt lat="43.6764" lon="3.88849">
        <ele>85.7</ele>
        <time>2018-09-16T07:44:53Z</time>
      </trkpt>
      <trkpt lat="43.67643" lon="3.88846">
        <ele>86</ele>
        <time>2018-09-16T07:44:54Z</time>
      </trkpt>
      <trkpt lat="43.67647" lon="3.88838">
        <ele>87</ele>
        <time>2018-09-16T07:44:57Z</time>
      </trkpt>
      <trkpt lat="43.6765" lon="3.88836">
        <ele>87.2</ele>
        <time>2018-09-16T07:44:58Z</time>
      </trkpt>
      <trkpt lat="43.67656" lon="3.88833">
        <ele>87.4</ele>
        <time>2018-09-16T07:45:01Z</time>
      </trkpt>
      <trkpt lat="43.67658" lon="3.88832">
        <ele>87.6</ele>
        <time>2018-09-16T07:45:02Z</time>
      </trkpt>
      <trkpt lat="43.67664" lon="3.88831">
        <ele>87.5</ele>
        <time>2018-09-16T07:45:04Z</time>
      </trkpt>
      <trkpt lat="43.67668" lon="3.8883">
        <ele>87.6</ele>
        <time>2018-09-16T07:45:05Z</time>
      </trkpt>
      <trkpt lat="43.67675" lon="3.8883">
        <ele>87.6</ele>
        <time>2018-09-16T07:45:07Z</time>
      </trkpt>
      <trkpt lat="43.67679" lon="3.8883">
        <ele>87.5</ele>
        <time>2018-09-16T07:45:08Z</time>
      </trkpt>
      <trkpt lat="43.67692" lon="3.88832">
        <ele>87.2</ele>
        <time>2018-09-16T07:45:09Z</time>
      </trkpt>
      <trkpt lat="43.67695" lon="3.88833">
        <ele>87</ele>
        <time>2018-09-16T07:45:10Z</time>
      </trkpt>
      <trkpt lat="43.67701" lon="3.88836">
        <ele>86.6</ele>
        <time>2018-09-16T07:45:11Z</time>
      </trkpt>
      <trkpt lat="43.67705" lon="3.88837">
        <ele>86.5</ele>
        <time>2018-09-16T07:45:12Z</time>
      </trkpt>
      <trkpt lat="43.6771" lon="3.88839">
        <ele>86.3</ele>
        <time>2018-09-16T07:45:13Z</time>
      </trkpt>
      <trkpt lat="43.67716" lon="3.8884">
        <ele>86.2</ele>
        <time>2018-09-16T07:45:15Z</time>
      </trkpt>
      <trkpt lat="43.67723" lon="3.8884">
        <ele>86.3</ele>
        <time>2018-09-16T07:45:16Z</time>
      </trkpt>
      <trkpt lat="43.67729" lon="3.88838">
        <ele>86.7</ele>
        <time>2018-09-16T07:45:17Z</time>
      </trkpt>
      <trkpt lat="43.67732" lon="3.88836">
        <ele>87.1</ele>
        <time>2018-09-16T07:45:18Z</time>
      </trkpt>
      <trkpt lat="43.67739" lon="3.88831">
        <ele>88.2</ele>
        <time>2018-09-16T07:45:22Z</time>
      </trkpt>
      <trkpt lat="43.67741" lon="3.8883">
        <ele>88.5</ele>
        <time>2018-09-16T07:45:23Z</time>
      </trkpt>
      <trkpt lat="43.67748" lon="3.88828">
        <ele>89.4</ele>
        <time>2018-09-16T07:45:26Z</time>
      </trkpt>
      <trkpt lat="43.67751" lon="3.88828">
        <ele>89.6</ele>
        <time>2018-09-16T07:45:27Z</time>
      </trkpt>
      <trkpt lat="43.67758" lon="3.8883">
        <ele>89.4</ele>
        <time>2018-09-16T07:45:29Z</time>
      </trkpt>
      <trkpt lat="43.67771" lon="3.88834">
        <ele>89.4</ele>
        <time>2018-09-16T07:45:30Z</time>
      </trkpt>
      <trkpt lat="43.6778" lon="3.88836">
        <ele>89.4</ele>
        <time>2018-09-16T07:45:34Z</time>
      </trkpt>
      <trkpt lat="43.67782" lon="3.88834">
        <ele>89.7</ele>
        <time>2018-09-16T07:45:35Z</time>
      </trkpt>
      <trkpt lat="43.67785" lon="3.88833">
        <ele>89.8</ele>
        <time>2018-09-16T07:45:36Z</time>
      </trkpt>
      <trkpt lat="43.67796" lon="3.88833">
        <ele>89.5</ele>
        <time>2018-09-16T07:45:37Z</time>
      </trkpt>
      <trkpt lat="43.67804" lon="3.88829">
        <ele>89.7</ele>
        <time>2018-09-16T07:45:40Z</time>
      </trkpt>
      <trkpt lat="43.67815" lon="3.88825">
        <ele>89.9</ele>
        <time>2018-09-16T07:45:41Z</time>
      </trkpt>
      <trkpt lat="43.67823" lon="3.88825">
        <ele>89.6</ele>
        <time>2018-09-16T07:45:46Z</time>
      </trkpt>
      <trkpt lat="43.67826" lon="3.88825">
        <ele>89.4</ele>
        <time>2018-09-16T07:45:47Z</time>
      </trkpt>
      <trkpt lat="43.67833" lon="3.88824">
        <ele>89.4</ele>
        <time>2018-09-16T07:45:50Z</time>
      </trkpt>
      <trkpt lat="43.67835" lon="3.88824">
        <ele>89.3</ele>
        <time>2018-09-16T07:45:51Z</time>
      </trkpt>
      <trkpt lat="43.67845" lon="3.88827">
        <ele>88.7</ele>
        <time>2018-09-16T07:45:52Z</time>
      </trkpt>
      <trkpt lat="43.67853" lon="3.8883">
        <ele>88.2</ele>
        <time>2018-09-16T07:45:54Z</time>
      </trkpt>
      <trkpt lat="43.67863" lon="3.88828">
        <ele>88</ele>
        <time>2018-09-16T07:45:55Z</time>
      </trkpt>
      <trkpt lat="43.67872" lon="3.88826">
        <ele>87.5</ele>
        <time>2018-09-16T07:45:57Z</time>
      </trkpt>
      <trkpt lat="43.67876" lon="3.8882">
        <ele>87.4</ele>
        <time>2018-09-16T07:45:58Z</time>
      </trkpt>
      <trkpt lat="43.67879" lon="3.88815">
        <ele>87.4</ele>
        <time>2018-09-16T07:45:59Z</time>
      </trkpt>
      <trkpt lat="43.67886" lon="3.88817">
        <ele>86.8</ele>
        <time>2018-09-16T07:46:00Z</time>
      </trkpt>
      <trkpt lat="43.67892" lon="3.8882">
        <ele>86.4</ele>
        <time>2018-09-16T07:46:01Z</time>
      </trkpt>
      <trkpt lat="43.67895" lon="3.88825">
        <ele>86.1</ele>
        <time>2018-09-16T07:46:02Z</time>
      </trkpt>
      <trkpt lat="43.67899" lon="3.88834">
        <ele>85.6</ele>
        <time>2018-09-16T07:46:04Z</time>
      </trkpt>
      <trkpt lat="43.67902" lon="3.88839">
        <ele>85.3</ele>
        <time>2018-09-16T07:46:05Z</time>
      </trkpt>
      <trkpt lat="43.67906" lon="3.88844">
        <ele>85</ele>
        <time>2018-09-16T07:46:06Z</time>
      </trkpt>
      <trkpt lat="43.6791" lon="3.8885">
        <ele>84.6</ele>
        <time>2018-09-16T07:46:07Z</time>
      </trkpt>
      <trkpt lat="43.67917" lon="3.88845">
        <ele>84.6</ele>
        <time>2018-09-16T07:46:11Z</time>
      </trkpt>
      <trkpt lat="43.67919" lon="3.88844">
        <ele>84.7</ele>
        <time>2018-09-16T07:46:12Z</time>
      </trkpt>
      <trkpt lat="43.67926" lon="3.88841">
        <ele>85.2</ele>
        <time>2018-09-16T07:46:15Z</time>
      </trkpt>
      <trkpt lat="43.67929" lon="3.88841">
        <ele>85.4</ele>
        <time>2018-09-16T07:46:16Z</time>
      </trkpt>
      <trkpt lat="43.67936" lon="3.88839">
        <ele>85.9</ele>
        <time>2018-09-16T07:46:19Z</time>
      </trkpt>
      <trkpt lat="43.67939" lon="3.88838">
        <ele>86.2</ele>
        <time>2018-09-16T07:46:20Z</time>
      </trkpt>
      <trkpt lat="43.67945" lon="3.88835">
        <ele>86.8</ele>
      </trkpt>
      <trkpt lat="43.67939" lon="3.88828">
        <ele>87</ele>
        <time>2018-09-16T07:46:33Z</time>
      </trkpt>
      <trkpt lat="43.67934" lon="3.88825">
        <ele>86.9</ele>
        <time>2018-09-16T07:46:34Z</time>
      </trkpt>
      <trkpt lat="43.67929" lon="3.88819">
        <ele>86.9</ele>
        <time>2018-09-16T07:46:38Z</time>
      </trkpt>
      <trkpt lat="43.67928" lon="3.88812">
        <ele>87.4</ele>
        <time>2018-09-16T07:46:39Z</time>
      </trkpt>
      <trkpt lat="43.67927" lon="3.88799">
        <ele>87.7</ele>
        <time>2018-09-16T07:46:40Z</time>
      </trkpt>
      <trkpt lat="43.67922" lon="3.88793">
        <ele>87.4</ele>
        <time>2018-09-16T07:46:42Z</time>
      </trkpt>
      <trkpt lat="43.67918" lon="3.88793">
        <ele>87.1</ele>
        <time>2018-09-16T07:46:43Z</time>
      </trkpt>
      <trkpt lat="43.6791" lon="3.88789">
        <ele>87</ele>
        <time>2018-09-16T07:46:45Z</time>
      </trkpt>
      <trkpt lat="43.67905" lon="3.88785">
        <ele>87</ele>
        <time>2018-09-16T07:46:46Z</time>
      </trkpt>
      <trkpt lat="43.67896" lon="3.88786">
        <ele>87</ele>
        <time>2018-09-16T07:46:48Z</time>
      </trkpt>
      <trkpt lat="43.67894" lon="3.88788">
        <ele>87</ele>
        <time>2018-09-16T07:46:49Z</time>
      </trkpt>
      <trkpt lat="43.67888" lon="3.88793">
        <ele>87.1</ele>
        <time>2018-09-16T07:46:54Z</time>
      </trkpt>
      <trkpt lat="43.67885" lon="3.88795">
        <ele>87.4</ele>
        <time>2018-09-16T07:46:55Z</time>
      </trkpt>
      <trkpt lat="43.67881" lon="3.888">
        <ele>87.8</ele>
      </trkpt>
      <trkpt lat="43.67873" lon="3.88796">
        <ele>88.9</ele>
        <time>2018-09-16T07:46:59Z</time>
      </trkpt>
      <trkpt lat="43.67869" lon="3.88794">
        <ele>89.6</ele>
        <time>2018-09-16T07:47:00Z</time>
      </trkpt>
      <trkpt lat="43.67866" lon="3.88794">
        <ele>90</ele>
        <time>2018-09-16T07:47:04Z</time>
      </trkpt>
      <trkpt lat="43.67865" lon="3.88792">
        <ele>90.4</ele>
        <time>2018-09-16T07:47:05Z</time>
      </trkpt>
      <trkpt lat="43.67857" lon="3.88792">
        <ele>91.3</ele>
        <time>2018-09-16T07:47:09Z</time>
      </trkpt>
      <trkpt lat="43.67855" lon="3.88792">
        <ele>91.5</ele>
        <time>2018-09-16T07:47:10Z</time>
      </trkpt>
      <trkpt lat="43.67848" lon="3.88787">
        <ele>92.8</ele>
        <time>2018-09-16T07:47:14Z</time>
      </trkpt>
      <trkpt lat="43.67845" lon="3.88786">
        <ele>93.1</ele>
        <time>2018-09-16T07:47:15Z</time>
      </trkpt>
      <trkpt lat="43.67839" lon="3.88787">
        <ele>93.6</ele>
        <time>2018-09-16T07:47:18Z</time>
      </trkpt>
      <trkpt lat="43.67836" lon="3.88786">
        <ele>93.9</ele>
        <time>2018-09-16T07:47:19Z</time>
      </trkpt>
      <trkpt lat="43.67827" lon="3.88788">
        <ele>94</ele>
        <time>2018-09-16T07:47:23Z</time>
      </trkpt>
      <trkpt lat="43.67825" lon="3.88787">
        <ele>94.1</ele>
        <time>2018-09-16T07:47:24Z</time>
      </trkpt>
      <trkpt lat="43.67816" lon="3.88793">
        <ele>93.7</ele>
        <time>2018-09-16T07:47:28Z</time>
      </trkpt>
      <trkpt lat="43.67813" lon="3.88792">
        <ele>93.9</ele>
        <time>2018-09-16T07:47:29Z</time>
      </trkpt>
      <trkpt lat="43.67805" lon="3.88793">
        <ele>94</ele>
      </trkpt>
      <trkpt lat="43.67801" lon="3.88792">
        <ele>94.5</ele>
        <time>2018-09-16T07:47:34Z</time>
      </trkpt>
      <trkpt lat="43.67797" lon="3.88788">
        <ele>95.4</ele>
        <time>2018-09-16T07:47:39Z</time>
      </trkpt>
      <trkpt lat="43.67792" lon="3.88793">
        <ele>95.3</ele>
        <time>2018-09-16T07:47:40Z</time>
      </trkpt>
      <trkpt lat="43.67786" lon="3.88797">
        <ele>95.2</ele>
        <time>2018-09-16T07:47:42Z</time>
      </trkpt>
      <trkpt lat="43.67783" lon="3.888">
        <ele>94.9</ele>
        <time>2018-09-16T07:47:43Z</time>
      </trkpt>
      <trkpt lat="43.67776" lon="3.88803">
        <ele>94.7</ele>
        <time>2018-09-16T07:47:45Z</time>
      </trkpt>
      <trkpt lat="43.67774" lon="3.88803">
        <ele>94.8</ele>
        <time>2018-09-16T07:47:46Z</time>
      </trkpt>
      <trkpt lat="43.67767" lon="3.888">
        <ele>95.7</ele>
        <time>2018-09-16T07:47:49Z</time>
      </trkpt>
      <trkpt lat="43.67765" lon="3.88799">
        <ele>96</ele>
        <time>2018-09-16T07:47:50Z</time>
      </trkpt>
      <trkpt lat="43.67757" lon="3.88797">
        <ele>96.7</ele>
        <time>2018-09-16T07:47:55Z</time>
      </trkpt>
      <trkpt lat="43.67755" lon="3.88796">
        <ele>96.9</ele>
        <time>2018-09-16T07:47:56Z</time>
      </trkpt>
      <trkpt lat="43.67749" lon="3.88792">
        <ele>97.4</ele>
        <time>2018-09-16T07:47:59Z</time>
      </trkpt>
      <trkpt lat="43.67747" lon="3.8879">
        <ele>97.4</ele>
        <time>2018-09-16T07:48:00Z</time>
      </trkpt>
      <trkpt lat="43.67741" lon="3.88782">
        <ele>98.1</ele>
        <time>2018-09-16T07:48:04Z</time>
      </trkpt>
      <trkpt lat="43.67739" lon="3.8878">
        <ele>98.3</ele>
        <time>2018-09-16T07:48:05Z</time>
      </trkpt>
      <trkpt lat="43.67735" lon="3.8877">
        <ele>99.3</ele>
        <time>2018-09-16T07:48:10Z</time>
      </trkpt>
      <trkpt lat="43.67735" lon="3.88767">
        <ele>99.6</ele>
        <time>2018-09-16T07:48:11Z</time>
      </trkpt>
      <trkpt lat="43.67729" lon="3.88759">
        <ele>99.9</ele>
        <time>2018-09-16T07:48:16Z</time>
      </trkpt>
      <trkpt lat="43.67728" lon="3.88757">
        <ele>100</ele>
        <time>2018-09-16T07:48:17Z</time>
      </trkpt>
      <trkpt lat="43.67722" lon="3.88748">
        <ele>100.2</ele>
        <time>2018-09-16T07:48:23Z</time>
      </trkpt>
      <trkpt lat="43.67721" lon="3.88747">
        <ele>100.3</ele>
        <time>2018-09-16T07:48:24Z</time>
      </trkpt>
      <trkpt lat="43.67715" lon="3.8874">
        <ele>101.1</ele>
        <time>2018-09-16T07:48:28Z</time>
      </trkpt>
      <trkpt lat="43.67713" lon="3.88739">
        <ele>101.2</ele>
        <time>2018-09-16T07:48:29Z</time>
      </trkpt>
      <trkpt lat="43.67704" lon="3.88739">
        <ele>101.2</ele>
        <time>2018-09-16T07:48:33Z</time>
      </trkpt>
      <trkpt lat="43.67702" lon="3.8874">
        <ele>101.1</ele>
        <time>2018-09-16T07:48:34Z</time>
      </trkpt>
      <trkpt lat="43.67695" lon="3.88741">
        <ele>101</ele>
        <time>2018-09-16T07:48:37Z</time>
      </trkpt>
      <trkpt lat="43.67692" lon="3.88742">
        <ele>100.8</ele>
        <time>2018-09-16T07:48:38Z</time>
      </trkpt>
      <trkpt lat="43.6768" lon="3.88747">
        <ele>99.8</ele>
        <time>2018-09-16T07:48:39Z</time>
      </trkpt>
      <trkpt lat="43.67675" lon="3.88748">
        <ele>99.5</ele>
        <time>2018-09-16T07:48:40Z</time>
      </trkpt>
      <trkpt lat="43.67671" lon="3.88752">
        <ele>99.1</ele>
        <time>2018-09-16T07:48:41Z</time>
      </trkpt>
      <trkpt lat="43.67664" lon="3.88752">
        <ele>98.8</ele>
        <time>2018-09-16T07:48:45Z</time>
      </trkpt>
      <trkpt lat="43.67655" lon="3.88755">
        <ele>98.3</ele>
        <time>2018-09-16T07:48:46Z</time>
      </trkpt>
      <trkpt lat="43.67649" lon="3.88749">
        <ele>98.5</ele>
        <time>2018-09-16T07:48:50Z</time>
      </trkpt>
      <trkpt lat="43.67647" lon="3.88747">
        <ele>98.6</ele>
        <time>2018-09-16T07:48:51Z</time>
      </trkpt>
      <trkpt lat="43.6764" lon="3.88743">
        <ele>98.8</ele>
        <time>2018-09-16T07:48:54Z</time>
      </trkpt>
      <trkpt lat="43.67638" lon="3.88742">
        <ele>98.9</ele>
        <time>2018-09-16T07:48:55Z</time>
      </trkpt>
      <trkpt lat="43.6763" lon="3.88739">
        <ele>99.3</ele>
        <time>2018-09-16T07:48:58Z</time>
      </trkpt>
      <trkpt lat="43.67628" lon="3.88739">
        <ele>99.3</ele>
        <time>2018-09-16T07:48:59Z</time>
      </trkpt>
      <trkpt lat="43.6762" lon="3.88742">
        <ele>99.2</ele>
        <time>2018-09-16T07:49:03Z</time>
      </trkpt>
      <trkpt lat="43.67617" lon="3.88744">
        <ele>99.1</ele>
        <time>2018-09-16T07:49:04Z</time>
      </trkpt>
      <trkpt lat="43.67613" lon="3.88752">
        <ele>98.8</ele>
        <time>2018-09-16T07:49:07Z</time>
      </trkpt>
      <trkpt lat="43.67612" lon="3.88755">
        <ele>98.6</ele>
        <time>2018-09-16T07:49:08Z</time>
      </trkpt>
      <trkpt lat="43.67606" lon="3.88762">
        <ele>97.9</ele>
        <time>2018-09-16T07:49:11Z</time>
      </trkpt>
      <trkpt lat="43.67603" lon="3.88766">
        <ele>97.6</ele>
        <time>2018-09-16T07:49:12Z</time>
      </trkpt>
      <trkpt lat="43.67598" lon="3.88772">
        <ele>97.2</ele>
        <time>2018-09-16T07:49:14Z</time>
      </trkpt>
      <trkpt lat="43.67594" lon="3.88773">
        <ele>97.1</ele>
        <time>2018-09-16T07:49:15Z</time>
      </trkpt>
      <trkpt lat="43.67588" lon="3.88778">
        <ele>97</ele>
        <time>2018-09-16T07:49:18Z</time>
      </trkpt>
      <trkpt lat="43.67586" lon="3.88779">
        <ele>96.9</ele>
        <time>2018-09-16T07:49:19Z</time>
      </trkpt>
      <trkpt lat="43.67581" lon="3.88779">
        <ele>96.6</ele>
        <time>2018-09-16T07:49:21Z</time>
      </trkpt>
      <trkpt lat="43.67577" lon="3.88779">
        <ele>96</ele>
        <time>2018-09-16T07:49:22Z</time>
      </trkpt>
      <trkpt lat="43.67573" lon="3.8878">
        <ele>95.4</ele>
        <time>2018-09-16T07:49:23Z</time>
      </trkpt>
      <trkpt lat="43.67562" lon="3.88784">
        <ele>93.7</ele>
        <time>2018-09-16T07:49:24Z</time>
      </trkpt>
      <trkpt lat="43.67557" lon="3.88781">
        <ele>93.1</ele>
        <time>2018-09-16T07:49:26Z</time>
      </trkpt>
      <trkpt lat="43.67551" lon="3.88783">
        <ele>92.3</ele>
        <time>2018-09-16T07:49:27Z</time>
      </trkpt>
      <trkpt lat="43.67542" lon="3.88782">
        <ele>91.3</ele>
        <time>2018-09-16T07:49:31Z</time>
      </trkpt>
      <trkpt lat="43.6754" lon="3.88781">
        <ele>91.1</ele>
        <time>2018-09-16T07:49:32Z</time>
      </trkpt>
      <trkpt lat="43.67535" lon="3.88772">
        <ele>91.1</ele>
        <time>2018-09-16T07:49:38Z</time>
      </trkpt>
      <trkpt lat="43.67533" lon="3.8877">
        <ele>91.1</ele>
        <time>2018-09-16T07:49:39Z</time>
      </trkpt>
      <trkpt lat="43.67527" lon="3.88766">
        <ele>90.9</ele>
        <time>2018-09-16T07:49:43Z</time>
      </trkpt>
      <trkpt lat="43.67525" lon="3.88765">
        <ele>91.1</ele>
        <time>2018-09-16T07:49:44Z</time>
      </trkpt>
      <trkpt lat="43.67517" lon="3.88764">
        <ele>91.8</ele>
        <time>2018-09-16T07:49:48Z</time>
      </trkpt>
      <trkpt lat="43.67515" lon="3.88763">
        <ele>92</ele>
        <time>2018-09-16T07:49:49Z</time>
      </trkpt>
      <trkpt lat="43.67507" lon="3.8876">
        <ele>92.8</ele>
        <time>2018-09-16T07:49:53Z</time>
      </trkpt>
      <trkpt lat="43.67505" lon="3.88758">
        <ele>93.1</ele>
        <time>2018-09-16T07:49:54Z</time>
      </trkpt>
      <trkpt lat="43.67497" lon="3.88753">
        <ele>94</ele>
        <time>2018-09-16T07:50:00Z</time>
      </trkpt>
      <trkpt lat="43.67495" lon="3.88752">
        <ele>94.2</ele>
        <time>2018-09-16T07:50:01Z</time>
      </trkpt>
      <trkpt lat="43.67488" lon="3.88745">
        <ele>95.1</ele>
        <time>2018-09-16T07:50:07Z</time>
      </trkpt>
      <trkpt lat="43.67487" lon="3.88744">
        <ele>95.3</ele>
        <time>2018-09-16T07:50:08Z</time>
      </trkpt>
      <trkpt lat="43.67483" lon="3.88734">
        <ele>96</ele>
        <time>2018-09-16T07:50:14Z</time>
      </trkpt>
      <trkpt lat="43.67483" lon="3.88733">
        <ele>96.1</ele>
        <time>2018-09-16T07:50:15Z</time>
      </trkpt>
      <trkpt lat="43.67481" lon="3.88721">
        <ele>96.7</ele>
        <time>2018-09-16T07:50:22Z</time>
      </trkpt>
      <trkpt lat="43.67481" lon="3.88718">
        <ele>96.6</ele>
        <time>2018-09-16T07:50:23Z</time>
      </trkpt>
      <trkpt lat="43.67479" lon="3.88708">
        <ele>96.5</ele>
        <time>2018-09-16T07:50:27Z</time>
      </trkpt>
      <trkpt lat="43.67479" lon="3.88705">
        <ele>96.4</ele>
        <time>2018-09-16T07:50:28Z</time>
      </trkpt>
      <trkpt lat="43.67477" lon="3.88694">
        <ele>96.2</ele>
        <time>2018-09-16T07:50:32Z</time>
      </trkpt>
      <trkpt lat="43.67475" lon="3.88692">
        <ele>96.1</ele>
        <time>2018-09-16T07:50:33Z</time>
      </trkpt>
      <trkpt lat="43.6747" lon="3.88683">
        <ele>95.9</ele>
        <time>2018-09-16T07:50:36Z</time>
      </trkpt>
      <trkpt lat="43.67469" lon="3.8868">
        <ele>95.8</ele>
        <time>2018-09-16T07:50:37Z</time>
      </trkpt>
      <trkpt lat="43.67463" lon="3.88675">
        <ele>95.6</ele>
        <time>2018-09-16T07:50:41Z</time>
      </trkpt>
      <trkpt lat="43.6746" lon="3.88675">
        <ele>95.4</ele>
        <time>2018-09-16T07:50:42Z</time>
      </trkpt>
      <trkpt lat="43.67454" lon="3.88679">
        <ele>95</ele>
        <time>2018-09-16T07:50:44Z</time>
      </trkpt>
      <trkpt lat="43.67451" lon="3.8868">
        <ele>94.8</ele>
        <time>2018-09-16T07:50:45Z</time>
      </trkpt>
      <trkpt lat="43.6744" lon="3.88685">
        <ele>94</ele>
        <time>2018-09-16T07:50:46Z</time>
      </trkpt>
      <trkpt lat="43.67431" lon="3.88688">
        <ele>93.2</ele>
        <time>2018-09-16T07:50:48Z</time>
      </trkpt>
      <trkpt lat="43.67427" lon="3.88689">
        <ele>92.8</ele>
        <time>2018-09-16T07:50:49Z</time>
      </trkpt>
      <trkpt lat="43.67422" lon="3.88691">
        <ele>92.4</ele>
        <time>2018-09-16T07:50:50Z</time>
      </trkpt>
      <trkpt lat="43.67417" lon="3.88693">
        <ele>92</ele>
        <time>2018-09-16T07:50:51Z</time>
      </trkpt>
      <trkpt lat="43.67412" lon="3.88696">
        <ele>91.9</ele>
        <time>2018-09-16T07:50:52Z</time>
      </trkpt>
      <trkpt lat="43.67408" lon="3.88699">
        <ele>91.8</ele>
        <time>2018-09-16T07:50:53Z</time>
      </trkpt>
      <trkpt lat="43.67399" lon="3.88702">
        <ele>91.5</ele>
        <time>2018-09-16T07:50:55Z</time>
      </trkpt>
      <trkpt lat="43.67395" lon="3.88707">
        <ele>91.3</ele>
        <time>2018-09-16T07:50:56Z</time>
      </trkpt>
      <trkpt lat="43.67388" lon="3.88715">
        <ele>91</ele>
        <time>2018-09-16T07:50:58Z</time>
      </trkpt>
      <trkpt lat="43.67386" lon="3.8872">
        <ele>90.9</ele>
        <time>2018-09-16T07:50:59Z</time>
      </trkpt>
      <trkpt lat="43.67384" lon="3.88728">
        <ele>90.8</ele>
        <time>2018-09-16T07:51:00Z</time>
      </trkpt>
      <trkpt lat="43.67378" lon="3.88733">
        <ele>90.5</ele>
        <time>2018-09-16T07:51:01Z</time>
      </trkpt>
      <trkpt lat="43.6737" lon="3.88738">
        <ele>89.9</ele>
        <time>2018-09-16T07:51:06Z</time>
      </trkpt>
      <trkpt lat="43.67362" lon="3.88749">
        <ele>89.1</ele>
        <time>2018-09-16T07:51:07Z</time>
      </trkpt>
      <trkpt lat="43.67358" lon="3.88752">
        <ele>89</ele>
        <time>2018-09-16T07:51:09Z</time>
      </trkpt>
      <trkpt lat="43.67355" lon="3.88754">
        <ele>88.9</ele>
        <time>2018-09-16T07:51:10Z</time>
      </trkpt>
      <trkpt lat="43.67351" lon="3.8876">
        <ele>88.7</ele>
        <time>2018-09-16T07:51:13Z</time>
      </trkpt>
      <trkpt lat="43.67343" lon="3.88765">
        <ele>88.3</ele>
        <time>2018-09-16T07:51:14Z</time>
      </trkpt>
      <trkpt lat="43.67337" lon="3.88771">
        <ele>87.7</ele>
        <time>2018-09-16T07:51:16Z</time>
      </trkpt>
      <trkpt lat="43.6733" lon="3.88775">
        <ele>87.5</ele>
        <time>2018-09-16T07:51:17Z</time>
      </trkpt>
      <trkpt lat="43.67326" lon="3.88777">
        <ele>87.8</ele>
        <time>2018-09-16T07:51:18Z</time>
      </trkpt>
      <trkpt lat="43.67322" lon="3.8878">
        <ele>88.1</ele>
        <time>2018-09-16T07:51:19Z</time>
      </trkpt>
      <trkpt lat="43.67316" lon="3.88787">
        <ele>88.5</ele>
        <time>2018-09-16T07:51:21Z</time>
      </trkpt>
      <trkpt lat="43.67314" lon="3.88792">
        <ele>88.6</ele>
        <time>2018-09-16T07:51:22Z</time>
      </trkpt>
      <trkpt lat="43.67305" lon="3.88797">
        <ele>89.3</ele>
        <time>2018-09-16T07:51:26Z</time>
      </trkpt>
      <trkpt lat="43.673" lon="3.88807">
        <ele>89.3</ele>
        <time>2018-09-16T07:51:27Z</time>
      </trkpt>
      <trkpt lat="43.67307" lon="3.88811">
        <ele>89.3</ele>
        <time>2018-09-16T07:51:32Z</time>
      </trkpt>
      <trkpt lat="43.6731" lon="3.8881">
        <ele>88.8</ele>
        <time>2018-09-16T07:51:33Z</time>
      </trkpt>
      <trkpt lat="43.67319" lon="3.88822">
        <ele>88.2</ele>
        <time>2018-09-16T07:51:34Z</time>
      </trkpt>
      <trkpt lat="43.67323" lon="3.88831">
        <ele>87.8</ele>
        <time>2018-09-16T07:51:36Z</time>
      </trkpt>
      <trkpt lat="43.67327" lon="3.88837">
        <ele>87.4</ele>
        <time>2018-09-16T07:51:37Z</time>
      </trkpt>
      <trkpt lat="43.67332" lon="3.88844">
        <ele>87</ele>
        <time>2018-09-16T07:51:39Z</time>
      </trkpt>
      <trkpt lat="43.67335" lon="3.88848">
        <ele>87</ele>
        <time>2018-09-16T07:51:40Z</time>
      </trkpt>
      <trkpt lat="43.6734" lon="3.88856">
        <ele>87.2</ele>
        <time>2018-09-16T07:51:42Z</time>
      </trkpt>
      <trkpt lat="43.67344" lon="3.88859">
        <ele>87.1</ele>
        <time>2018-09-16T07:51:43Z</time>
      </trkpt>
      <trkpt lat="43.67351" lon="3.88862">
        <ele>86.8</ele>
        <time>2018-09-16T07:51:45Z</time>
      </trkpt>
      <trkpt lat="43.67355" lon="3.88864">
        <ele>86.6</ele>
        <time>2018-09-16T07:51:46Z</time>
      </trkpt>
      <trkpt lat="43.67359" lon="3.88867">
        <ele>86.4</ele>
        <time>2018-09-16T07:51:47Z</time>
      </trkpt>
      <trkpt lat="43.67364" lon="3.88872">
        <ele>86.1</ele>
        <time>2018-09-16T07:51:48Z</time>
      </trkpt>
      <trkpt lat="43.67371" lon="3.88879">
        <ele>85.7</ele>
        <time>2018-09-16T07:51:50Z</time>
      </trkpt>
      <trkpt lat="43.67371" lon="3.8888">
        <ele>85.7</ele>
        <time>2018-09-16T07:51:51Z</time>
      </trkpt>
      <trkpt lat="43.67376" lon="3.88887">
        <ele>85.4</ele>
        <time>2018-09-16T07:51:53Z</time>
      </trkpt>
      <trkpt lat="43.6738" lon="3.88895">
        <ele>85.5</ele>
        <time>2018-09-16T07:51:54Z</time>
      </trkpt>
      <trkpt lat="43.67382" lon="3.88902">
        <ele>85.8</ele>
        <time>2018-09-16T07:51:56Z</time>
      </trkpt>
      <trkpt lat="43.67385" lon="3.88908">
        <ele>85.9</ele>
        <time>2018-09-16T07:51:57Z</time>
      </trkpt>
      <trkpt lat="43.67387" lon="3.88917">
        <ele>86.3</ele>
        <time>2018-09-16T07:51:59Z</time>
      </trkpt>
      <trkpt lat="43.67388" lon="3.88923">
        <ele>86.3</ele>
        <time>2018-09-16T07:52:00Z</time>
      </trkpt>
      <trkpt lat="43.67393" lon="3.88929">
        <ele>86</ele>
        <time>2018-09-16T07:52:02Z</time>
      </trkpt>
      <trkpt lat="43.67395" lon="3.88936">
        <ele>85.8</ele>
        <time>2018-09-16T07:52:03Z</time>
      </trkpt>
      <trkpt lat="43.67393" lon="3.88941">
        <ele>86.3</ele>
        <time>2018-09-16T07:52:10Z</time>
      </trkpt>
      <trkpt lat="43.67392" lon="3.88943">
        <ele>86.5</ele>
        <time>2018-09-16T07:52:11Z</time>
      </trkpt>
      <trkpt lat="43.67389" lon="3.88944">
        <ele>87</ele>
        <time>2018-09-16T07:52:14Z</time>
      </trkpt>
      <trkpt lat="43.67387" lon="3.88949">
        <ele>87.9</ele>
      </trkpt>
      <trkpt lat="43.67388" lon="3.88954">
        <ele>87.9</ele>
        <time>2018-09-16T07:52:15Z</time>
      </trkpt>
      <trkpt lat="43.67391" lon="3.88965">
        <ele>88.1</ele>
        <time>2018-09-16T07:52:19Z</time>
      </trkpt>
      <trkpt lat="43.67387" lon="3.88971">
        <ele>89.4</ele>
        <time>2018-09-16T07:52:20Z</time>
      </trkpt>
      <trkpt lat="43.67384" lon="3.88977">
        <ele>90.4</ele>
        <time>2018-09-16T07:52:25Z</time>
      </trkpt>
      <trkpt lat="43.67383" lon="3.88979">
        <ele>90.7</ele>
        <time>2018-09-16T07:52:26Z</time>
      </trkpt>
      <trkpt lat="43.67382" lon="3.88989">
        <ele>91.3</ele>
        <time>2018-09-16T07:52:29Z</time>
      </trkpt>
      <trkpt lat="43.67382" lon="3.88992">
        <ele>91.4</ele>
        <time>2018-09-16T07:52:30Z</time>
      </trkpt>
      <trkpt lat="43.67382" lon="3.89004">
        <ele>92</ele>
        <time>2018-09-16T07:52:33Z</time>
      </trkpt>
      <trkpt lat="43.67382" lon="3.89008">
        <ele>92.2</ele>
        <time>2018-09-16T07:52:34Z</time>
      </trkpt>
      <trkpt lat="43.6738" lon="3.89018">
        <ele>93.3</ele>
        <time>2018-09-16T07:52:37Z</time>
      </trkpt>
      <trkpt lat="43.6738" lon="3.89021">
        <ele>93.5</ele>
        <time>2018-09-16T07:52:38Z</time>
      </trkpt>
      <trkpt lat="43.6738" lon="3.89032">
        <ele>93.8</ele>
        <time>2018-09-16T07:52:42Z</time>
      </trkpt>
      <trkpt lat="43.6738" lon="3.89034">
        <ele>93.7</ele>
        <time>2018-09-16T07:52:43Z</time>
      </trkpt>
      <trkpt lat="43.67377" lon="3.89044">
        <ele>94</ele>
        <time>2018-09-16T07:52:49Z</time>
      </trkpt>
      <trkpt lat="43.67377" lon="3.89047">
        <ele>93.9</ele>
        <time>2018-09-16T07:52:50Z</time>
      </trkpt>
      <trkpt lat="43.67375" lon="3.89059">
        <ele>93.8</ele>
        <time>2018-09-16T07:52:55Z</time>
      </trkpt>
      <trkpt lat="43.67375" lon="3.89062">
        <ele>93.7</ele>
        <time>2018-09-16T07:52:56Z</time>
      </trkpt>
      <trkpt lat="43.67373" lon="3.89072">
        <ele>93.6</ele>
        <time>2018-09-16T07:52:59Z</time>
      </trkpt>
      <trkpt lat="43.67372" lon="3.89076">
        <ele>93.6</ele>
        <time>2018-09-16T07:53:00Z</time>
      </trkpt>
      <trkpt lat="43.67369" lon="3.89086">
        <ele>93.9</ele>
        <time>2018-09-16T07:53:03Z</time>
      </trkpt>
      <trkpt lat="43.67368" lon="3.8909">
        <ele>94.1</ele>
        <time>2018-09-16T07:53:04Z</time>
      </trkpt>
      <trkpt lat="43.67365" lon="3.89099">
        <ele>94.5</ele>
        <time>2018-09-16T07:53:07Z</time>
      </trkpt>
      <trkpt lat="43.67364" lon="3.89102">
        <ele>94.7</ele>
        <time>2018-09-16T07:53:08Z</time>
      </trkpt>
      <trkpt lat="43.67359" lon="3.89108">
        <ele>95.9</ele>
        <time>2018-09-16T07:53:14Z</time>
      </trkpt>
      <trkpt lat="43.67359" lon="3.89107">
        <ele>95.9</ele>
        <time>2018-09-16T07:53:16Z</time>
      </trkpt>
      <trkpt lat="43.6735" lon="3.8911">
        <ele>99</ele>
        <time>2018-09-16T07:54:03Z</time>
      </trkpt>
      <trkpt lat="43.67349" lon="3.8911">
        <ele>99.4</ele>
        <time>2018-09-16T07:54:04Z</time>
      </trkpt>
      <trkpt lat="43.6734" lon="3.8911">
        <ele>102.6</ele>
        <time>2018-09-16T07:54:16Z</time>
      </trkpt>
      <trkpt lat="43.67339" lon="3.8911">
        <ele>103</ele>
        <time>2018-09-16T07:54:17Z</time>
      </trkpt>
      <trkpt lat="43.67331" lon="3.89113">
        <ele>105.4</ele>
        <time>2018-09-16T07:54:23Z</time>
      </trkpt>
      <trkpt lat="43.6733" lon="3.89114">
        <ele>105.5</ele>
        <time>2018-09-16T07:54:24Z</time>
      </trkpt>
      <trkpt lat="43.67324" lon="3.89111">
        <ele>106.7</ele>
        <time>2018-09-16T07:54:30Z</time>
      </trkpt>
      <trkpt lat="43.67322" lon="3.89112">
        <ele>107.1</ele>
        <time>2018-09-16T07:54:31Z</time>
      </trkpt>
      <trkpt lat="43.67319" lon="3.89113">
        <ele>107.6</ele>
      </trkpt>
      <trkpt lat="43.67311" lon="3.89114">
        <ele>109.1</ele>
        <time>2018-09-16T07:54:39Z</time>
      </trkpt>
      <trkpt lat="43.67305" lon="3.89116">
        <ele>110.2</ele>
        <time>2018-09-16T07:54:51Z</time>
      </trkpt>
      <trkpt lat="43.67303" lon="3.89117">
        <ele>110.3</ele>
        <time>2018-09-16T07:54:53Z</time>
      </trkpt>
      <trkpt lat="43.67296" lon="3.89115">
        <ele>110.4</ele>
        <time>2018-09-16T07:55:03Z</time>
      </trkpt>
      <trkpt lat="43.67294" lon="3.89113">
        <ele>110.5</ele>
        <time>2018-09-16T07:55:04Z</time>
      </trkpt>
      <trkpt lat="43.67288" lon="3.89105">
        <ele>110.5</ele>
        <time>2018-09-16T07:55:08Z</time>
      </trkpt>
      <trkpt lat="43.67287" lon="3.89104">
        <ele>110.5</ele>
        <time>2018-09-16T07:55:09Z</time>
      </trkpt>
      <trkpt lat="43.67279" lon="3.89104">
        <ele>110.7</ele>
        <time>2018-09-16T07:55:13Z</time>
      </trkpt>
      <trkpt lat="43.67277" lon="3.89106">
        <ele>110.7</ele>
        <time>2018-09-16T07:55:14Z</time>
      </trkpt>
      <trkpt lat="43.67268" lon="3.89108">
        <ele>109.2</ele>
        <time>2018-09-16T07:55:17Z</time>
      </trkpt>
      <trkpt lat="43.67266" lon="3.89109">
        <ele>108.8</ele>
        <time>2018-09-16T07:55:18Z</time>
      </trkpt>
      <trkpt lat="43.67259" lon="3.89114">
        <ele>107.6</ele>
        <time>2018-09-16T07:55:21Z</time>
      </trkpt>
      <trkpt lat="43.67257" lon="3.89117">
        <ele>107.3</ele>
        <time>2018-09-16T07:55:22Z</time>
      </trkpt>
      <trkpt lat="43.67254" lon="3.89126">
        <ele>106.7</ele>
        <time>2018-09-16T07:55:25Z</time>
      </trkpt>
      <trkpt lat="43.67252" lon="3.89128">
        <ele>106.4</ele>
        <time>2018-09-16T07:55:26Z</time>
      </trkpt>
      <trkpt lat="43.67245" lon="3.89133">
        <ele>105.5</ele>
        <time>2018-09-16T07:55:28Z</time>
      </trkpt>
      <trkpt lat="43.67242" lon="3.89136">
        <ele>105.1</ele>
        <time>2018-09-16T07:55:29Z</time>
      </trkpt>
      <trkpt lat="43.67237" lon="3.89142">
        <ele>104.7</ele>
        <time>2018-09-16T07:55:32Z</time>
      </trkpt>
      <trkpt lat="43.67234" lon="3.89144">
        <ele>104.5</ele>
        <time>2018-09-16T07:55:33Z</time>
      </trkpt>
      <trkpt lat="43.6723" lon="3.89152">
        <ele>104.3</ele>
        <time>2018-09-16T07:55:35Z</time>
      </trkpt>
      <trkpt lat="43.67228" lon="3.89156">
        <ele>104.2</ele>
        <time>2018-09-16T07:55:36Z</time>
      </trkpt>
      <trkpt lat="43.67225" lon="3.89164">
        <ele>104.2</ele>
        <time>2018-09-16T07:55:38Z</time>
      </trkpt>
      <trkpt lat="43.67223" lon="3.89169">
        <ele>104.2</ele>
        <time>2018-09-16T07:55:39Z</time>
      </trkpt>
      <trkpt lat="43.67218" lon="3.89177">
        <ele>104.1</ele>
        <time>2018-09-16T07:55:41Z</time>
      </trkpt>
      <trkpt lat="43.67215" lon="3.89181">
        <ele>104</ele>
        <time>2018-09-16T07:55:42Z</time>
      </trkpt>
      <trkpt lat="43.67212" lon="3.8919">
        <ele>104.1</ele>
        <time>2018-09-16T07:55:45Z</time>
      </trkpt>
      <trkpt lat="43.67211" lon="3.89195">
        <ele>104.2</ele>
        <time>2018-09-16T07:55:46Z</time>
      </trkpt>
      <trkpt lat="43.67206" lon="3.89205">
        <ele>104.2</ele>
        <time>2018-09-16T07:55:49Z</time>
      </trkpt>
      <trkpt lat="43.67205" lon="3.89208">
        <ele>104.2</ele>
        <time>2018-09-16T07:55:50Z</time>
      </trkpt>
      <trkpt lat="43.67201" lon="3.89216">
        <ele>104.2</ele>
        <time>2018-09-16T07:55:52Z</time>
      </trkpt>
      <trkpt lat="43.67198" lon="3.89219">
        <ele>104.1</ele>
        <time>2018-09-16T07:55:53Z</time>
      </trkpt>
      <trkpt lat="43.67192" lon="3.89223">
        <ele>103.9</ele>
        <time>2018-09-16T07:55:55Z</time>
      </trkpt>
      <trkpt lat="43.6719" lon="3.89224">
        <ele>103.7</ele>
        <time>2018-09-16T07:55:56Z</time>
      </trkpt>
      <trkpt lat="43.67187" lon="3.89226">
        <ele>103.6</ele>
        <time>2018-09-16T07:55:57Z</time>
      </trkpt>
      <trkpt lat="43.67176" lon="3.89235">
        <ele>103.1</ele>
        <time>2018-09-16T07:55:58Z</time>
      </trkpt>
      <trkpt lat="43.67167" lon="3.89233">
        <ele>102.4</ele>
        <time>2018-09-16T07:56:00Z</time>
      </trkpt>
      <trkpt lat="43.67164" lon="3.89233">
        <ele>102.3</ele>
        <time>2018-09-16T07:56:01Z</time>
      </trkpt>
      <trkpt lat="43.67158" lon="3.89235">
        <ele>102</ele>
        <time>2018-09-16T07:56:02Z</time>
      </trkpt>
      <trkpt lat="43.67155" lon="3.89237">
        <ele>101.9</ele>
        <time>2018-09-16T07:56:03Z</time>
      </trkpt>
      <trkpt lat="43.67148" lon="3.89242">
        <ele>101.6</ele>
        <time>2018-09-16T07:56:05Z</time>
      </trkpt>
      <trkpt lat="43.67145" lon="3.89247">
        <ele>101.4</ele>
        <time>2018-09-16T07:56:06Z</time>
      </trkpt>
      <trkpt lat="43.67141" lon="3.89249">
        <ele>101.1</ele>
        <time>2018-09-16T07:56:07Z</time>
      </trkpt>
      <trkpt lat="43.67136" lon="3.89252">
        <ele>101</ele>
        <time>2018-09-16T07:56:08Z</time>
      </trkpt>
      <trkpt lat="43.67132" lon="3.89256">
        <ele>101.2</ele>
        <time>2018-09-16T07:56:09Z</time>
      </trkpt>
      <trkpt lat="43.67126" lon="3.89257">
        <ele>101.2</ele>
        <time>2018-09-16T07:56:10Z</time>
      </trkpt>
      <trkpt lat="43.6712" lon="3.89256">
        <ele>100.9</ele>
        <time>2018-09-16T07:56:11Z</time>
      </trkpt>
      <trkpt lat="43.67115" lon="3.89256">
        <ele>100.8</ele>
        <time>2018-09-16T07:56:12Z</time>
      </trkpt>
      <trkpt lat="43.67106" lon="3.89257">
        <ele>101.1</ele>
        <time>2018-09-16T07:56:14Z</time>
      </trkpt>
      <trkpt lat="43.67102" lon="3.89256">
        <ele>101.2</ele>
        <time>2018-09-16T07:56:15Z</time>
      </trkpt>
      <trkpt lat="43.67094" lon="3.89252">
        <ele>101.4</ele>
        <time>2018-09-16T07:56:17Z</time>
      </trkpt>
      <trkpt lat="43.67093" lon="3.89252">
        <ele>101.5</ele>
        <time>2018-09-16T07:56:18Z</time>
      </trkpt>
      <trkpt lat="43.67085" lon="3.89251">
        <ele>102</ele>
        <time>2018-09-16T07:56:22Z</time>
      </trkpt>
      <trkpt lat="43.67083" lon="3.89251">
        <ele>102.1</ele>
        <time>2018-09-16T07:56:23Z</time>
      </trkpt>
      <trkpt lat="43.67074" lon="3.89247">
        <ele>102.4</ele>
        <time>2018-09-16T07:56:27Z</time>
      </trkpt>
      <trkpt lat="43.67072" lon="3.89246">
        <ele>102.5</ele>
        <time>2018-09-16T07:56:28Z</time>
      </trkpt>
      <trkpt lat="43.67064" lon="3.89243">
        <ele>103</ele>
        <time>2018-09-16T07:56:32Z</time>
      </trkpt>
      <trkpt lat="43.67062" lon="3.89241">
        <ele>103.1</ele>
        <time>2018-09-16T07:56:33Z</time>
      </trkpt>
      <trkpt lat="43.67061" lon="3.89245">
        <ele>103.4</ele>
      </trkpt>
      <trkpt lat="43.67053" lon="3.89245">
        <ele>103.6</ele>
        <time>2018-09-16T07:56:37Z</time>
      </trkpt>
      <trkpt lat="43.67049" lon="3.89234">
        <ele>103</ele>
        <time>2018-09-16T07:56:38Z</time>
      </trkpt>
      <trkpt lat="43.67046" lon="3.89224">
        <ele>102.7</ele>
        <time>2018-09-16T07:56:40Z</time>
      </trkpt>
      <trkpt lat="43.67044" lon="3.89216">
        <ele>102.8</ele>
        <time>2018-09-16T07:56:41Z</time>
      </trkpt>
      <trkpt lat="43.67044" lon="3.89209">
        <ele>103</ele>
        <time>2018-09-16T07:56:43Z</time>
      </trkpt>
      <trkpt lat="43.67043" lon="3.89205">
        <ele>103.1</ele>
        <time>2018-09-16T07:56:44Z</time>
      </trkpt>
      <trkpt lat="43.6704" lon="3.89195">
        <ele>103.5</ele>
        <time>2018-09-16T07:56:46Z</time>
      </trkpt>
      <trkpt lat="43.67038" lon="3.89189">
        <ele>103.8</ele>
        <time>2018-09-16T07:56:47Z</time>
      </trkpt>
      <trkpt lat="43.67036" lon="3.89177">
        <ele>104.1</ele>
        <time>2018-09-16T07:56:49Z</time>
      </trkpt>
      <trkpt lat="43.67035" lon="3.89172">
        <ele>104.3</ele>
        <time>2018-09-16T07:56:50Z</time>
      </trkpt>
      <trkpt lat="43.67035" lon="3.89161">
        <ele>104.6</ele>
        <time>2018-09-16T07:56:52Z</time>
      </trkpt>
      <trkpt lat="43.67034" lon="3.89157">
        <ele>104.8</ele>
        <time>2018-09-16T07:56:53Z</time>
      </trkpt>
      <trkpt lat="43.67034" lon="3.89148">
        <ele>105.1</ele>
        <time>2018-09-16T07:56:55Z</time>
      </trkpt>
      <trkpt lat="43.67033" lon="3.89144">
        <ele>105.3</ele>
        <time>2018-09-16T07:56:56Z</time>
      </trkpt>
      <trkpt lat="43.67032" lon="3.89135">
        <ele>105.5</ele>
        <time>2018-09-16T07:56:58Z</time>
      </trkpt>
      <trkpt lat="43.67032" lon="3.8913">
        <ele>105.5</ele>
        <time>2018-09-16T07:56:59Z</time>
      </trkpt>
      <trkpt lat="43.6703" lon="3.89121">
        <ele>105.7</ele>
        <time>2018-09-16T07:57:01Z</time>
      </trkpt>
      <trkpt lat="43.67029" lon="3.89116">
        <ele>105.8</ele>
        <time>2018-09-16T07:57:02Z</time>
      </trkpt>
      <trkpt lat="43.67027" lon="3.89107">
        <ele>105.9</ele>
        <time>2018-09-16T07:57:04Z</time>
      </trkpt>
      <trkpt lat="43.67026" lon="3.89103">
        <ele>105.9</ele>
        <time>2018-09-16T07:57:05Z</time>
      </trkpt>
      <trkpt lat="43.67025" lon="3.89094">
        <ele>105.9</ele>
        <time>2018-09-16T07:57:07Z</time>
      </trkpt>
      <trkpt lat="43.67024" lon="3.8909">
        <ele>105.8</ele>
        <time>2018-09-16T07:57:08Z</time>
      </trkpt>
      <trkpt lat="43.67023" lon="3.89081">
        <ele>105.8</ele>
        <time>2018-09-16T07:57:10Z</time>
      </trkpt>
      <trkpt lat="43.67023" lon="3.89077">
        <ele>105.9</ele>
        <time>2018-09-16T07:57:11Z</time>
      </trkpt>
      <trkpt lat="43.67021" lon="3.89068">
        <ele>105.9</ele>
        <time>2018-09-16T07:57:13Z</time>
      </trkpt>
      <trkpt lat="43.67021" lon="3.89064">
        <ele>105.9</ele>
        <time>2018-09-16T07:57:14Z</time>
      </trkpt>
      <trkpt lat="43.67016" lon="3.89047">
        <ele>106</ele>
        <time>2018-09-16T07:57:15Z</time>
      </trkpt>
      <trkpt lat="43.67016" lon="3.89035">
        <ele>106</ele>
        <time>2018-09-16T07:57:19Z</time>
      </trkpt>
      <trkpt lat="43.67015" lon="3.8903">
        <ele>106</ele>
        <time>2018-09-16T07:57:20Z</time>
      </trkpt>
      <trkpt lat="43.67014" lon="3.89022">
        <ele>106.1</ele>
        <time>2018-09-16T07:57:22Z</time>
      </trkpt>
      <trkpt lat="43.67013" lon="3.89017">
        <ele>106.2</ele>
        <time>2018-09-16T07:57:23Z</time>
      </trkpt>
      <trkpt lat="43.67011" lon="3.89005">
        <ele>106.5</ele>
        <time>2018-09-16T07:57:26Z</time>
      </trkpt>
      <trkpt lat="43.6701" lon="3.89002">
        <ele>106.6</ele>
        <time>2018-09-16T07:57:27Z</time>
      </trkpt>
      <trkpt lat="43.67011" lon="3.88993">
        <ele>106.9</ele>
        <time>2018-09-16T07:57:29Z</time>
      </trkpt>
      <trkpt lat="43.67012" lon="3.88989">
        <ele>107</ele>
        <time>2018-09-16T07:57:30Z</time>
      </trkpt>
      <trkpt lat="43.67013" lon="3.8898">
        <ele>107.3</ele>
        <time>2018-09-16T07:57:32Z</time>
      </trkpt>
      <trkpt lat="43.67013" lon="3.88974">
        <ele>107.5</ele>
        <time>2018-09-16T07:57:33Z</time>
      </trkpt>
      <trkpt lat="43.67012" lon="3.88965">
        <ele>108</ele>
        <time>2018-09-16T07:57:35Z</time>
      </trkpt>
      <trkpt lat="43.67011" lon="3.8896">
        <ele>108.3</ele>
        <time>2018-09-16T07:57:36Z</time>
      </trkpt>
      <trkpt lat="43.6701" lon="3.8895">
        <ele>109</ele>
        <time>2018-09-16T07:57:39Z</time>
      </trkpt>
      <trkpt lat="43.67009" lon="3.88946">
        <ele>109.3</ele>
        <time>2018-09-16T07:57:40Z</time>
      </trkpt>
      <trkpt lat="43.67008" lon="3.88935">
        <ele>109.7</ele>
        <time>2018-09-16T07:57:43Z</time>
      </trkpt>
      <trkpt lat="43.67008" lon="3.88931">
        <ele>109.8</ele>
        <time>2018-09-16T07:57:44Z</time>
      </trkpt>
      <trkpt lat="43.67008" lon="3.88921">
        <ele>110</ele>
        <time>2018-09-16T07:57:47Z</time>
      </trkpt>
      <trkpt lat="43.67006" lon="3.88917">
        <ele>110.3</ele>
        <time>2018-09-16T07:57:48Z</time>
      </trkpt>
      <trkpt lat="43.67004" lon="3.88908">
        <ele>110.6</ele>
        <time>2018-09-16T07:57:50Z</time>
      </trkpt>
      <trkpt lat="43.67004" lon="3.88905">
        <ele>110.6</ele>
        <time>2018-09-16T07:57:51Z</time>
      </trkpt>
      <trkpt lat="43.67005" lon="3.88894">
        <ele>110.5</ele>
        <time>2018-09-16T07:57:54Z</time>
      </trkpt>
      <trkpt lat="43.67005" lon="3.8889">
        <ele>110.5</ele>
        <time>2018-09-16T07:57:55Z</time>
      </trkpt>
      <trkpt lat="43.67004" lon="3.88879">
        <ele>110.9</ele>
        <time>2018-09-16T07:57:58Z</time>
      </trkpt>
      <trkpt lat="43.67004" lon="3.88874">
        <ele>111.1</ele>
        <time>2018-09-16T07:57:59Z</time>
      </trkpt>
      <trkpt lat="43.67002" lon="3.88863">
        <ele>111.7</ele>
        <time>2018-09-16T07:58:01Z</time>
      </trkpt>
      <trkpt lat="43.67002" lon="3.88857">
        <ele>111.9</ele>
        <time>2018-09-16T07:58:02Z</time>
      </trkpt>
      <trkpt lat="43.67001" lon="3.8885">
        <ele>112.3</ele>
        <time>2018-09-16T07:58:03Z</time>
      </trkpt>
      <trkpt lat="43.67" lon="3.88845">
        <ele>112.6</ele>
        <time>2018-09-16T07:58:04Z</time>
      </trkpt>
      <trkpt lat="43.66999" lon="3.88836">
        <ele>112.9</ele>
        <time>2018-09-16T07:58:06Z</time>
      </trkpt>
      <trkpt lat="43.67" lon="3.88831">
        <ele>113</ele>
        <time>2018-09-16T07:58:07Z</time>
      </trkpt>
      <trkpt lat="43.67" lon="3.88823">
        <ele>113</ele>
        <time>2018-09-16T07:58:09Z</time>
      </trkpt>
      <trkpt lat="43.67001" lon="3.88819">
        <ele>112.9</ele>
        <time>2018-09-16T07:58:10Z</time>
      </trkpt>
      <trkpt lat="43.67002" lon="3.88809">
        <ele>112.8</ele>
        <time>2018-09-16T07:58:12Z</time>
      </trkpt>
      <trkpt lat="43.67003" lon="3.88804">
        <ele>112.8</ele>
        <time>2018-09-16T07:58:13Z</time>
      </trkpt>
      <trkpt lat="43.67003" lon="3.88795">
        <ele>113.1</ele>
        <time>2018-09-16T07:58:15Z</time>
      </trkpt>
      <trkpt lat="43.67002" lon="3.88791">
        <ele>113.3</ele>
        <time>2018-09-16T07:58:16Z</time>
      </trkpt>
      <trkpt lat="43.67003" lon="3.88781">
        <ele>113.6</ele>
        <time>2018-09-16T07:58:18Z</time>
      </trkpt>
      <trkpt lat="43.67003" lon="3.88776">
        <ele>113.7</ele>
        <time>2018-09-16T07:58:19Z</time>
      </trkpt>
      <trkpt lat="43.67002" lon="3.88764">
        <ele>114.3</ele>
        <time>2018-09-16T07:58:21Z</time>
      </trkpt>
      <trkpt lat="43.67002" lon="3.88758">
        <ele>114.5</ele>
        <time>2018-09-16T07:58:22Z</time>
      </trkpt>
      <trkpt lat="43.67002" lon="3.88749">
        <ele>114.8</ele>
        <time>2018-09-16T07:58:24Z</time>
      </trkpt>
      <trkpt lat="43.67003" lon="3.88745">
        <ele>114.7</ele>
        <time>2018-09-16T07:58:25Z</time>
      </trkpt>
      <trkpt lat="43.67004" lon="3.88735">
        <ele>114.5</ele>
        <time>2018-09-16T07:58:27Z</time>
      </trkpt>
      <trkpt lat="43.67" lon="3.8872">
        <ele>114.9</ele>
        <time>2018-09-16T07:58:28Z</time>
      </trkpt>
      <trkpt lat="43.66999" lon="3.88714">
        <ele>114.7</ele>
        <time>2018-09-16T07:58:30Z</time>
      </trkpt>
      <trkpt lat="43.66998" lon="3.88704">
        <ele>114.4</ele>
        <time>2018-09-16T07:58:31Z</time>
      </trkpt>
      <trkpt lat="43.67004" lon="3.88697">
        <ele>113.5</ele>
        <time>2018-09-16T07:58:33Z</time>
      </trkpt>
      <trkpt lat="43.67004" lon="3.88693">
        <ele>113.3</ele>
        <time>2018-09-16T07:58:34Z</time>
      </trkpt>
      <trkpt lat="43.67004" lon="3.88686">
        <ele>112.6</ele>
        <time>2018-09-16T07:58:35Z</time>
      </trkpt>
      <trkpt lat="43.67004" lon="3.88679">
        <ele>111.8</ele>
        <time>2018-09-16T07:58:36Z</time>
      </trkpt>
      <trkpt lat="43.67005" lon="3.88674">
        <ele>111.2</ele>
        <time>2018-09-16T07:58:37Z</time>
      </trkpt>
      <trkpt lat="43.67007" lon="3.88667">
        <ele>110.3</ele>
        <time>2018-09-16T07:58:38Z</time>
      </trkpt>
      <trkpt lat="43.67008" lon="3.8866">
        <ele>109.7</ele>
        <time>2018-09-16T07:58:39Z</time>
      </trkpt>
      <trkpt lat="43.67008" lon="3.8865">
        <ele>108.9</ele>
        <time>2018-09-16T07:58:40Z</time>
      </trkpt>
      <trkpt lat="43.67008" lon="3.88642">
        <ele>108.4</ele>
        <time>2018-09-16T07:58:41Z</time>
      </trkpt>
      <trkpt lat="43.67008" lon="3.88634">
        <ele>107.8</ele>
        <time>2018-09-16T07:58:42Z</time>
      </trkpt>
      <trkpt lat="43.67006" lon="3.88624">
        <ele>107.4</ele>
        <time>2018-09-16T07:58:43Z</time>
      </trkpt>
      <trkpt lat="43.67007" lon="3.88615">
        <ele>106.7</ele>
        <time>2018-09-16T07:58:44Z</time>
      </trkpt>
      <trkpt lat="43.67007" lon="3.88607">
        <ele>106.2</ele>
        <time>2018-09-16T07:58:45Z</time>
      </trkpt>
      <trkpt lat="43.67011" lon="3.88601">
        <ele>105.5</ele>
        <time>2018-09-16T07:58:46Z</time>
      </trkpt>
      <trkpt lat="43.67009" lon="3.88588">
        <ele>104.7</ele>
        <time>2018-09-16T07:58:47Z</time>
      </trkpt>
      <trkpt lat="43.67009" lon="3.8858">
        <ele>104.1</ele>
        <time>2018-09-16T07:58:48Z</time>
      </trkpt>
      <trkpt lat="43.67009" lon="3.8857">
        <ele>103.4</ele>
        <time>2018-09-16T07:58:49Z</time>
      </trkpt>
      <trkpt lat="43.67011" lon="3.88562">
        <ele>102.7</ele>
        <time>2018-09-16T07:58:50Z</time>
      </trkpt>
      <trkpt lat="43.67012" lon="3.88552">
        <ele>101.9</ele>
        <time>2018-09-16T07:58:51Z</time>
      </trkpt>
      <trkpt lat="43.67014" lon="3.88545">
        <ele>101.2</ele>
        <time>2018-09-16T07:58:52Z</time>
      </trkpt>
      <trkpt lat="43.67017" lon="3.88536">
        <ele>100.5</ele>
        <time>2018-09-16T07:58:53Z</time>
      </trkpt>
      <trkpt lat="43.67025" lon="3.88531">
        <ele>100.1</ele>
        <time>2018-09-16T07:58:54Z</time>
      </trkpt>
      <trkpt lat="43.6703" lon="3.88523">
        <ele>99.5</ele>
        <time>2018-09-16T07:58:55Z</time>
      </trkpt>
      <trkpt lat="43.67036" lon="3.88517">
        <ele>98.7</ele>
        <time>2018-09-16T07:58:56Z</time>
      </trkpt>
      <trkpt lat="43.67043" lon="3.8851">
        <ele>98</ele>
        <time>2018-09-16T07:58:57Z</time>
      </trkpt>
      <trkpt lat="43.67051" lon="3.88504">
        <ele>97.3</ele>
        <time>2018-09-16T07:58:58Z</time>
      </trkpt>
      <trkpt lat="43.67057" lon="3.88499">
        <ele>97</ele>
        <time>2018-09-16T07:58:59Z</time>
      </trkpt>
      <trkpt lat="43.67065" lon="3.88495">
        <ele>97</ele>
        <time>2018-09-16T07:59:00Z</time>
      </trkpt>
      <trkpt lat="43.67072" lon="3.88491">
        <ele>97</ele>
        <time>2018-09-16T07:59:01Z</time>
      </trkpt>
      <trkpt lat="43.67079" lon="3.88487">
        <ele>97</ele>
        <time>2018-09-16T07:59:02Z</time>
      </trkpt>
      <trkpt lat="43.67087" lon="3.88484">
        <ele>97.1</ele>
        <time>2018-09-16T07:59:03Z</time>
      </trkpt>
      <trkpt lat="43.67093" lon="3.8848">
        <ele>97.3</ele>
        <time>2018-09-16T07:59:04Z</time>
      </trkpt>
      <trkpt lat="43.67098" lon="3.88475">
        <ele>97.5</ele>
        <time>2018-09-16T07:59:05Z</time>
      </trkpt>
      <trkpt lat="43.67102" lon="3.88469">
        <ele>97.8</ele>
        <time>2018-09-16T07:59:06Z</time>
      </trkpt>
      <trkpt lat="43.67103" lon="3.88464">
        <ele>98.1</ele>
        <time>2018-09-16T07:59:07Z</time>
      </trkpt>
      <trkpt lat="43.67106" lon="3.88453">
        <ele>98.9</ele>
        <time>2018-09-16T07:59:10Z</time>
      </trkpt>
      <trkpt lat="43.67106" lon="3.88449">
        <ele>99.2</ele>
        <time>2018-09-16T07:59:11Z</time>
      </trkpt>
      <trkpt lat="43.67106" lon="3.88439">
        <ele>99.8</ele>
        <time>2018-09-16T07:59:14Z</time>
      </trkpt>
      <trkpt lat="43.67106" lon="3.88435">
        <ele>100.1</ele>
        <time>2018-09-16T07:59:15Z</time>
      </trkpt>
      <trkpt lat="43.67105" lon="3.88425">
        <ele>100.6</ele>
        <time>2018-09-16T07:59:18Z</time>
      </trkpt>
      <trkpt lat="43.67105" lon="3.88421">
        <ele>100.8</ele>
        <time>2018-09-16T07:59:19Z</time>
      </trkpt>
      <trkpt lat="43.67105" lon="3.8841">
        <ele>101.4</ele>
        <time>2018-09-16T07:59:23Z</time>
      </trkpt>
      <trkpt lat="43.67105" lon="3.88408">
        <ele>101.5</ele>
        <time>2018-09-16T07:59:24Z</time>
      </trkpt>
      <trkpt lat="43.67108" lon="3.88397">
        <ele>102.3</ele>
        <time>2018-09-16T07:59:28Z</time>
      </trkpt>
      <trkpt lat="43.67109" lon="3.88394">
        <ele>102.6</ele>
        <time>2018-09-16T07:59:29Z</time>
      </trkpt>
      <trkpt lat="43.67113" lon="3.88386">
        <ele>103.4</ele>
        <time>2018-09-16T07:59:33Z</time>
      </trkpt>
      <trkpt lat="43.67115" lon="3.88384">
        <ele>103.8</ele>
        <time>2018-09-16T07:59:34Z</time>
      </trkpt>
      <trkpt lat="43.67122" lon="3.88378">
        <ele>105.1</ele>
        <time>2018-09-16T07:59:42Z</time>
      </trkpt>
      <trkpt lat="43.67123" lon="3.88379">
        <ele>105.1</ele>
        <time>2018-09-16T07:59:43Z</time>
      </trkpt>
      <trkpt lat="43.67131" lon="3.88382">
        <ele>105.8</ele>
        <time>2018-09-16T07:59:48Z</time>
      </trkpt>
      <trkpt lat="43.67133" lon="3.88383">
        <ele>106</ele>
        <time>2018-09-16T07:59:49Z</time>
      </trkpt>
      <trkpt lat="43.6714" lon="3.88387">
        <ele>106.2</ele>
        <time>2018-09-16T07:59:53Z</time>
      </trkpt>
      <trkpt lat="43.67143" lon="3.88388">
        <ele>106.2</ele>
        <time>2018-09-16T07:59:54Z</time>
      </trkpt>
      <trkpt lat="43.6715" lon="3.88388">
        <ele>106.5</ele>
        <time>2018-09-16T07:59:57Z</time>
      </trkpt>
      <trkpt lat="43.67152" lon="3.88388">
        <ele>106.6</ele>
        <time>2018-09-16T07:59:58Z</time>
      </trkpt>
      <trkpt lat="43.6716" lon="3.88387">
        <ele>107</ele>
        <time>2018-09-16T08:00:01Z</time>
      </trkpt>
      <trkpt lat="43.67162" lon="3.88387">
        <ele>107.1</ele>
        <time>2018-09-16T08:00:02Z</time>
      </trkpt>
      <trkpt lat="43.67169" lon="3.88388">
        <ele>107.1</ele>
        <time>2018-09-16T08:00:05Z</time>
      </trkpt>
      <trkpt lat="43.67171" lon="3.88389">
        <ele>107</ele>
        <time>2018-09-16T08:00:06Z</time>
      </trkpt>
      <trkpt lat="43.67177" lon="3.88392">
        <ele>106.6</ele>
        <time>2018-09-16T08:00:09Z</time>
      </trkpt>
      <trkpt lat="43.67179" lon="3.88394">
        <ele>106.4</ele>
        <time>2018-09-16T08:00:10Z</time>
      </trkpt>
      <trkpt lat="43.67186" lon="3.88398">
        <ele>105.8</ele>
        <time>2018-09-16T08:00:14Z</time>
      </trkpt>
      <trkpt lat="43.67188" lon="3.88398">
        <ele>105.8</ele>
        <time>2018-09-16T08:00:15Z</time>
      </trkpt>
      <trkpt lat="43.67195" lon="3.88395">
        <ele>106.1</ele>
        <time>2018-09-16T08:00:18Z</time>
      </trkpt>
      <trkpt lat="43.67197" lon="3.88394">
        <ele>106.2</ele>
        <time>2018-09-16T08:00:19Z</time>
      </trkpt>
      <trkpt lat="43.67204" lon="3.88391">
        <ele>106.4</ele>
        <time>2018-09-16T08:00:23Z</time>
      </trkpt>
      <trkpt lat="43.67206" lon="3.8839">
        <ele>106.4</ele>
        <time>2018-09-16T08:00:24Z</time>
      </trkpt>
      <trkpt lat="43.67214" lon="3.88391">
        <ele>106</ele>
        <time>2018-09-16T08:00:27Z</time>
      </trkpt>
      <trkpt lat="43.67217" lon="3.88392">
        <ele>105.8</ele>
        <time>2018-09-16T08:00:28Z</time>
      </trkpt>
      <trkpt lat="43.67225" lon="3.8839">
        <ele>105.9</ele>
        <time>2018-09-16T08:00:33Z</time>
      </trkpt>
      <trkpt lat="43.67226" lon="3.8839">
        <ele>105.9</ele>
        <time>2018-09-16T08:00:34Z</time>
      </trkpt>
      <trkpt lat="43.67227" lon="3.88378">
        <ele>107.6</ele>
        <time>2018-09-16T08:00:48Z</time>
      </trkpt>
      <trkpt lat="43.67227" lon="3.88377">
        <ele>107.7</ele>
        <time>2018-09-16T08:00:49Z</time>
      </trkpt>
      <trkpt lat="43.67222" lon="3.88367">
        <ele>109.2</ele>
        <time>2018-09-16T08:00:57Z</time>
      </trkpt>
      <trkpt lat="43.67222" lon="3.88366">
        <ele>109.3</ele>
        <time>2018-09-16T08:00:58Z</time>
      </trkpt>
      <trkpt lat="43.67218" lon="3.88355">
        <ele>111</ele>
        <time>2018-09-16T08:01:12Z</time>
      </trkpt>
      <trkpt lat="43.67216" lon="3.88355">
        <ele>111.1</ele>
        <time>2018-09-16T08:01:13Z</time>
      </trkpt>
      <trkpt lat="43.67208" lon="3.88354">
        <ele>111.5</ele>
        <time>2018-09-16T08:01:17Z</time>
      </trkpt>
      <trkpt lat="43.67206" lon="3.88352">
        <ele>111.9</ele>
        <time>2018-09-16T08:01:18Z</time>
      </trkpt>
      <trkpt lat="43.67199" lon="3.88344">
        <ele>113.3</ele>
        <time>2018-09-16T08:01:25Z</time>
      </trkpt>
      <trkpt lat="43.67198" lon="3.88343">
        <ele>113.5</ele>
        <time>2018-09-16T08:01:26Z</time>
      </trkpt>
      <trkpt lat="43.67191" lon="3.88334">
        <ele>114.9</ele>
        <time>2018-09-16T08:01:31Z</time>
      </trkpt>
      <trkpt lat="43.6719" lon="3.88333">
        <ele>115</ele>
        <time>2018-09-16T08:01:32Z</time>
      </trkpt>
      <trkpt lat="43.67188" lon="3.88324">
        <ele>116</ele>
        <time>2018-09-16T08:01:54Z</time>
      </trkpt>
      <trkpt lat="43.67188" lon="3.88323">
        <ele>116.1</ele>
        <time>2018-09-16T08:01:56Z</time>
      </trkpt>
      <trkpt lat="43.67188" lon="3.88311">
        <ele>117.4</ele>
        <time>2018-09-16T08:02:08Z</time>
      </trkpt>
      <trkpt lat="43.67188" lon="3.88309">
        <ele>117.6</ele>
        <time>2018-09-16T08:02:09Z</time>
      </trkpt>
      <trkpt lat="43.67187" lon="3.88298">
        <ele>118.5</ele>
        <time>2018-09-16T08:02:16Z</time>
      </trkpt>
      <trkpt lat="43.67186" lon="3.88296">
        <ele>118.6</ele>
        <time>2018-09-16T08:02:17Z</time>
      </trkpt>
      <trkpt lat="43.67192" lon="3.88291">
        <ele>119</ele>
        <time>2018-09-16T08:02:30Z</time>
      </trkpt>
      <trkpt lat="43.67194" lon="3.88291">
        <ele>119</ele>
        <time>2018-09-16T08:02:31Z</time>
      </trkpt>
      <trkpt lat="43.67202" lon="3.88293">
        <ele>118.8</ele>
        <time>2018-09-16T08:02:35Z</time>
      </trkpt>
      <trkpt lat="43.67204" lon="3.88294">
        <ele>118.6</ele>
        <time>2018-09-16T08:02:36Z</time>
      </trkpt>
      <trkpt lat="43.67212" lon="3.88293">
        <ele>118.6</ele>
        <time>2018-09-16T08:02:39Z</time>
      </trkpt>
      <trkpt lat="43.67214" lon="3.88291">
        <ele>118.7</ele>
        <time>2018-09-16T08:02:40Z</time>
      </trkpt>
      <trkpt lat="43.67221" lon="3.88285">
        <ele>119.2</ele>
        <time>2018-09-16T08:02:44Z</time>
      </trkpt>
      <trkpt lat="43.67222" lon="3.88283">
        <ele>119.4</ele>
        <time>2018-09-16T08:02:45Z</time>
      </trkpt>
      <trkpt lat="43.67227" lon="3.88273">
        <ele>120</ele>
        <time>2018-09-16T08:02:49Z</time>
      </trkpt>
      <trkpt lat="43.67228" lon="3.88271">
        <ele>120.1</ele>
        <time>2018-09-16T08:02:50Z</time>
      </trkpt>
      <trkpt lat="43.67234" lon="3.88264">
        <ele>120.3</ele>
        <time>2018-09-16T08:02:54Z</time>
      </trkpt>
      <trkpt lat="43.67236" lon="3.88262">
        <ele>120.4</ele>
        <time>2018-09-16T08:02:55Z</time>
      </trkpt>
      <trkpt lat="43.67242" lon="3.88258">
        <ele>120.5</ele>
        <time>2018-09-16T08:02:58Z</time>
      </trkpt>
      <trkpt lat="43.67244" lon="3.88256">
        <ele>120.6</ele>
        <time>2018-09-16T08:02:59Z</time>
      </trkpt>
      <trkpt lat="43.6725" lon="3.88251">
        <ele>120.9</ele>
        <time>2018-09-16T08:03:02Z</time>
      </trkpt>
      <trkpt lat="43.67252" lon="3.88249">
        <ele>121</ele>
        <time>2018-09-16T08:03:03Z</time>
      </trkpt>
      <trkpt lat="43.67258" lon="3.88242">
        <ele>121.4</ele>
        <time>2018-09-16T08:03:06Z</time>
      </trkpt>
      <trkpt lat="43.67261" lon="3.8824">
        <ele>121.5</ele>
        <time>2018-09-16T08:03:07Z</time>
      </trkpt>
      <trkpt lat="43.67267" lon="3.88231">
        <ele>122.1</ele>
        <time>2018-09-16T08:03:10Z</time>
      </trkpt>
      <trkpt lat="43.67268" lon="3.88228">
        <ele>122.3</ele>
        <time>2018-09-16T08:03:11Z</time>
      </trkpt>
      <trkpt lat="43.67267" lon="3.88216">
        <ele>122.9</ele>
        <time>2018-09-16T08:03:15Z</time>
      </trkpt>
      <trkpt lat="43.67266" lon="3.88213">
        <ele>123</ele>
        <time>2018-09-16T08:03:16Z</time>
      </trkpt>
      <trkpt lat="43.6726" lon="3.88203">
        <ele>122.9</ele>
        <time>2018-09-16T08:03:19Z</time>
      </trkpt>
      <trkpt lat="43.67253" lon="3.8819">
        <ele>122.5</ele>
        <time>2018-09-16T08:03:20Z</time>
      </trkpt>
      <trkpt lat="43.6725" lon="3.88186">
        <ele>122.3</ele>
        <time>2018-09-16T08:03:21Z</time>
      </trkpt>
      <trkpt lat="43.67248" lon="3.88179">
        <ele>122.3</ele>
        <time>2018-09-16T08:03:22Z</time>
      </trkpt>
      <trkpt lat="43.67243" lon="3.8817">
        <ele>121.9</ele>
        <time>2018-09-16T08:03:24Z</time>
      </trkpt>
      <trkpt lat="43.67241" lon="3.88166">
        <ele>121.7</ele>
        <time>2018-09-16T08:03:25Z</time>
      </trkpt>
      <trkpt lat="43.67238" lon="3.88159">
        <ele>121.3</ele>
        <time>2018-09-16T08:03:26Z</time>
      </trkpt>
      <trkpt lat="43.67234" lon="3.8815">
        <ele>120.7</ele>
        <time>2018-09-16T08:03:27Z</time>
      </trkpt>
      <trkpt lat="43.67231" lon="3.88147">
        <ele>120.3</ele>
        <time>2018-09-16T08:03:28Z</time>
      </trkpt>
      <trkpt lat="43.67226" lon="3.88143">
        <ele>119.5</ele>
        <time>2018-09-16T08:03:29Z</time>
      </trkpt>
      <trkpt lat="43.67219" lon="3.88135">
        <ele>118.5</ele>
        <time>2018-09-16T08:03:34Z</time>
      </trkpt>
      <trkpt lat="43.67217" lon="3.88132">
        <ele>118.2</ele>
        <time>2018-09-16T08:03:35Z</time>
      </trkpt>
      <trkpt lat="43.67212" lon="3.88126">
        <ele>117.4</ele>
        <time>2018-09-16T08:03:38Z</time>
      </trkpt>
      <trkpt lat="43.6721" lon="3.88124">
        <ele>117</ele>
        <time>2018-09-16T08:03:39Z</time>
      </trkpt>
      <trkpt lat="43.67203" lon="3.88122">
        <ele>115.8</ele>
        <time>2018-09-16T08:03:42Z</time>
      </trkpt>
      <trkpt lat="43.67201" lon="3.88121">
        <ele>115.5</ele>
        <time>2018-09-16T08:03:43Z</time>
      </trkpt>
      <trkpt lat="43.67197" lon="3.88118">
        <ele>114.7</ele>
        <time>2018-09-16T08:03:45Z</time>
      </trkpt>
      <trkpt lat="43.67189" lon="3.8811">
        <ele>113.2</ele>
        <time>2018-09-16T08:03:46Z</time>
      </trkpt>
      <trkpt lat="43.67183" lon="3.881">
        <ele>112.4</ele>
        <time>2018-09-16T08:03:48Z</time>
      </trkpt>
      <trkpt lat="43.67181" lon="3.88092">
        <ele>112.1</ele>
        <time>2018-09-16T08:03:49Z</time>
      </trkpt>
      <trkpt lat="43.67177" lon="3.88086">
        <ele>111.5</ele>
        <time>2018-09-16T08:03:50Z</time>
      </trkpt>
      <trkpt lat="43.67173" lon="3.8808">
        <ele>110.9</ele>
        <time>2018-09-16T08:03:51Z</time>
      </trkpt>
      <trkpt lat="43.67171" lon="3.88075">
        <ele>110.7</ele>
        <time>2018-09-16T08:03:52Z</time>
      </trkpt>
      <trkpt lat="43.67167" lon="3.88067">
        <ele>110.1</ele>
        <time>2018-09-16T08:03:53Z</time>
      </trkpt>
      <trkpt lat="43.67163" lon="3.8806">
        <ele>109.5</ele>
        <time>2018-09-16T08:03:54Z</time>
      </trkpt>
      <trkpt lat="43.67159" lon="3.88054">
        <ele>109</ele>
        <time>2018-09-16T08:03:55Z</time>
      </trkpt>
      <trkpt lat="43.67156" lon="3.88046">
        <ele>108.8</ele>
        <time>2018-09-16T08:03:56Z</time>
      </trkpt>
      <trkpt lat="43.67151" lon="3.88042">
        <ele>108.2</ele>
        <time>2018-09-16T08:03:57Z</time>
      </trkpt>
      <trkpt lat="43.67145" lon="3.88038">
        <ele>107.5</ele>
        <time>2018-09-16T08:03:58Z</time>
      </trkpt>
      <trkpt lat="43.67142" lon="3.88035">
        <ele>107.2</ele>
        <time>2018-09-16T08:03:59Z</time>
      </trkpt>
      <trkpt lat="43.67134" lon="3.88036">
        <ele>106.2</ele>
        <time>2018-09-16T08:04:01Z</time>
      </trkpt>
      <trkpt lat="43.67133" lon="3.8802">
        <ele>106.6</ele>
        <time>2018-09-16T08:07:04Z</time>
      </trkpt>
      <trkpt lat="43.67134" lon="3.88019">
        <ele>106.8</ele>
        <time>2018-09-16T08:07:05Z</time>
      </trkpt>
      <trkpt lat="43.67136" lon="3.88009">
        <ele>107.4</ele>
        <time>2018-09-16T08:07:09Z</time>
      </trkpt>
      <trkpt lat="43.67137" lon="3.88007">
        <ele>107.5</ele>
        <time>2018-09-16T08:07:10Z</time>
      </trkpt>
      <trkpt lat="43.67137" lon="3.87996">
        <ele>107.9</ele>
        <time>2018-09-16T08:07:14Z</time>
      </trkpt>
      <trkpt lat="43.67138" lon="3.87993">
        <ele>108.2</ele>
        <time>2018-09-16T08:07:15Z</time>
      </trkpt>
      <trkpt lat="43.67138" lon="3.87984">
        <ele>108.5</ele>
        <time>2018-09-16T08:07:18Z</time>
      </trkpt>
      <trkpt lat="43.67138" lon="3.8798">
        <ele>108.6</ele>
        <time>2018-09-16T08:07:19Z</time>
      </trkpt>
      <trkpt lat="43.67137" lon="3.87968">
        <ele>109.2</ele>
        <time>2018-09-16T08:07:22Z</time>
      </trkpt>
      <trkpt lat="43.67137" lon="3.87965">
        <ele>109.4</ele>
        <time>2018-09-16T08:07:23Z</time>
      </trkpt>
      <trkpt lat="43.6714" lon="3.87955">
        <ele>110.3</ele>
        <time>2018-09-16T08:07:27Z</time>
      </trkpt>
      <trkpt lat="43.6714" lon="3.87953">
        <ele>110.5</ele>
        <time>2018-09-16T08:07:28Z</time>
      </trkpt>
      <trkpt lat="43.67144" lon="3.87943">
        <ele>111.1</ele>
        <time>2018-09-16T08:07:33Z</time>
      </trkpt>
      <trkpt lat="43.67144" lon="3.87942">
        <ele>111.1</ele>
        <time>2018-09-16T08:07:34Z</time>
      </trkpt>
      <trkpt lat="43.67144" lon="3.87932">
        <ele>110.6</ele>
        <time>2018-09-16T08:07:39Z</time>
      </trkpt>
      <trkpt lat="43.67143" lon="3.87929">
        <ele>110.4</ele>
        <time>2018-09-16T08:07:40Z</time>
      </trkpt>
      <trkpt lat="43.67142" lon="3.87919">
        <ele>110</ele>
        <time>2018-09-16T08:07:43Z</time>
      </trkpt>
      <trkpt lat="43.67141" lon="3.87916">
        <ele>109.9</ele>
        <time>2018-09-16T08:07:44Z</time>
      </trkpt>
      <trkpt lat="43.67138" lon="3.87906">
        <ele>109.6</ele>
        <time>2018-09-16T08:07:47Z</time>
      </trkpt>
      <trkpt lat="43.67136" lon="3.87903">
        <ele>109.5</ele>
        <time>2018-09-16T08:07:48Z</time>
      </trkpt>
      <trkpt lat="43.67133" lon="3.87893">
        <ele>109.3</ele>
        <time>2018-09-16T08:07:51Z</time>
      </trkpt>
      <trkpt lat="43.67132" lon="3.87889">
        <ele>109.3</ele>
        <time>2018-09-16T08:07:52Z</time>
      </trkpt>
      <trkpt lat="43.67129" lon="3.87879">
        <ele>109.4</ele>
        <time>2018-09-16T08:07:54Z</time>
      </trkpt>
      <trkpt lat="43.67129" lon="3.87874">
        <ele>109.4</ele>
        <time>2018-09-16T08:07:55Z</time>
      </trkpt>
      <trkpt lat="43.67127" lon="3.87866">
        <ele>109.4</ele>
        <time>2018-09-16T08:07:57Z</time>
      </trkpt>
      <trkpt lat="43.67126" lon="3.87861">
        <ele>109.5</ele>
        <time>2018-09-16T08:07:58Z</time>
      </trkpt>
      <trkpt lat="43.67124" lon="3.87847">
        <ele>109.5</ele>
        <time>2018-09-16T08:07:59Z</time>
      </trkpt>
      <trkpt lat="43.6712" lon="3.87835">
        <ele>109.7</ele>
        <time>2018-09-16T08:08:01Z</time>
      </trkpt>
      <trkpt lat="43.6712" lon="3.8783">
        <ele>109.7</ele>
        <time>2018-09-16T08:08:02Z</time>
      </trkpt>
      <trkpt lat="43.67119" lon="3.87824">
        <ele>109.7</ele>
        <time>2018-09-16T08:08:03Z</time>
      </trkpt>
      <trkpt lat="43.67118" lon="3.87818">
        <ele>109.8</ele>
        <time>2018-09-16T08:08:04Z</time>
      </trkpt>
      <trkpt lat="43.67117" lon="3.87807">
        <ele>109.8</ele>
        <time>2018-09-16T08:08:06Z</time>
      </trkpt>
      <trkpt lat="43.67117" lon="3.87801">
        <ele>109.8</ele>
        <time>2018-09-16T08:08:07Z</time>
      </trkpt>
      <trkpt lat="43.6712" lon="3.8779">
        <ele>109.9</ele>
        <time>2018-09-16T08:08:09Z</time>
      </trkpt>
      <trkpt lat="43.67119" lon="3.87786">
        <ele>109.9</ele>
        <time>2018-09-16T08:08:10Z</time>
      </trkpt>
      <trkpt lat="43.67116" lon="3.87777">
        <ele>110</ele>
        <time>2018-09-16T08:08:11Z</time>
      </trkpt>
      <trkpt lat="43.67117" lon="3.87771">
        <ele>110</ele>
        <time>2018-09-16T08:08:12Z</time>
      </trkpt>
      <trkpt lat="43.67113" lon="3.87759">
        <ele>110</ele>
        <time>2018-09-16T08:08:14Z</time>
      </trkpt>
      <trkpt lat="43.67112" lon="3.87754">
        <ele>110</ele>
        <time>2018-09-16T08:08:15Z</time>
      </trkpt>
      <trkpt lat="43.67112" lon="3.87742">
        <ele>110.3</ele>
        <time>2018-09-16T08:08:17Z</time>
      </trkpt>
      <trkpt lat="43.67111" lon="3.87736">
        <ele>110.5</ele>
        <time>2018-09-16T08:08:18Z</time>
      </trkpt>
      <trkpt lat="43.67109" lon="3.87724">
        <ele>110.8</ele>
        <time>2018-09-16T08:08:20Z</time>
      </trkpt>
      <trkpt lat="43.67105" lon="3.87716">
        <ele>110.6</ele>
        <time>2018-09-16T08:08:21Z</time>
      </trkpt>
      <trkpt lat="43.67103" lon="3.87708">
        <ele>110.4</ele>
        <time>2018-09-16T08:08:22Z</time>
      </trkpt>
      <trkpt lat="43.67099" lon="3.877">
        <ele>110.1</ele>
        <time>2018-09-16T08:08:23Z</time>
      </trkpt>
      <trkpt lat="43.671" lon="3.87689">
        <ele>110.3</ele>
        <time>2018-09-16T08:08:26Z</time>
      </trkpt>
      <trkpt lat="43.67101" lon="3.87686">
        <ele>110.4</ele>
        <time>2018-09-16T08:08:27Z</time>
      </trkpt>
      <trkpt lat="43.67101" lon="3.87675">
        <ele>110.5</ele>
        <time>2018-09-16T08:08:30Z</time>
      </trkpt>
      <trkpt lat="43.67101" lon="3.87664">
        <ele>110.7</ele>
        <time>2018-09-16T08:08:31Z</time>
      </trkpt>
      <trkpt lat="43.671" lon="3.87652">
        <ele>110.8</ele>
        <time>2018-09-16T08:08:36Z</time>
      </trkpt>
      <trkpt lat="43.671" lon="3.8765">
        <ele>110.8</ele>
        <time>2018-09-16T08:08:37Z</time>
      </trkpt>
      <trkpt lat="43.67097" lon="3.87639">
        <ele>111</ele>
        <time>2018-09-16T08:08:41Z</time>
      </trkpt>
      <trkpt lat="43.67097" lon="3.87637">
        <ele>111</ele>
        <time>2018-09-16T08:08:42Z</time>
      </trkpt>
      <trkpt lat="43.67093" lon="3.87627">
        <ele>111</ele>
        <time>2018-09-16T08:08:46Z</time>
      </trkpt>
      <trkpt lat="43.67092" lon="3.87626">
        <ele>111</ele>
        <time>2018-09-16T08:08:47Z</time>
      </trkpt>
      <trkpt lat="43.67094" lon="3.87635">
        <ele>111</ele>
        <time>2018-09-16T08:08:54Z</time>
      </trkpt>
      <trkpt lat="43.67096" lon="3.87639">
        <ele>111</ele>
        <time>2018-09-16T08:08:55Z</time>
      </trkpt>
      <trkpt lat="43.67098" lon="3.87648">
        <ele>110.8</ele>
        <time>2018-09-16T08:08:57Z</time>
      </trkpt>
      <trkpt lat="43.67099" lon="3.87652">
        <ele>110.8</ele>
        <time>2018-09-16T08:08:58Z</time>
      </trkpt>
      <trkpt lat="43.67101" lon="3.87661">
        <ele>110.7</ele>
        <time>2018-09-16T08:09:00Z</time>
      </trkpt>
      <trkpt lat="43.67103" lon="3.87666">
        <ele>110.7</ele>
        <time>2018-09-16T08:09:01Z</time>
      </trkpt>
      <trkpt lat="43.67105" lon="3.87675">
        <ele>110.7</ele>
        <time>2018-09-16T08:09:03Z</time>
      </trkpt>
      <trkpt lat="43.67106" lon="3.87679">
        <ele>110.7</ele>
        <time>2018-09-16T08:09:04Z</time>
      </trkpt>
      <trkpt lat="43.67111" lon="3.87689">
        <ele>111</ele>
        <time>2018-09-16T08:09:09Z</time>
      </trkpt>
      <trkpt lat="43.67111" lon="3.8769">
        <ele>111</ele>
        <time>2018-09-16T08:09:10Z</time>
      </trkpt>
      <trkpt lat="43.67106" lon="3.87683">
        <ele>110.7</ele>
        <time>2018-09-16T08:09:55Z</time>
      </trkpt>
      <trkpt lat="43.67105" lon="3.8768">
        <ele>110.7</ele>
        <time>2018-09-16T08:09:56Z</time>
      </trkpt>
      <trkpt lat="43.67103" lon="3.87672">
        <ele>110.7</ele>
        <time>2018-09-16T08:09:58Z</time>
      </trkpt>
      <trkpt lat="43.67102" lon="3.87668">
        <ele>110.7</ele>
        <time>2018-09-16T08:09:59Z</time>
      </trkpt>
      <trkpt lat="43.671" lon="3.8766">
        <ele>110.7</ele>
        <time>2018-09-16T08:10:01Z</time>
      </trkpt>
      <trkpt lat="43.67099" lon="3.87656">
        <ele>110.7</ele>
        <time>2018-09-16T08:10:02Z</time>
      </trkpt>
      <trkpt lat="43.67097" lon="3.87647">
        <ele>110.9</ele>
        <time>2018-09-16T08:10:04Z</time>
      </trkpt>
      <trkpt lat="43.67096" lon="3.87643">
        <ele>110.9</ele>
        <time>2018-09-16T08:10:05Z</time>
      </trkpt>
      <trkpt lat="43.67096" lon="3.87632">
        <ele>111</ele>
        <time>2018-09-16T08:10:08Z</time>
      </trkpt>
      <trkpt lat="43.67095" lon="3.87627">
        <ele>111</ele>
        <time>2018-09-16T08:10:09Z</time>
      </trkpt>
      <trkpt lat="43.67095" lon="3.87623">
        <ele>111</ele>
        <time>2018-09-16T08:10:10Z</time>
      </trkpt>
      <trkpt lat="43.67092" lon="3.87608">
        <ele>111</ele>
        <time>2018-09-16T08:10:11Z</time>
      </trkpt>
      <trkpt lat="43.6709" lon="3.87601">
        <ele>110.9</ele>
        <time>2018-09-16T08:10:13Z</time>
      </trkpt>
      <trkpt lat="43.67089" lon="3.87591">
        <ele>110.9</ele>
        <time>2018-09-16T08:10:14Z</time>
      </trkpt>
      <trkpt lat="43.67087" lon="3.87583">
        <ele>110.9</ele>
        <time>2018-09-16T08:10:17Z</time>
      </trkpt>
      <trkpt lat="43.67084" lon="3.87573">
        <ele>111</ele>
        <time>2018-09-16T08:10:18Z</time>
      </trkpt>
      <trkpt lat="43.67082" lon="3.87562">
        <ele>111</ele>
        <time>2018-09-16T08:10:20Z</time>
      </trkpt>
      <trkpt lat="43.67079" lon="3.87556">
        <ele>111</ele>
        <time>2018-09-16T08:10:21Z</time>
      </trkpt>
      <trkpt lat="43.6708" lon="3.87546">
        <ele>111</ele>
        <time>2018-09-16T08:10:23Z</time>
      </trkpt>
      <trkpt lat="43.6708" lon="3.87543">
        <ele>111</ele>
        <time>2018-09-16T08:10:24Z</time>
      </trkpt>
      <trkpt lat="43.67081" lon="3.87533">
        <ele>111</ele>
        <time>2018-09-16T08:10:27Z</time>
      </trkpt>
      <trkpt lat="43.67082" lon="3.87521">
        <ele>111.2</ele>
        <time>2018-09-16T08:10:28Z</time>
      </trkpt>
      <trkpt lat="43.67084" lon="3.8751">
        <ele>111.6</ele>
        <time>2018-09-16T08:10:30Z</time>
      </trkpt>
      <trkpt lat="43.67085" lon="3.87506">
        <ele>111.7</ele>
        <time>2018-09-16T08:10:31Z</time>
      </trkpt>
      <trkpt lat="43.67086" lon="3.87499">
        <ele>111.9</ele>
        <time>2018-09-16T08:10:33Z</time>
      </trkpt>
      <trkpt lat="43.67086" lon="3.87489">
        <ele>111.9</ele>
        <time>2018-09-16T08:10:34Z</time>
      </trkpt>
      <trkpt lat="43.67086" lon="3.87478">
        <ele>112</ele>
        <time>2018-09-16T08:10:36Z</time>
      </trkpt>
      <trkpt lat="43.67086" lon="3.87476">
        <ele>112</ele>
        <time>2018-09-16T08:10:37Z</time>
      </trkpt>
      <trkpt lat="43.67088" lon="3.87465">
        <ele>112.3</ele>
        <time>2018-09-16T08:10:40Z</time>
      </trkpt>
      <trkpt lat="43.67089" lon="3.87461">
        <ele>112.4</ele>
        <time>2018-09-16T08:10:41Z</time>
      </trkpt>
      <trkpt lat="43.67092" lon="3.87454">
        <ele>112.7</ele>
        <time>2018-09-16T08:10:43Z</time>
      </trkpt>
      <trkpt lat="43.67094" lon="3.87451">
        <ele>112.8</ele>
        <time>2018-09-16T08:10:44Z</time>
      </trkpt>
      <trkpt lat="43.67099" lon="3.87445">
        <ele>113</ele>
        <time>2018-09-16T08:10:46Z</time>
      </trkpt>
      <trkpt lat="43.67107" lon="3.87438">
        <ele>113.2</ele>
        <time>2018-09-16T08:10:47Z</time>
      </trkpt>
      <trkpt lat="43.67114" lon="3.87434">
        <ele>113.2</ele>
        <time>2018-09-16T08:10:49Z</time>
      </trkpt>
      <trkpt lat="43.67117" lon="3.87432">
        <ele>113.1</ele>
        <time>2018-09-16T08:10:50Z</time>
      </trkpt>
      <trkpt lat="43.67125" lon="3.87428">
        <ele>112.9</ele>
        <time>2018-09-16T08:10:54Z</time>
      </trkpt>
      <trkpt lat="43.67127" lon="3.87427">
        <ele>112.8</ele>
        <time>2018-09-16T08:10:55Z</time>
      </trkpt>
      <trkpt lat="43.67137" lon="3.87424">
        <ele>112.6</ele>
        <time>2018-09-16T08:10:56Z</time>
      </trkpt>
      <trkpt lat="43.67146" lon="3.87421">
        <ele>112</ele>
        <time>2018-09-16T08:10:58Z</time>
      </trkpt>
      <trkpt lat="43.67151" lon="3.87417">
        <ele>111.7</ele>
        <time>2018-09-16T08:10:59Z</time>
      </trkpt>
      <trkpt lat="43.67159" lon="3.87412">
        <ele>110.7</ele>
        <time>2018-09-16T08:11:01Z</time>
      </trkpt>
      <trkpt lat="43.6716" lon="3.87412">
        <ele>110.6</ele>
        <time>2018-09-16T08:11:02Z</time>
      </trkpt>
      <trkpt lat="43.67168" lon="3.8741">
        <ele>109.5</ele>
        <time>2018-09-16T08:11:08Z</time>
      </trkpt>
      <trkpt lat="43.6717" lon="3.8741">
        <ele>109.2</ele>
        <time>2018-09-16T08:11:09Z</time>
      </trkpt>
      <trkpt lat="43.67177" lon="3.87411">
        <ele>107.9</ele>
        <time>2018-09-16T08:11:12Z</time>
      </trkpt>
      <trkpt lat="43.67179" lon="3.87411">
        <ele>107.6</ele>
        <time>2018-09-16T08:11:13Z</time>
      </trkpt>
      <trkpt lat="43.67186" lon="3.87409">
        <ele>106.2</ele>
        <time>2018-09-16T08:11:16Z</time>
      </trkpt>
      <trkpt lat="43.6719" lon="3.87409">
        <ele>105.5</ele>
        <time>2018-09-16T08:11:17Z</time>
      </trkpt>
      <trkpt lat="43.67196" lon="3.87405">
        <ele>104.2</ele>
        <time>2018-09-16T08:11:20Z</time>
      </trkpt>
      <trkpt lat="43.67198" lon="3.87403">
        <ele>103.6</ele>
        <time>2018-09-16T08:11:21Z</time>
      </trkpt>
      <trkpt lat="43.67204" lon="3.87397">
        <ele>101.9</ele>
        <time>2018-09-16T08:11:24Z</time>
      </trkpt>
      <trkpt lat="43.67207" lon="3.87396">
        <ele>101.1</ele>
        <time>2018-09-16T08:11:25Z</time>
      </trkpt>
      <trkpt lat="43.67214" lon="3.87392">
        <ele>99.2</ele>
        <time>2018-09-16T08:11:28Z</time>
      </trkpt>
      <trkpt lat="43.67217" lon="3.87391">
        <ele>98.4</ele>
        <time>2018-09-16T08:11:29Z</time>
      </trkpt>
      <trkpt lat="43.67223" lon="3.87389">
        <ele>96.9</ele>
        <time>2018-09-16T08:11:31Z</time>
      </trkpt>
      <trkpt lat="43.67226" lon="3.87388">
        <ele>96.4</ele>
        <time>2018-09-16T08:11:32Z</time>
      </trkpt>
      <trkpt lat="43.67234" lon="3.87387">
        <ele>95.2</ele>
        <time>2018-09-16T08:11:34Z</time>
      </trkpt>
      <trkpt lat="43.67249" lon="3.87387">
        <ele>93.1</ele>
        <time>2018-09-16T08:11:35Z</time>
      </trkpt>
      <trkpt lat="43.67254" lon="3.87384">
        <ele>92.3</ele>
        <time>2018-09-16T08:11:36Z</time>
      </trkpt>
      <trkpt lat="43.67261" lon="3.87379">
        <ele>91.3</ele>
        <time>2018-09-16T08:11:37Z</time>
      </trkpt>
      <trkpt lat="43.67267" lon="3.87377">
        <ele>90.6</ele>
        <time>2018-09-16T08:11:38Z</time>
      </trkpt>
      <trkpt lat="43.67274" lon="3.87376">
        <ele>89.9</ele>
        <time>2018-09-16T08:11:39Z</time>
      </trkpt>
      <trkpt lat="43.67281" lon="3.87375">
        <ele>89.2</ele>
        <time>2018-09-16T08:11:40Z</time>
      </trkpt>
      <trkpt lat="43.67286" lon="3.87377">
        <ele>88.5</ele>
        <time>2018-09-16T08:11:41Z</time>
      </trkpt>
      <trkpt lat="43.67292" lon="3.8738">
        <ele>87.8</ele>
        <time>2018-09-16T08:11:42Z</time>
      </trkpt>
      <trkpt lat="43.67295" lon="3.87383">
        <ele>87.4</ele>
        <time>2018-09-16T08:11:43Z</time>
      </trkpt>
      <trkpt lat="43.67301" lon="3.8739">
        <ele>86.5</ele>
        <time>2018-09-16T08:11:44Z</time>
      </trkpt>
      <trkpt lat="43.67305" lon="3.87396">
        <ele>86.1</ele>
        <time>2018-09-16T08:11:45Z</time>
      </trkpt>
      <trkpt lat="43.67309" lon="3.87402">
        <ele>85.7</ele>
        <time>2018-09-16T08:11:46Z</time>
      </trkpt>
      <trkpt lat="43.67313" lon="3.87409">
        <ele>85.3</ele>
        <time>2018-09-16T08:11:47Z</time>
      </trkpt>
      <trkpt lat="43.67316" lon="3.87416">
        <ele>84.9</ele>
        <time>2018-09-16T08:11:48Z</time>
      </trkpt>
      <trkpt lat="43.67319" lon="3.87422">
        <ele>84.4</ele>
        <time>2018-09-16T08:11:49Z</time>
      </trkpt>
      <trkpt lat="43.67323" lon="3.87431">
        <ele>83.6</ele>
        <time>2018-09-16T08:11:50Z</time>
      </trkpt>
      <trkpt lat="43.67324" lon="3.87438">
        <ele>83.2</ele>
        <time>2018-09-16T08:11:51Z</time>
      </trkpt>
      <trkpt lat="43.67328" lon="3.87445">
        <ele>82.5</ele>
        <time>2018-09-16T08:11:52Z</time>
      </trkpt>
      <trkpt lat="43.67332" lon="3.87449">
        <ele>81.8</ele>
        <time>2018-09-16T08:11:53Z</time>
      </trkpt>
      <trkpt lat="43.67336" lon="3.87454">
        <ele>81.1</ele>
        <time>2018-09-16T08:11:54Z</time>
      </trkpt>
      <trkpt lat="43.6734" lon="3.87458">
        <ele>80.4</ele>
        <time>2018-09-16T08:11:55Z</time>
      </trkpt>
      <trkpt lat="43.67344" lon="3.87459">
        <ele>80</ele>
        <time>2018-09-16T08:11:56Z</time>
      </trkpt>
      <trkpt lat="43.67349" lon="3.87459">
        <ele>79.6</ele>
        <time>2018-09-16T08:11:57Z</time>
      </trkpt>
      <trkpt lat="43.67355" lon="3.87457">
        <ele>79.1</ele>
        <time>2018-09-16T08:11:58Z</time>
      </trkpt>
      <trkpt lat="43.67361" lon="3.87454">
        <ele>78.7</ele>
        <time>2018-09-16T08:11:59Z</time>
      </trkpt>
      <trkpt lat="43.67367" lon="3.87452">
        <ele>78.3</ele>
        <time>2018-09-16T08:12:00Z</time>
      </trkpt>
      <trkpt lat="43.67371" lon="3.87448">
        <ele>78.2</ele>
        <time>2018-09-16T08:12:01Z</time>
      </trkpt>
      <trkpt lat="43.67372" lon="3.8744">
        <ele>78.3</ele>
        <time>2018-09-16T08:12:02Z</time>
      </trkpt>
      <trkpt lat="43.67374" lon="3.87433">
        <ele>78.3</ele>
        <time>2018-09-16T08:12:03Z</time>
      </trkpt>
      <trkpt lat="43.6738" lon="3.87425">
        <ele>77.9</ele>
        <time>2018-09-16T08:12:07Z</time>
      </trkpt>
      <trkpt lat="43.67389" lon="3.87422">
        <ele>77</ele>
        <time>2018-09-16T08:12:08Z</time>
      </trkpt>
      <trkpt lat="43.67395" lon="3.87422">
        <ele>76.5</ele>
        <time>2018-09-16T08:12:09Z</time>
      </trkpt>
      <trkpt lat="43.67399" lon="3.8742">
        <ele>76.2</ele>
        <time>2018-09-16T08:12:10Z</time>
      </trkpt>
      <trkpt lat="43.67406" lon="3.87424">
        <ele>75.6</ele>
        <time>2018-09-16T08:12:11Z</time>
      </trkpt>
      <trkpt lat="43.67412" lon="3.87426">
        <ele>75.1</ele>
        <time>2018-09-16T08:12:12Z</time>
      </trkpt>
      <trkpt lat="43.6742" lon="3.87425">
        <ele>74.3</ele>
        <time>2018-09-16T08:12:14Z</time>
      </trkpt>
      <trkpt lat="43.6742" lon="3.87424">
        <ele>74.4</ele>
        <time>2018-09-16T08:12:15Z</time>
      </trkpt>
      <trkpt lat="43.67425" lon="3.87415">
        <ele>74.2</ele>
        <time>2018-09-16T08:12:36Z</time>
      </trkpt>
      <trkpt lat="43.67426" lon="3.87414">
        <ele>74.1</ele>
        <time>2018-09-16T08:12:37Z</time>
      </trkpt>
      <trkpt lat="43.67432" lon="3.87407">
        <ele>73.9</ele>
        <time>2018-09-16T08:12:41Z</time>
      </trkpt>
      <trkpt lat="43.67433" lon="3.87406">
        <ele>73.8</ele>
        <time>2018-09-16T08:12:42Z</time>
      </trkpt>
      <trkpt lat="43.67438" lon="3.87396">
        <ele>74</ele>
        <time>2018-09-16T08:12:51Z</time>
      </trkpt>
      <trkpt lat="43.67439" lon="3.87395">
        <ele>74</ele>
        <time>2018-09-16T08:12:52Z</time>
      </trkpt>
      <trkpt lat="43.67439" lon="3.87392">
        <ele>74.2</ele>
        <time>2018-09-16T08:12:55Z</time>
      </trkpt>
      <trkpt lat="43.67439" lon="3.87391">
        <ele>74.3</ele>
        <time>2018-09-16T08:13:02Z</time>
      </trkpt>
      <trkpt lat="43.67439" lon="3.8739">
        <ele>74.3</ele>
        <time>2018-09-16T08:13:03Z</time>
      </trkpt>
      <trkpt lat="43.67431" lon="3.87387">
        <ele>75.1</ele>
        <time>2018-09-16T08:13:11Z</time>
      </trkpt>
      <trkpt lat="43.67429" lon="3.87386">
        <ele>75.4</ele>
        <time>2018-09-16T08:13:12Z</time>
      </trkpt>
      <trkpt lat="43.67422" lon="3.87381">
        <ele>76.2</ele>
        <time>2018-09-16T08:13:15Z</time>
      </trkpt>
      <trkpt lat="43.6742" lon="3.8738">
        <ele>76.4</ele>
        <time>2018-09-16T08:13:16Z</time>
      </trkpt>
      <trkpt lat="43.67414" lon="3.87375">
        <ele>77.2</ele>
        <time>2018-09-16T08:13:19Z</time>
      </trkpt>
      <trkpt lat="43.67412" lon="3.87373">
        <ele>77.5</ele>
        <time>2018-09-16T08:13:20Z</time>
      </trkpt>
      <trkpt lat="43.67405" lon="3.87366">
        <ele>78.5</ele>
        <time>2018-09-16T08:13:24Z</time>
      </trkpt>
      <trkpt lat="43.67403" lon="3.87363">
        <ele>78.8</ele>
        <time>2018-09-16T08:13:25Z</time>
      </trkpt>
      <trkpt lat="43.67398" lon="3.87357">
        <ele>79.7</ele>
        <time>2018-09-16T08:13:28Z</time>
      </trkpt>
      <trkpt lat="43.67396" lon="3.87354">
        <ele>80.1</ele>
        <time>2018-09-16T08:13:29Z</time>
      </trkpt>
      <trkpt lat="43.6739" lon="3.87348">
        <ele>80.9</ele>
        <time>2018-09-16T08:13:33Z</time>
      </trkpt>
      <trkpt lat="43.67388" lon="3.87347">
        <ele>81.1</ele>
        <time>2018-09-16T08:13:34Z</time>
      </trkpt>
      <trkpt lat="43.67381" lon="3.87344">
        <ele>81.8</ele>
        <time>2018-09-16T08:13:39Z</time>
      </trkpt>
      <trkpt lat="43.67379" lon="3.87343">
        <ele>82</ele>
        <time>2018-09-16T08:13:40Z</time>
      </trkpt>
      <trkpt lat="43.6737" lon="3.8734">
        <ele>82.9</ele>
        <time>2018-09-16T08:13:45Z</time>
      </trkpt>
      <trkpt lat="43.67368" lon="3.87339">
        <ele>83.1</ele>
        <time>2018-09-16T08:13:46Z</time>
      </trkpt>
      <trkpt lat="43.6736" lon="3.87336">
        <ele>83.9</ele>
        <time>2018-09-16T08:13:50Z</time>
      </trkpt>
      <trkpt lat="43.67358" lon="3.87336">
        <ele>83.9</ele>
        <time>2018-09-16T08:13:51Z</time>
      </trkpt>
      <trkpt lat="43.67351" lon="3.87333">
        <ele>84.4</ele>
        <time>2018-09-16T08:13:57Z</time>
      </trkpt>
      <trkpt lat="43.67349" lon="3.87332">
        <ele>84.6</ele>
        <time>2018-09-16T08:13:58Z</time>
      </trkpt>
      <trkpt lat="43.67342" lon="3.87326">
        <ele>85.4</ele>
        <time>2018-09-16T08:14:03Z</time>
      </trkpt>
      <trkpt lat="43.67341" lon="3.87325">
        <ele>85.5</ele>
        <time>2018-09-16T08:14:04Z</time>
      </trkpt>
      <trkpt lat="43.67336" lon="3.87317">
        <ele>86.6</ele>
        <time>2018-09-16T08:14:09Z</time>
      </trkpt>
      <trkpt lat="43.67334" lon="3.87316">
        <ele>86.8</ele>
        <time>2018-09-16T08:14:10Z</time>
      </trkpt>
      <trkpt lat="43.67328" lon="3.87307">
        <ele>88.2</ele>
        <time>2018-09-16T08:14:15Z</time>
      </trkpt>
      <trkpt lat="43.67328" lon="3.87305">
        <ele>88.4</ele>
        <time>2018-09-16T08:14:16Z</time>
      </trkpt>
      <trkpt lat="43.67325" lon="3.87295">
        <ele>89.5</ele>
        <time>2018-09-16T08:14:20Z</time>
      </trkpt>
      <trkpt lat="43.67324" lon="3.87293">
        <ele>89.7</ele>
        <time>2018-09-16T08:14:21Z</time>
      </trkpt>
      <trkpt lat="43.67322" lon="3.87282">
        <ele>90.9</ele>
        <time>2018-09-16T08:14:26Z</time>
      </trkpt>
      <trkpt lat="43.67322" lon="3.87279">
        <ele>91.1</ele>
        <time>2018-09-16T08:14:27Z</time>
      </trkpt>
      <trkpt lat="43.67323" lon="3.87268">
        <ele>91.7</ele>
        <time>2018-09-16T08:14:32Z</time>
      </trkpt>
      <trkpt lat="43.67323" lon="3.87266">
        <ele>91.8</ele>
        <time>2018-09-16T08:14:33Z</time>
      </trkpt>
      <trkpt lat="43.67316" lon="3.87259">
        <ele>92.8</ele>
        <time>2018-09-16T08:14:40Z</time>
      </trkpt>
      <trkpt lat="43.67315" lon="3.87258">
        <ele>92.9</ele>
        <time>2018-09-16T08:14:41Z</time>
      </trkpt>
      <trkpt lat="43.67308" lon="3.87252">
        <ele>93.7</ele>
        <time>2018-09-16T08:14:47Z</time>
      </trkpt>
      <trkpt lat="43.67307" lon="3.87251">
        <ele>93.9</ele>
        <time>2018-09-16T08:14:48Z</time>
      </trkpt>
      <trkpt lat="43.67299" lon="3.87245">
        <ele>94.6</ele>
        <time>2018-09-16T08:14:54Z</time>
      </trkpt>
      <trkpt lat="43.67291" lon="3.8724">
        <ele>95</ele>
        <time>2018-09-16T08:15:01Z</time>
      </trkpt>
      <trkpt lat="43.6729" lon="3.8724">
        <ele>95.1</ele>
        <time>2018-09-16T08:15:02Z</time>
      </trkpt>
      <trkpt lat="43.67281" lon="3.8724">
        <ele>95.5</ele>
        <time>2018-09-16T08:15:08Z</time>
      </trkpt>
      <trkpt lat="43.6728" lon="3.8724">
        <ele>95.5</ele>
        <time>2018-09-16T08:15:09Z</time>
      </trkpt>
      <trkpt lat="43.67271" lon="3.87238">
        <ele>95.7</ele>
        <time>2018-09-16T08:15:14Z</time>
      </trkpt>
      <trkpt lat="43.67269" lon="3.87238">
        <ele>95.7</ele>
        <time>2018-09-16T08:15:15Z</time>
      </trkpt>
      <trkpt lat="43.67262" lon="3.87237">
        <ele>95.8</ele>
        <time>2018-09-16T08:15:18Z</time>
      </trkpt>
      <trkpt lat="43.6726" lon="3.87237">
        <ele>95.9</ele>
        <time>2018-09-16T08:15:19Z</time>
      </trkpt>
      <trkpt lat="43.67251" lon="3.87238">
        <ele>96.1</ele>
        <time>2018-09-16T08:15:23Z</time>
      </trkpt>
      <trkpt lat="43.67249" lon="3.87238">
        <ele>96.2</ele>
        <time>2018-09-16T08:15:24Z</time>
      </trkpt>
      <trkpt lat="43.67241" lon="3.87238">
        <ele>96.5</ele>
        <time>2018-09-16T08:15:27Z</time>
      </trkpt>
      <trkpt lat="43.67238" lon="3.87238">
        <ele>96.6</ele>
        <time>2018-09-16T08:15:28Z</time>
      </trkpt>
      <trkpt lat="43.6723" lon="3.87237">
        <ele>96.8</ele>
        <time>2018-09-16T08:15:31Z</time>
      </trkpt>
      <trkpt lat="43.67227" lon="3.87236">
        <ele>96.8</ele>
        <time>2018-09-16T08:15:32Z</time>
      </trkpt>
      <trkpt lat="43.67219" lon="3.87232">
        <ele>97</ele>
        <time>2018-09-16T08:15:35Z</time>
      </trkpt>
      <trkpt lat="43.67216" lon="3.87229">
        <ele>97.1</ele>
        <time>2018-09-16T08:15:36Z</time>
      </trkpt>
      <trkpt lat="43.67211" lon="3.87223">
        <ele>97.3</ele>
        <time>2018-09-16T08:15:38Z</time>
      </trkpt>
      <trkpt lat="43.67209" lon="3.8722">
        <ele>97.4</ele>
        <time>2018-09-16T08:15:39Z</time>
      </trkpt>
      <trkpt lat="43.67206" lon="3.87216">
        <ele>97.5</ele>
        <time>2018-09-16T08:15:40Z</time>
      </trkpt>
      <trkpt lat="43.67196" lon="3.87208">
        <ele>97.9</ele>
        <time>2018-09-16T08:15:41Z</time>
      </trkpt>
      <trkpt lat="43.67189" lon="3.87205">
        <ele>98.3</ele>
        <time>2018-09-16T08:15:43Z</time>
      </trkpt>
      <trkpt lat="43.67185" lon="3.87202">
        <ele>98.6</ele>
        <time>2018-09-16T08:15:44Z</time>
      </trkpt>
      <trkpt lat="43.67177" lon="3.87198">
        <ele>99.1</ele>
        <time>2018-09-16T08:15:50Z</time>
      </trkpt>
      <trkpt lat="43.67175" lon="3.87197">
        <ele>99.3</ele>
        <time>2018-09-16T08:15:51Z</time>
      </trkpt>
      <trkpt lat="43.67167" lon="3.87192">
        <ele>99.8</ele>
        <time>2018-09-16T08:15:55Z</time>
      </trkpt>
      <trkpt lat="43.67165" lon="3.8719">
        <ele>99.8</ele>
        <time>2018-09-16T08:15:56Z</time>
      </trkpt>
      <trkpt lat="43.67159" lon="3.87186">
        <ele>99.8</ele>
        <time>2018-09-16T08:15:59Z</time>
      </trkpt>
      <trkpt lat="43.67156" lon="3.87184">
        <ele>99.7</ele>
        <time>2018-09-16T08:16:00Z</time>
      </trkpt>
      <trkpt lat="43.67148" lon="3.87182">
        <ele>99.8</ele>
        <time>2018-09-16T08:16:03Z</time>
      </trkpt>
      <trkpt lat="43.67146" lon="3.87183">
        <ele>100.1</ele>
        <time>2018-09-16T08:16:04Z</time>
      </trkpt>
      <trkpt lat="43.67138" lon="3.87185">
        <ele>100.6</ele>
        <time>2018-09-16T08:16:07Z</time>
      </trkpt>
      <trkpt lat="43.67135" lon="3.87186">
        <ele>100.8</ele>
        <time>2018-09-16T08:16:08Z</time>
      </trkpt>
      <trkpt lat="43.67128" lon="3.8719">
        <ele>101.4</ele>
        <time>2018-09-16T08:16:12Z</time>
      </trkpt>
      <trkpt lat="43.67126" lon="3.87191">
        <ele>101.5</ele>
        <time>2018-09-16T08:16:13Z</time>
      </trkpt>
      <trkpt lat="43.67122" lon="3.87193">
        <ele>101.8</ele>
        <time>2018-09-16T08:16:15Z</time>
      </trkpt>
      <trkpt lat="43.67113" lon="3.87197">
        <ele>102.4</ele>
        <time>2018-09-16T08:16:16Z</time>
      </trkpt>
      <trkpt lat="43.67105" lon="3.87196">
        <ele>102.9</ele>
        <time>2018-09-16T08:16:20Z</time>
      </trkpt>
      <trkpt lat="43.67103" lon="3.87195">
        <ele>103</ele>
        <time>2018-09-16T08:16:21Z</time>
      </trkpt>
      <trkpt lat="43.67095" lon="3.87192">
        <ele>103.4</ele>
        <time>2018-09-16T08:16:26Z</time>
      </trkpt>
      <trkpt lat="43.67093" lon="3.87192">
        <ele>103.7</ele>
        <time>2018-09-16T08:16:27Z</time>
      </trkpt>
      <trkpt lat="43.67086" lon="3.87188">
        <ele>104</ele>
        <time>2018-09-16T08:16:32Z</time>
      </trkpt>
      <trkpt lat="43.67084" lon="3.87187">
        <ele>104.1</ele>
        <time>2018-09-16T08:16:33Z</time>
      </trkpt>
      <trkpt lat="43.67076" lon="3.87184">
        <ele>104.8</ele>
        <time>2018-09-16T08:16:39Z</time>
      </trkpt>
      <trkpt lat="43.67075" lon="3.87183">
        <ele>104.8</ele>
        <time>2018-09-16T08:16:40Z</time>
      </trkpt>
      <trkpt lat="43.67066" lon="3.87179">
        <ele>105.6</ele>
        <time>2018-09-16T08:16:45Z</time>
      </trkpt>
      <trkpt lat="43.67064" lon="3.87179">
        <ele>105.8</ele>
        <time>2018-09-16T08:16:46Z</time>
      </trkpt>
      <trkpt lat="43.67057" lon="3.87174">
        <ele>106.3</ele>
        <time>2018-09-16T08:16:50Z</time>
      </trkpt>
      <trkpt lat="43.67056" lon="3.87172">
        <ele>106.3</ele>
        <time>2018-09-16T08:16:51Z</time>
      </trkpt>
      <trkpt lat="43.6705" lon="3.87167">
        <ele>106.2</ele>
        <time>2018-09-16T08:16:54Z</time>
      </trkpt>
      <trkpt lat="43.67048" lon="3.87165">
        <ele>106.2</ele>
        <time>2018-09-16T08:16:55Z</time>
      </trkpt>
      <trkpt lat="43.67043" lon="3.87157">
        <ele>106.1</ele>
        <time>2018-09-16T08:16:58Z</time>
      </trkpt>
      <trkpt lat="43.67041" lon="3.87154">
        <ele>106.1</ele>
        <time>2018-09-16T08:16:59Z</time>
      </trkpt>
      <trkpt lat="43.67035" lon="3.87147">
        <ele>106.4</ele>
        <time>2018-09-16T08:17:02Z</time>
      </trkpt>
      <trkpt lat="43.67033" lon="3.87145">
        <ele>106.5</ele>
        <time>2018-09-16T08:17:03Z</time>
      </trkpt>
      <trkpt lat="43.67027" lon="3.87141">
        <ele>107</ele>
        <time>2018-09-16T08:17:06Z</time>
      </trkpt>
      <trkpt lat="43.67025" lon="3.87139">
        <ele>106.9</ele>
        <time>2018-09-16T08:17:07Z</time>
      </trkpt>
      <trkpt lat="43.67021" lon="3.87132">
        <ele>106.3</ele>
        <time>2018-09-16T08:17:25Z</time>
      </trkpt>
      <trkpt lat="43.67022" lon="3.87131">
        <ele>106.3</ele>
        <time>2018-09-16T08:17:41Z</time>
      </trkpt>
      <trkpt lat="43.67022" lon="3.87133">
        <ele>106.4</ele>
        <time>2018-09-16T08:22:43Z</time>
      </trkpt>
      <trkpt lat="43.67022" lon="3.87134">
        <ele>106.5</ele>
        <time>2018-09-16T08:22:46Z</time>
      </trkpt>
      <trkpt lat="43.67016" lon="3.87142">
        <ele>106.6</ele>
        <time>2018-09-16T08:23:09Z</time>
      </trkpt>
      <trkpt lat="43.67015" lon="3.87142">
        <ele>106.5</ele>
        <time>2018-09-16T08:23:10Z</time>
      </trkpt>
      <trkpt lat="43.67006" lon="3.87145">
        <ele>106.2</ele>
        <time>2018-09-16T08:23:15Z</time>
      </trkpt>
      <trkpt lat="43.67003" lon="3.87146">
        <ele>106.1</ele>
        <time>2018-09-16T08:23:16Z</time>
      </trkpt>
      <trkpt lat="43.67" lon="3.87147">
        <ele>106</ele>
        <time>2018-09-16T08:23:17Z</time>
      </trkpt>
      <trkpt lat="43.66991" lon="3.87148">
        <ele>105.8</ele>
        <time>2018-09-16T08:23:18Z</time>
      </trkpt>
      <trkpt lat="43.66983" lon="3.87146">
        <ele>105.7</ele>
        <time>2018-09-16T08:23:20Z</time>
      </trkpt>
      <trkpt lat="43.66979" lon="3.87145">
        <ele>105.7</ele>
        <time>2018-09-16T08:23:21Z</time>
      </trkpt>
      <trkpt lat="43.6697" lon="3.87144">
        <ele>105.7</ele>
        <time>2018-09-16T08:23:23Z</time>
      </trkpt>
      <trkpt lat="43.66966" lon="3.87143">
        <ele>105.9</ele>
        <time>2018-09-16T08:23:24Z</time>
      </trkpt>
      <trkpt lat="43.66957" lon="3.87143">
        <ele>106.3</ele>
        <time>2018-09-16T08:23:26Z</time>
      </trkpt>
      <trkpt lat="43.66953" lon="3.87143">
        <ele>106.4</ele>
        <time>2018-09-16T08:23:27Z</time>
      </trkpt>
      <trkpt lat="43.66945" lon="3.87143">
        <ele>106.7</ele>
        <time>2018-09-16T08:23:29Z</time>
      </trkpt>
      <trkpt lat="43.66941" lon="3.87142">
        <ele>107</ele>
        <time>2018-09-16T08:23:30Z</time>
      </trkpt>
      <trkpt lat="43.66932" lon="3.87142">
        <ele>107.6</ele>
        <time>2018-09-16T08:23:32Z</time>
      </trkpt>
      <trkpt lat="43.66927" lon="3.87141">
        <ele>108</ele>
        <time>2018-09-16T08:23:33Z</time>
      </trkpt>
      <trkpt lat="43.6692" lon="3.87141">
        <ele>108.5</ele>
        <time>2018-09-16T08:23:36Z</time>
      </trkpt>
      <trkpt lat="43.66912" lon="3.8714">
        <ele>108.8</ele>
        <time>2018-09-16T08:23:37Z</time>
      </trkpt>
      <trkpt lat="43.66905" lon="3.87139">
        <ele>109</ele>
        <time>2018-09-16T08:23:39Z</time>
      </trkpt>
      <trkpt lat="43.66903" lon="3.8714">
        <ele>108.9</ele>
        <time>2018-09-16T08:23:40Z</time>
      </trkpt>
      <trkpt lat="43.66896" lon="3.87141">
        <ele>108.8</ele>
        <time>2018-09-16T08:23:43Z</time>
      </trkpt>
      <trkpt lat="43.66893" lon="3.87141">
        <ele>108.8</ele>
        <time>2018-09-16T08:23:44Z</time>
      </trkpt>
      <trkpt lat="43.66885" lon="3.87142">
        <ele>108.7</ele>
        <time>2018-09-16T08:23:47Z</time>
      </trkpt>
      <trkpt lat="43.66882" lon="3.87142">
        <ele>108.7</ele>
        <time>2018-09-16T08:23:48Z</time>
      </trkpt>
      <trkpt lat="43.6687" lon="3.87143">
        <ele>108.6</ele>
        <time>2018-09-16T08:23:49Z</time>
      </trkpt>
      <trkpt lat="43.66862" lon="3.87144">
        <ele>108.4</ele>
        <time>2018-09-16T08:23:51Z</time>
      </trkpt>
      <trkpt lat="43.66857" lon="3.87145">
        <ele>108.1</ele>
        <time>2018-09-16T08:23:52Z</time>
      </trkpt>
      <trkpt lat="43.66853" lon="3.87144">
        <ele>107.9</ele>
        <time>2018-09-16T08:23:53Z</time>
      </trkpt>
      <trkpt lat="43.66848" lon="3.87144">
        <ele>107.6</ele>
        <time>2018-09-16T08:23:54Z</time>
      </trkpt>
      <trkpt lat="43.66844" lon="3.87144">
        <ele>107.3</ele>
        <time>2018-09-16T08:23:55Z</time>
      </trkpt>
      <trkpt lat="43.66839" lon="3.87145">
        <ele>106.9</ele>
        <time>2018-09-16T08:23:56Z</time>
      </trkpt>
      <trkpt lat="43.6683" lon="3.87144">
        <ele>106.2</ele>
        <time>2018-09-16T08:23:58Z</time>
      </trkpt>
      <trkpt lat="43.66825" lon="3.87144">
        <ele>105.5</ele>
        <time>2018-09-16T08:23:59Z</time>
      </trkpt>
      <trkpt lat="43.66818" lon="3.87144">
        <ele>104.5</ele>
        <time>2018-09-16T08:24:00Z</time>
      </trkpt>
      <trkpt lat="43.66813" lon="3.87143">
        <ele>103.9</ele>
        <time>2018-09-16T08:24:01Z</time>
      </trkpt>
      <trkpt lat="43.66807" lon="3.87143">
        <ele>103.1</ele>
        <time>2018-09-16T08:24:02Z</time>
      </trkpt>
      <trkpt lat="43.668" lon="3.87142">
        <ele>102.1</ele>
        <time>2018-09-16T08:24:03Z</time>
      </trkpt>
      <trkpt lat="43.66793" lon="3.87141">
        <ele>101.2</ele>
        <time>2018-09-16T08:24:04Z</time>
      </trkpt>
      <trkpt lat="43.66787" lon="3.87139">
        <ele>100.3</ele>
        <time>2018-09-16T08:24:05Z</time>
      </trkpt>
      <trkpt lat="43.66781" lon="3.87138">
        <ele>99.4</ele>
        <time>2018-09-16T08:24:06Z</time>
      </trkpt>
      <trkpt lat="43.66775" lon="3.87137">
        <ele>98.5</ele>
        <time>2018-09-16T08:24:07Z</time>
      </trkpt>
      <trkpt lat="43.6677" lon="3.87136">
        <ele>97.7</ele>
        <time>2018-09-16T08:24:08Z</time>
      </trkpt>
      <trkpt lat="43.66764" lon="3.87136">
        <ele>96.9</ele>
        <time>2018-09-16T08:24:09Z</time>
      </trkpt>
      <trkpt lat="43.66759" lon="3.87137">
        <ele>96.2</ele>
        <time>2018-09-16T08:24:10Z</time>
      </trkpt>
      <trkpt lat="43.66754" lon="3.87138">
        <ele>95.5</ele>
        <time>2018-09-16T08:24:11Z</time>
      </trkpt>
      <trkpt lat="43.66746" lon="3.87139">
        <ele>94.7</ele>
        <time>2018-09-16T08:24:13Z</time>
      </trkpt>
      <trkpt lat="43.66741" lon="3.87141">
        <ele>94.4</ele>
        <time>2018-09-16T08:24:14Z</time>
      </trkpt>
      <trkpt lat="43.66734" lon="3.87148">
        <ele>94.2</ele>
        <time>2018-09-16T08:24:17Z</time>
      </trkpt>
      <trkpt lat="43.66733" lon="3.8715">
        <ele>94.2</ele>
        <time>2018-09-16T08:24:18Z</time>
      </trkpt>
      <trkpt lat="43.66731" lon="3.87159">
        <ele>94.4</ele>
        <time>2018-09-16T08:24:21Z</time>
      </trkpt>
      <trkpt lat="43.66732" lon="3.87163">
        <ele>94.6</ele>
        <time>2018-09-16T08:24:22Z</time>
      </trkpt>
      <trkpt lat="43.66734" lon="3.87174">
        <ele>94.8</ele>
        <time>2018-09-16T08:24:25Z</time>
      </trkpt>
      <trkpt lat="43.66734" lon="3.87177">
        <ele>94.8</ele>
        <time>2018-09-16T08:24:26Z</time>
      </trkpt>
      <trkpt lat="43.66732" lon="3.87186">
        <ele>94.7</ele>
        <time>2018-09-16T08:24:48Z</time>
      </trkpt>
      <trkpt lat="43.6673" lon="3.87188">
        <ele>94.6</ele>
        <time>2018-09-16T08:24:49Z</time>
      </trkpt>
      <trkpt lat="43.66727" lon="3.8719">
        <ele>94.3</ele>
        <time>2018-09-16T08:24:50Z</time>
      </trkpt>
      <trkpt lat="43.66716" lon="3.87193">
        <ele>93.8</ele>
        <time>2018-09-16T08:24:51Z</time>
      </trkpt>
      <trkpt lat="43.66708" lon="3.87193">
        <ele>93.5</ele>
        <time>2018-09-16T08:24:53Z</time>
      </trkpt>
      <trkpt lat="43.66704" lon="3.87194">
        <ele>93.3</ele>
        <time>2018-09-16T08:24:54Z</time>
      </trkpt>
      <trkpt lat="43.66696" lon="3.87197">
        <ele>93.1</ele>
        <time>2018-09-16T08:24:56Z</time>
      </trkpt>
      <trkpt lat="43.66695" lon="3.87198">
        <ele>93</ele>
        <time>2018-09-16T08:24:57Z</time>
      </trkpt>
      <trkpt lat="43.66688" lon="3.87203">
        <ele>93</ele>
        <time>2018-09-16T08:25:03Z</time>
      </trkpt>
      <trkpt lat="43.66686" lon="3.87204">
        <ele>93</ele>
        <time>2018-09-16T08:25:04Z</time>
      </trkpt>
      <trkpt lat="43.66678" lon="3.87203">
        <ele>93</ele>
        <time>2018-09-16T08:25:07Z</time>
      </trkpt>
      <trkpt lat="43.66674" lon="3.87203">
        <ele>93</ele>
        <time>2018-09-16T08:25:08Z</time>
      </trkpt>
      <trkpt lat="43.66667" lon="3.87203">
        <ele>93</ele>
        <time>2018-09-16T08:25:10Z</time>
      </trkpt>
      <trkpt lat="43.66654" lon="3.87205">
        <ele>92.8</ele>
        <time>2018-09-16T08:25:11Z</time>
      </trkpt>
      <trkpt lat="43.66649" lon="3.87202">
        <ele>92.8</ele>
        <time>2018-09-16T08:25:13Z</time>
      </trkpt>
      <trkpt lat="43.66643" lon="3.87199">
        <ele>92.9</ele>
        <time>2018-09-16T08:25:14Z</time>
      </trkpt>
      <trkpt lat="43.66635" lon="3.87193">
        <ele>92.9</ele>
        <time>2018-09-16T08:25:18Z</time>
      </trkpt>
      <trkpt lat="43.66633" lon="3.87191">
        <ele>92.8</ele>
        <time>2018-09-16T08:25:19Z</time>
      </trkpt>
      <trkpt lat="43.66628" lon="3.87185">
        <ele>92.6</ele>
        <time>2018-09-16T08:25:21Z</time>
      </trkpt>
      <trkpt lat="43.66621" lon="3.87174">
        <ele>92.4</ele>
        <time>2018-09-16T08:25:22Z</time>
      </trkpt>
      <trkpt lat="43.66618" lon="3.87172">
        <ele>92.2</ele>
        <time>2018-09-16T08:25:24Z</time>
      </trkpt>
      <trkpt lat="43.6661" lon="3.8717">
        <ele>92</ele>
        <time>2018-09-16T08:25:25Z</time>
      </trkpt>
      <trkpt lat="43.66605" lon="3.8717">
        <ele>91.9</ele>
        <time>2018-09-16T08:25:26Z</time>
      </trkpt>
      <trkpt lat="43.666" lon="3.8717">
        <ele>91.9</ele>
        <time>2018-09-16T08:25:27Z</time>
      </trkpt>
      <trkpt lat="43.66595" lon="3.87169">
        <ele>91.9</ele>
        <time>2018-09-16T08:25:28Z</time>
      </trkpt>
      <trkpt lat="43.6659" lon="3.87168">
        <ele>91.9</ele>
        <time>2018-09-16T08:25:29Z</time>
      </trkpt>
      <trkpt lat="43.66585" lon="3.87167">
        <ele>92</ele>
        <time>2018-09-16T08:25:30Z</time>
      </trkpt>
      <trkpt lat="43.6658" lon="3.87164">
        <ele>92.1</ele>
        <time>2018-09-16T08:25:31Z</time>
      </trkpt>
      <trkpt lat="43.66575" lon="3.87163">
        <ele>92.1</ele>
        <time>2018-09-16T08:25:32Z</time>
      </trkpt>
      <trkpt lat="43.6657" lon="3.87159">
        <ele>92.3</ele>
        <time>2018-09-16T08:25:33Z</time>
      </trkpt>
      <trkpt lat="43.66564" lon="3.87151">
        <ele>92.6</ele>
        <time>2018-09-16T08:25:37Z</time>
      </trkpt>
      <trkpt lat="43.66562" lon="3.87149">
        <ele>92.6</ele>
        <time>2018-09-16T08:25:38Z</time>
      </trkpt>
      <trkpt lat="43.66555" lon="3.87145">
        <ele>92.8</ele>
        <time>2018-09-16T08:25:41Z</time>
      </trkpt>
      <trkpt lat="43.66553" lon="3.87143">
        <ele>92.8</ele>
        <time>2018-09-16T08:25:42Z</time>
      </trkpt>
      <trkpt lat="43.66547" lon="3.8714">
        <ele>92.9</ele>
        <time>2018-09-16T08:25:44Z</time>
      </trkpt>
      <trkpt lat="43.66543" lon="3.8714">
        <ele>92.9</ele>
        <time>2018-09-16T08:25:45Z</time>
      </trkpt>
      <trkpt lat="43.66532" lon="3.87139">
        <ele>93</ele>
        <time>2018-09-16T08:25:46Z</time>
      </trkpt>
      <trkpt lat="43.66524" lon="3.87139">
        <ele>93</ele>
        <time>2018-09-16T08:25:49Z</time>
      </trkpt>
      <trkpt lat="43.66522" lon="3.8714">
        <ele>92.9</ele>
        <time>2018-09-16T08:25:50Z</time>
      </trkpt>
      <trkpt lat="43.66513" lon="3.87142">
        <ele>92.7</ele>
        <time>2018-09-16T08:25:53Z</time>
      </trkpt>
      <trkpt lat="43.66511" lon="3.87141">
        <ele>92.8</ele>
        <time>2018-09-16T08:25:54Z</time>
      </trkpt>
      <trkpt lat="43.66503" lon="3.87136">
        <ele>93.2</ele>
        <time>2018-09-16T08:25:57Z</time>
      </trkpt>
      <trkpt lat="43.66502" lon="3.87134">
        <ele>93.3</ele>
        <time>2018-09-16T08:25:58Z</time>
      </trkpt>
      <trkpt lat="43.66499" lon="3.87123">
        <ele>94.1</ele>
        <time>2018-09-16T08:26:03Z</time>
      </trkpt>
      <trkpt lat="43.665" lon="3.87121">
        <ele>94.3</ele>
        <time>2018-09-16T08:26:04Z</time>
      </trkpt>
      <trkpt lat="43.66506" lon="3.87112">
        <ele>94.7</ele>
        <time>2018-09-16T08:26:09Z</time>
      </trkpt>
      <trkpt lat="43.66506" lon="3.87109">
        <ele>94.8</ele>
        <time>2018-09-16T08:26:10Z</time>
      </trkpt>
      <trkpt lat="43.66509" lon="3.871">
        <ele>94.9</ele>
        <time>2018-09-16T08:26:13Z</time>
      </trkpt>
      <trkpt lat="43.6651" lon="3.87097">
        <ele>95</ele>
        <time>2018-09-16T08:26:14Z</time>
      </trkpt>
      <trkpt lat="43.66512" lon="3.87087">
        <ele>95.1</ele>
        <time>2018-09-16T08:26:16Z</time>
      </trkpt>
      <trkpt lat="43.66513" lon="3.87083">
        <ele>95.1</ele>
        <time>2018-09-16T08:26:17Z</time>
      </trkpt>
      <trkpt lat="43.66518" lon="3.87072">
        <ele>94.6</ele>
        <time>2018-09-16T08:26:22Z</time>
      </trkpt>
      <trkpt lat="43.66519" lon="3.87073">
        <ele>94.5</ele>
        <time>2018-09-16T08:26:23Z</time>
      </trkpt>
      <trkpt lat="43.66527" lon="3.87072">
        <ele>94</ele>
        <time>2018-09-16T08:26:27Z</time>
      </trkpt>
      <trkpt lat="43.66529" lon="3.87071">
        <ele>93.8</ele>
        <time>2018-09-16T08:26:28Z</time>
      </trkpt>
      <trkpt lat="43.66534" lon="3.87066">
        <ele>93</ele>
        <time>2018-09-16T08:26:30Z</time>
      </trkpt>
      <trkpt lat="43.66536" lon="3.87063">
        <ele>92.7</ele>
        <time>2018-09-16T08:26:31Z</time>
      </trkpt>
      <trkpt lat="43.66541" lon="3.87057">
        <ele>91.7</ele>
        <time>2018-09-16T08:26:33Z</time>
      </trkpt>
      <trkpt lat="43.66543" lon="3.87054">
        <ele>91.2</ele>
        <time>2018-09-16T08:26:34Z</time>
      </trkpt>
      <trkpt lat="43.6655" lon="3.87047">
        <ele>89.6</ele>
        <time>2018-09-16T08:26:37Z</time>
      </trkpt>
      <trkpt lat="43.66553" lon="3.87046">
        <ele>89.1</ele>
        <time>2018-09-16T08:26:38Z</time>
      </trkpt>
      <trkpt lat="43.66559" lon="3.87044">
        <ele>87.8</ele>
        <time>2018-09-16T08:26:40Z</time>
      </trkpt>
      <trkpt lat="43.66561" lon="3.87041">
        <ele>87.2</ele>
        <time>2018-09-16T08:26:41Z</time>
      </trkpt>
      <trkpt lat="43.66568" lon="3.87033">
        <ele>84.9</ele>
        <time>2018-09-16T08:26:44Z</time>
      </trkpt>
      <trkpt lat="43.6657" lon="3.87031">
        <ele>84.1</ele>
        <time>2018-09-16T08:26:45Z</time>
      </trkpt>
      <trkpt lat="43.66575" lon="3.87026">
        <ele>82.3</ele>
        <time>2018-09-16T08:26:48Z</time>
      </trkpt>
      <trkpt lat="43.66578" lon="3.87024">
        <ele>81.3</ele>
        <time>2018-09-16T08:26:49Z</time>
      </trkpt>
      <trkpt lat="43.66581" lon="3.87013">
        <ele>79.6</ele>
        <time>2018-09-16T08:26:53Z</time>
      </trkpt>
      <trkpt lat="43.66582" lon="3.87011">
        <ele>79.2</ele>
        <time>2018-09-16T08:26:54Z</time>
      </trkpt>
      <trkpt lat="43.66584" lon="3.87002">
        <ele>78</ele>
        <time>2018-09-16T08:26:59Z</time>
      </trkpt>
      <trkpt lat="43.66586" lon="3.86999">
        <ele>77.5</ele>
        <time>2018-09-16T08:27:00Z</time>
      </trkpt>
      <trkpt lat="43.66589" lon="3.86991">
        <ele>76.5</ele>
        <time>2018-09-16T08:27:02Z</time>
      </trkpt>
      <trkpt lat="43.6659" lon="3.86986">
        <ele>76</ele>
        <time>2018-09-16T08:27:03Z</time>
      </trkpt>
      <trkpt lat="43.6659" lon="3.86977">
        <ele>75.4</ele>
        <time>2018-09-16T08:27:05Z</time>
      </trkpt>
      <trkpt lat="43.6659" lon="3.86973">
        <ele>75.1</ele>
        <time>2018-09-16T08:27:06Z</time>
      </trkpt>
      <trkpt lat="43.6659" lon="3.86963">
        <ele>73.9</ele>
        <time>2018-09-16T08:27:08Z</time>
      </trkpt>
      <trkpt lat="43.66589" lon="3.86959">
        <ele>73.5</ele>
        <time>2018-09-16T08:27:09Z</time>
      </trkpt>
      <trkpt lat="43.6659" lon="3.86948">
        <ele>72</ele>
        <time>2018-09-16T08:27:11Z</time>
      </trkpt>
      <trkpt lat="43.66588" lon="3.86931">
        <ele>70.4</ele>
        <time>2018-09-16T08:27:12Z</time>
      </trkpt>
      <trkpt lat="43.66585" lon="3.8692">
        <ele>69.3</ele>
        <time>2018-09-16T08:27:13Z</time>
      </trkpt>
      <trkpt lat="43.66584" lon="3.86913">
        <ele>68.9</ele>
        <time>2018-09-16T08:27:14Z</time>
      </trkpt>
      <trkpt lat="43.66584" lon="3.86903">
        <ele>68.5</ele>
        <time>2018-09-16T08:27:18Z</time>
      </trkpt>
      <trkpt lat="43.66585" lon="3.869">
        <ele>68.4</ele>
        <time>2018-09-16T08:27:19Z</time>
      </trkpt>
      <trkpt lat="43.66584" lon="3.86891">
        <ele>68.1</ele>
        <time>2018-09-16T08:27:22Z</time>
      </trkpt>
      <trkpt lat="43.66584" lon="3.86887">
        <ele>67.9</ele>
        <time>2018-09-16T08:27:23Z</time>
      </trkpt>
      <trkpt lat="43.6658" lon="3.86878">
        <ele>67.6</ele>
        <time>2018-09-16T08:27:26Z</time>
      </trkpt>
      <trkpt lat="43.66579" lon="3.86874">
        <ele>67.5</ele>
        <time>2018-09-16T08:27:27Z</time>
      </trkpt>
      <trkpt lat="43.66576" lon="3.86864">
        <ele>67</ele>
        <time>2018-09-16T08:27:30Z</time>
      </trkpt>
      <trkpt lat="43.66576" lon="3.8686">
        <ele>66.7</ele>
        <time>2018-09-16T08:27:31Z</time>
      </trkpt>
      <trkpt lat="43.66575" lon="3.86849">
        <ele>65.9</ele>
        <time>2018-09-16T08:27:34Z</time>
      </trkpt>
      <trkpt lat="43.66574" lon="3.86846">
        <ele>65.7</ele>
        <time>2018-09-16T08:27:35Z</time>
      </trkpt>
      <trkpt lat="43.66573" lon="3.86836">
        <ele>65</ele>
        <time>2018-09-16T08:27:38Z</time>
      </trkpt>
      <trkpt lat="43.66572" lon="3.86832">
        <ele>64.7</ele>
        <time>2018-09-16T08:27:39Z</time>
      </trkpt>
      <trkpt lat="43.66568" lon="3.86822">
        <ele>64.5</ele>
        <time>2018-09-16T08:27:42Z</time>
      </trkpt>
      <trkpt lat="43.66567" lon="3.86819">
        <ele>64.4</ele>
        <time>2018-09-16T08:27:43Z</time>
      </trkpt>
      <trkpt lat="43.66563" lon="3.8681">
        <ele>64.4</ele>
        <time>2018-09-16T08:27:46Z</time>
      </trkpt>
      <trkpt lat="43.66561" lon="3.86807">
        <ele>64.5</ele>
        <time>2018-09-16T08:27:47Z</time>
      </trkpt>
      <trkpt lat="43.66557" lon="3.868">
        <ele>64.4</ele>
        <time>2018-09-16T08:27:49Z</time>
      </trkpt>
      <trkpt lat="43.66555" lon="3.86796">
        <ele>64.4</ele>
        <time>2018-09-16T08:27:50Z</time>
      </trkpt>
      <trkpt lat="43.66552" lon="3.86788">
        <ele>64</ele>
        <time>2018-09-16T08:27:52Z</time>
      </trkpt>
      <trkpt lat="43.66551" lon="3.86785">
        <ele>63.8</ele>
        <time>2018-09-16T08:27:53Z</time>
      </trkpt>
      <trkpt lat="43.66548" lon="3.86777">
        <ele>63.5</ele>
        <time>2018-09-16T08:27:55Z</time>
      </trkpt>
      <trkpt lat="43.66547" lon="3.86772">
        <ele>63.2</ele>
        <time>2018-09-16T08:27:56Z</time>
      </trkpt>
      <trkpt lat="43.66544" lon="3.86762">
        <ele>62.7</ele>
        <time>2018-09-16T08:27:58Z</time>
      </trkpt>
      <trkpt lat="43.66543" lon="3.86759">
        <ele>62.6</ele>
        <time>2018-09-16T08:27:59Z</time>
      </trkpt>
      <trkpt lat="43.66538" lon="3.86749">
        <ele>62.2</ele>
        <time>2018-09-16T08:28:02Z</time>
      </trkpt>
      <trkpt lat="43.66537" lon="3.86746">
        <ele>62</ele>
        <time>2018-09-16T08:28:03Z</time>
      </trkpt>
      <trkpt lat="43.66531" lon="3.86739">
        <ele>61.9</ele>
        <time>2018-09-16T08:28:07Z</time>
      </trkpt>
      <trkpt lat="43.6653" lon="3.86738">
        <ele>61.9</ele>
        <time>2018-09-16T08:28:08Z</time>
      </trkpt>
      <trkpt lat="43.66526" lon="3.86729">
        <ele>61.5</ele>
        <time>2018-09-16T08:28:11Z</time>
      </trkpt>
      <trkpt lat="43.66525" lon="3.86726">
        <ele>61.3</ele>
        <time>2018-09-16T08:28:12Z</time>
      </trkpt>
      <trkpt lat="43.6652" lon="3.86719">
        <ele>60.7</ele>
        <time>2018-09-16T08:28:15Z</time>
      </trkpt>
      <trkpt lat="43.66518" lon="3.86717">
        <ele>60.4</ele>
        <time>2018-09-16T08:28:16Z</time>
      </trkpt>
      <trkpt lat="43.6651" lon="3.86714">
        <ele>60.1</ele>
        <time>2018-09-16T08:28:22Z</time>
      </trkpt>
      <trkpt lat="43.66509" lon="3.86715">
        <ele>60.2</ele>
        <time>2018-09-16T08:28:23Z</time>
      </trkpt>
      <trkpt lat="43.665" lon="3.86719">
        <ele>60.7</ele>
        <time>2018-09-16T08:28:28Z</time>
      </trkpt>
      <trkpt lat="43.66498" lon="3.86721">
        <ele>60.8</ele>
        <time>2018-09-16T08:28:29Z</time>
      </trkpt>
      <trkpt lat="43.66491" lon="3.86723">
        <ele>60.7</ele>
        <time>2018-09-16T08:28:32Z</time>
      </trkpt>
      <trkpt lat="43.66489" lon="3.86723">
        <ele>60.7</ele>
        <time>2018-09-16T08:28:33Z</time>
      </trkpt>
      <trkpt lat="43.66482" lon="3.86724">
        <ele>60.5</ele>
        <time>2018-09-16T08:28:35Z</time>
      </trkpt>
      <trkpt lat="43.66479" lon="3.86725">
        <ele>60.4</ele>
        <time>2018-09-16T08:28:36Z</time>
      </trkpt>
      <trkpt lat="43.66472" lon="3.86727">
        <ele>60.3</ele>
        <time>2018-09-16T08:28:39Z</time>
      </trkpt>
      <trkpt lat="43.6647" lon="3.86728">
        <ele>60.3</ele>
        <time>2018-09-16T08:28:40Z</time>
      </trkpt>
      <trkpt lat="43.66461" lon="3.86729">
        <ele>59.9</ele>
        <time>2018-09-16T08:28:44Z</time>
      </trkpt>
      <trkpt lat="43.66459" lon="3.86729">
        <ele>59.8</ele>
        <time>2018-09-16T08:28:45Z</time>
      </trkpt>
      <trkpt lat="43.66451" lon="3.86733">
        <ele>59.8</ele>
        <time>2018-09-16T08:28:49Z</time>
      </trkpt>
      <trkpt lat="43.6645" lon="3.86734">
        <ele>59.9</ele>
        <time>2018-09-16T08:28:50Z</time>
      </trkpt>
      <trkpt lat="43.66443" lon="3.86738">
        <ele>60.3</ele>
        <time>2018-09-16T08:28:54Z</time>
      </trkpt>
      <trkpt lat="43.66441" lon="3.86739">
        <ele>60.4</ele>
        <time>2018-09-16T08:28:55Z</time>
      </trkpt>
      <trkpt lat="43.66433" lon="3.86742">
        <ele>60.7</ele>
        <time>2018-09-16T08:29:02Z</time>
      </trkpt>
      <trkpt lat="43.66432" lon="3.86742">
        <ele>60.7</ele>
        <time>2018-09-16T08:29:03Z</time>
      </trkpt>
      <trkpt lat="43.66424" lon="3.86747">
        <ele>61</ele>
        <time>2018-09-16T08:29:09Z</time>
      </trkpt>
      <trkpt lat="43.66423" lon="3.86747">
        <ele>61</ele>
        <time>2018-09-16T08:29:10Z</time>
      </trkpt>
      <trkpt lat="43.66416" lon="3.86753">
        <ele>61.3</ele>
        <time>2018-09-16T08:29:16Z</time>
      </trkpt>
      <trkpt lat="43.66414" lon="3.86755">
        <ele>61.5</ele>
        <time>2018-09-16T08:29:17Z</time>
      </trkpt>
      <trkpt lat="43.66407" lon="3.86761">
        <ele>62.2</ele>
        <time>2018-09-16T08:29:21Z</time>
      </trkpt>
      <trkpt lat="43.66404" lon="3.86763">
        <ele>62.4</ele>
        <time>2018-09-16T08:29:22Z</time>
      </trkpt>
      <trkpt lat="43.66397" lon="3.86764">
        <ele>62.5</ele>
        <time>2018-09-16T08:29:24Z</time>
      </trkpt>
      <trkpt lat="43.66384" lon="3.86765">
        <ele>62.8</ele>
        <time>2018-09-16T08:29:25Z</time>
      </trkpt>
      <trkpt lat="43.66377" lon="3.86767">
        <ele>63.3</ele>
        <time>2018-09-16T08:29:28Z</time>
      </trkpt>
      <trkpt lat="43.66368" lon="3.86761">
        <ele>62.9</ele>
        <time>2018-09-16T08:29:29Z</time>
      </trkpt>
      <trkpt lat="43.66361" lon="3.86755">
        <ele>62.5</ele>
        <time>2018-09-16T08:29:32Z</time>
      </trkpt>
      <trkpt lat="43.66359" lon="3.86754">
        <ele>62.4</ele>
        <time>2018-09-16T08:29:33Z</time>
      </trkpt>
      <trkpt lat="43.66359" lon="3.86743">
        <ele>61.5</ele>
        <time>2018-09-16T08:29:38Z</time>
      </trkpt>
      <trkpt lat="43.66361" lon="3.86739">
        <ele>61.2</ele>
        <time>2018-09-16T08:29:39Z</time>
      </trkpt>
      <trkpt lat="43.66359" lon="3.86729">
        <ele>60.5</ele>
        <time>2018-09-16T08:29:41Z</time>
      </trkpt>
      <trkpt lat="43.66357" lon="3.86723">
        <ele>60.2</ele>
        <time>2018-09-16T08:29:42Z</time>
      </trkpt>
      <trkpt lat="43.66358" lon="3.86715">
        <ele>59.8</ele>
        <time>2018-09-16T08:29:44Z</time>
      </trkpt>
      <trkpt lat="43.66363" lon="3.86697">
        <ele>59</ele>
        <time>2018-09-16T08:29:45Z</time>
      </trkpt>
      <trkpt lat="43.6637" lon="3.86692">
        <ele>58.6</ele>
        <time>2018-09-16T08:29:47Z</time>
      </trkpt>
      <trkpt lat="43.66371" lon="3.86691">
        <ele>58.5</ele>
        <time>2018-09-16T08:29:48Z</time>
      </trkpt>
      <trkpt lat="43.66377" lon="3.86684">
        <ele>58.1</ele>
        <time>2018-09-16T08:29:52Z</time>
      </trkpt>
      <trkpt lat="43.66379" lon="3.86682">
        <ele>57.9</ele>
        <time>2018-09-16T08:29:53Z</time>
      </trkpt>
      <trkpt lat="43.66384" lon="3.86677">
        <ele>57.5</ele>
        <time>2018-09-16T08:29:55Z</time>
      </trkpt>
      <trkpt lat="43.66387" lon="3.86675">
        <ele>57.4</ele>
        <time>2018-09-16T08:29:56Z</time>
      </trkpt>
      <trkpt lat="43.66392" lon="3.86672">
        <ele>57</ele>
        <time>2018-09-16T08:29:58Z</time>
      </trkpt>
      <trkpt lat="43.66395" lon="3.8667">
        <ele>56.7</ele>
        <time>2018-09-16T08:29:59Z</time>
      </trkpt>
      <trkpt lat="43.66401" lon="3.86665">
        <ele>56.1</ele>
        <time>2018-09-16T08:30:02Z</time>
      </trkpt>
      <trkpt lat="43.66403" lon="3.86663">
        <ele>56</ele>
        <time>2018-09-16T08:30:03Z</time>
      </trkpt>
      <trkpt lat="43.6641" lon="3.86661">
        <ele>55.5</ele>
        <time>2018-09-16T08:30:06Z</time>
      </trkpt>
      <trkpt lat="43.66412" lon="3.8666">
        <ele>55.3</ele>
        <time>2018-09-16T08:30:07Z</time>
      </trkpt>
      <trkpt lat="43.66418" lon="3.86659">
        <ele>55</ele>
        <time>2018-09-16T08:30:09Z</time>
      </trkpt>
      <trkpt lat="43.66429" lon="3.86658">
        <ele>54.7</ele>
        <time>2018-09-16T08:30:10Z</time>
      </trkpt>
      <trkpt lat="43.66435" lon="3.86657">
        <ele>54.5</ele>
        <time>2018-09-16T08:30:13Z</time>
      </trkpt>
      <trkpt lat="43.66438" lon="3.86658">
        <ele>54.5</ele>
        <time>2018-09-16T08:30:14Z</time>
      </trkpt>
      <trkpt lat="43.66447" lon="3.8666">
        <ele>54.5</ele>
        <time>2018-09-16T08:30:15Z</time>
      </trkpt>
      <trkpt lat="43.66452" lon="3.86659">
        <ele>54.4</ele>
        <time>2018-09-16T08:30:16Z</time>
      </trkpt>
      <trkpt lat="43.66457" lon="3.8666">
        <ele>54.4</ele>
        <time>2018-09-16T08:30:17Z</time>
      </trkpt>
      <trkpt lat="43.66465" lon="3.86663">
        <ele>54.6</ele>
        <time>2018-09-16T08:30:19Z</time>
      </trkpt>
      <trkpt lat="43.66466" lon="3.86663">
        <ele>54.6</ele>
        <time>2018-09-16T08:30:20Z</time>
      </trkpt>
      <trkpt lat="43.66475" lon="3.86666">
        <ele>54.9</ele>
        <time>2018-09-16T08:30:24Z</time>
      </trkpt>
      <trkpt lat="43.66477" lon="3.86666">
        <ele>54.9</ele>
        <time>2018-09-16T08:30:25Z</time>
      </trkpt>
      <trkpt lat="43.66485" lon="3.86665">
        <ele>54.8</ele>
        <time>2018-09-16T08:30:28Z</time>
      </trkpt>
      <trkpt lat="43.66488" lon="3.86664">
        <ele>54.7</ele>
        <time>2018-09-16T08:30:29Z</time>
      </trkpt>
      <trkpt lat="43.66495" lon="3.86662">
        <ele>54.5</ele>
        <time>2018-09-16T08:30:31Z</time>
      </trkpt>
      <trkpt lat="43.66498" lon="3.86661">
        <ele>54.4</ele>
        <time>2018-09-16T08:30:32Z</time>
      </trkpt>
      <trkpt lat="43.66505" lon="3.86659">
        <ele>54.2</ele>
        <time>2018-09-16T08:30:34Z</time>
      </trkpt>
      <trkpt lat="43.66508" lon="3.86658">
        <ele>54.1</ele>
        <time>2018-09-16T08:30:35Z</time>
      </trkpt>
      <trkpt lat="43.66514" lon="3.86655">
        <ele>53.7</ele>
        <time>2018-09-16T08:30:37Z</time>
      </trkpt>
      <trkpt lat="43.66518" lon="3.86653">
        <ele>53.5</ele>
        <time>2018-09-16T08:30:38Z</time>
      </trkpt>
      <trkpt lat="43.66528" lon="3.86649">
        <ele>53.1</ele>
        <time>2018-09-16T08:30:39Z</time>
      </trkpt>
      <trkpt lat="43.66536" lon="3.86647">
        <ele>52.6</ele>
        <time>2018-09-16T08:30:41Z</time>
      </trkpt>
      <trkpt lat="43.66544" lon="3.86646">
        <ele>52.2</ele>
        <time>2018-09-16T08:30:42Z</time>
      </trkpt>
      <trkpt lat="43.66549" lon="3.86644">
        <ele>51.8</ele>
        <time>2018-09-16T08:30:43Z</time>
      </trkpt>
      <trkpt lat="43.66555" lon="3.86644">
        <ele>51.6</ele>
        <time>2018-09-16T08:30:44Z</time>
      </trkpt>
      <trkpt lat="43.66562" lon="3.86642">
        <ele>51.1</ele>
        <time>2018-09-16T08:30:45Z</time>
      </trkpt>
      <trkpt lat="43.66568" lon="3.86639">
        <ele>50.6</ele>
        <time>2018-09-16T08:30:46Z</time>
      </trkpt>
      <trkpt lat="43.66575" lon="3.8664">
        <ele>50.4</ele>
        <time>2018-09-16T08:30:47Z</time>
      </trkpt>
      <trkpt lat="43.66582" lon="3.86642">
        <ele>50.3</ele>
        <time>2018-09-16T08:30:48Z</time>
      </trkpt>
      <trkpt lat="43.66589" lon="3.86642">
        <ele>50.2</ele>
        <time>2018-09-16T08:30:49Z</time>
      </trkpt>
      <trkpt lat="43.66594" lon="3.86641">
        <ele>50.1</ele>
        <time>2018-09-16T08:30:50Z</time>
      </trkpt>
      <trkpt lat="43.666" lon="3.86643">
        <ele>50.2</ele>
        <time>2018-09-16T08:30:51Z</time>
      </trkpt>
      <trkpt lat="43.66607" lon="3.86645">
        <ele>50.3</ele>
        <time>2018-09-16T08:30:52Z</time>
      </trkpt>
      <trkpt lat="43.66612" lon="3.86645">
        <ele>50.2</ele>
        <time>2018-09-16T08:30:53Z</time>
      </trkpt>
      <trkpt lat="43.66618" lon="3.86647">
        <ele>50.4</ele>
        <time>2018-09-16T08:30:54Z</time>
      </trkpt>
      <trkpt lat="43.66624" lon="3.86648">
        <ele>50.5</ele>
        <time>2018-09-16T08:30:55Z</time>
      </trkpt>
      <trkpt lat="43.6663" lon="3.86654">
        <ele>50.9</ele>
        <time>2018-09-16T08:30:56Z</time>
      </trkpt>
      <trkpt lat="43.66636" lon="3.86653">
        <ele>51</ele>
        <time>2018-09-16T08:30:58Z</time>
      </trkpt>
      <trkpt lat="43.66639" lon="3.86653">
        <ele>51</ele>
        <time>2018-09-16T08:30:59Z</time>
      </trkpt>
      <trkpt lat="43.66647" lon="3.86654">
        <ele>51</ele>
        <time>2018-09-16T08:31:15Z</time>
      </trkpt>
      <trkpt lat="43.66648" lon="3.86655">
        <ele>51</ele>
        <time>2018-09-16T08:31:16Z</time>
      </trkpt>
      <trkpt lat="43.66654" lon="3.86659">
        <ele>51.3</ele>
        <time>2018-09-16T08:31:22Z</time>
      </trkpt>
      <trkpt lat="43.66657" lon="3.8666">
        <ele>51.4</ele>
        <time>2018-09-16T08:31:23Z</time>
      </trkpt>
      <trkpt lat="43.66662" lon="3.86662">
        <ele>51.5</ele>
        <time>2018-09-16T08:31:25Z</time>
      </trkpt>
      <trkpt lat="43.66665" lon="3.86664">
        <ele>51.7</ele>
        <time>2018-09-16T08:31:26Z</time>
      </trkpt>
      <trkpt lat="43.66672" lon="3.86667">
        <ele>51.7</ele>
        <time>2018-09-16T08:31:29Z</time>
      </trkpt>
      <trkpt lat="43.66675" lon="3.86669">
        <ele>51.7</ele>
        <time>2018-09-16T08:31:30Z</time>
      </trkpt>
      <trkpt lat="43.66683" lon="3.86672">
        <ele>51.4</ele>
        <time>2018-09-16T08:31:34Z</time>
      </trkpt>
      <trkpt lat="43.66684" lon="3.86673">
        <ele>51.4</ele>
        <time>2018-09-16T08:31:35Z</time>
      </trkpt>
      <trkpt lat="43.6669" lon="3.86678">
        <ele>51.5</ele>
        <time>2018-09-16T08:31:38Z</time>
      </trkpt>
      <trkpt lat="43.66693" lon="3.86681">
        <ele>51.7</ele>
        <time>2018-09-16T08:31:39Z</time>
      </trkpt>
      <trkpt lat="43.66698" lon="3.86687">
        <ele>51.9</ele>
        <time>2018-09-16T08:31:41Z</time>
      </trkpt>
      <trkpt lat="43.66701" lon="3.86689">
        <ele>51.9</ele>
        <time>2018-09-16T08:31:42Z</time>
      </trkpt>
      <trkpt lat="43.66704" lon="3.86691">
        <ele>51.9</ele>
        <time>2018-09-16T08:31:43Z</time>
      </trkpt>
      <trkpt lat="43.66714" lon="3.86697">
        <ele>51.9</ele>
        <time>2018-09-16T08:31:44Z</time>
      </trkpt>
      <trkpt lat="43.66721" lon="3.86706">
        <ele>52.4</ele>
        <time>2018-09-16T08:31:48Z</time>
      </trkpt>
      <trkpt lat="43.66722" lon="3.86708">
        <ele>52.5</ele>
        <time>2018-09-16T08:31:49Z</time>
      </trkpt>
      <trkpt lat="43.66726" lon="3.86714">
        <ele>52.7</ele>
        <time>2018-09-16T08:31:51Z</time>
      </trkpt>
      <trkpt lat="43.66728" lon="3.86718">
        <ele>53</ele>
        <time>2018-09-16T08:31:52Z</time>
      </trkpt>
      <trkpt lat="43.6673" lon="3.86721">
        <ele>53</ele>
        <time>2018-09-16T08:31:53Z</time>
      </trkpt>
      <trkpt lat="43.66737" lon="3.86733">
        <ele>53.4</ele>
        <time>2018-09-16T08:31:54Z</time>
      </trkpt>
      <trkpt lat="43.66744" lon="3.86741">
        <ele>53.1</ele>
        <time>2018-09-16T08:31:56Z</time>
      </trkpt>
      <trkpt lat="43.66745" lon="3.86742">
        <ele>53.1</ele>
        <time>2018-09-16T08:31:57Z</time>
      </trkpt>
      <trkpt lat="43.66747" lon="3.86745">
        <ele>53.1</ele>
        <time>2018-09-16T08:31:58Z</time>
      </trkpt>
      <trkpt lat="43.66753" lon="3.86752">
        <ele>52.9</ele>
        <time>2018-09-16T08:31:59Z</time>
      </trkpt>
      <trkpt lat="43.66757" lon="3.86763">
        <ele>53.5</ele>
        <time>2018-09-16T08:32:01Z</time>
      </trkpt>
      <trkpt lat="43.6676" lon="3.86765">
        <ele>53.3</ele>
        <time>2018-09-16T08:32:02Z</time>
      </trkpt>
      <trkpt lat="43.66766" lon="3.86773">
        <ele>53.3</ele>
        <time>2018-09-16T08:32:04Z</time>
      </trkpt>
      <trkpt lat="43.66769" lon="3.86777">
        <ele>53.2</ele>
        <time>2018-09-16T08:32:05Z</time>
      </trkpt>
      <trkpt lat="43.66776" lon="3.86784">
        <ele>52.7</ele>
        <time>2018-09-16T08:32:08Z</time>
      </trkpt>
      <trkpt lat="43.66777" lon="3.86786">
        <ele>52.7</ele>
        <time>2018-09-16T08:32:09Z</time>
      </trkpt>
      <trkpt lat="43.66779" lon="3.86795">
        <ele>53.2</ele>
        <time>2018-09-16T08:32:12Z</time>
      </trkpt>
      <trkpt lat="43.66781" lon="3.86797">
        <ele>53.2</ele>
        <time>2018-09-16T08:32:13Z</time>
      </trkpt>
      <trkpt lat="43.66788" lon="3.86803">
        <ele>53.1</ele>
        <time>2018-09-16T08:32:16Z</time>
      </trkpt>
      <trkpt lat="43.6679" lon="3.86805">
        <ele>53.1</ele>
        <time>2018-09-16T08:32:17Z</time>
      </trkpt>
      <trkpt lat="43.66792" lon="3.86808">
        <ele>53.2</ele>
        <time>2018-09-16T08:32:18Z</time>
      </trkpt>
      <trkpt lat="43.668" lon="3.86814">
        <ele>53.1</ele>
        <time>2018-09-16T08:32:19Z</time>
      </trkpt>
      <trkpt lat="43.66805" lon="3.86823">
        <ele>53.3</ele>
        <time>2018-09-16T08:32:22Z</time>
      </trkpt>
      <trkpt lat="43.66809" lon="3.86827">
        <ele>53.5</ele>
        <time>2018-09-16T08:32:23Z</time>
      </trkpt>
      <trkpt lat="43.66817" lon="3.86832">
        <ele>53.9</ele>
        <time>2018-09-16T08:32:27Z</time>
      </trkpt>
      <trkpt lat="43.66819" lon="3.86834">
        <ele>54.1</ele>
        <time>2018-09-16T08:32:28Z</time>
      </trkpt>
      <trkpt lat="43.66825" lon="3.86837">
        <ele>54.4</ele>
        <time>2018-09-16T08:32:30Z</time>
      </trkpt>
      <trkpt lat="43.66828" lon="3.86839">
        <ele>54.6</ele>
        <time>2018-09-16T08:32:31Z</time>
      </trkpt>
      <trkpt lat="43.66834" lon="3.86843">
        <ele>55</ele>
        <time>2018-09-16T08:32:33Z</time>
      </trkpt>
      <trkpt lat="43.66837" lon="3.86844">
        <ele>55.2</ele>
        <time>2018-09-16T08:32:34Z</time>
      </trkpt>
      <trkpt lat="43.66845" lon="3.86847">
        <ele>55.5</ele>
        <time>2018-09-16T08:32:37Z</time>
      </trkpt>
      <trkpt lat="43.66849" lon="3.86848">
        <ele>55.6</ele>
        <time>2018-09-16T08:32:38Z</time>
      </trkpt>
      <trkpt lat="43.66856" lon="3.86851">
        <ele>55.9</ele>
        <time>2018-09-16T08:32:40Z</time>
      </trkpt>
      <trkpt lat="43.66859" lon="3.86852">
        <ele>56</ele>
        <time>2018-09-16T08:32:41Z</time>
      </trkpt>
      <trkpt lat="43.66866" lon="3.86854">
        <ele>56.1</ele>
        <time>2018-09-16T08:32:43Z</time>
      </trkpt>
      <trkpt lat="43.66869" lon="3.86855">
        <ele>56.1</ele>
        <time>2018-09-16T08:32:44Z</time>
      </trkpt>
      <trkpt lat="43.66876" lon="3.86856">
        <ele>56</ele>
        <time>2018-09-16T08:32:46Z</time>
      </trkpt>
      <trkpt lat="43.66888" lon="3.86858">
        <ele>55.8</ele>
        <time>2018-09-16T08:32:47Z</time>
      </trkpt>
      <trkpt lat="43.66896" lon="3.86862">
        <ele>56.2</ele>
        <time>2018-09-16T08:32:50Z</time>
      </trkpt>
      <trkpt lat="43.66898" lon="3.86862">
        <ele>56.1</ele>
        <time>2018-09-16T08:32:51Z</time>
      </trkpt>
      <trkpt lat="43.66901" lon="3.86862">
        <ele>56.1</ele>
        <time>2018-09-16T08:32:52Z</time>
      </trkpt>
      <trkpt lat="43.66912" lon="3.86861">
        <ele>56</ele>
        <time>2018-09-16T08:32:53Z</time>
      </trkpt>
      <trkpt lat="43.6692" lon="3.86859">
        <ele>55.8</ele>
        <time>2018-09-16T08:32:57Z</time>
      </trkpt>
      <trkpt lat="43.66922" lon="3.86859">
        <ele>55.8</ele>
        <time>2018-09-16T08:32:58Z</time>
      </trkpt>
      <trkpt lat="43.66929" lon="3.8686">
        <ele>55.9</ele>
        <time>2018-09-16T08:33:02Z</time>
      </trkpt>
      <trkpt lat="43.66931" lon="3.8686">
        <ele>55.9</ele>
        <time>2018-09-16T08:33:03Z</time>
      </trkpt>
      <trkpt lat="43.66938" lon="3.86861">
        <ele>56</ele>
        <time>2018-09-16T08:33:07Z</time>
      </trkpt>
      <trkpt lat="43.6694" lon="3.86861">
        <ele>56</ele>
        <time>2018-09-16T08:33:08Z</time>
      </trkpt>
      <trkpt lat="43.66947" lon="3.86861">
        <ele>56</ele>
        <time>2018-09-16T08:33:11Z</time>
      </trkpt>
      <trkpt lat="43.6695" lon="3.86861">
        <ele>56</ele>
        <time>2018-09-16T08:33:12Z</time>
      </trkpt>
      <trkpt lat="43.66958" lon="3.8686">
        <ele>55.9</ele>
        <time>2018-09-16T08:33:15Z</time>
      </trkpt>
      <trkpt lat="43.66961" lon="3.86859">
        <ele>55.8</ele>
        <time>2018-09-16T08:33:16Z</time>
      </trkpt>
      <trkpt lat="43.66969" lon="3.86856">
        <ele>55.4</ele>
        <time>2018-09-16T08:33:21Z</time>
      </trkpt>
      <trkpt lat="43.6697" lon="3.86855">
        <ele>55.3</ele>
        <time>2018-09-16T08:33:22Z</time>
      </trkpt>
      <trkpt lat="43.66978" lon="3.86857">
        <ele>55.7</ele>
        <time>2018-09-16T08:33:31Z</time>
      </trkpt>
      <trkpt lat="43.6698" lon="3.86857">
        <ele>55.8</ele>
        <time>2018-09-16T08:33:32Z</time>
      </trkpt>
      <trkpt lat="43.66986" lon="3.86853">
        <ele>55.5</ele>
        <time>2018-09-16T08:33:35Z</time>
      </trkpt>
      <trkpt lat="43.66989" lon="3.86852">
        <ele>55.4</ele>
        <time>2018-09-16T08:33:36Z</time>
      </trkpt>
      <trkpt lat="43.66997" lon="3.8685">
        <ele>55.3</ele>
        <time>2018-09-16T08:33:38Z</time>
      </trkpt>
      <trkpt lat="43.67001" lon="3.86849">
        <ele>55.3</ele>
        <time>2018-09-16T08:33:39Z</time>
      </trkpt>
      <trkpt lat="43.67007" lon="3.86847">
        <ele>55.2</ele>
        <time>2018-09-16T08:33:42Z</time>
      </trkpt>
      <trkpt lat="43.6701" lon="3.86846">
        <ele>55.2</ele>
        <time>2018-09-16T08:33:43Z</time>
      </trkpt>
      <trkpt lat="43.67018" lon="3.86846">
        <ele>55.5</ele>
        <time>2018-09-16T08:33:46Z</time>
      </trkpt>
      <trkpt lat="43.6702" lon="3.86846">
        <ele>55.5</ele>
        <time>2018-09-16T08:33:47Z</time>
      </trkpt>
      <trkpt lat="43.67027" lon="3.86846">
        <ele>55.8</ele>
        <time>2018-09-16T08:33:50Z</time>
      </trkpt>
      <trkpt lat="43.6703" lon="3.86846">
        <ele>55.9</ele>
        <time>2018-09-16T08:33:51Z</time>
      </trkpt>
      <trkpt lat="43.67036" lon="3.86844">
        <ele>55.9</ele>
        <time>2018-09-16T08:33:53Z</time>
      </trkpt>
      <trkpt lat="43.67039" lon="3.86843">
        <ele>55.9</ele>
        <time>2018-09-16T08:33:54Z</time>
      </trkpt>
      <trkpt lat="43.67049" lon="3.86836">
        <ele>55.2</ele>
        <time>2018-09-16T08:33:55Z</time>
      </trkpt>
      <trkpt lat="43.67057" lon="3.86835">
        <ele>55.4</ele>
        <time>2018-09-16T08:33:58Z</time>
      </trkpt>
      <trkpt lat="43.67059" lon="3.86834">
        <ele>55.2</ele>
        <time>2018-09-16T08:33:59Z</time>
      </trkpt>
      <trkpt lat="43.67064" lon="3.86832">
        <ele>55.2</ele>
        <time>2018-09-16T08:34:01Z</time>
      </trkpt>
      <trkpt lat="43.67076" lon="3.86825">
        <ele>54.8</ele>
        <time>2018-09-16T08:34:02Z</time>
      </trkpt>
      <trkpt lat="43.67083" lon="3.86823">
        <ele>54.9</ele>
        <time>2018-09-16T08:34:05Z</time>
      </trkpt>
      <trkpt lat="43.67086" lon="3.86824">
        <ele>55.2</ele>
        <time>2018-09-16T08:34:06Z</time>
      </trkpt>
      <trkpt lat="43.67094" lon="3.86826">
        <ele>55.9</ele>
        <time>2018-09-16T08:34:09Z</time>
      </trkpt>
      <trkpt lat="43.67096" lon="3.86826">
        <ele>56</ele>
        <time>2018-09-16T08:34:10Z</time>
      </trkpt>
      <trkpt lat="43.67104" lon="3.86826">
        <ele>56.5</ele>
        <time>2018-09-16T08:34:13Z</time>
      </trkpt>
      <trkpt lat="43.67106" lon="3.86825">
        <ele>56.5</ele>
        <time>2018-09-16T08:34:14Z</time>
      </trkpt>
      <trkpt lat="43.67114" lon="3.86824">
        <ele>56.8</ele>
        <time>2018-09-16T08:34:18Z</time>
      </trkpt>
      <trkpt lat="43.67116" lon="3.86823">
        <ele>56.7</ele>
        <time>2018-09-16T08:34:19Z</time>
      </trkpt>
      <trkpt lat="43.67122" lon="3.86819">
        <ele>56.3</ele>
        <time>2018-09-16T08:34:22Z</time>
      </trkpt>
      <trkpt lat="43.67125" lon="3.86818">
        <ele>56.3</ele>
        <time>2018-09-16T08:34:23Z</time>
      </trkpt>
      <trkpt lat="43.67133" lon="3.86816">
        <ele>56.3</ele>
        <time>2018-09-16T08:34:27Z</time>
      </trkpt>
      <trkpt lat="43.67135" lon="3.86816">
        <ele>56.4</ele>
        <time>2018-09-16T08:34:28Z</time>
      </trkpt>
      <trkpt lat="43.67143" lon="3.86818">
        <ele>56.7</ele>
        <time>2018-09-16T08:34:33Z</time>
      </trkpt>
      <trkpt lat="43.67145" lon="3.86819">
        <ele>56.8</ele>
        <time>2018-09-16T08:34:34Z</time>
      </trkpt>
      <trkpt lat="43.67152" lon="3.86826">
        <ele>57.6</ele>
        <time>2018-09-16T08:34:39Z</time>
      </trkpt>
      <trkpt lat="43.67153" lon="3.86827">
        <ele>57.7</ele>
        <time>2018-09-16T08:34:40Z</time>
      </trkpt>
      <trkpt lat="43.6716" lon="3.86834">
        <ele>58.3</ele>
        <time>2018-09-16T08:34:46Z</time>
      </trkpt>
      <trkpt lat="43.67161" lon="3.86835">
        <ele>58.4</ele>
        <time>2018-09-16T08:34:47Z</time>
      </trkpt>
      <trkpt lat="43.67165" lon="3.86846">
        <ele>59.5</ele>
        <time>2018-09-16T08:34:54Z</time>
      </trkpt>
      <trkpt lat="43.67168" lon="3.86856">
        <ele>60.5</ele>
        <time>2018-09-16T08:35:02Z</time>
      </trkpt>
      <trkpt lat="43.67169" lon="3.86856">
        <ele>60.6</ele>
        <time>2018-09-16T08:35:03Z</time>
      </trkpt>
      <trkpt lat="43.67176" lon="3.86848">
        <ele>60.1</ele>
        <time>2018-09-16T08:35:19Z</time>
      </trkpt>
      <trkpt lat="43.67176" lon="3.86847">
        <ele>60</ele>
        <time>2018-09-16T08:35:20Z</time>
      </trkpt>
      <trkpt lat="43.67184" lon="3.86843">
        <ele>59.9</ele>
        <time>2018-09-16T08:35:26Z</time>
      </trkpt>
      <trkpt lat="43.67186" lon="3.86842">
        <ele>59.8</ele>
        <time>2018-09-16T08:35:27Z</time>
      </trkpt>
      <trkpt lat="43.67191" lon="3.86834">
        <ele>59</ele>
        <time>2018-09-16T08:35:33Z</time>
      </trkpt>
      <trkpt lat="43.67193" lon="3.86833">
        <ele>58.9</ele>
        <time>2018-09-16T08:35:34Z</time>
      </trkpt>
      <trkpt lat="43.67199" lon="3.86829">
        <ele>59</ele>
        <time>2018-09-16T08:35:38Z</time>
      </trkpt>
      <trkpt lat="43.672" lon="3.86828">
        <ele>58.9</ele>
        <time>2018-09-16T08:35:39Z</time>
      </trkpt>
      <trkpt lat="43.67209" lon="3.86825">
        <ele>59.4</ele>
        <time>2018-09-16T08:35:47Z</time>
      </trkpt>
      <trkpt lat="43.6721" lon="3.86825">
        <ele>59.4</ele>
        <time>2018-09-16T08:35:48Z</time>
      </trkpt>
      <trkpt lat="43.67216" lon="3.86823">
        <ele>59.6</ele>
        <time>2018-09-16T08:35:52Z</time>
      </trkpt>
      <trkpt lat="43.67219" lon="3.86823">
        <ele>59.9</ele>
        <time>2018-09-16T08:35:53Z</time>
      </trkpt>
      <trkpt lat="43.67225" lon="3.86821">
        <ele>59.9</ele>
        <time>2018-09-16T08:35:55Z</time>
      </trkpt>
      <trkpt lat="43.67228" lon="3.86821">
        <ele>60</ele>
        <time>2018-09-16T08:35:56Z</time>
      </trkpt>
      <trkpt lat="43.67236" lon="3.86821">
        <ele>60.3</ele>
        <time>2018-09-16T08:35:59Z</time>
      </trkpt>
      <trkpt lat="43.67239" lon="3.86821">
        <ele>60.4</ele>
        <time>2018-09-16T08:36:00Z</time>
      </trkpt>
      <trkpt lat="43.67246" lon="3.8682">
        <ele>60.5</ele>
        <time>2018-09-16T08:36:05Z</time>
      </trkpt>
      <trkpt lat="43.67248" lon="3.8682">
        <ele>60.5</ele>
        <time>2018-09-16T08:36:06Z</time>
      </trkpt>
      <trkpt lat="43.67256" lon="3.86821">
        <ele>61.2</ele>
        <time>2018-09-16T08:36:10Z</time>
      </trkpt>
      <trkpt lat="43.67257" lon="3.86821">
        <ele>61.3</ele>
        <time>2018-09-16T08:36:11Z</time>
      </trkpt>
      <trkpt lat="43.67266" lon="3.86821">
        <ele>61.9</ele>
        <time>2018-09-16T08:36:17Z</time>
      </trkpt>
      <trkpt lat="43.67267" lon="3.86822">
        <ele>62.1</ele>
        <time>2018-09-16T08:36:18Z</time>
      </trkpt>
      <trkpt lat="43.67274" lon="3.8683">
        <ele>63.5</ele>
        <time>2018-09-16T08:36:28Z</time>
      </trkpt>
      <trkpt lat="43.67275" lon="3.8683">
        <ele>63.5</ele>
        <time>2018-09-16T08:36:29Z</time>
      </trkpt>
      <trkpt lat="43.67283" lon="3.86831">
        <ele>63.9</ele>
        <time>2018-09-16T08:36:39Z</time>
      </trkpt>
      <trkpt lat="43.67284" lon="3.86831">
        <ele>64</ele>
        <time>2018-09-16T08:36:40Z</time>
      </trkpt>
      <trkpt lat="43.67291" lon="3.86837">
        <ele>64.9</ele>
        <time>2018-09-16T08:36:47Z</time>
      </trkpt>
      <trkpt lat="43.67292" lon="3.86838">
        <ele>65</ele>
        <time>2018-09-16T08:36:48Z</time>
      </trkpt>
      <trkpt lat="43.67299" lon="3.86843">
        <ele>65.6</ele>
        <time>2018-09-16T08:36:53Z</time>
      </trkpt>
      <trkpt lat="43.673" lon="3.86843">
        <ele>65.6</ele>
        <time>2018-09-16T08:36:54Z</time>
      </trkpt>
      <trkpt lat="43.67308" lon="3.86842">
        <ele>65.5</ele>
        <time>2018-09-16T08:37:00Z</time>
      </trkpt>
      <trkpt lat="43.67311" lon="3.8684">
        <ele>65.2</ele>
        <time>2018-09-16T08:37:01Z</time>
      </trkpt>
      <trkpt lat="43.67317" lon="3.86836">
        <ele>64.7</ele>
        <time>2018-09-16T08:37:04Z</time>
      </trkpt>
      <trkpt lat="43.67319" lon="3.86835">
        <ele>64.6</ele>
        <time>2018-09-16T08:37:05Z</time>
      </trkpt>
      <trkpt lat="43.67323" lon="3.86831">
        <ele>64.1</ele>
        <time>2018-09-16T08:37:19Z</time>
      </trkpt>
      <trkpt lat="43.67326" lon="3.86816">
        <ele>62.4</ele>
        <time>2018-09-16T08:37:20Z</time>
      </trkpt>
      <trkpt lat="43.67328" lon="3.86809">
        <ele>61.6</ele>
        <time>2018-09-16T08:37:21Z</time>
      </trkpt>
      <trkpt lat="43.67332" lon="3.86804">
        <ele>60.9</ele>
        <time>2018-09-16T08:37:22Z</time>
      </trkpt>
      <trkpt lat="43.67335" lon="3.86794">
        <ele>60.1</ele>
        <time>2018-09-16T08:37:24Z</time>
      </trkpt>
      <trkpt lat="43.67336" lon="3.86789">
        <ele>59.7</ele>
        <time>2018-09-16T08:37:25Z</time>
      </trkpt>
      <trkpt lat="43.67339" lon="3.8678">
        <ele>59</ele>
        <time>2018-09-16T08:37:28Z</time>
      </trkpt>
      <trkpt lat="43.6734" lon="3.86777">
        <ele>58.7</ele>
        <time>2018-09-16T08:37:29Z</time>
      </trkpt>
      <trkpt lat="43.67344" lon="3.8677">
        <ele>57.9</ele>
        <time>2018-09-16T08:37:31Z</time>
      </trkpt>
      <trkpt lat="43.67347" lon="3.86766">
        <ele>57.4</ele>
        <time>2018-09-16T08:37:32Z</time>
      </trkpt>
      <trkpt lat="43.67351" lon="3.86758">
        <ele>56.7</ele>
        <time>2018-09-16T08:37:34Z</time>
      </trkpt>
      <trkpt lat="43.67353" lon="3.86755">
        <ele>56.4</ele>
        <time>2018-09-16T08:37:35Z</time>
      </trkpt>
      <trkpt lat="43.67353" lon="3.86744">
        <ele>55.8</ele>
        <time>2018-09-16T08:37:38Z</time>
      </trkpt>
      <trkpt lat="43.67345" lon="3.86734">
        <ele>55.4</ele>
        <time>2018-09-16T08:37:39Z</time>
      </trkpt>
      <trkpt lat="43.67338" lon="3.86731">
        <ele>55.3</ele>
        <time>2018-09-16T08:37:41Z</time>
      </trkpt>
      <trkpt lat="43.67335" lon="3.86723">
        <ele>55</ele>
        <time>2018-09-16T08:37:42Z</time>
      </trkpt>
      <trkpt lat="43.67334" lon="3.86717">
        <ele>55</ele>
        <time>2018-09-16T08:37:43Z</time>
      </trkpt>
      <trkpt lat="43.67332" lon="3.86709">
        <ele>54.8</ele>
        <time>2018-09-16T08:37:44Z</time>
      </trkpt>
      <trkpt lat="43.67332" lon="3.86702">
        <ele>54.8</ele>
        <time>2018-09-16T08:37:45Z</time>
      </trkpt>
      <trkpt lat="43.67331" lon="3.86696">
        <ele>54.7</ele>
        <time>2018-09-16T08:37:46Z</time>
      </trkpt>
      <trkpt lat="43.67329" lon="3.86688">
        <ele>52</ele>
        <time>2018-09-16T08:37:47Z</time>
      </trkpt>
      <trkpt lat="43.67327" lon="3.8668">
        <ele>48.8</ele>
        <time>2018-09-16T08:37:48Z</time>
      </trkpt>
      <trkpt lat="43.67326" lon="3.86669">
        <ele>44.8</ele>
        <time>2018-09-16T08:37:50Z</time>
      </trkpt>
      <trkpt lat="43.67324" lon="3.86662">
        <ele>44.5</ele>
        <time>2018-09-16T08:37:51Z</time>
      </trkpt>
      <trkpt lat="43.67323" lon="3.86655">
        <ele>45.2</ele>
        <time>2018-09-16T08:37:52Z</time>
      </trkpt>
      <trkpt lat="43.67321" lon="3.86648">
        <ele>46.2</ele>
        <time>2018-09-16T08:37:53Z</time>
      </trkpt>
      <trkpt lat="43.67319" lon="3.86641">
        <ele>47.3</ele>
        <time>2018-09-16T08:37:54Z</time>
      </trkpt>
      <trkpt lat="43.67316" lon="3.86631">
        <ele>49</ele>
        <time>2018-09-16T08:37:55Z</time>
      </trkpt>
      <trkpt lat="43.67316" lon="3.86623">
        <ele>49.9</ele>
        <time>2018-09-16T08:37:56Z</time>
      </trkpt>
      <trkpt lat="43.67312" lon="3.8661">
        <ele>51.5</ele>
        <time>2018-09-16T08:37:57Z</time>
      </trkpt>
      <trkpt lat="43.67311" lon="3.866">
        <ele>51.7</ele>
        <time>2018-09-16T08:37:58Z</time>
      </trkpt>
      <trkpt lat="43.67309" lon="3.86591">
        <ele>51.8</ele>
        <time>2018-09-16T08:37:59Z</time>
      </trkpt>
      <trkpt lat="43.67306" lon="3.8658">
        <ele>51.9</ele>
        <time>2018-09-16T08:38:00Z</time>
      </trkpt>
      <trkpt lat="43.67303" lon="3.86568">
        <ele>51.3</ele>
        <time>2018-09-16T08:38:01Z</time>
      </trkpt>
      <trkpt lat="43.67302" lon="3.86558">
        <ele>50.9</ele>
        <time>2018-09-16T08:38:02Z</time>
      </trkpt>
      <trkpt lat="43.67299" lon="3.86547">
        <ele>50.8</ele>
        <time>2018-09-16T08:38:03Z</time>
      </trkpt>
      <trkpt lat="43.67297" lon="3.86537">
        <ele>50.7</ele>
        <time>2018-09-16T08:38:04Z</time>
      </trkpt>
      <trkpt lat="43.67295" lon="3.86527">
        <ele>50.6</ele>
        <time>2018-09-16T08:38:05Z</time>
      </trkpt>
      <trkpt lat="43.67294" lon="3.8652">
        <ele>50.7</ele>
        <time>2018-09-16T08:38:06Z</time>
      </trkpt>
      <trkpt lat="43.67293" lon="3.86514">
        <ele>50.8</ele>
        <time>2018-09-16T08:38:07Z</time>
      </trkpt>
      <trkpt lat="43.673" lon="3.86518">
        <ele>50.9</ele>
        <time>2018-09-16T08:38:11Z</time>
      </trkpt>
      <trkpt lat="43.67302" lon="3.86524">
        <ele>50.9</ele>
        <time>2018-09-16T08:38:12Z</time>
      </trkpt>
      <trkpt lat="43.67304" lon="3.86531">
        <ele>50.9</ele>
        <time>2018-09-16T08:38:13Z</time>
      </trkpt>
      <trkpt lat="43.67304" lon="3.86537">
        <ele>50.9</ele>
        <time>2018-09-16T08:38:14Z</time>
      </trkpt>
      <trkpt lat="43.67305" lon="3.86545">
        <ele>51</ele>
        <time>2018-09-16T08:38:15Z</time>
      </trkpt>
      <trkpt lat="43.67307" lon="3.86553">
        <ele>51</ele>
        <time>2018-09-16T08:38:16Z</time>
      </trkpt>
      <trkpt lat="43.67309" lon="3.86562">
        <ele>51.2</ele>
        <time>2018-09-16T08:38:17Z</time>
      </trkpt>
      <trkpt lat="43.6731" lon="3.86569">
        <ele>51.4</ele>
        <time>2018-09-16T08:38:18Z</time>
      </trkpt>
      <trkpt lat="43.67312" lon="3.86575">
        <ele>51.5</ele>
        <time>2018-09-16T08:38:19Z</time>
      </trkpt>
      <trkpt lat="43.67313" lon="3.86581">
        <ele>51.7</ele>
        <time>2018-09-16T08:38:20Z</time>
      </trkpt>
      <trkpt lat="43.67315" lon="3.86587">
        <ele>51.6</ele>
        <time>2018-09-16T08:38:21Z</time>
      </trkpt>
      <trkpt lat="43.67316" lon="3.86595">
        <ele>51.5</ele>
        <time>2018-09-16T08:38:22Z</time>
      </trkpt>
      <trkpt lat="43.67319" lon="3.86602">
        <ele>51.2</ele>
        <time>2018-09-16T08:38:23Z</time>
      </trkpt>
      <trkpt lat="43.67321" lon="3.86608">
        <ele>51</ele>
        <time>2018-09-16T08:38:24Z</time>
      </trkpt>
      <trkpt lat="43.67326" lon="3.86617">
        <ele>49.6</ele>
        <time>2018-09-16T08:38:26Z</time>
      </trkpt>
      <trkpt lat="43.67331" lon="3.86616">
        <ele>49.3</ele>
        <time>2018-09-16T08:38:27Z</time>
      </trkpt>
      <trkpt lat="43.67336" lon="3.86614">
        <ele>49.1</ele>
        <time>2018-09-16T08:38:28Z</time>
      </trkpt>
      <trkpt lat="43.67342" lon="3.86613">
        <ele>48.5</ele>
        <time>2018-09-16T08:38:29Z</time>
      </trkpt>
      <trkpt lat="43.67347" lon="3.86609">
        <ele>48.2</ele>
        <time>2018-09-16T08:38:30Z</time>
      </trkpt>
      <trkpt lat="43.6735" lon="3.86605">
        <ele>48.2</ele>
        <time>2018-09-16T08:38:31Z</time>
      </trkpt>
      <trkpt lat="43.67358" lon="3.86609">
        <ele>46.7</ele>
        <time>2018-09-16T08:38:58Z</time>
      </trkpt>
      <trkpt lat="43.67359" lon="3.86608">
        <ele>46.7</ele>
        <time>2018-09-16T08:38:59Z</time>
      </trkpt>
      <trkpt lat="43.67362" lon="3.86607">
        <ele>46.5</ele>
        <time>2018-09-16T08:39:00Z</time>
      </trkpt>
      <trkpt lat="43.67374" lon="3.86602">
        <ele>46.5</ele>
        <time>2018-09-16T08:39:01Z</time>
      </trkpt>
      <trkpt lat="43.67375" lon="3.86606">
        <ele>45.8</ele>
        <time>2018-09-16T08:39:02Z</time>
      </trkpt>
      <trkpt lat="43.67384" lon="3.86608">
        <ele>44.9</ele>
        <time>2018-09-16T08:39:03Z</time>
      </trkpt>
      <trkpt lat="43.67391" lon="3.86602">
        <ele>45.6</ele>
        <time>2018-09-16T08:39:11Z</time>
      </trkpt>
      <trkpt lat="43.67393" lon="3.86599">
        <ele>46</ele>
        <time>2018-09-16T08:39:12Z</time>
      </trkpt>
      <trkpt lat="43.67397" lon="3.86581">
        <ele>48.3</ele>
        <time>2018-09-16T08:39:13Z</time>
      </trkpt>
      <trkpt lat="43.67401" lon="3.86586">
        <ele>47.3</ele>
        <time>2018-09-16T08:39:14Z</time>
      </trkpt>
      <trkpt lat="43.67405" lon="3.86587">
        <ele>46.8</ele>
        <time>2018-09-16T08:39:15Z</time>
      </trkpt>
      <trkpt lat="43.67413" lon="3.86587">
        <ele>46.1</ele>
        <time>2018-09-16T08:39:20Z</time>
      </trkpt>
      <trkpt lat="43.67415" lon="3.86586">
        <ele>46</ele>
        <time>2018-09-16T08:39:21Z</time>
      </trkpt>
      <trkpt lat="43.67422" lon="3.86581">
        <ele>45.9</ele>
        <time>2018-09-16T08:39:25Z</time>
      </trkpt>
      <trkpt lat="43.67425" lon="3.8658">
        <ele>45.8</ele>
        <time>2018-09-16T08:39:26Z</time>
      </trkpt>
      <trkpt lat="43.67432" lon="3.86578">
        <ele>45.7</ele>
        <time>2018-09-16T08:39:29Z</time>
      </trkpt>
      <trkpt lat="43.67435" lon="3.86577">
        <ele>45.7</ele>
        <time>2018-09-16T08:39:30Z</time>
      </trkpt>
      <trkpt lat="43.67443" lon="3.86577">
        <ele>45.2</ele>
        <time>2018-09-16T08:39:34Z</time>
      </trkpt>
      <trkpt lat="43.67446" lon="3.86577">
        <ele>45.1</ele>
        <time>2018-09-16T08:39:35Z</time>
      </trkpt>
      <trkpt lat="43.67452" lon="3.86569">
        <ele>46</ele>
        <time>2018-09-16T08:39:42Z</time>
      </trkpt>
      <trkpt lat="43.67452" lon="3.86567">
        <ele>46.3</ele>
        <time>2018-09-16T08:39:43Z</time>
      </trkpt>
      <trkpt lat="43.67458" lon="3.86559">
        <ele>46.7</ele>
        <time>2018-09-16T08:39:48Z</time>
      </trkpt>
      <trkpt lat="43.6746" lon="3.86556">
        <ele>46.7</ele>
        <time>2018-09-16T08:39:49Z</time>
      </trkpt>
      <trkpt lat="43.67467" lon="3.86549">
        <ele>46.8</ele>
        <time>2018-09-16T08:39:52Z</time>
      </trkpt>
      <trkpt lat="43.6747" lon="3.86547">
        <ele>46.8</ele>
        <time>2018-09-16T08:39:53Z</time>
      </trkpt>
      <trkpt lat="43.67477" lon="3.8654">
        <ele>47.2</ele>
        <time>2018-09-16T08:39:56Z</time>
      </trkpt>
      <trkpt lat="43.6748" lon="3.86539">
        <ele>47</ele>
        <time>2018-09-16T08:39:57Z</time>
      </trkpt>
      <trkpt lat="43.67484" lon="3.86529">
        <ele>47.7</ele>
        <time>2018-09-16T08:40:01Z</time>
      </trkpt>
      <trkpt lat="43.67485" lon="3.86526">
        <ele>48</ele>
        <time>2018-09-16T08:40:02Z</time>
      </trkpt>
      <trkpt lat="43.6749" lon="3.86517">
        <ele>48.5</ele>
        <time>2018-09-16T08:40:06Z</time>
      </trkpt>
      <trkpt lat="43.67492" lon="3.86515">
        <ele>48.5</ele>
        <time>2018-09-16T08:40:07Z</time>
      </trkpt>
      <trkpt lat="43.67495" lon="3.86508">
        <ele>49.2</ele>
        <time>2018-09-16T08:40:09Z</time>
      </trkpt>
      <trkpt lat="43.67496" lon="3.86504">
        <ele>49.8</ele>
        <time>2018-09-16T08:40:10Z</time>
      </trkpt>
      <trkpt lat="43.675" lon="3.86496">
        <ele>50.3</ele>
        <time>2018-09-16T08:40:12Z</time>
      </trkpt>
      <trkpt lat="43.67502" lon="3.86492">
        <ele>50.1</ele>
        <time>2018-09-16T08:40:13Z</time>
      </trkpt>
      <trkpt lat="43.67505" lon="3.86484">
        <ele>49.9</ele>
        <time>2018-09-16T08:40:16Z</time>
      </trkpt>
      <trkpt lat="43.67506" lon="3.86481">
        <ele>49.8</ele>
        <time>2018-09-16T08:40:17Z</time>
      </trkpt>
      <trkpt lat="43.67507" lon="3.86471">
        <ele>50</ele>
        <time>2018-09-16T08:40:20Z</time>
      </trkpt>
      <trkpt lat="43.67508" lon="3.86468">
        <ele>49.8</ele>
        <time>2018-09-16T08:40:21Z</time>
      </trkpt>
      <trkpt lat="43.67509" lon="3.86461">
        <ele>49.8</ele>
        <time>2018-09-16T08:40:23Z</time>
      </trkpt>
      <trkpt lat="43.67518" lon="3.86444">
        <ele>47.8</ele>
        <time>2018-09-16T08:40:24Z</time>
      </trkpt>
      <trkpt lat="43.67523" lon="3.86435">
        <ele>47.2</ele>
        <time>2018-09-16T08:40:26Z</time>
      </trkpt>
      <trkpt lat="43.67524" lon="3.86432">
        <ele>47.2</ele>
        <time>2018-09-16T08:40:27Z</time>
      </trkpt>
      <trkpt lat="43.6753" lon="3.86426">
        <ele>46.9</ele>
        <time>2018-09-16T08:40:33Z</time>
      </trkpt>
      <trkpt lat="43.6753" lon="3.86423">
        <ele>47.2</ele>
        <time>2018-09-16T08:40:34Z</time>
      </trkpt>
      <trkpt lat="43.67533" lon="3.86411">
        <ele>47.7</ele>
        <time>2018-09-16T08:40:37Z</time>
      </trkpt>
      <trkpt lat="43.67534" lon="3.86408">
        <ele>47.7</ele>
        <time>2018-09-16T08:40:38Z</time>
      </trkpt>
      <trkpt lat="43.67536" lon="3.864">
        <ele>47.8</ele>
        <time>2018-09-16T08:40:40Z</time>
      </trkpt>
      <trkpt lat="43.67536" lon="3.86396">
        <ele>47.9</ele>
        <time>2018-09-16T08:40:41Z</time>
      </trkpt>
      <trkpt lat="43.67539" lon="3.86387">
        <ele>47.7</ele>
        <time>2018-09-16T08:40:43Z</time>
      </trkpt>
      <trkpt lat="43.67541" lon="3.86384">
        <ele>47.5</ele>
        <time>2018-09-16T08:40:44Z</time>
      </trkpt>
      <trkpt lat="43.67544" lon="3.86376">
        <ele>47.4</ele>
        <time>2018-09-16T08:40:46Z</time>
      </trkpt>
      <trkpt lat="43.67545" lon="3.86371">
        <ele>47.6</ele>
        <time>2018-09-16T08:40:47Z</time>
      </trkpt>
      <trkpt lat="43.67548" lon="3.86361">
        <ele>47.6</ele>
        <time>2018-09-16T08:40:50Z</time>
      </trkpt>
      <trkpt lat="43.6755" lon="3.86358">
        <ele>47.6</ele>
        <time>2018-09-16T08:40:51Z</time>
      </trkpt>
      <trkpt lat="43.67555" lon="3.86351">
        <ele>47.6</ele>
        <time>2018-09-16T08:40:54Z</time>
      </trkpt>
      <trkpt lat="43.67556" lon="3.86348">
        <ele>47.9</ele>
        <time>2018-09-16T08:40:55Z</time>
      </trkpt>
      <trkpt lat="43.67558" lon="3.86345">
        <ele>48.1</ele>
        <time>2018-09-16T08:40:56Z</time>
      </trkpt>
      <trkpt lat="43.67568" lon="3.8633">
        <ele>47.8</ele>
        <time>2018-09-16T08:40:57Z</time>
      </trkpt>
      <trkpt lat="43.67572" lon="3.86324">
        <ele>47.8</ele>
        <time>2018-09-16T08:40:58Z</time>
      </trkpt>
      <trkpt lat="43.67577" lon="3.86321">
        <ele>47.1</ele>
        <time>2018-09-16T08:40:59Z</time>
      </trkpt>
      <trkpt lat="43.67585" lon="3.86316">
        <ele>46.5</ele>
        <time>2018-09-16T08:41:01Z</time>
      </trkpt>
      <trkpt lat="43.67586" lon="3.86311">
        <ele>47</ele>
        <time>2018-09-16T08:41:02Z</time>
      </trkpt>
      <trkpt lat="43.67592" lon="3.86303">
        <ele>47.2</ele>
        <time>2018-09-16T08:41:04Z</time>
      </trkpt>
      <trkpt lat="43.67597" lon="3.86298">
        <ele>47.5</ele>
        <time>2018-09-16T08:41:05Z</time>
      </trkpt>
      <trkpt lat="43.67605" lon="3.863">
        <ele>46</ele>
        <time>2018-09-16T08:41:10Z</time>
      </trkpt>
      <trkpt lat="43.67607" lon="3.86297">
        <ele>46.4</ele>
        <time>2018-09-16T08:41:11Z</time>
      </trkpt>
      <trkpt lat="43.67612" lon="3.86288">
        <ele>47.8</ele>
        <time>2018-09-16T08:41:14Z</time>
      </trkpt>
      <trkpt lat="43.67614" lon="3.86284">
        <ele>48.6</ele>
        <time>2018-09-16T08:41:15Z</time>
      </trkpt>
      <trkpt lat="43.67615" lon="3.86275">
        <ele>50.3</ele>
        <time>2018-09-16T08:41:17Z</time>
      </trkpt>
      <trkpt lat="43.67616" lon="3.86271">
        <ele>50.8</ele>
        <time>2018-09-16T08:41:18Z</time>
      </trkpt>
      <trkpt lat="43.67619" lon="3.86262">
        <ele>52</ele>
        <time>2018-09-16T08:41:21Z</time>
      </trkpt>
      <trkpt lat="43.67619" lon="3.86259">
        <ele>52.4</ele>
        <time>2018-09-16T08:41:22Z</time>
      </trkpt>
      <trkpt lat="43.67623" lon="3.86253">
        <ele>53.1</ele>
        <time>2018-09-16T08:41:24Z</time>
      </trkpt>
      <trkpt lat="43.67625" lon="3.86249">
        <ele>53.5</ele>
        <time>2018-09-16T08:41:25Z</time>
      </trkpt>
      <trkpt lat="43.6763" lon="3.86241">
        <ele>53.3</ele>
        <time>2018-09-16T08:41:28Z</time>
      </trkpt>
      <trkpt lat="43.67631" lon="3.86238">
        <ele>53.3</ele>
        <time>2018-09-16T08:41:29Z</time>
      </trkpt>
      <trkpt lat="43.67636" lon="3.86229">
        <ele>53.1</ele>
        <time>2018-09-16T08:41:32Z</time>
      </trkpt>
      <trkpt lat="43.67637" lon="3.86226">
        <ele>53.1</ele>
        <time>2018-09-16T08:41:33Z</time>
      </trkpt>
      <trkpt lat="43.67639" lon="3.86215">
        <ele>53.3</ele>
        <time>2018-09-16T08:41:36Z</time>
      </trkpt>
      <trkpt lat="43.67639" lon="3.86213">
        <ele>53.3</ele>
        <time>2018-09-16T08:41:37Z</time>
      </trkpt>
      <trkpt lat="43.67637" lon="3.86202">
        <ele>53.8</ele>
        <time>2018-09-16T08:41:41Z</time>
      </trkpt>
      <trkpt lat="43.67637" lon="3.86201">
        <ele>53.8</ele>
        <time>2018-09-16T08:41:42Z</time>
      </trkpt>
      <trkpt lat="43.67636" lon="3.86189">
        <ele>54.5</ele>
        <time>2018-09-16T08:41:47Z</time>
      </trkpt>
      <trkpt lat="43.67636" lon="3.86187">
        <ele>54.6</ele>
        <time>2018-09-16T08:41:48Z</time>
      </trkpt>
      <trkpt lat="43.67634" lon="3.86176">
        <ele>55.4</ele>
        <time>2018-09-16T08:41:52Z</time>
      </trkpt>
      <trkpt lat="43.67633" lon="3.86174">
        <ele>55.5</ele>
        <time>2018-09-16T08:41:53Z</time>
      </trkpt>
      <trkpt lat="43.67633" lon="3.86162">
        <ele>56.4</ele>
        <time>2018-09-16T08:41:59Z</time>
      </trkpt>
      <trkpt lat="43.67632" lon="3.8616">
        <ele>56.5</ele>
        <time>2018-09-16T08:42:00Z</time>
      </trkpt>
      <trkpt lat="43.67627" lon="3.86152">
        <ele>57.3</ele>
        <time>2018-09-16T08:42:04Z</time>
      </trkpt>
      <trkpt lat="43.67624" lon="3.86151">
        <ele>57.4</ele>
        <time>2018-09-16T08:42:05Z</time>
      </trkpt>
      <trkpt lat="43.67616" lon="3.86149">
        <ele>57.8</ele>
        <time>2018-09-16T08:42:08Z</time>
      </trkpt>
      <trkpt lat="43.67613" lon="3.86149">
        <ele>57.9</ele>
        <time>2018-09-16T08:42:09Z</time>
      </trkpt>
      <trkpt lat="43.67606" lon="3.86149">
        <ele>57.9</ele>
        <time>2018-09-16T08:42:11Z</time>
      </trkpt>
      <trkpt lat="43.67603" lon="3.8615">
        <ele>57.8</ele>
        <time>2018-09-16T08:42:12Z</time>
      </trkpt>
      <trkpt lat="43.67599" lon="3.8615">
        <ele>57.8</ele>
        <time>2018-09-16T08:42:13Z</time>
      </trkpt>
      <trkpt lat="43.67587" lon="3.86153">
        <ele>57.5</ele>
        <time>2018-09-16T08:42:14Z</time>
      </trkpt>
      <trkpt lat="43.6758" lon="3.86153">
        <ele>57.5</ele>
        <time>2018-09-16T08:42:16Z</time>
      </trkpt>
      <trkpt lat="43.67577" lon="3.86154">
        <ele>57.5</ele>
        <time>2018-09-16T08:42:17Z</time>
      </trkpt>
      <trkpt lat="43.6757" lon="3.86155">
        <ele>57.5</ele>
        <time>2018-09-16T08:42:19Z</time>
      </trkpt>
      <trkpt lat="43.67566" lon="3.86156">
        <ele>57.5</ele>
        <time>2018-09-16T08:42:20Z</time>
      </trkpt>
      <trkpt lat="43.67562" lon="3.86158">
        <ele>57.5</ele>
        <time>2018-09-16T08:42:21Z</time>
      </trkpt>
      <trkpt lat="43.67557" lon="3.86159">
        <ele>57.5</ele>
        <time>2018-09-16T08:42:22Z</time>
      </trkpt>
      <trkpt lat="43.67549" lon="3.86159">
        <ele>57.6</ele>
        <time>2018-09-16T08:42:24Z</time>
      </trkpt>
      <trkpt lat="43.67548" lon="3.86157">
        <ele>57.8</ele>
        <time>2018-09-16T08:42:25Z</time>
      </trkpt>
      <trkpt lat="43.67555" lon="3.8615">
        <ele>58.2</ele>
        <time>2018-09-16T08:42:32Z</time>
      </trkpt>
      <trkpt lat="43.67559" lon="3.8615">
        <ele>58.2</ele>
        <time>2018-09-16T08:42:33Z</time>
      </trkpt>
      <trkpt lat="43.6757" lon="3.8615">
        <ele>58</ele>
        <time>2018-09-16T08:42:34Z</time>
      </trkpt>
      <trkpt lat="43.67578" lon="3.86147">
        <ele>58.2</ele>
        <time>2018-09-16T08:42:36Z</time>
      </trkpt>
      <trkpt lat="43.67585" lon="3.86148">
        <ele>58</ele>
        <time>2018-09-16T08:42:37Z</time>
      </trkpt>
      <trkpt lat="43.67591" lon="3.86144">
        <ele>58.4</ele>
        <time>2018-09-16T08:42:39Z</time>
      </trkpt>
      <trkpt lat="43.67597" lon="3.86144">
        <ele>58.4</ele>
        <time>2018-09-16T08:42:40Z</time>
      </trkpt>
      <trkpt lat="43.67604" lon="3.86139">
        <ele>59</ele>
        <time>2018-09-16T08:42:42Z</time>
      </trkpt>
      <trkpt lat="43.6761" lon="3.8614">
        <ele>58.9</ele>
        <time>2018-09-16T08:42:43Z</time>
      </trkpt>
      <trkpt lat="43.67617" lon="3.8614">
        <ele>58.7</ele>
        <time>2018-09-16T08:42:44Z</time>
      </trkpt>
      <trkpt lat="43.67623" lon="3.8614">
        <ele>58.5</ele>
        <time>2018-09-16T08:42:45Z</time>
      </trkpt>
      <trkpt lat="43.67627" lon="3.86138">
        <ele>58.6</ele>
        <time>2018-09-16T08:42:46Z</time>
      </trkpt>
      <trkpt lat="43.67632" lon="3.86137">
        <ele>58.7</ele>
        <time>2018-09-16T08:42:47Z</time>
      </trkpt>
      <trkpt lat="43.67639" lon="3.86134">
        <ele>59.1</ele>
        <time>2018-09-16T08:42:49Z</time>
      </trkpt>
      <trkpt lat="43.67642" lon="3.86133">
        <ele>59.2</ele>
        <time>2018-09-16T08:42:50Z</time>
      </trkpt>
      <trkpt lat="43.67647" lon="3.86132">
        <ele>59.4</ele>
        <time>2018-09-16T08:42:51Z</time>
      </trkpt>
      <trkpt lat="43.67655" lon="3.86133">
        <ele>59.1</ele>
        <time>2018-09-16T08:42:52Z</time>
      </trkpt>
      <trkpt lat="43.67662" lon="3.86131">
        <ele>59.5</ele>
        <time>2018-09-16T08:42:55Z</time>
      </trkpt>
      <trkpt lat="43.67668" lon="3.8613">
        <ele>59.6</ele>
        <time>2018-09-16T08:42:56Z</time>
      </trkpt>
      <trkpt lat="43.67675" lon="3.8613">
        <ele>59.6</ele>
        <time>2018-09-16T08:42:58Z</time>
      </trkpt>
      <trkpt lat="43.67681" lon="3.8613">
        <ele>59.6</ele>
        <time>2018-09-16T08:42:59Z</time>
      </trkpt>
      <trkpt lat="43.67687" lon="3.8613">
        <ele>59.6</ele>
        <time>2018-09-16T08:43:02Z</time>
      </trkpt>
      <trkpt lat="43.67697" lon="3.86131">
        <ele>59.4</ele>
        <time>2018-09-16T08:43:03Z</time>
      </trkpt>
      <trkpt lat="43.67702" lon="3.86133">
        <ele>59.1</ele>
        <time>2018-09-16T08:43:04Z</time>
      </trkpt>
      <trkpt lat="43.67708" lon="3.86136">
        <ele>58.5</ele>
        <time>2018-09-16T08:43:05Z</time>
      </trkpt>
      <trkpt lat="43.67714" lon="3.86138">
        <ele>58.2</ele>
        <time>2018-09-16T08:43:06Z</time>
      </trkpt>
      <trkpt lat="43.67721" lon="3.86139">
        <ele>58</ele>
        <time>2018-09-16T08:43:07Z</time>
      </trkpt>
      <trkpt lat="43.67726" lon="3.86141">
        <ele>57.4</ele>
        <time>2018-09-16T08:43:08Z</time>
      </trkpt>
      <trkpt lat="43.6773" lon="3.86143">
        <ele>56.9</ele>
        <time>2018-09-16T08:43:09Z</time>
      </trkpt>
      <trkpt lat="43.67736" lon="3.86143">
        <ele>56.5</ele>
        <time>2018-09-16T08:43:10Z</time>
      </trkpt>
      <trkpt lat="43.67743" lon="3.86144">
        <ele>55.9</ele>
        <time>2018-09-16T08:43:11Z</time>
      </trkpt>
      <trkpt lat="43.67748" lon="3.86142">
        <ele>55.8</ele>
        <time>2018-09-16T08:43:12Z</time>
      </trkpt>
      <trkpt lat="43.67755" lon="3.86141">
        <ele>55.3</ele>
        <time>2018-09-16T08:43:13Z</time>
      </trkpt>
      <trkpt lat="43.67763" lon="3.86136">
        <ele>54.9</ele>
        <time>2018-09-16T08:43:14Z</time>
      </trkpt>
      <trkpt lat="43.67767" lon="3.86131">
        <ele>54.8</ele>
        <time>2018-09-16T08:43:15Z</time>
      </trkpt>
      <trkpt lat="43.67773" lon="3.86126">
        <ele>54.2</ele>
        <time>2018-09-16T08:43:16Z</time>
      </trkpt>
      <trkpt lat="43.67778" lon="3.86119">
        <ele>53.7</ele>
        <time>2018-09-16T08:43:17Z</time>
      </trkpt>
      <trkpt lat="43.67783" lon="3.86114">
        <ele>54.1</ele>
        <time>2018-09-16T08:43:18Z</time>
      </trkpt>
      <trkpt lat="43.67788" lon="3.86114">
        <ele>54.3</ele>
        <time>2018-09-16T08:43:19Z</time>
      </trkpt>
      <trkpt lat="43.67793" lon="3.86119">
        <ele>54.4</ele>
        <time>2018-09-16T08:43:20Z</time>
      </trkpt>
      <trkpt lat="43.67796" lon="3.86122">
        <ele>54.5</ele>
        <time>2018-09-16T08:43:21Z</time>
      </trkpt>
      <trkpt lat="43.678" lon="3.86133">
        <ele>54.6</ele>
        <time>2018-09-16T08:43:23Z</time>
      </trkpt>
      <trkpt lat="43.67803" lon="3.86136">
        <ele>54.8</ele>
        <time>2018-09-16T08:43:24Z</time>
      </trkpt>
      <trkpt lat="43.67809" lon="3.8614">
        <ele>55.2</ele>
        <time>2018-09-16T08:43:26Z</time>
      </trkpt>
      <trkpt lat="43.67813" lon="3.86141">
        <ele>55.3</ele>
        <time>2018-09-16T08:43:27Z</time>
      </trkpt>
      <trkpt lat="43.67818" lon="3.86135">
        <ele>55.4</ele>
        <time>2018-09-16T08:43:30Z</time>
      </trkpt>
      <trkpt lat="43.67819" lon="3.86132">
        <ele>55.5</ele>
        <time>2018-09-16T08:43:31Z</time>
      </trkpt>
      <trkpt lat="43.67822" lon="3.86125">
        <ele>55.6</ele>
        <time>2018-09-16T08:43:33Z</time>
      </trkpt>
      <trkpt lat="43.67827" lon="3.86113">
        <ele>55.8</ele>
        <time>2018-09-16T08:43:34Z</time>
      </trkpt>
      <trkpt lat="43.67828" lon="3.86102">
        <ele>55.8</ele>
        <time>2018-09-16T08:43:37Z</time>
      </trkpt>
      <trkpt lat="43.67829" lon="3.86092">
        <ele>55.8</ele>
        <time>2018-09-16T08:43:38Z</time>
      </trkpt>
      <trkpt lat="43.67832" lon="3.86082">
        <ele>55.9</ele>
        <time>2018-09-16T08:43:40Z</time>
      </trkpt>
      <trkpt lat="43.67833" lon="3.86077">
        <ele>55.8</ele>
        <time>2018-09-16T08:43:41Z</time>
      </trkpt>
      <trkpt lat="43.67835" lon="3.8607">
        <ele>55.5</ele>
        <time>2018-09-16T08:43:42Z</time>
      </trkpt>
      <trkpt lat="43.67837" lon="3.86063">
        <ele>55.4</ele>
        <time>2018-09-16T08:43:43Z</time>
      </trkpt>
      <trkpt lat="43.6784" lon="3.86058">
        <ele>55.3</ele>
        <time>2018-09-16T08:43:44Z</time>
      </trkpt>
      <trkpt lat="43.67844" lon="3.86053">
        <ele>55.4</ele>
        <time>2018-09-16T08:43:45Z</time>
      </trkpt>
      <trkpt lat="43.6785" lon="3.86051">
        <ele>55.7</ele>
        <time>2018-09-16T08:43:46Z</time>
      </trkpt>
      <trkpt lat="43.67856" lon="3.8605">
        <ele>55.9</ele>
        <time>2018-09-16T08:43:47Z</time>
      </trkpt>
      <trkpt lat="43.67861" lon="3.86049">
        <ele>56</ele>
        <time>2018-09-16T08:43:48Z</time>
      </trkpt>
      <trkpt lat="43.67866" lon="3.86049">
        <ele>55.9</ele>
        <time>2018-09-16T08:43:49Z</time>
      </trkpt>
      <trkpt lat="43.67871" lon="3.86049">
        <ele>55.7</ele>
        <time>2018-09-16T08:43:50Z</time>
      </trkpt>
      <trkpt lat="43.67877" lon="3.8605">
        <ele>55.5</ele>
        <time>2018-09-16T08:43:51Z</time>
      </trkpt>
      <trkpt lat="43.67882" lon="3.8605">
        <ele>55.4</ele>
        <time>2018-09-16T08:43:52Z</time>
      </trkpt>
      <trkpt lat="43.67888" lon="3.8605">
        <ele>55.2</ele>
        <time>2018-09-16T08:43:53Z</time>
      </trkpt>
      <trkpt lat="43.67893" lon="3.86051">
        <ele>55.2</ele>
        <time>2018-09-16T08:43:54Z</time>
      </trkpt>
      <trkpt lat="43.67899" lon="3.86051">
        <ele>55.2</ele>
        <time>2018-09-16T08:43:55Z</time>
      </trkpt>
      <trkpt lat="43.67904" lon="3.86052">
        <ele>55.1</ele>
        <time>2018-09-16T08:43:56Z</time>
      </trkpt>
      <trkpt lat="43.6791" lon="3.86054">
        <ele>55.1</ele>
        <time>2018-09-16T08:43:57Z</time>
      </trkpt>
      <trkpt lat="43.67915" lon="3.86055">
        <ele>55</ele>
        <time>2018-09-16T08:43:58Z</time>
      </trkpt>
      <trkpt lat="43.6792" lon="3.86054">
        <ele>55</ele>
        <time>2018-09-16T08:43:59Z</time>
      </trkpt>
      <trkpt lat="43.67924" lon="3.86056">
        <ele>55</ele>
        <time>2018-09-16T08:44:00Z</time>
      </trkpt>
      <trkpt lat="43.67929" lon="3.86057">
        <ele>55</ele>
        <time>2018-09-16T08:44:01Z</time>
      </trkpt>
      <trkpt lat="43.67934" lon="3.86057">
        <ele>55</ele>
        <time>2018-09-16T08:44:02Z</time>
      </trkpt>
      <trkpt lat="43.67939" lon="3.86059">
        <ele>55</ele>
        <time>2018-09-16T08:44:03Z</time>
      </trkpt>
      <trkpt lat="43.67946" lon="3.86054">
        <ele>54.9</ele>
        <time>2018-09-16T08:44:05Z</time>
      </trkpt>
      <trkpt lat="43.67946" lon="3.86049">
        <ele>54.9</ele>
        <time>2018-09-16T08:44:06Z</time>
      </trkpt>
      <trkpt lat="43.67946" lon="3.86038">
        <ele>54.9</ele>
        <time>2018-09-16T08:44:08Z</time>
      </trkpt>
      <trkpt lat="43.67945" lon="3.86031">
        <ele>55</ele>
        <time>2018-09-16T08:44:09Z</time>
      </trkpt>
      <trkpt lat="43.67946" lon="3.86019">
        <ele>55.3</ele>
        <time>2018-09-16T08:44:11Z</time>
      </trkpt>
      <trkpt lat="43.67946" lon="3.86014">
        <ele>55.4</ele>
        <time>2018-09-16T08:44:12Z</time>
      </trkpt>
      <trkpt lat="43.67945" lon="3.86001">
        <ele>55.9</ele>
        <time>2018-09-16T08:44:14Z</time>
      </trkpt>
      <trkpt lat="43.67945" lon="3.85995">
        <ele>56</ele>
        <time>2018-09-16T08:44:15Z</time>
      </trkpt>
      <trkpt lat="43.67951" lon="3.85987">
        <ele>55.8</ele>
        <time>2018-09-16T08:44:17Z</time>
      </trkpt>
      <trkpt lat="43.67956" lon="3.85988">
        <ele>55.6</ele>
        <time>2018-09-16T08:44:18Z</time>
      </trkpt>
      <trkpt lat="43.67961" lon="3.85989">
        <ele>55.4</ele>
        <time>2018-09-16T08:44:19Z</time>
      </trkpt>
      <trkpt lat="43.67965" lon="3.8599">
        <ele>55.3</ele>
        <time>2018-09-16T08:44:20Z</time>
      </trkpt>
      <trkpt lat="43.67974" lon="3.85988">
        <ele>55</ele>
        <time>2018-09-16T08:44:22Z</time>
      </trkpt>
      <trkpt lat="43.67978" lon="3.85987">
        <ele>54.9</ele>
        <time>2018-09-16T08:44:23Z</time>
      </trkpt>
      <trkpt lat="43.67982" lon="3.85986">
        <ele>54.8</ele>
        <time>2018-09-16T08:44:24Z</time>
      </trkpt>
      <trkpt lat="43.67987" lon="3.85985">
        <ele>54.8</ele>
        <time>2018-09-16T08:44:25Z</time>
      </trkpt>
      <trkpt lat="43.67995" lon="3.85984">
        <ele>54.7</ele>
        <time>2018-09-16T08:44:27Z</time>
      </trkpt>
      <trkpt lat="43.68" lon="3.85984">
        <ele>54.6</ele>
        <time>2018-09-16T08:44:28Z</time>
      </trkpt>
      <trkpt lat="43.68004" lon="3.85983">
        <ele>54.6</ele>
        <time>2018-09-16T08:44:29Z</time>
      </trkpt>
      <trkpt lat="43.6801" lon="3.85983">
        <ele>54.6</ele>
        <time>2018-09-16T08:44:30Z</time>
      </trkpt>
      <trkpt lat="43.68014" lon="3.85983">
        <ele>54.6</ele>
        <time>2018-09-16T08:44:31Z</time>
      </trkpt>
      <trkpt lat="43.6802" lon="3.85984">
        <ele>54.6</ele>
        <time>2018-09-16T08:44:32Z</time>
      </trkpt>
      <trkpt lat="43.68029" lon="3.85982">
        <ele>54.6</ele>
        <time>2018-09-16T08:44:34Z</time>
      </trkpt>
      <trkpt lat="43.68032" lon="3.85977">
        <ele>54.7</ele>
        <time>2018-09-16T08:44:35Z</time>
      </trkpt>
      <trkpt lat="43.68035" lon="3.85973">
        <ele>54.7</ele>
        <time>2018-09-16T08:44:36Z</time>
      </trkpt>
      <trkpt lat="43.68034" lon="3.85964">
        <ele>54.8</ele>
        <time>2018-09-16T08:44:37Z</time>
      </trkpt>
      <trkpt lat="43.68034" lon="3.85957">
        <ele>54.8</ele>
        <time>2018-09-16T08:44:38Z</time>
      </trkpt>
      <trkpt lat="43.68033" lon="3.85949">
        <ele>54.8</ele>
        <time>2018-09-16T08:44:39Z</time>
      </trkpt>
      <trkpt lat="43.68033" lon="3.85943">
        <ele>54.8</ele>
        <time>2018-09-16T08:44:40Z</time>
      </trkpt>
      <trkpt lat="43.68033" lon="3.85936">
        <ele>54.9</ele>
        <time>2018-09-16T08:44:41Z</time>
      </trkpt>
      <trkpt lat="43.68033" lon="3.85929">
        <ele>54.9</ele>
        <time>2018-09-16T08:44:42Z</time>
      </trkpt>
      <trkpt lat="43.68033" lon="3.85921">
        <ele>55</ele>
        <time>2018-09-16T08:44:43Z</time>
      </trkpt>
      <trkpt lat="43.68032" lon="3.85914">
        <ele>55</ele>
        <time>2018-09-16T08:44:44Z</time>
      </trkpt>
      <trkpt lat="43.6803" lon="3.85909">
        <ele>55</ele>
        <time>2018-09-16T08:44:45Z</time>
      </trkpt>
      <trkpt lat="43.68033" lon="3.85898">
        <ele>55</ele>
        <time>2018-09-16T08:44:47Z</time>
      </trkpt>
      <trkpt lat="43.68037" lon="3.85897">
        <ele>55</ele>
        <time>2018-09-16T08:44:48Z</time>
      </trkpt>
      <trkpt lat="43.68041" lon="3.85895">
        <ele>55</ele>
        <time>2018-09-16T08:44:49Z</time>
      </trkpt>
      <trkpt lat="43.68046" lon="3.85893">
        <ele>55</ele>
        <time>2018-09-16T08:44:50Z</time>
      </trkpt>
      <trkpt lat="43.68051" lon="3.85892">
        <ele>55</ele>
        <time>2018-09-16T08:44:52Z</time>
      </trkpt>
      <trkpt lat="43.68056" lon="3.85891">
        <ele>55</ele>
        <time>2018-09-16T08:44:53Z</time>
      </trkpt>
      <trkpt lat="43.68063" lon="3.85885">
        <ele>55</ele>
        <time>2018-09-16T08:44:55Z</time>
      </trkpt>
      <trkpt lat="43.68066" lon="3.85881">
        <ele>55</ele>
        <time>2018-09-16T08:44:56Z</time>
      </trkpt>
      <trkpt lat="43.6807" lon="3.85877">
        <ele>55</ele>
        <time>2018-09-16T08:44:57Z</time>
      </trkpt>
      <trkpt lat="43.68074" lon="3.85874">
        <ele>55</ele>
        <time>2018-09-16T08:44:58Z</time>
      </trkpt>
      <trkpt lat="43.68079" lon="3.85867">
        <ele>55</ele>
        <time>2018-09-16T08:45:00Z</time>
      </trkpt>
      <trkpt lat="43.68082" lon="3.85864">
        <ele>55</ele>
        <time>2018-09-16T08:45:01Z</time>
      </trkpt>
      <trkpt lat="43.68087" lon="3.85855">
        <ele>55.3</ele>
        <time>2018-09-16T08:45:03Z</time>
      </trkpt>
      <trkpt lat="43.6809" lon="3.8585">
        <ele>55.5</ele>
        <time>2018-09-16T08:45:04Z</time>
      </trkpt>
      <trkpt lat="43.68095" lon="3.85842">
        <ele>55.8</ele>
        <time>2018-09-16T08:45:06Z</time>
      </trkpt>
      <trkpt lat="43.68097" lon="3.85839">
        <ele>55.9</ele>
        <time>2018-09-16T08:45:07Z</time>
      </trkpt>
      <trkpt lat="43.68102" lon="3.8583">
        <ele>56</ele>
        <time>2018-09-16T08:45:09Z</time>
      </trkpt>
      <trkpt lat="43.68105" lon="3.85826">
        <ele>56</ele>
        <time>2018-09-16T08:45:10Z</time>
      </trkpt>
      <trkpt lat="43.6811" lon="3.85816">
        <ele>56</ele>
        <time>2018-09-16T08:45:12Z</time>
      </trkpt>
      <trkpt lat="43.68112" lon="3.85811">
        <ele>56</ele>
        <time>2018-09-16T08:45:13Z</time>
      </trkpt>
      <trkpt lat="43.68116" lon="3.85801">
        <ele>56.1</ele>
        <time>2018-09-16T08:45:15Z</time>
      </trkpt>
      <trkpt lat="43.68118" lon="3.85797">
        <ele>56.2</ele>
        <time>2018-09-16T08:45:16Z</time>
      </trkpt>
      <trkpt lat="43.68125" lon="3.85789">
        <ele>56.3</ele>
        <time>2018-09-16T08:45:18Z</time>
      </trkpt>
      <trkpt lat="43.68128" lon="3.85785">
        <ele>56.3</ele>
        <time>2018-09-16T08:45:19Z</time>
      </trkpt>
      <trkpt lat="43.68132" lon="3.85781">
        <ele>56.2</ele>
        <time>2018-09-16T08:45:20Z</time>
      </trkpt>
      <trkpt lat="43.68133" lon="3.85775">
        <ele>56.3</ele>
        <time>2018-09-16T08:45:21Z</time>
      </trkpt>
      <trkpt lat="43.68138" lon="3.85764">
        <ele>56.5</ele>
        <time>2018-09-16T08:45:23Z</time>
      </trkpt>
      <trkpt lat="43.68138" lon="3.85762">
        <ele>56.6</ele>
        <time>2018-09-16T08:45:24Z</time>
      </trkpt>
      <trkpt lat="43.68142" lon="3.85754">
        <ele>56.8</ele>
        <time>2018-09-16T08:45:26Z</time>
      </trkpt>
      <trkpt lat="43.68143" lon="3.85751">
        <ele>56.8</ele>
        <time>2018-09-16T08:45:27Z</time>
      </trkpt>
      <trkpt lat="43.68144" lon="3.8574">
        <ele>57.2</ele>
        <time>2018-09-16T08:45:30Z</time>
      </trkpt>
      <trkpt lat="43.68144" lon="3.85735">
        <ele>57.5</ele>
        <time>2018-09-16T08:45:31Z</time>
      </trkpt>
      <trkpt lat="43.68144" lon="3.85723">
        <ele>58</ele>
        <time>2018-09-16T08:45:34Z</time>
      </trkpt>
      <trkpt lat="43.68143" lon="3.8572">
        <ele>58.2</ele>
        <time>2018-09-16T08:45:35Z</time>
      </trkpt>
      <trkpt lat="43.68141" lon="3.85709">
        <ele>59</ele>
        <time>2018-09-16T08:45:38Z</time>
      </trkpt>
      <trkpt lat="43.68141" lon="3.85705">
        <ele>59.2</ele>
        <time>2018-09-16T08:45:39Z</time>
      </trkpt>
      <trkpt lat="43.68136" lon="3.85697">
        <ele>59.9</ele>
        <time>2018-09-16T08:45:42Z</time>
      </trkpt>
      <trkpt lat="43.68133" lon="3.85694">
        <ele>60.3</ele>
        <time>2018-09-16T08:45:43Z</time>
      </trkpt>
      <trkpt lat="43.6813" lon="3.85692">
        <ele>60.6</ele>
        <time>2018-09-16T08:45:44Z</time>
      </trkpt>
      <trkpt lat="43.68121" lon="3.85689">
        <ele>61.1</ele>
        <time>2018-09-16T08:45:45Z</time>
      </trkpt>
      <trkpt lat="43.68113" lon="3.8569">
        <ele>61.3</ele>
        <time>2018-09-16T08:45:47Z</time>
      </trkpt>
      <trkpt lat="43.68109" lon="3.8569">
        <ele>61.2</ele>
        <time>2018-09-16T08:45:48Z</time>
      </trkpt>
      <trkpt lat="43.68103" lon="3.85692">
        <ele>60.9</ele>
        <time>2018-09-16T08:45:50Z</time>
      </trkpt>
      <trkpt lat="43.68099" lon="3.85692">
        <ele>60.7</ele>
        <time>2018-09-16T08:45:51Z</time>
      </trkpt>
      <trkpt lat="43.6809" lon="3.85692">
        <ele>60.4</ele>
        <time>2018-09-16T08:45:53Z</time>
      </trkpt>
      <trkpt lat="43.68086" lon="3.85689">
        <ele>60.5</ele>
        <time>2018-09-16T08:45:54Z</time>
      </trkpt>
      <trkpt lat="43.68083" lon="3.8568">
        <ele>61</ele>
        <time>2018-09-16T08:45:56Z</time>
      </trkpt>
      <trkpt lat="43.68081" lon="3.85675">
        <ele>61.4</ele>
        <time>2018-09-16T08:45:57Z</time>
      </trkpt>
      <trkpt lat="43.68075" lon="3.85668">
        <ele>61.9</ele>
        <time>2018-09-16T08:46:02Z</time>
      </trkpt>
      <trkpt lat="43.68072" lon="3.85667">
        <ele>62</ele>
        <time>2018-09-16T08:46:03Z</time>
      </trkpt>
      <trkpt lat="43.68064" lon="3.85665">
        <ele>62.1</ele>
        <time>2018-09-16T08:46:06Z</time>
      </trkpt>
      <trkpt lat="43.6806" lon="3.85664">
        <ele>62.2</ele>
        <time>2018-09-16T08:46:07Z</time>
      </trkpt>
      <trkpt lat="43.68054" lon="3.85663">
        <ele>62.3</ele>
        <time>2018-09-16T08:46:09Z</time>
      </trkpt>
      <trkpt lat="43.68044" lon="3.85661">
        <ele>62.3</ele>
        <time>2018-09-16T08:46:10Z</time>
      </trkpt>
      <trkpt lat="43.6804" lon="3.85659">
        <ele>62.4</ele>
        <time>2018-09-16T08:46:12Z</time>
      </trkpt>
      <trkpt lat="43.68035" lon="3.85658">
        <ele>62.4</ele>
        <time>2018-09-16T08:46:13Z</time>
      </trkpt>
      <trkpt lat="43.68026" lon="3.85657">
        <ele>62.3</ele>
        <time>2018-09-16T08:46:15Z</time>
      </trkpt>
      <trkpt lat="43.68023" lon="3.85657">
        <ele>62.2</ele>
        <time>2018-09-16T08:46:16Z</time>
      </trkpt>
      <trkpt lat="43.68015" lon="3.85654">
        <ele>62.2</ele>
        <time>2018-09-16T08:46:18Z</time>
      </trkpt>
      <trkpt lat="43.68011" lon="3.85654">
        <ele>62.1</ele>
        <time>2018-09-16T08:46:19Z</time>
      </trkpt>
      <trkpt lat="43.68003" lon="3.8565">
        <ele>62.2</ele>
        <time>2018-09-16T08:46:23Z</time>
      </trkpt>
      <trkpt lat="43.68001" lon="3.85649">
        <ele>62.3</ele>
        <time>2018-09-16T08:46:24Z</time>
      </trkpt>
      <trkpt lat="43.67995" lon="3.85647">
        <ele>62.5</ele>
        <time>2018-09-16T08:46:26Z</time>
      </trkpt>
      <trkpt lat="43.67991" lon="3.85646">
        <ele>62.7</ele>
        <time>2018-09-16T08:46:27Z</time>
      </trkpt>
      <trkpt lat="43.67983" lon="3.85644">
        <ele>63.1</ele>
        <time>2018-09-16T08:46:30Z</time>
      </trkpt>
      <trkpt lat="43.6798" lon="3.85644">
        <ele>63.2</ele>
        <time>2018-09-16T08:46:31Z</time>
      </trkpt>
      <trkpt lat="43.67972" lon="3.85642">
        <ele>63.7</ele>
        <time>2018-09-16T08:46:34Z</time>
      </trkpt>
      <trkpt lat="43.6797" lon="3.85642">
        <ele>63.6</ele>
        <time>2018-09-16T08:46:35Z</time>
      </trkpt>
      <trkpt lat="43.67961" lon="3.85642">
        <ele>63.3</ele>
        <time>2018-09-16T08:46:38Z</time>
      </trkpt>
      <trkpt lat="43.67958" lon="3.85642">
        <ele>63.2</ele>
        <time>2018-09-16T08:46:39Z</time>
      </trkpt>
      <trkpt lat="43.67951" lon="3.85641">
        <ele>63.1</ele>
        <time>2018-09-16T08:46:41Z</time>
      </trkpt>
      <trkpt lat="43.67947" lon="3.85641">
        <ele>62.9</ele>
        <time>2018-09-16T08:46:42Z</time>
      </trkpt>
      <trkpt lat="43.67941" lon="3.8564">
        <ele>62.9</ele>
        <time>2018-09-16T08:46:44Z</time>
      </trkpt>
      <trkpt lat="43.67938" lon="3.8564">
        <ele>62.9</ele>
        <time>2018-09-16T08:46:45Z</time>
      </trkpt>
      <trkpt lat="43.67931" lon="3.85639">
        <ele>63</ele>
        <time>2018-09-16T08:46:47Z</time>
      </trkpt>
      <trkpt lat="43.67928" lon="3.85638">
        <ele>63</ele>
        <time>2018-09-16T08:46:48Z</time>
      </trkpt>
      <trkpt lat="43.67921" lon="3.85637">
        <ele>63.1</ele>
        <time>2018-09-16T08:46:50Z</time>
      </trkpt>
      <trkpt lat="43.67918" lon="3.85636">
        <ele>63.1</ele>
        <time>2018-09-16T08:46:51Z</time>
      </trkpt>
      <trkpt lat="43.67912" lon="3.85636">
        <ele>63</ele>
        <time>2018-09-16T08:46:53Z</time>
      </trkpt>
      <trkpt lat="43.67909" lon="3.85635">
        <ele>62.9</ele>
        <time>2018-09-16T08:46:54Z</time>
      </trkpt>
      <trkpt lat="43.67902" lon="3.85635">
        <ele>62.7</ele>
        <time>2018-09-16T08:46:56Z</time>
      </trkpt>
      <trkpt lat="43.67892" lon="3.85634">
        <ele>62.4</ele>
        <time>2018-09-16T08:46:57Z</time>
      </trkpt>
      <trkpt lat="43.67885" lon="3.85633">
        <ele>62.4</ele>
        <time>2018-09-16T08:46:59Z</time>
      </trkpt>
      <trkpt lat="43.67881" lon="3.85631">
        <ele>62.6</ele>
        <time>2018-09-16T08:47:00Z</time>
      </trkpt>
      <trkpt lat="43.67873" lon="3.85628">
        <ele>62.8</ele>
        <time>2018-09-16T08:47:03Z</time>
      </trkpt>
      <trkpt lat="43.67871" lon="3.85628">
        <ele>62.8</ele>
        <time>2018-09-16T08:47:04Z</time>
      </trkpt>
      <trkpt lat="43.67863" lon="3.85625">
        <ele>63</ele>
        <time>2018-09-16T08:47:07Z</time>
      </trkpt>
      <trkpt lat="43.6786" lon="3.85624">
        <ele>63.1</ele>
        <time>2018-09-16T08:47:08Z</time>
      </trkpt>
      <trkpt lat="43.67852" lon="3.85621">
        <ele>63.4</ele>
        <time>2018-09-16T08:47:11Z</time>
      </trkpt>
      <trkpt lat="43.67849" lon="3.8562">
        <ele>63.5</ele>
        <time>2018-09-16T08:47:12Z</time>
      </trkpt>
      <trkpt lat="43.67842" lon="3.85612">
        <ele>64</ele>
        <time>2018-09-16T08:47:15Z</time>
      </trkpt>
      <trkpt lat="43.6784" lon="3.85609">
        <ele>64.1</ele>
        <time>2018-09-16T08:47:16Z</time>
      </trkpt>
      <trkpt lat="43.67835" lon="3.85602">
        <ele>64.3</ele>
        <time>2018-09-16T08:47:18Z</time>
      </trkpt>
      <trkpt lat="43.67833" lon="3.85598">
        <ele>64.5</ele>
        <time>2018-09-16T08:47:19Z</time>
      </trkpt>
      <trkpt lat="43.67829" lon="3.85591">
        <ele>64.7</ele>
        <time>2018-09-16T08:47:21Z</time>
      </trkpt>
      <trkpt lat="43.67827" lon="3.85587">
        <ele>64.9</ele>
        <time>2018-09-16T08:47:22Z</time>
      </trkpt>
      <trkpt lat="43.67823" lon="3.85579">
        <ele>65.2</ele>
        <time>2018-09-16T08:47:24Z</time>
      </trkpt>
      <trkpt lat="43.67822" lon="3.85575">
        <ele>65.3</ele>
        <time>2018-09-16T08:47:25Z</time>
      </trkpt>
      <trkpt lat="43.67817" lon="3.85565">
        <ele>65.7</ele>
        <time>2018-09-16T08:47:28Z</time>
      </trkpt>
      <trkpt lat="43.67816" lon="3.85561">
        <ele>65.8</ele>
        <time>2018-09-16T08:47:29Z</time>
      </trkpt>
      <trkpt lat="43.67811" lon="3.85551">
        <ele>66.2</ele>
        <time>2018-09-16T08:47:32Z</time>
      </trkpt>
      <trkpt lat="43.6781" lon="3.85548">
        <ele>66.3</ele>
        <time>2018-09-16T08:47:33Z</time>
      </trkpt>
      <trkpt lat="43.67806" lon="3.8554">
        <ele>66.6</ele>
        <time>2018-09-16T08:47:35Z</time>
      </trkpt>
      <trkpt lat="43.67803" lon="3.85537">
        <ele>66.6</ele>
        <time>2018-09-16T08:47:36Z</time>
      </trkpt>
      <trkpt lat="43.67796" lon="3.85535">
        <ele>66.4</ele>
        <time>2018-09-16T08:47:39Z</time>
      </trkpt>
      <trkpt lat="43.67794" lon="3.85536">
        <ele>66.3</ele>
        <time>2018-09-16T08:47:40Z</time>
      </trkpt>
      <trkpt lat="43.67786" lon="3.85542">
        <ele>65.8</ele>
        <time>2018-09-16T08:47:41Z</time>
      </trkpt>
      <trkpt lat="43.67782" lon="3.85544">
        <ele>65.6</ele>
        <time>2018-09-16T08:47:42Z</time>
      </trkpt>
      <trkpt lat="43.67778" lon="3.85546">
        <ele>65.4</ele>
        <time>2018-09-16T08:47:43Z</time>
      </trkpt>
      <trkpt lat="43.67774" lon="3.85548">
        <ele>65.1</ele>
        <time>2018-09-16T08:47:44Z</time>
      </trkpt>
      <trkpt lat="43.67769" lon="3.8555">
        <ele>64.9</ele>
        <time>2018-09-16T08:47:45Z</time>
      </trkpt>
      <trkpt lat="43.67765" lon="3.85552">
        <ele>64.7</ele>
        <time>2018-09-16T08:47:46Z</time>
      </trkpt>
      <trkpt lat="43.67757" lon="3.85547">
        <ele>64.6</ele>
        <time>2018-09-16T08:47:48Z</time>
      </trkpt>
      <trkpt lat="43.67753" lon="3.85544">
        <ele>64.5</ele>
        <time>2018-09-16T08:47:49Z</time>
      </trkpt>
      <trkpt lat="43.67747" lon="3.85538">
        <ele>64.5</ele>
        <time>2018-09-16T08:47:51Z</time>
      </trkpt>
      <trkpt lat="43.67744" lon="3.85535">
        <ele>64.5</ele>
        <time>2018-09-16T08:47:52Z</time>
      </trkpt>
      <trkpt lat="43.67736" lon="3.85532">
        <ele>64.3</ele>
        <time>2018-09-16T08:47:55Z</time>
      </trkpt>
      <trkpt lat="43.67734" lon="3.85531">
        <ele>64.3</ele>
        <time>2018-09-16T08:47:56Z</time>
      </trkpt>
      <trkpt lat="43.67729" lon="3.85521">
        <ele>64.5</ele>
        <time>2018-09-16T08:48:00Z</time>
      </trkpt>
      <trkpt lat="43.67728" lon="3.85517">
        <ele>64.6</ele>
        <time>2018-09-16T08:48:01Z</time>
      </trkpt>
      <trkpt lat="43.67727" lon="3.85508">
        <ele>64.9</ele>
        <time>2018-09-16T08:48:03Z</time>
      </trkpt>
      <trkpt lat="43.67727" lon="3.85503">
        <ele>65.1</ele>
        <time>2018-09-16T08:48:04Z</time>
      </trkpt>
      <trkpt lat="43.67727" lon="3.85492">
        <ele>65.5</ele>
        <time>2018-09-16T08:48:07Z</time>
      </trkpt>
      <trkpt lat="43.67727" lon="3.85488">
        <ele>65.7</ele>
        <time>2018-09-16T08:48:08Z</time>
      </trkpt>
      <trkpt lat="43.67729" lon="3.85477">
        <ele>66.3</ele>
        <time>2018-09-16T08:48:11Z</time>
      </trkpt>
      <trkpt lat="43.6773" lon="3.85474">
        <ele>66.5</ele>
        <time>2018-09-16T08:48:12Z</time>
      </trkpt>
      <trkpt lat="43.67732" lon="3.85464">
        <ele>67.1</ele>
        <time>2018-09-16T08:48:15Z</time>
      </trkpt>
      <trkpt lat="43.67733" lon="3.85461">
        <ele>67.3</ele>
        <time>2018-09-16T08:48:16Z</time>
      </trkpt>
      <trkpt lat="43.67736" lon="3.85452">
        <ele>68.1</ele>
        <time>2018-09-16T08:48:19Z</time>
      </trkpt>
      <trkpt lat="43.67737" lon="3.85449">
        <ele>68.3</ele>
        <time>2018-09-16T08:48:20Z</time>
      </trkpt>
      <trkpt lat="43.67738" lon="3.85438">
        <ele>68.9</ele>
        <time>2018-09-16T08:48:23Z</time>
      </trkpt>
      <trkpt lat="43.67739" lon="3.85435">
        <ele>69.2</ele>
        <time>2018-09-16T08:48:24Z</time>
      </trkpt>
      <trkpt lat="43.67742" lon="3.85424">
        <ele>69.9</ele>
        <time>2018-09-16T08:48:28Z</time>
      </trkpt>
      <trkpt lat="43.67743" lon="3.85422">
        <ele>70.1</ele>
        <time>2018-09-16T08:48:29Z</time>
      </trkpt>
      <trkpt lat="43.67744" lon="3.85412">
        <ele>70.7</ele>
        <time>2018-09-16T08:48:33Z</time>
      </trkpt>
      <trkpt lat="43.67744" lon="3.85409">
        <ele>70.9</ele>
        <time>2018-09-16T08:48:34Z</time>
      </trkpt>
      <trkpt lat="43.67741" lon="3.85398">
        <ele>71.4</ele>
        <time>2018-09-16T08:48:37Z</time>
      </trkpt>
      <trkpt lat="43.6774" lon="3.85394">
        <ele>71.6</ele>
        <time>2018-09-16T08:48:38Z</time>
      </trkpt>
      <trkpt lat="43.67735" lon="3.85384">
        <ele>71.7</ele>
        <time>2018-09-16T08:48:41Z</time>
      </trkpt>
      <trkpt lat="43.67733" lon="3.85381">
        <ele>71.7</ele>
        <time>2018-09-16T08:48:42Z</time>
      </trkpt>
      <trkpt lat="43.67728" lon="3.85373">
        <ele>71.8</ele>
        <time>2018-09-16T08:48:45Z</time>
      </trkpt>
      <trkpt lat="43.67726" lon="3.8537">
        <ele>71.8</ele>
        <time>2018-09-16T08:48:46Z</time>
      </trkpt>
      <trkpt lat="43.67721" lon="3.85364">
        <ele>71.7</ele>
        <time>2018-09-16T08:48:48Z</time>
      </trkpt>
      <trkpt lat="43.67719" lon="3.85361">
        <ele>71.9</ele>
        <time>2018-09-16T08:48:49Z</time>
      </trkpt>
      <trkpt lat="43.67713" lon="3.85354">
        <ele>72.6</ele>
        <time>2018-09-16T08:48:52Z</time>
      </trkpt>
      <trkpt lat="43.67711" lon="3.85352">
        <ele>72.8</ele>
        <time>2018-09-16T08:48:53Z</time>
      </trkpt>
      <trkpt lat="43.67704" lon="3.85344">
        <ele>73.4</ele>
        <time>2018-09-16T08:48:57Z</time>
      </trkpt>
      <trkpt lat="43.67703" lon="3.85343">
        <ele>73.5</ele>
        <time>2018-09-16T08:48:58Z</time>
      </trkpt>
      <trkpt lat="43.67697" lon="3.85337">
        <ele>73.8</ele>
        <time>2018-09-16T08:49:02Z</time>
      </trkpt>
      <trkpt lat="43.67695" lon="3.85334">
        <ele>74</ele>
        <time>2018-09-16T08:49:03Z</time>
      </trkpt>
      <trkpt lat="43.6769" lon="3.85327">
        <ele>74.2</ele>
        <time>2018-09-16T08:49:06Z</time>
      </trkpt>
      <trkpt lat="43.67688" lon="3.85324">
        <ele>74.2</ele>
        <time>2018-09-16T08:49:07Z</time>
      </trkpt>
      <trkpt lat="43.67685" lon="3.85318">
        <ele>74.4</ele>
        <time>2018-09-16T08:49:09Z</time>
      </trkpt>
      <trkpt lat="43.67683" lon="3.85314">
        <ele>74.6</ele>
        <time>2018-09-16T08:49:10Z</time>
      </trkpt>
      <trkpt lat="43.67679" lon="3.85304">
        <ele>74.9</ele>
        <time>2018-09-16T08:49:13Z</time>
      </trkpt>
      <trkpt lat="43.67678" lon="3.85301">
        <ele>74.9</ele>
        <time>2018-09-16T08:49:14Z</time>
      </trkpt>
      <trkpt lat="43.67676" lon="3.8529">
        <ele>75.3</ele>
        <time>2018-09-16T08:49:17Z</time>
      </trkpt>
      <trkpt lat="43.67676" lon="3.85287">
        <ele>75.5</ele>
        <time>2018-09-16T08:49:18Z</time>
      </trkpt>
      <trkpt lat="43.67674" lon="3.85278">
        <ele>75.8</ele>
        <time>2018-09-16T08:49:21Z</time>
      </trkpt>
      <trkpt lat="43.67673" lon="3.85274">
        <ele>76.1</ele>
        <time>2018-09-16T08:49:22Z</time>
      </trkpt>
      <trkpt lat="43.67667" lon="3.85265">
        <ele>76.4</ele>
        <time>2018-09-16T08:49:25Z</time>
      </trkpt>
      <trkpt lat="43.67665" lon="3.85263">
        <ele>76.5</ele>
        <time>2018-09-16T08:49:26Z</time>
      </trkpt>
      <trkpt lat="43.67659" lon="3.85258">
        <ele>76.6</ele>
        <time>2018-09-16T08:49:28Z</time>
      </trkpt>
      <trkpt lat="43.67655" lon="3.85257">
        <ele>76.4</ele>
        <time>2018-09-16T08:49:29Z</time>
      </trkpt>
      <trkpt lat="43.67647" lon="3.85254">
        <ele>76.2</ele>
        <time>2018-09-16T08:49:30Z</time>
      </trkpt>
      <trkpt lat="43.67643" lon="3.85252">
        <ele>76.1</ele>
        <time>2018-09-16T08:49:31Z</time>
      </trkpt>
      <trkpt lat="43.67636" lon="3.85248">
        <ele>76.1</ele>
        <time>2018-09-16T08:49:33Z</time>
      </trkpt>
      <trkpt lat="43.67632" lon="3.85246">
        <ele>76.2</ele>
        <time>2018-09-16T08:49:34Z</time>
      </trkpt>
      <trkpt lat="43.67628" lon="3.85243">
        <ele>76.3</ele>
        <time>2018-09-16T08:49:35Z</time>
      </trkpt>
      <trkpt lat="43.67624" lon="3.85239">
        <ele>76.5</ele>
        <time>2018-09-16T08:49:36Z</time>
      </trkpt>
      <trkpt lat="43.67619" lon="3.85236">
        <ele>76.4</ele>
        <time>2018-09-16T08:49:37Z</time>
      </trkpt>
      <trkpt lat="43.67614" lon="3.85234">
        <ele>76.1</ele>
        <time>2018-09-16T08:49:38Z</time>
      </trkpt>
      <trkpt lat="43.67611" lon="3.85232">
        <ele>75.9</ele>
        <time>2018-09-16T08:49:39Z</time>
      </trkpt>
      <trkpt lat="43.67606" lon="3.85229">
        <ele>76</ele>
        <time>2018-09-16T08:49:40Z</time>
      </trkpt>
      <trkpt lat="43.676" lon="3.85226">
        <ele>75.9</ele>
        <time>2018-09-16T08:49:41Z</time>
      </trkpt>
      <trkpt lat="43.67596" lon="3.85222">
        <ele>75.9</ele>
        <time>2018-09-16T08:49:42Z</time>
      </trkpt>
      <trkpt lat="43.67592" lon="3.85218">
        <ele>75.9</ele>
        <time>2018-09-16T08:49:43Z</time>
      </trkpt>
      <trkpt lat="43.67586" lon="3.85215">
        <ele>75.5</ele>
        <time>2018-09-16T08:49:44Z</time>
      </trkpt>
      <trkpt lat="43.67581" lon="3.85211">
        <ele>75.6</ele>
        <time>2018-09-16T08:49:45Z</time>
      </trkpt>
      <trkpt lat="43.67576" lon="3.85208">
        <ele>76</ele>
        <time>2018-09-16T08:49:46Z</time>
      </trkpt>
      <trkpt lat="43.67572" lon="3.85204">
        <ele>76.3</ele>
        <time>2018-09-16T08:49:47Z</time>
      </trkpt>
      <trkpt lat="43.67569" lon="3.852">
        <ele>76.5</ele>
        <time>2018-09-16T08:49:48Z</time>
      </trkpt>
      <trkpt lat="43.67566" lon="3.85194">
        <ele>76.6</ele>
        <time>2018-09-16T08:49:49Z</time>
      </trkpt>
      <trkpt lat="43.67565" lon="3.85188">
        <ele>76.6</ele>
        <time>2018-09-16T08:49:50Z</time>
      </trkpt>
      <trkpt lat="43.67562" lon="3.85179">
        <ele>76.5</ele>
        <time>2018-09-16T08:49:52Z</time>
      </trkpt>
      <trkpt lat="43.6756" lon="3.85172">
        <ele>76.3</ele>
        <time>2018-09-16T08:49:53Z</time>
      </trkpt>
      <trkpt lat="43.67557" lon="3.85167">
        <ele>76.1</ele>
        <time>2018-09-16T08:49:54Z</time>
      </trkpt>
      <trkpt lat="43.67554" lon="3.8516">
        <ele>76.2</ele>
        <time>2018-09-16T08:49:55Z</time>
      </trkpt>
      <trkpt lat="43.67552" lon="3.85154">
        <ele>76.3</ele>
        <time>2018-09-16T08:49:56Z</time>
      </trkpt>
      <trkpt lat="43.67549" lon="3.85147">
        <ele>76.5</ele>
        <time>2018-09-16T08:49:57Z</time>
      </trkpt>
      <trkpt lat="43.67546" lon="3.85141">
        <ele>76.7</ele>
        <time>2018-09-16T08:49:58Z</time>
      </trkpt>
      <trkpt lat="43.67543" lon="3.85134">
        <ele>76.9</ele>
        <time>2018-09-16T08:49:59Z</time>
      </trkpt>
      <trkpt lat="43.67539" lon="3.85124">
        <ele>77.2</ele>
        <time>2018-09-16T08:50:01Z</time>
      </trkpt>
      <trkpt lat="43.67538" lon="3.85117">
        <ele>77.3</ele>
        <time>2018-09-16T08:50:02Z</time>
      </trkpt>
      <trkpt lat="43.67535" lon="3.85107">
        <ele>77.5</ele>
        <time>2018-09-16T08:50:04Z</time>
      </trkpt>
      <trkpt lat="43.67535" lon="3.85103">
        <ele>77.5</ele>
        <time>2018-09-16T08:50:05Z</time>
      </trkpt>
      <trkpt lat="43.67531" lon="3.85094">
        <ele>77.8</ele>
        <time>2018-09-16T08:50:07Z</time>
      </trkpt>
      <trkpt lat="43.67529" lon="3.8509">
        <ele>77.9</ele>
        <time>2018-09-16T08:50:08Z</time>
      </trkpt>
      <trkpt lat="43.67523" lon="3.85082">
        <ele>78.5</ele>
        <time>2018-09-16T08:50:10Z</time>
      </trkpt>
      <trkpt lat="43.67521" lon="3.8508">
        <ele>78.8</ele>
        <time>2018-09-16T08:50:11Z</time>
      </trkpt>
      <trkpt lat="43.6752" lon="3.85078">
        <ele>78.9</ele>
        <time>2018-09-16T08:50:12Z</time>
      </trkpt>
      <trkpt lat="43.67515" lon="3.8507">
        <ele>79.6</ele>
        <time>2018-09-16T08:50:13Z</time>
      </trkpt>
      <trkpt lat="43.67511" lon="3.85064">
        <ele>80.2</ele>
        <time>2018-09-16T08:50:16Z</time>
      </trkpt>
      <trkpt lat="43.6751" lon="3.8506">
        <ele>80.5</ele>
        <time>2018-09-16T08:50:17Z</time>
      </trkpt>
      <trkpt lat="43.67506" lon="3.85053">
        <ele>81.1</ele>
        <time>2018-09-16T08:50:19Z</time>
      </trkpt>
      <trkpt lat="43.67504" lon="3.85049">
        <ele>81.3</ele>
        <time>2018-09-16T08:50:20Z</time>
      </trkpt>
      <trkpt lat="43.67503" lon="3.85045">
        <ele>81.3</ele>
        <time>2018-09-16T08:50:21Z</time>
      </trkpt>
      <trkpt lat="43.675" lon="3.85036">
        <ele>81.3</ele>
        <time>2018-09-16T08:50:22Z</time>
      </trkpt>
      <trkpt lat="43.67496" lon="3.85027">
        <ele>81.4</ele>
        <time>2018-09-16T08:50:24Z</time>
      </trkpt>
      <trkpt lat="43.67494" lon="3.85022">
        <ele>81.6</ele>
        <time>2018-09-16T08:50:25Z</time>
      </trkpt>
      <trkpt lat="43.67491" lon="3.85016">
        <ele>82</ele>
        <time>2018-09-16T08:50:26Z</time>
      </trkpt>
      <trkpt lat="43.67489" lon="3.8501">
        <ele>82.2</ele>
        <time>2018-09-16T08:50:27Z</time>
      </trkpt>
      <trkpt lat="43.67485" lon="3.85003">
        <ele>82.6</ele>
        <time>2018-09-16T08:50:30Z</time>
      </trkpt>
      <trkpt lat="43.67484" lon="3.85">
        <ele>82.7</ele>
        <time>2018-09-16T08:50:31Z</time>
      </trkpt>
      <trkpt lat="43.67478" lon="3.84989">
        <ele>83.1</ele>
        <time>2018-09-16T08:50:32Z</time>
      </trkpt>
      <trkpt lat="43.67477" lon="3.84985">
        <ele>83</ele>
        <time>2018-09-16T08:50:33Z</time>
      </trkpt>
      <trkpt lat="43.67473" lon="3.84978">
        <ele>83.1</ele>
        <time>2018-09-16T08:50:34Z</time>
      </trkpt>
      <trkpt lat="43.6747" lon="3.84969">
        <ele>83.2</ele>
        <time>2018-09-16T08:50:36Z</time>
      </trkpt>
      <trkpt lat="43.67468" lon="3.84964">
        <ele>83.4</ele>
        <time>2018-09-16T08:50:37Z</time>
      </trkpt>
      <trkpt lat="43.67467" lon="3.84954">
        <ele>83.4</ele>
        <time>2018-09-16T08:50:40Z</time>
      </trkpt>
      <trkpt lat="43.67467" lon="3.84951">
        <ele>83.4</ele>
        <time>2018-09-16T08:50:41Z</time>
      </trkpt>
      <trkpt lat="43.67467" lon="3.84947">
        <ele>83.4</ele>
        <time>2018-09-16T08:50:42Z</time>
      </trkpt>
      <trkpt lat="43.67467" lon="3.84934">
        <ele>83.4</ele>
        <time>2018-09-16T08:50:43Z</time>
      </trkpt>
      <trkpt lat="43.67464" lon="3.84924">
        <ele>83.8</ele>
        <time>2018-09-16T08:50:48Z</time>
      </trkpt>
      <trkpt lat="43.67463" lon="3.84921">
        <ele>83.9</ele>
        <time>2018-09-16T08:50:49Z</time>
      </trkpt>
      <trkpt lat="43.67463" lon="3.84913">
        <ele>83.9</ele>
        <time>2018-09-16T08:50:51Z</time>
      </trkpt>
      <trkpt lat="43.67463" lon="3.84908">
        <ele>83.8</ele>
        <time>2018-09-16T08:50:52Z</time>
      </trkpt>
      <trkpt lat="43.67462" lon="3.84898">
        <ele>83.7</ele>
        <time>2018-09-16T08:50:54Z</time>
      </trkpt>
      <trkpt lat="43.67461" lon="3.84893">
        <ele>83.7</ele>
        <time>2018-09-16T08:50:55Z</time>
      </trkpt>
      <trkpt lat="43.6746" lon="3.84882">
        <ele>83.7</ele>
        <time>2018-09-16T08:50:57Z</time>
      </trkpt>
      <trkpt lat="43.67459" lon="3.84876">
        <ele>83.7</ele>
        <time>2018-09-16T08:50:58Z</time>
      </trkpt>
      <trkpt lat="43.67458" lon="3.84871">
        <ele>83.7</ele>
        <time>2018-09-16T08:50:59Z</time>
      </trkpt>
      <trkpt lat="43.67455" lon="3.84854">
        <ele>83.7</ele>
        <time>2018-09-16T08:51:00Z</time>
      </trkpt>
      <trkpt lat="43.67453" lon="3.84845">
        <ele>83.7</ele>
        <time>2018-09-16T08:51:02Z</time>
      </trkpt>
      <trkpt lat="43.67452" lon="3.84841">
        <ele>83.7</ele>
        <time>2018-09-16T08:51:03Z</time>
      </trkpt>
      <trkpt lat="43.6745" lon="3.84831">
        <ele>83.5</ele>
        <time>2018-09-16T08:51:06Z</time>
      </trkpt>
      <trkpt lat="43.67448" lon="3.84829">
        <ele>83.6</ele>
        <time>2018-09-16T08:51:07Z</time>
      </trkpt>
      <trkpt lat="43.67444" lon="3.84822">
        <ele>83.6</ele>
        <time>2018-09-16T08:51:09Z</time>
      </trkpt>
      <trkpt lat="43.67442" lon="3.84818">
        <ele>83.7</ele>
        <time>2018-09-16T08:51:10Z</time>
      </trkpt>
      <trkpt lat="43.67439" lon="3.84815">
        <ele>83.9</ele>
        <time>2018-09-16T08:51:11Z</time>
      </trkpt>
      <trkpt lat="43.67433" lon="3.84806">
        <ele>84.3</ele>
        <time>2018-09-16T08:51:12Z</time>
      </trkpt>
      <trkpt lat="43.67426" lon="3.84798">
        <ele>84.8</ele>
        <time>2018-09-16T08:51:15Z</time>
      </trkpt>
      <trkpt lat="43.67425" lon="3.84794">
        <ele>84.8</ele>
        <time>2018-09-16T08:51:16Z</time>
      </trkpt>
      <trkpt lat="43.67421" lon="3.84785">
        <ele>84.9</ele>
        <time>2018-09-16T08:51:19Z</time>
      </trkpt>
      <trkpt lat="43.6742" lon="3.84781">
        <ele>84.9</ele>
        <time>2018-09-16T08:51:20Z</time>
      </trkpt>
      <trkpt lat="43.67416" lon="3.8477">
        <ele>85.1</ele>
        <time>2018-09-16T08:51:23Z</time>
      </trkpt>
      <trkpt lat="43.67415" lon="3.84766">
        <ele>85.2</ele>
        <time>2018-09-16T08:51:24Z</time>
      </trkpt>
      <trkpt lat="43.67412" lon="3.84757">
        <ele>85.7</ele>
        <time>2018-09-16T08:51:27Z</time>
      </trkpt>
      <trkpt lat="43.67411" lon="3.84753">
        <ele>85.8</ele>
        <time>2018-09-16T08:51:28Z</time>
      </trkpt>
      <trkpt lat="43.67409" lon="3.84742">
        <ele>86.1</ele>
        <time>2018-09-16T08:51:31Z</time>
      </trkpt>
      <trkpt lat="43.67408" lon="3.84738">
        <ele>86.2</ele>
        <time>2018-09-16T08:51:32Z</time>
      </trkpt>
      <trkpt lat="43.67407" lon="3.84728">
        <ele>86.4</ele>
        <time>2018-09-16T08:51:34Z</time>
      </trkpt>
      <trkpt lat="43.67407" lon="3.84722">
        <ele>86.4</ele>
        <time>2018-09-16T08:51:35Z</time>
      </trkpt>
      <trkpt lat="43.67406" lon="3.84716">
        <ele>86.8</ele>
        <time>2018-09-16T08:51:36Z</time>
      </trkpt>
      <trkpt lat="43.67406" lon="3.8471">
        <ele>87</ele>
        <time>2018-09-16T08:51:37Z</time>
      </trkpt>
      <trkpt lat="43.67405" lon="3.84698">
        <ele>87.6</ele>
        <time>2018-09-16T08:51:40Z</time>
      </trkpt>
      <trkpt lat="43.67404" lon="3.84696">
        <ele>87.8</ele>
        <time>2018-09-16T08:51:41Z</time>
      </trkpt>
      <trkpt lat="43.67397" lon="3.84703">
        <ele>88.5</ele>
        <time>2018-09-16T08:51:51Z</time>
      </trkpt>
      <trkpt lat="43.67396" lon="3.84705">
        <ele>88.6</ele>
        <time>2018-09-16T08:51:52Z</time>
      </trkpt>
      <trkpt lat="43.67392" lon="3.84714">
        <ele>88.8</ele>
        <time>2018-09-16T08:51:57Z</time>
      </trkpt>
      <trkpt lat="43.6739" lon="3.84716">
        <ele>89.1</ele>
        <time>2018-09-16T08:51:58Z</time>
      </trkpt>
      <trkpt lat="43.67383" lon="3.84723">
        <ele>90.1</ele>
        <time>2018-09-16T08:52:04Z</time>
      </trkpt>
      <trkpt lat="43.67382" lon="3.84724">
        <ele>90.2</ele>
        <time>2018-09-16T08:52:05Z</time>
      </trkpt>
      <trkpt lat="43.67379" lon="3.84732">
        <ele>90.7</ele>
        <time>2018-09-16T08:52:09Z</time>
      </trkpt>
      <trkpt lat="43.67379" lon="3.84736">
        <ele>90.6</ele>
        <time>2018-09-16T08:52:10Z</time>
      </trkpt>
      <trkpt lat="43.67379" lon="3.84746">
        <ele>90.5</ele>
        <time>2018-09-16T08:52:12Z</time>
      </trkpt>
      <trkpt lat="43.67379" lon="3.84759">
        <ele>90.4</ele>
        <time>2018-09-16T08:52:13Z</time>
      </trkpt>
      <trkpt lat="43.67379" lon="3.8477">
        <ele>90.4</ele>
        <time>2018-09-16T08:52:15Z</time>
      </trkpt>
      <trkpt lat="43.67381" lon="3.84775">
        <ele>90.1</ele>
        <time>2018-09-16T08:52:16Z</time>
      </trkpt>
      <trkpt lat="43.67382" lon="3.84782">
        <ele>90</ele>
        <time>2018-09-16T08:52:17Z</time>
      </trkpt>
      <trkpt lat="43.67384" lon="3.84788">
        <ele>89.6</ele>
        <time>2018-09-16T08:52:18Z</time>
      </trkpt>
      <trkpt lat="43.67386" lon="3.84794">
        <ele>89.4</ele>
        <time>2018-09-16T08:52:19Z</time>
      </trkpt>
      <trkpt lat="43.67389" lon="3.84799">
        <ele>89</ele>
        <time>2018-09-16T08:52:20Z</time>
      </trkpt>
      <trkpt lat="43.67391" lon="3.84804">
        <ele>88.8</ele>
        <time>2018-09-16T08:52:21Z</time>
      </trkpt>
      <trkpt lat="43.67394" lon="3.84809">
        <ele>88.6</ele>
        <time>2018-09-16T08:52:22Z</time>
      </trkpt>
      <trkpt lat="43.67397" lon="3.84814">
        <ele>88.4</ele>
        <time>2018-09-16T08:52:23Z</time>
      </trkpt>
      <trkpt lat="43.67399" lon="3.8482">
        <ele>88.4</ele>
        <time>2018-09-16T08:52:24Z</time>
      </trkpt>
      <trkpt lat="43.67403" lon="3.84825">
        <ele>88.2</ele>
        <time>2018-09-16T08:52:25Z</time>
      </trkpt>
      <trkpt lat="43.67406" lon="3.8483">
        <ele>88</ele>
        <time>2018-09-16T08:52:26Z</time>
      </trkpt>
      <trkpt lat="43.67409" lon="3.84836">
        <ele>87.9</ele>
        <time>2018-09-16T08:52:27Z</time>
      </trkpt>
      <trkpt lat="43.67413" lon="3.84841">
        <ele>87.6</ele>
        <time>2018-09-16T08:52:28Z</time>
      </trkpt>
      <trkpt lat="43.67416" lon="3.84847">
        <ele>87.6</ele>
        <time>2018-09-16T08:52:29Z</time>
      </trkpt>
      <trkpt lat="43.67419" lon="3.84853">
        <ele>87.5</ele>
        <time>2018-09-16T08:52:30Z</time>
      </trkpt>
      <trkpt lat="43.67422" lon="3.84858">
        <ele>87.3</ele>
        <time>2018-09-16T08:52:31Z</time>
      </trkpt>
      <trkpt lat="43.67425" lon="3.84864">
        <ele>87.2</ele>
        <time>2018-09-16T08:52:32Z</time>
      </trkpt>
      <trkpt lat="43.67428" lon="3.84869">
        <ele>87.1</ele>
        <time>2018-09-16T08:52:33Z</time>
      </trkpt>
      <trkpt lat="43.67429" lon="3.84876">
        <ele>87.2</ele>
        <time>2018-09-16T08:52:34Z</time>
      </trkpt>
      <trkpt lat="43.67427" lon="3.84888">
        <ele>87.9</ele>
        <time>2018-09-16T08:52:36Z</time>
      </trkpt>
      <trkpt lat="43.67424" lon="3.84892">
        <ele>88.1</ele>
        <time>2018-09-16T08:52:37Z</time>
      </trkpt>
      <trkpt lat="43.67417" lon="3.84894">
        <ele>88.8</ele>
        <time>2018-09-16T08:52:39Z</time>
      </trkpt>
      <trkpt lat="43.67414" lon="3.84892">
        <ele>89.1</ele>
        <time>2018-09-16T08:52:40Z</time>
      </trkpt>
      <trkpt lat="43.67405" lon="3.84893">
        <ele>89.8</ele>
        <time>2018-09-16T08:52:43Z</time>
      </trkpt>
      <trkpt lat="43.67403" lon="3.84892">
        <ele>89.9</ele>
        <time>2018-09-16T08:52:44Z</time>
      </trkpt>
      <trkpt lat="43.67397" lon="3.84894">
        <ele>90.4</ele>
        <time>2018-09-16T08:52:46Z</time>
      </trkpt>
      <trkpt lat="43.67394" lon="3.84897">
        <ele>90.6</ele>
        <time>2018-09-16T08:52:47Z</time>
      </trkpt>
      <trkpt lat="43.67388" lon="3.84904">
        <ele>91</ele>
        <time>2018-09-16T08:52:49Z</time>
      </trkpt>
      <trkpt lat="43.67386" lon="3.84907">
        <ele>91.1</ele>
        <time>2018-09-16T08:52:50Z</time>
      </trkpt>
      <trkpt lat="43.67381" lon="3.84914">
        <ele>91.3</ele>
        <time>2018-09-16T08:52:52Z</time>
      </trkpt>
      <trkpt lat="43.6738" lon="3.84919">
        <ele>91.3</ele>
        <time>2018-09-16T08:52:53Z</time>
      </trkpt>
      <trkpt lat="43.67377" lon="3.84928">
        <ele>91.2</ele>
        <time>2018-09-16T08:52:55Z</time>
      </trkpt>
      <trkpt lat="43.67375" lon="3.84931">
        <ele>91.2</ele>
        <time>2018-09-16T08:52:56Z</time>
      </trkpt>
      <trkpt lat="43.67369" lon="3.84933">
        <ele>91.5</ele>
        <time>2018-09-16T08:52:58Z</time>
      </trkpt>
      <trkpt lat="43.67366" lon="3.84933">
        <ele>91.7</ele>
        <time>2018-09-16T08:52:59Z</time>
      </trkpt>
      <trkpt lat="43.67358" lon="3.84933">
        <ele>92.2</ele>
        <time>2018-09-16T08:53:02Z</time>
      </trkpt>
      <trkpt lat="43.67356" lon="3.84933">
        <ele>92.4</ele>
        <time>2018-09-16T08:53:03Z</time>
      </trkpt>
      <trkpt lat="43.67348" lon="3.84933">
        <ele>92.9</ele>
        <time>2018-09-16T08:53:06Z</time>
      </trkpt>
      <trkpt lat="43.67346" lon="3.84933">
        <ele>93.1</ele>
        <time>2018-09-16T08:53:07Z</time>
      </trkpt>
      <trkpt lat="43.67338" lon="3.84935">
        <ele>93.7</ele>
        <time>2018-09-16T08:53:11Z</time>
      </trkpt>
      <trkpt lat="43.67337" lon="3.84936">
        <ele>93.7</ele>
        <time>2018-09-16T08:53:12Z</time>
      </trkpt>
      <trkpt lat="43.67329" lon="3.84939">
        <ele>94.4</ele>
        <time>2018-09-16T08:53:16Z</time>
      </trkpt>
      <trkpt lat="43.67328" lon="3.8494">
        <ele>94.5</ele>
        <time>2018-09-16T08:53:17Z</time>
      </trkpt>
      <trkpt lat="43.6732" lon="3.84942">
        <ele>95.4</ele>
        <time>2018-09-16T08:53:21Z</time>
      </trkpt>
      <trkpt lat="43.67318" lon="3.84945">
        <ele>95.7</ele>
        <time>2018-09-16T08:53:22Z</time>
      </trkpt>
      <trkpt lat="43.67312" lon="3.8495">
        <ele>96.4</ele>
        <time>2018-09-16T08:53:25Z</time>
      </trkpt>
      <trkpt lat="43.6731" lon="3.84952">
        <ele>96.6</ele>
        <time>2018-09-16T08:53:26Z</time>
      </trkpt>
      <trkpt lat="43.67304" lon="3.8496">
        <ele>97.2</ele>
        <time>2018-09-16T08:53:30Z</time>
      </trkpt>
      <trkpt lat="43.67303" lon="3.84961">
        <ele>97.3</ele>
        <time>2018-09-16T08:53:31Z</time>
      </trkpt>
      <trkpt lat="43.67297" lon="3.84968">
        <ele>97.9</ele>
        <time>2018-09-16T08:53:35Z</time>
      </trkpt>
      <trkpt lat="43.67295" lon="3.8497">
        <ele>98.1</ele>
        <time>2018-09-16T08:53:36Z</time>
      </trkpt>
      <trkpt lat="43.67289" lon="3.84977">
        <ele>98.8</ele>
        <time>2018-09-16T08:53:39Z</time>
      </trkpt>
      <trkpt lat="43.67287" lon="3.84978">
        <ele>99</ele>
        <time>2018-09-16T08:53:40Z</time>
      </trkpt>
      <trkpt lat="43.67279" lon="3.84982">
        <ele>99.9</ele>
        <time>2018-09-16T08:53:44Z</time>
      </trkpt>
      <trkpt lat="43.67277" lon="3.84983">
        <ele>100.1</ele>
        <time>2018-09-16T08:53:45Z</time>
      </trkpt>
      <trkpt lat="43.6727" lon="3.84989">
        <ele>100.6</ele>
        <time>2018-09-16T08:53:49Z</time>
      </trkpt>
      <trkpt lat="43.67268" lon="3.8499">
        <ele>100.7</ele>
        <time>2018-09-16T08:53:50Z</time>
      </trkpt>
      <trkpt lat="43.67263" lon="3.84998">
        <ele>101.1</ele>
        <time>2018-09-16T08:53:54Z</time>
      </trkpt>
      <trkpt lat="43.67261" lon="3.85001">
        <ele>101.2</ele>
        <time>2018-09-16T08:53:55Z</time>
      </trkpt>
      <trkpt lat="43.67257" lon="3.85011">
        <ele>101.5</ele>
        <time>2018-09-16T08:53:58Z</time>
      </trkpt>
      <trkpt lat="43.67256" lon="3.85014">
        <ele>101.6</ele>
        <time>2018-09-16T08:53:59Z</time>
      </trkpt>
      <trkpt lat="43.67254" lon="3.85022">
        <ele>101.7</ele>
        <time>2018-09-16T08:54:01Z</time>
      </trkpt>
      <trkpt lat="43.67253" lon="3.85026">
        <ele>101.8</ele>
        <time>2018-09-16T08:54:02Z</time>
      </trkpt>
      <trkpt lat="43.6725" lon="3.85035">
        <ele>101.7</ele>
        <time>2018-09-16T08:54:04Z</time>
      </trkpt>
      <trkpt lat="43.67248" lon="3.85039">
        <ele>101.7</ele>
        <time>2018-09-16T08:54:05Z</time>
      </trkpt>
      <trkpt lat="43.67242" lon="3.85044">
        <ele>102</ele>
        <time>2018-09-16T08:54:07Z</time>
      </trkpt>
      <trkpt lat="43.6724" lon="3.85046">
        <ele>102.1</ele>
        <time>2018-09-16T08:54:08Z</time>
      </trkpt>
      <trkpt lat="43.67233" lon="3.85051">
        <ele>102.4</ele>
        <time>2018-09-16T08:54:11Z</time>
      </trkpt>
      <trkpt lat="43.6723" lon="3.85052">
        <ele>102.6</ele>
        <time>2018-09-16T08:54:12Z</time>
      </trkpt>
      <trkpt lat="43.67223" lon="3.85057">
        <ele>102.9</ele>
        <time>2018-09-16T08:54:15Z</time>
      </trkpt>
      <trkpt lat="43.67221" lon="3.85058">
        <ele>103.1</ele>
        <time>2018-09-16T08:54:16Z</time>
      </trkpt>
      <trkpt lat="43.67214" lon="3.85064">
        <ele>103.8</ele>
        <time>2018-09-16T08:54:19Z</time>
      </trkpt>
      <trkpt lat="43.67212" lon="3.85066">
        <ele>104</ele>
        <time>2018-09-16T08:54:20Z</time>
      </trkpt>
      <trkpt lat="43.67205" lon="3.85071">
        <ele>104.5</ele>
        <time>2018-09-16T08:54:24Z</time>
      </trkpt>
      <trkpt lat="43.67203" lon="3.85073">
        <ele>104.6</ele>
        <time>2018-09-16T08:54:25Z</time>
      </trkpt>
      <trkpt lat="43.67198" lon="3.85078">
        <ele>104.9</ele>
        <time>2018-09-16T08:54:28Z</time>
      </trkpt>
      <trkpt lat="43.67195" lon="3.8508">
        <ele>105.1</ele>
        <time>2018-09-16T08:54:29Z</time>
      </trkpt>
      <trkpt lat="43.6719" lon="3.85086">
        <ele>105.5</ele>
        <time>2018-09-16T08:54:32Z</time>
      </trkpt>
      <trkpt lat="43.67188" lon="3.85088">
        <ele>105.7</ele>
        <time>2018-09-16T08:54:33Z</time>
      </trkpt>
      <trkpt lat="43.67181" lon="3.85094">
        <ele>106.5</ele>
        <time>2018-09-16T08:54:37Z</time>
      </trkpt>
      <trkpt lat="43.67178" lon="3.85095">
        <ele>106.8</ele>
        <time>2018-09-16T08:54:38Z</time>
      </trkpt>
      <trkpt lat="43.67171" lon="3.85101">
        <ele>107.5</ele>
        <time>2018-09-16T08:54:42Z</time>
      </trkpt>
      <trkpt lat="43.67168" lon="3.85103">
        <ele>107.9</ele>
        <time>2018-09-16T08:54:43Z</time>
      </trkpt>
      <trkpt lat="43.67161" lon="3.85108">
        <ele>108.4</ele>
        <time>2018-09-16T08:54:46Z</time>
      </trkpt>
      <trkpt lat="43.67158" lon="3.8511">
        <ele>108.6</ele>
        <time>2018-09-16T08:54:47Z</time>
      </trkpt>
      <trkpt lat="43.67152" lon="3.85116">
        <ele>109</ele>
        <time>2018-09-16T08:54:50Z</time>
      </trkpt>
      <trkpt lat="43.6715" lon="3.85118">
        <ele>109.1</ele>
        <time>2018-09-16T08:54:51Z</time>
      </trkpt>
      <trkpt lat="43.67142" lon="3.85124">
        <ele>109.7</ele>
        <time>2018-09-16T08:54:55Z</time>
      </trkpt>
      <trkpt lat="43.6714" lon="3.85127">
        <ele>109.9</ele>
        <time>2018-09-16T08:54:56Z</time>
      </trkpt>
      <trkpt lat="43.67136" lon="3.85136">
        <ele>110.3</ele>
        <time>2018-09-16T08:54:59Z</time>
      </trkpt>
      <trkpt lat="43.67135" lon="3.85139">
        <ele>110.4</ele>
        <time>2018-09-16T08:55:00Z</time>
      </trkpt>
      <trkpt lat="43.67135" lon="3.85143">
        <ele>110.3</ele>
        <time>2018-09-16T08:55:01Z</time>
      </trkpt>
      <trkpt lat="43.67136" lon="3.85157">
        <ele>109.7</ele>
        <time>2018-09-16T08:55:02Z</time>
      </trkpt>
      <trkpt lat="43.67135" lon="3.85168">
        <ele>109.6</ele>
        <time>2018-09-16T08:55:04Z</time>
      </trkpt>
      <trkpt lat="43.67132" lon="3.85173">
        <ele>109.9</ele>
        <time>2018-09-16T08:55:05Z</time>
      </trkpt>
      <trkpt lat="43.67126" lon="3.85178">
        <ele>110.7</ele>
        <time>2018-09-16T08:55:09Z</time>
      </trkpt>
      <trkpt lat="43.67125" lon="3.8518">
        <ele>110.8</ele>
        <time>2018-09-16T08:55:10Z</time>
      </trkpt>
      <trkpt lat="43.67119" lon="3.85187">
        <ele>111.3</ele>
        <time>2018-09-16T08:55:13Z</time>
      </trkpt>
      <trkpt lat="43.67117" lon="3.8519">
        <ele>111.5</ele>
        <time>2018-09-16T08:55:14Z</time>
      </trkpt>
      <trkpt lat="43.67111" lon="3.85197">
        <ele>112</ele>
        <time>2018-09-16T08:55:17Z</time>
      </trkpt>
      <trkpt lat="43.67109" lon="3.852">
        <ele>112.3</ele>
        <time>2018-09-16T08:55:18Z</time>
      </trkpt>
      <trkpt lat="43.67104" lon="3.85208">
        <ele>113</ele>
        <time>2018-09-16T08:55:21Z</time>
      </trkpt>
      <trkpt lat="43.67102" lon="3.8521">
        <ele>113.3</ele>
        <time>2018-09-16T08:55:22Z</time>
      </trkpt>
      <trkpt lat="43.67096" lon="3.85218">
        <ele>114.2</ele>
        <time>2018-09-16T08:55:25Z</time>
      </trkpt>
      <trkpt lat="43.67095" lon="3.8522">
        <ele>114.3</ele>
        <time>2018-09-16T08:55:26Z</time>
      </trkpt>
      <trkpt lat="43.6709" lon="3.85228">
        <ele>114.8</ele>
        <time>2018-09-16T08:55:29Z</time>
      </trkpt>
      <trkpt lat="43.67088" lon="3.8523">
        <ele>115</ele>
        <time>2018-09-16T08:55:30Z</time>
      </trkpt>
      <trkpt lat="43.67082" lon="3.85235">
        <ele>115.6</ele>
        <time>2018-09-16T08:55:33Z</time>
      </trkpt>
      <trkpt lat="43.6708" lon="3.85237">
        <ele>115.7</ele>
        <time>2018-09-16T08:55:34Z</time>
      </trkpt>
      <trkpt lat="43.67075" lon="3.85244">
        <ele>115.8</ele>
        <time>2018-09-16T08:55:37Z</time>
      </trkpt>
      <trkpt lat="43.67073" lon="3.85246">
        <ele>115.9</ele>
        <time>2018-09-16T08:55:38Z</time>
      </trkpt>
      <trkpt lat="43.67067" lon="3.85253">
        <ele>116.1</ele>
        <time>2018-09-16T08:55:41Z</time>
      </trkpt>
      <trkpt lat="43.67064" lon="3.85253">
        <ele>116.3</ele>
        <time>2018-09-16T08:55:42Z</time>
      </trkpt>
      <trkpt lat="43.67057" lon="3.85254">
        <ele>116.8</ele>
        <time>2018-09-16T08:55:45Z</time>
      </trkpt>
      <trkpt lat="43.67054" lon="3.85255">
        <ele>116.9</ele>
        <time>2018-09-16T08:55:46Z</time>
      </trkpt>
      <trkpt lat="43.67047" lon="3.85259">
        <ele>117</ele>
        <time>2018-09-16T08:55:49Z</time>
      </trkpt>
      <trkpt lat="43.67045" lon="3.8526">
        <ele>117</ele>
        <time>2018-09-16T08:55:50Z</time>
      </trkpt>
      <trkpt lat="43.67037" lon="3.85265">
        <ele>117.1</ele>
        <time>2018-09-16T08:55:53Z</time>
      </trkpt>
      <trkpt lat="43.67035" lon="3.85266">
        <ele>117.2</ele>
        <time>2018-09-16T08:55:54Z</time>
      </trkpt>
      <trkpt lat="43.67027" lon="3.8527">
        <ele>117.3</ele>
        <time>2018-09-16T08:55:57Z</time>
      </trkpt>
      <trkpt lat="43.67024" lon="3.85271">
        <ele>117.2</ele>
        <time>2018-09-16T08:55:58Z</time>
      </trkpt>
      <trkpt lat="43.67021" lon="3.85274">
        <ele>117.1</ele>
        <time>2018-09-16T08:55:59Z</time>
      </trkpt>
      <trkpt lat="43.67015" lon="3.85284">
        <ele>116.7</ele>
        <time>2018-09-16T08:56:00Z</time>
      </trkpt>
      <trkpt lat="43.67015" lon="3.85291">
        <ele>116.3</ele>
        <time>2018-09-16T08:56:01Z</time>
      </trkpt>
      <trkpt lat="43.67017" lon="3.85298">
        <ele>116</ele>
        <time>2018-09-16T08:56:02Z</time>
      </trkpt>
      <trkpt lat="43.67019" lon="3.85306">
        <ele>115.6</ele>
        <time>2018-09-16T08:56:03Z</time>
      </trkpt>
      <trkpt lat="43.6702" lon="3.85314">
        <ele>115</ele>
        <time>2018-09-16T08:56:04Z</time>
      </trkpt>
      <trkpt lat="43.67022" lon="3.85323">
        <ele>114.4</ele>
        <time>2018-09-16T08:56:05Z</time>
      </trkpt>
      <trkpt lat="43.67023" lon="3.85328">
        <ele>114.1</ele>
        <time>2018-09-16T08:56:06Z</time>
      </trkpt>
      <trkpt lat="43.67023" lon="3.85341">
        <ele>112.6</ele>
        <time>2018-09-16T08:56:10Z</time>
      </trkpt>
      <trkpt lat="43.67021" lon="3.85344">
        <ele>112.2</ele>
        <time>2018-09-16T08:56:11Z</time>
      </trkpt>
      <trkpt lat="43.67016" lon="3.85348">
        <ele>111.5</ele>
        <time>2018-09-16T08:56:13Z</time>
      </trkpt>
      <trkpt lat="43.67008" lon="3.85353">
        <ele>110.8</ele>
        <time>2018-09-16T08:56:14Z</time>
      </trkpt>
      <trkpt lat="43.67002" lon="3.85361">
        <ele>110</ele>
        <time>2018-09-16T08:56:17Z</time>
      </trkpt>
      <trkpt lat="43.67" lon="3.85363">
        <ele>109.7</ele>
        <time>2018-09-16T08:56:18Z</time>
      </trkpt>
      <trkpt lat="43.66995" lon="3.85369">
        <ele>108.1</ele>
        <time>2018-09-16T08:56:22Z</time>
      </trkpt>
      <trkpt lat="43.66993" lon="3.85371">
        <ele>107.6</ele>
        <time>2018-09-16T08:56:23Z</time>
      </trkpt>
      <trkpt lat="43.66991" lon="3.85382">
        <ele>105.7</ele>
        <time>2018-09-16T08:56:27Z</time>
      </trkpt>
      <trkpt lat="43.66994" lon="3.85395">
        <ele>104.3</ele>
        <time>2018-09-16T08:56:28Z</time>
      </trkpt>
      <trkpt lat="43.66996" lon="3.854">
        <ele>103.9</ele>
        <time>2018-09-16T08:56:29Z</time>
      </trkpt>
      <trkpt lat="43.66998" lon="3.85406">
        <ele>103.3</ele>
        <time>2018-09-16T08:56:30Z</time>
      </trkpt>
      <trkpt lat="43.67003" lon="3.85413">
        <ele>102.3</ele>
        <time>2018-09-16T08:56:32Z</time>
      </trkpt>
      <trkpt lat="43.67008" lon="3.85417">
        <ele>101.4</ele>
        <time>2018-09-16T08:56:33Z</time>
      </trkpt>
      <trkpt lat="43.67013" lon="3.85415">
        <ele>101.3</ele>
        <time>2018-09-16T08:56:34Z</time>
      </trkpt>
      <trkpt lat="43.67019" lon="3.85408">
        <ele>102.1</ele>
        <time>2018-09-16T08:56:35Z</time>
      </trkpt>
      <trkpt lat="43.67025" lon="3.85404">
        <ele>102.4</ele>
        <time>2018-09-16T08:56:36Z</time>
      </trkpt>
      <trkpt lat="43.67031" lon="3.85401">
        <ele>102.6</ele>
        <time>2018-09-16T08:56:37Z</time>
      </trkpt>
      <trkpt lat="43.67036" lon="3.854">
        <ele>102.4</ele>
        <time>2018-09-16T08:56:38Z</time>
      </trkpt>
      <trkpt lat="43.6704" lon="3.85398">
        <ele>102.5</ele>
        <time>2018-09-16T08:56:39Z</time>
      </trkpt>
      <trkpt lat="43.67045" lon="3.85397">
        <ele>102.3</ele>
        <time>2018-09-16T08:56:40Z</time>
      </trkpt>
      <trkpt lat="43.6705" lon="3.85397">
        <ele>101.9</ele>
        <time>2018-09-16T08:56:41Z</time>
      </trkpt>
      <trkpt lat="43.67056" lon="3.85398">
        <ele>101.3</ele>
        <time>2018-09-16T08:56:42Z</time>
      </trkpt>
      <trkpt lat="43.67059" lon="3.85402">
        <ele>100.5</ele>
        <time>2018-09-16T08:56:43Z</time>
      </trkpt>
      <trkpt lat="43.67063" lon="3.8541">
        <ele>98.7</ele>
        <time>2018-09-16T08:56:44Z</time>
      </trkpt>
      <trkpt lat="43.67058" lon="3.85415">
        <ele>98.1</ele>
        <time>2018-09-16T08:56:45Z</time>
      </trkpt>
      <trkpt lat="43.67054" lon="3.85421">
        <ele>97.5</ele>
        <time>2018-09-16T08:56:46Z</time>
      </trkpt>
      <trkpt lat="43.6705" lon="3.85427">
        <ele>97</ele>
        <time>2018-09-16T08:56:47Z</time>
      </trkpt>
      <trkpt lat="43.67045" lon="3.85431">
        <ele>96.9</ele>
        <time>2018-09-16T08:56:48Z</time>
      </trkpt>
      <trkpt lat="43.6704" lon="3.85435">
        <ele>96.8</ele>
        <time>2018-09-16T08:56:49Z</time>
      </trkpt>
      <trkpt lat="43.67035" lon="3.85439">
        <ele>96.9</ele>
        <time>2018-09-16T08:56:50Z</time>
      </trkpt>
      <trkpt lat="43.67031" lon="3.85442">
        <ele>96.9</ele>
        <time>2018-09-16T08:56:51Z</time>
      </trkpt>
      <trkpt lat="43.67025" lon="3.85446">
        <ele>96.9</ele>
        <time>2018-09-16T08:56:52Z</time>
      </trkpt>
      <trkpt lat="43.67021" lon="3.85451">
        <ele>96.3</ele>
        <time>2018-09-16T08:56:53Z</time>
      </trkpt>
      <trkpt lat="43.67016" lon="3.85454">
        <ele>96</ele>
        <time>2018-09-16T08:56:54Z</time>
      </trkpt>
      <trkpt lat="43.67011" lon="3.85458">
        <ele>95.7</ele>
        <time>2018-09-16T08:56:55Z</time>
      </trkpt>
      <trkpt lat="43.67005" lon="3.85461">
        <ele>95.4</ele>
        <time>2018-09-16T08:56:56Z</time>
      </trkpt>
      <trkpt lat="43.66998" lon="3.85465">
        <ele>94.9</ele>
        <time>2018-09-16T08:56:57Z</time>
      </trkpt>
      <trkpt lat="43.66992" lon="3.85467">
        <ele>94.4</ele>
        <time>2018-09-16T08:56:58Z</time>
      </trkpt>
      <trkpt lat="43.66987" lon="3.85469">
        <ele>93.9</ele>
        <time>2018-09-16T08:56:59Z</time>
      </trkpt>
      <trkpt lat="43.66985" lon="3.85473">
        <ele>93.4</ele>
        <time>2018-09-16T08:57:01Z</time>
      </trkpt>
      <trkpt lat="43.66983" lon="3.85481">
        <ele>92.8</ele>
        <time>2018-09-16T08:57:02Z</time>
      </trkpt>
      <trkpt lat="43.6699" lon="3.85487">
        <ele>92.6</ele>
        <time>2018-09-16T08:57:04Z</time>
      </trkpt>
      <trkpt lat="43.66993" lon="3.85489">
        <ele>92.5</ele>
        <time>2018-09-16T08:57:05Z</time>
      </trkpt>
      <trkpt lat="43.66998" lon="3.85493">
        <ele>92.4</ele>
        <time>2018-09-16T08:57:07Z</time>
      </trkpt>
      <trkpt lat="43.67004" lon="3.85494">
        <ele>92.3</ele>
        <time>2018-09-16T08:57:08Z</time>
      </trkpt>
      <trkpt lat="43.67011" lon="3.85494">
        <ele>92</ele>
        <time>2018-09-16T08:57:10Z</time>
      </trkpt>
      <trkpt lat="43.67016" lon="3.85492">
        <ele>92</ele>
        <time>2018-09-16T08:57:11Z</time>
      </trkpt>
      <trkpt lat="43.67022" lon="3.8549">
        <ele>91.9</ele>
        <time>2018-09-16T08:57:12Z</time>
      </trkpt>
      <trkpt lat="43.67026" lon="3.85486">
        <ele>92.1</ele>
        <time>2018-09-16T08:57:13Z</time>
      </trkpt>
      <trkpt lat="43.6703" lon="3.85483">
        <ele>92</ele>
        <time>2018-09-16T08:57:14Z</time>
      </trkpt>
      <trkpt lat="43.67035" lon="3.85481">
        <ele>91.5</ele>
        <time>2018-09-16T08:57:15Z</time>
      </trkpt>
      <trkpt lat="43.67044" lon="3.8548">
        <ele>90.5</ele>
        <time>2018-09-16T08:59:15Z</time>
      </trkpt>
      <trkpt lat="43.67048" lon="3.8548">
        <ele>90.1</ele>
        <time>2018-09-16T08:59:16Z</time>
      </trkpt>
      <trkpt lat="43.67059" lon="3.85476">
        <ele>89.1</ele>
        <time>2018-09-16T08:59:17Z</time>
      </trkpt>
      <trkpt lat="43.67066" lon="3.85469">
        <ele>89</ele>
        <time>2018-09-16T08:59:19Z</time>
      </trkpt>
      <trkpt lat="43.67071" lon="3.85467">
        <ele>88.5</ele>
        <time>2018-09-16T08:59:20Z</time>
      </trkpt>
      <trkpt lat="43.67075" lon="3.85464">
        <ele>88.4</ele>
        <time>2018-09-16T08:59:21Z</time>
      </trkpt>
      <trkpt lat="43.67081" lon="3.8546">
        <ele>88.1</ele>
        <time>2018-09-16T08:59:22Z</time>
      </trkpt>
      <trkpt lat="43.67086" lon="3.85458">
        <ele>87.9</ele>
        <time>2018-09-16T08:59:23Z</time>
      </trkpt>
      <trkpt lat="43.67091" lon="3.85455">
        <ele>87.9</ele>
        <time>2018-09-16T08:59:24Z</time>
      </trkpt>
      <trkpt lat="43.67095" lon="3.85453">
        <ele>87.9</ele>
        <time>2018-09-16T08:59:25Z</time>
      </trkpt>
      <trkpt lat="43.671" lon="3.85451">
        <ele>87.9</ele>
        <time>2018-09-16T08:59:26Z</time>
      </trkpt>
      <trkpt lat="43.67105" lon="3.85448">
        <ele>87.9</ele>
        <time>2018-09-16T08:59:27Z</time>
      </trkpt>
      <trkpt lat="43.67109" lon="3.85445">
        <ele>88.1</ele>
        <time>2018-09-16T08:59:28Z</time>
      </trkpt>
      <trkpt lat="43.67114" lon="3.85443">
        <ele>88.1</ele>
        <time>2018-09-16T08:59:29Z</time>
      </trkpt>
      <trkpt lat="43.6712" lon="3.85443">
        <ele>87.6</ele>
        <time>2018-09-16T08:59:30Z</time>
      </trkpt>
      <trkpt lat="43.67128" lon="3.85436">
        <ele>88.3</ele>
        <time>2018-09-16T08:59:32Z</time>
      </trkpt>
      <trkpt lat="43.67131" lon="3.85434">
        <ele>88.4</ele>
        <time>2018-09-16T08:59:33Z</time>
      </trkpt>
      <trkpt lat="43.67137" lon="3.85427">
        <ele>89.3</ele>
        <time>2018-09-16T08:59:35Z</time>
      </trkpt>
      <trkpt lat="43.6714" lon="3.85424">
        <ele>89.6</ele>
        <time>2018-09-16T08:59:36Z</time>
      </trkpt>
      <trkpt lat="43.67146" lon="3.85418">
        <ele>90.3</ele>
        <time>2018-09-16T08:59:38Z</time>
      </trkpt>
      <trkpt lat="43.67148" lon="3.85417">
        <ele>90.3</ele>
        <time>2018-09-16T08:59:39Z</time>
      </trkpt>
      <trkpt lat="43.67155" lon="3.85424">
        <ele>88.7</ele>
        <time>2018-09-16T08:59:47Z</time>
      </trkpt>
      <trkpt lat="43.67156" lon="3.85425">
        <ele>88.5</ele>
        <time>2018-09-16T08:59:48Z</time>
      </trkpt>
      <trkpt lat="43.67161" lon="3.85434">
        <ele>86.8</ele>
        <time>2018-09-16T08:59:54Z</time>
      </trkpt>
      <trkpt lat="43.67162" lon="3.85436">
        <ele>86.4</ele>
        <time>2018-09-16T08:59:55Z</time>
      </trkpt>
      <trkpt lat="43.67163" lon="3.85447">
        <ele>84.9</ele>
        <time>2018-09-16T09:00:00Z</time>
      </trkpt>
      <trkpt lat="43.67164" lon="3.85449">
        <ele>84.6</ele>
        <time>2018-09-16T09:00:01Z</time>
      </trkpt>
      <trkpt lat="43.67165" lon="3.85459">
        <ele>83.5</ele>
        <time>2018-09-16T09:00:06Z</time>
      </trkpt>
      <trkpt lat="43.67165" lon="3.85462">
        <ele>83.2</ele>
        <time>2018-09-16T09:00:07Z</time>
      </trkpt>
      <trkpt lat="43.67166" lon="3.85473">
        <ele>81.9</ele>
        <time>2018-09-16T09:00:10Z</time>
      </trkpt>
      <trkpt lat="43.67165" lon="3.85478">
        <ele>81.4</ele>
        <time>2018-09-16T09:00:11Z</time>
      </trkpt>
      <trkpt lat="43.67163" lon="3.85494">
        <ele>79.8</ele>
        <time>2018-09-16T09:00:12Z</time>
      </trkpt>
      <trkpt lat="43.67162" lon="3.85502">
        <ele>79</ele>
        <time>2018-09-16T09:00:13Z</time>
      </trkpt>
      <trkpt lat="43.6716" lon="3.85509">
        <ele>78.7</ele>
        <time>2018-09-16T09:00:14Z</time>
      </trkpt>
      <trkpt lat="43.67156" lon="3.85514">
        <ele>78.6</ele>
        <time>2018-09-16T09:00:15Z</time>
      </trkpt>
      <trkpt lat="43.67153" lon="3.8552">
        <ele>78.4</ele>
        <time>2018-09-16T09:00:16Z</time>
      </trkpt>
      <trkpt lat="43.67149" lon="3.85527">
        <ele>78.3</ele>
        <time>2018-09-16T09:00:17Z</time>
      </trkpt>
      <trkpt lat="43.67146" lon="3.85533">
        <ele>78.2</ele>
        <time>2018-09-16T09:00:18Z</time>
      </trkpt>
      <trkpt lat="43.67143" lon="3.85539">
        <ele>78</ele>
        <time>2018-09-16T09:00:19Z</time>
      </trkpt>
      <trkpt lat="43.67139" lon="3.85546">
        <ele>77.7</ele>
        <time>2018-09-16T09:00:20Z</time>
      </trkpt>
      <trkpt lat="43.67135" lon="3.85553">
        <ele>77.3</ele>
        <time>2018-09-16T09:00:21Z</time>
      </trkpt>
      <trkpt lat="43.67131" lon="3.8556">
        <ele>77.2</ele>
        <time>2018-09-16T09:00:22Z</time>
      </trkpt>
      <trkpt lat="43.67128" lon="3.85567">
        <ele>77.1</ele>
        <time>2018-09-16T09:00:23Z</time>
      </trkpt>
      <trkpt lat="43.67127" lon="3.85575">
        <ele>77</ele>
        <time>2018-09-16T09:00:24Z</time>
      </trkpt>
      <trkpt lat="43.67123" lon="3.85584">
        <ele>77.2</ele>
        <time>2018-09-16T09:00:25Z</time>
      </trkpt>
      <trkpt lat="43.67125" lon="3.85594">
        <ele>77.4</ele>
        <time>2018-09-16T09:00:26Z</time>
      </trkpt>
      <trkpt lat="43.67126" lon="3.85602">
        <ele>77.6</ele>
        <time>2018-09-16T09:00:27Z</time>
      </trkpt>
      <trkpt lat="43.67126" lon="3.85609">
        <ele>77.9</ele>
        <time>2018-09-16T09:00:28Z</time>
      </trkpt>
      <trkpt lat="43.67128" lon="3.85615">
        <ele>77.9</ele>
        <time>2018-09-16T09:00:29Z</time>
      </trkpt>
      <trkpt lat="43.67129" lon="3.85621">
        <ele>78.1</ele>
        <time>2018-09-16T09:00:30Z</time>
      </trkpt>
      <trkpt lat="43.67132" lon="3.85628">
        <ele>78.1</ele>
        <time>2018-09-16T09:00:31Z</time>
      </trkpt>
      <trkpt lat="43.67134" lon="3.85634">
        <ele>78.2</ele>
        <time>2018-09-16T09:00:32Z</time>
      </trkpt>
      <trkpt lat="43.67137" lon="3.8564">
        <ele>78.2</ele>
        <time>2018-09-16T09:00:33Z</time>
      </trkpt>
      <trkpt lat="43.67138" lon="3.85646">
        <ele>78.3</ele>
        <time>2018-09-16T09:00:34Z</time>
      </trkpt>
      <trkpt lat="43.67141" lon="3.85652">
        <ele>78.3</ele>
        <time>2018-09-16T09:00:35Z</time>
      </trkpt>
      <trkpt lat="43.67142" lon="3.85657">
        <ele>78.4</ele>
        <time>2018-09-16T09:00:36Z</time>
      </trkpt>
      <trkpt lat="43.67146" lon="3.85665">
        <ele>78.4</ele>
        <time>2018-09-16T09:00:39Z</time>
      </trkpt>
      <trkpt lat="43.67146" lon="3.85668">
        <ele>78.5</ele>
        <time>2018-09-16T09:00:40Z</time>
      </trkpt>
      <trkpt lat="43.67138" lon="3.8567">
        <ele>79.2</ele>
        <time>2018-09-16T09:00:44Z</time>
      </trkpt>
      <trkpt lat="43.67135" lon="3.85669">
        <ele>79.4</ele>
        <time>2018-09-16T09:00:45Z</time>
      </trkpt>
      <trkpt lat="43.67127" lon="3.85667">
        <ele>79.9</ele>
        <time>2018-09-16T09:00:47Z</time>
      </trkpt>
      <trkpt lat="43.67123" lon="3.85667">
        <ele>80.2</ele>
        <time>2018-09-16T09:00:48Z</time>
      </trkpt>
      <trkpt lat="43.67116" lon="3.85667">
        <ele>80.7</ele>
        <time>2018-09-16T09:00:50Z</time>
      </trkpt>
      <trkpt lat="43.67112" lon="3.85667">
        <ele>80.9</ele>
        <time>2018-09-16T09:00:51Z</time>
      </trkpt>
      <trkpt lat="43.67105" lon="3.85669">
        <ele>81.3</ele>
        <time>2018-09-16T09:00:53Z</time>
      </trkpt>
      <trkpt lat="43.67102" lon="3.85671">
        <ele>81.5</ele>
        <time>2018-09-16T09:00:54Z</time>
      </trkpt>
      <trkpt lat="43.67095" lon="3.85673">
        <ele>81.8</ele>
        <time>2018-09-16T09:00:56Z</time>
      </trkpt>
      <trkpt lat="43.67092" lon="3.85674">
        <ele>82</ele>
        <time>2018-09-16T09:00:57Z</time>
      </trkpt>
      <trkpt lat="43.67086" lon="3.85675">
        <ele>82.2</ele>
        <time>2018-09-16T09:00:59Z</time>
      </trkpt>
      <trkpt lat="43.67082" lon="3.85675">
        <ele>82.3</ele>
        <time>2018-09-16T09:01:00Z</time>
      </trkpt>
      <trkpt lat="43.67074" lon="3.85677">
        <ele>82.6</ele>
        <time>2018-09-16T09:01:01Z</time>
      </trkpt>
      <trkpt lat="43.6707" lon="3.85677">
        <ele>82.7</ele>
        <time>2018-09-16T09:01:02Z</time>
      </trkpt>
      <trkpt lat="43.67061" lon="3.85679">
        <ele>82.9</ele>
        <time>2018-09-16T09:01:04Z</time>
      </trkpt>
      <trkpt lat="43.67057" lon="3.85681">
        <ele>83</ele>
        <time>2018-09-16T09:01:05Z</time>
      </trkpt>
      <trkpt lat="43.67052" lon="3.85685">
        <ele>82.9</ele>
        <time>2018-09-16T09:01:06Z</time>
      </trkpt>
      <trkpt lat="43.67047" lon="3.85687">
        <ele>82.7</ele>
        <time>2018-09-16T09:01:07Z</time>
      </trkpt>
      <trkpt lat="43.67042" lon="3.85688">
        <ele>82.5</ele>
        <time>2018-09-16T09:01:08Z</time>
      </trkpt>
      <trkpt lat="43.67038" lon="3.85689">
        <ele>82.4</ele>
        <time>2018-09-16T09:01:09Z</time>
      </trkpt>
      <trkpt lat="43.67032" lon="3.85691">
        <ele>82.2</ele>
        <time>2018-09-16T09:01:10Z</time>
      </trkpt>
      <trkpt lat="43.67027" lon="3.85692">
        <ele>82</ele>
        <time>2018-09-16T09:01:11Z</time>
      </trkpt>
      <trkpt lat="43.67022" lon="3.85693">
        <ele>81.8</ele>
        <time>2018-09-16T09:01:12Z</time>
      </trkpt>
      <trkpt lat="43.67017" lon="3.85693">
        <ele>81.6</ele>
        <time>2018-09-16T09:01:13Z</time>
      </trkpt>
      <trkpt lat="43.67011" lon="3.85692">
        <ele>81.4</ele>
        <time>2018-09-16T09:01:14Z</time>
      </trkpt>
      <trkpt lat="43.67007" lon="3.8569">
        <ele>81.4</ele>
        <time>2018-09-16T09:01:15Z</time>
      </trkpt>
      <trkpt lat="43.67002" lon="3.85688">
        <ele>81.3</ele>
        <time>2018-09-16T09:01:16Z</time>
      </trkpt>
      <trkpt lat="43.66997" lon="3.85686">
        <ele>81.2</ele>
        <time>2018-09-16T09:01:17Z</time>
      </trkpt>
      <trkpt lat="43.66991" lon="3.85684">
        <ele>81.2</ele>
        <time>2018-09-16T09:01:18Z</time>
      </trkpt>
      <trkpt lat="43.66985" lon="3.85682">
        <ele>81.1</ele>
        <time>2018-09-16T09:01:19Z</time>
      </trkpt>
      <trkpt lat="43.66979" lon="3.85682">
        <ele>81</ele>
        <time>2018-09-16T09:01:20Z</time>
      </trkpt>
      <trkpt lat="43.66973" lon="3.85682">
        <ele>80.9</ele>
        <time>2018-09-16T09:01:21Z</time>
      </trkpt>
      <trkpt lat="43.66967" lon="3.85682">
        <ele>80.7</ele>
        <time>2018-09-16T09:01:22Z</time>
      </trkpt>
      <trkpt lat="43.66961" lon="3.85682">
        <ele>80.5</ele>
        <time>2018-09-16T09:01:23Z</time>
      </trkpt>
      <trkpt lat="43.66956" lon="3.85682">
        <ele>80.3</ele>
        <time>2018-09-16T09:01:24Z</time>
      </trkpt>
      <trkpt lat="43.6695" lon="3.85683">
        <ele>80</ele>
        <time>2018-09-16T09:01:25Z</time>
      </trkpt>
      <trkpt lat="43.66945" lon="3.85684">
        <ele>79.8</ele>
        <time>2018-09-16T09:01:26Z</time>
      </trkpt>
      <trkpt lat="43.66939" lon="3.85685">
        <ele>79.5</ele>
        <time>2018-09-16T09:01:27Z</time>
      </trkpt>
      <trkpt lat="43.66934" lon="3.85685">
        <ele>79.3</ele>
        <time>2018-09-16T09:01:28Z</time>
      </trkpt>
      <trkpt lat="43.66929" lon="3.85686">
        <ele>79.1</ele>
        <time>2018-09-16T09:01:29Z</time>
      </trkpt>
      <trkpt lat="43.66923" lon="3.8569">
        <ele>78.5</ele>
        <time>2018-09-16T09:01:30Z</time>
      </trkpt>
      <trkpt lat="43.66918" lon="3.85692">
        <ele>78.2</ele>
        <time>2018-09-16T09:01:31Z</time>
      </trkpt>
      <trkpt lat="43.66923" lon="3.85685">
        <ele>78.9</ele>
        <time>2018-09-16T09:01:41Z</time>
      </trkpt>
      <trkpt lat="43.66924" lon="3.85681">
        <ele>79.2</ele>
        <time>2018-09-16T09:01:42Z</time>
      </trkpt>
      <trkpt lat="43.66925" lon="3.85673">
        <ele>79.8</ele>
        <time>2018-09-16T09:01:44Z</time>
      </trkpt>
      <trkpt lat="43.66926" lon="3.85669">
        <ele>80.2</ele>
        <time>2018-09-16T09:01:45Z</time>
      </trkpt>
      <trkpt lat="43.66929" lon="3.85659">
        <ele>81</ele>
        <time>2018-09-16T09:01:48Z</time>
      </trkpt>
      <trkpt lat="43.6693" lon="3.85656">
        <ele>81.2</ele>
        <time>2018-09-16T09:01:49Z</time>
      </trkpt>
      <trkpt lat="43.66934" lon="3.85647">
        <ele>82</ele>
        <time>2018-09-16T09:01:52Z</time>
      </trkpt>
      <trkpt lat="43.66934" lon="3.85644">
        <ele>82.3</ele>
        <time>2018-09-16T09:01:53Z</time>
      </trkpt>
      <trkpt lat="43.66937" lon="3.85634">
        <ele>83.1</ele>
        <time>2018-09-16T09:01:57Z</time>
      </trkpt>
      <trkpt lat="43.66937" lon="3.85632">
        <ele>83.2</ele>
        <time>2018-09-16T09:01:58Z</time>
      </trkpt>
      <trkpt lat="43.66936" lon="3.8562">
        <ele>84.1</ele>
        <time>2018-09-16T09:02:03Z</time>
      </trkpt>
      <trkpt lat="43.66935" lon="3.85617">
        <ele>84.2</ele>
        <time>2018-09-16T09:02:04Z</time>
      </trkpt>
      <trkpt lat="43.66931" lon="3.85606">
        <ele>84.7</ele>
        <time>2018-09-16T09:02:08Z</time>
      </trkpt>
      <trkpt lat="43.66931" lon="3.85602">
        <ele>84.8</ele>
        <time>2018-09-16T09:02:09Z</time>
      </trkpt>
      <trkpt lat="43.66932" lon="3.8559">
        <ele>85.3</ele>
        <time>2018-09-16T09:02:13Z</time>
      </trkpt>
      <trkpt lat="43.66933" lon="3.85587">
        <ele>85.5</ele>
        <time>2018-09-16T09:02:14Z</time>
      </trkpt>
      <trkpt lat="43.66932" lon="3.85576">
        <ele>86</ele>
        <time>2018-09-16T09:02:17Z</time>
      </trkpt>
      <trkpt lat="43.66931" lon="3.85572">
        <ele>86.1</ele>
        <time>2018-09-16T09:02:18Z</time>
      </trkpt>
      <trkpt lat="43.66931" lon="3.8556">
        <ele>86.8</ele>
        <time>2018-09-16T09:02:22Z</time>
      </trkpt>
      <trkpt lat="43.6693" lon="3.85557">
        <ele>86.9</ele>
        <time>2018-09-16T09:02:23Z</time>
      </trkpt>
      <trkpt lat="43.66928" lon="3.85546">
        <ele>87.2</ele>
        <time>2018-09-16T09:02:26Z</time>
      </trkpt>
      <trkpt lat="43.66928" lon="3.85541">
        <ele>87.3</ele>
        <time>2018-09-16T09:02:27Z</time>
      </trkpt>
      <trkpt lat="43.66927" lon="3.85537">
        <ele>87.4</ele>
        <time>2018-09-16T09:02:28Z</time>
      </trkpt>
      <trkpt lat="43.66927" lon="3.85521">
        <ele>87.8</ele>
        <time>2018-09-16T09:02:29Z</time>
      </trkpt>
      <trkpt lat="43.66928" lon="3.85516">
        <ele>88</ele>
        <time>2018-09-16T09:02:31Z</time>
      </trkpt>
      <trkpt lat="43.66928" lon="3.85505">
        <ele>88.2</ele>
        <time>2018-09-16T09:02:32Z</time>
      </trkpt>
      <trkpt lat="43.66927" lon="3.85494">
        <ele>88.1</ele>
        <time>2018-09-16T09:02:35Z</time>
      </trkpt>
      <trkpt lat="43.66927" lon="3.85493">
        <ele>88.1</ele>
        <time>2018-09-16T09:02:36Z</time>
      </trkpt>
      <trkpt lat="43.66923" lon="3.85492">
        <ele>87.7</ele>
        <time>2018-09-16T09:02:38Z</time>
      </trkpt>
      <trkpt lat="43.66915" lon="3.85493">
        <ele>86.8</ele>
        <time>2018-09-16T09:02:39Z</time>
      </trkpt>
      <trkpt lat="43.66911" lon="3.85496">
        <ele>86.2</ele>
        <time>2018-09-16T09:02:40Z</time>
      </trkpt>
      <trkpt lat="43.66907" lon="3.85498">
        <ele>85.6</ele>
        <time>2018-09-16T09:02:41Z</time>
      </trkpt>
      <trkpt lat="43.66901" lon="3.855">
        <ele>84.7</ele>
        <time>2018-09-16T09:02:42Z</time>
      </trkpt>
      <trkpt lat="43.66895" lon="3.85505">
        <ele>83.9</ele>
        <time>2018-09-16T09:02:43Z</time>
      </trkpt>
      <trkpt lat="43.66889" lon="3.85508">
        <ele>83</ele>
        <time>2018-09-16T09:02:44Z</time>
      </trkpt>
      <trkpt lat="43.66883" lon="3.85511">
        <ele>82.6</ele>
        <time>2018-09-16T09:02:45Z</time>
      </trkpt>
      <trkpt lat="43.66877" lon="3.85515">
        <ele>82.1</ele>
        <time>2018-09-16T09:02:46Z</time>
      </trkpt>
      <trkpt lat="43.6687" lon="3.8552">
        <ele>81.6</ele>
        <time>2018-09-16T09:02:47Z</time>
      </trkpt>
      <trkpt lat="43.66862" lon="3.85526">
        <ele>81.1</ele>
        <time>2018-09-16T09:02:48Z</time>
      </trkpt>
      <trkpt lat="43.66855" lon="3.85531">
        <ele>80.5</ele>
        <time>2018-09-16T09:02:49Z</time>
      </trkpt>
      <trkpt lat="43.66848" lon="3.85534">
        <ele>79.9</ele>
        <time>2018-09-16T09:02:50Z</time>
      </trkpt>
      <trkpt lat="43.6684" lon="3.85539">
        <ele>79.4</ele>
        <time>2018-09-16T09:02:51Z</time>
      </trkpt>
      <trkpt lat="43.66834" lon="3.85544">
        <ele>79</ele>
        <time>2018-09-16T09:02:52Z</time>
      </trkpt>
      <trkpt lat="43.66826" lon="3.85548">
        <ele>78.7</ele>
        <time>2018-09-16T09:02:53Z</time>
      </trkpt>
      <trkpt lat="43.66817" lon="3.85554">
        <ele>78.4</ele>
        <time>2018-09-16T09:02:54Z</time>
      </trkpt>
      <trkpt lat="43.66812" lon="3.85554">
        <ele>78.2</ele>
        <time>2018-09-16T09:02:55Z</time>
      </trkpt>
      <trkpt lat="43.66805" lon="3.85559">
        <ele>77.9</ele>
        <time>2018-09-16T09:02:56Z</time>
      </trkpt>
      <trkpt lat="43.66798" lon="3.85566">
        <ele>77.4</ele>
        <time>2018-09-16T09:02:57Z</time>
      </trkpt>
      <trkpt lat="43.66792" lon="3.85574">
        <ele>76.8</ele>
        <time>2018-09-16T09:02:58Z</time>
      </trkpt>
      <trkpt lat="43.66785" lon="3.85582">
        <ele>76.3</ele>
        <time>2018-09-16T09:02:59Z</time>
      </trkpt>
      <trkpt lat="43.66781" lon="3.85591">
        <ele>75.8</ele>
        <time>2018-09-16T09:03:00Z</time>
      </trkpt>
      <trkpt lat="43.66777" lon="3.856">
        <ele>75.4</ele>
        <time>2018-09-16T09:03:01Z</time>
      </trkpt>
      <trkpt lat="43.66773" lon="3.85609">
        <ele>74.9</ele>
        <time>2018-09-16T09:03:02Z</time>
      </trkpt>
      <trkpt lat="43.66769" lon="3.85619">
        <ele>74.7</ele>
        <time>2018-09-16T09:03:03Z</time>
      </trkpt>
      <trkpt lat="43.66766" lon="3.85628">
        <ele>74.6</ele>
        <time>2018-09-16T09:03:04Z</time>
      </trkpt>
      <trkpt lat="43.66763" lon="3.85636">
        <ele>74.5</ele>
        <time>2018-09-16T09:03:05Z</time>
      </trkpt>
      <trkpt lat="43.6676" lon="3.85644">
        <ele>74.4</ele>
        <time>2018-09-16T09:03:06Z</time>
      </trkpt>
      <trkpt lat="43.66757" lon="3.85653">
        <ele>74.5</ele>
        <time>2018-09-16T09:03:07Z</time>
      </trkpt>
      <trkpt lat="43.66754" lon="3.85661">
        <ele>74.7</ele>
        <time>2018-09-16T09:03:08Z</time>
      </trkpt>
      <trkpt lat="43.66752" lon="3.85667">
        <ele>74.9</ele>
        <time>2018-09-16T09:03:09Z</time>
      </trkpt>
      <trkpt lat="43.6675" lon="3.85676">
        <ele>75</ele>
        <time>2018-09-16T09:03:10Z</time>
      </trkpt>
      <trkpt lat="43.66747" lon="3.85683">
        <ele>75.1</ele>
        <time>2018-09-16T09:03:11Z</time>
      </trkpt>
      <trkpt lat="43.66743" lon="3.85689">
        <ele>75.2</ele>
        <time>2018-09-16T09:03:12Z</time>
      </trkpt>
      <trkpt lat="43.66741" lon="3.85697">
        <ele>75.3</ele>
        <time>2018-09-16T09:03:13Z</time>
      </trkpt>
      <trkpt lat="43.66739" lon="3.85703">
        <ele>75.4</ele>
        <time>2018-09-16T09:03:14Z</time>
      </trkpt>
      <trkpt lat="43.66736" lon="3.85709">
        <ele>75.5</ele>
        <time>2018-09-16T09:03:15Z</time>
      </trkpt>
      <trkpt lat="43.66733" lon="3.8572">
        <ele>75.6</ele>
        <time>2018-09-16T09:03:17Z</time>
      </trkpt>
      <trkpt lat="43.66732" lon="3.85722">
        <ele>75.6</ele>
        <time>2018-09-16T09:03:18Z</time>
      </trkpt>
      <trkpt lat="43.66736" lon="3.85731">
        <ele>75.5</ele>
        <time>2018-09-16T09:03:23Z</time>
      </trkpt>
      <trkpt lat="43.66737" lon="3.85734">
        <ele>75.5</ele>
        <time>2018-09-16T09:03:24Z</time>
      </trkpt>
      <trkpt lat="43.6674" lon="3.85745">
        <ele>75.4</ele>
        <time>2018-09-16T09:03:28Z</time>
      </trkpt>
      <trkpt lat="43.6674" lon="3.85749">
        <ele>75.4</ele>
        <time>2018-09-16T09:03:28.666Z</time>
      </trkpt>
      <trkpt lat="43.6674" lon="3.85747">
        <ele>75.4</ele>
        <time>2018-09-16T09:03:29Z</time>
      </trkpt>
      <trkpt lat="43.66728" lon="3.85726">
        <ele>75.8</ele>
        <time>2018-09-16T09:03:29.679Z</time>
      </trkpt>
      <trkpt lat="43.66657" lon="3.85831">
        <ele>81.3</ele>
        <time>2018-09-16T09:03:33.328Z</time>
      </trkpt>
      <trkpt lat="43.66633" lon="3.85823">
        <ele>81.8</ele>
        <time>2018-09-16T09:03:34.194Z</time>
      </trkpt>
      <trkpt lat="43.66616" lon="3.85696">
        <ele>78.9</ele>
        <time>2018-09-16T09:03:37.474Z</time>
      </trkpt>
      <trkpt lat="43.66559" lon="3.85687">
        <ele>80</ele>
        <time>2018-09-16T09:03:39.488Z</time>
      </trkpt>
      <trkpt lat="43.66551" lon="3.85618">
        <ele>80.2</ele>
        <time>2018-09-16T09:03:41.264Z</time>
        <extensions>
          <visugpx:TrkExtension xmlns:visugpx="https://www.visugpx.com/editgpx/">
            <visugpx:node>1</visugpx:node>
            </visugpx:TrkExtension>
        </extensions>
      </trkpt>
    </trkseg>
  </trk>
</gpx>